<?xml version='1.0' encoding='UTF-8'?><gpx version="1.1" creator="JPX - https://github.com/jenetics/jpx" xmlns="http://www.topografix.com/GPX/1/1"><trk><trkseg><trkpt lat="45.40216986181691" lon="9.843191328570796"><ele>80.0</ele><time>2026-04-23T12:48:15.253Z</time></trkpt><trkpt lat="45.40216433149159" lon="9.84328169672374"><ele>80.0</ele><time>2026-04-23T12:49:28Z</time></trkpt><trkpt lat="45.40222315746039" lon="9.843375738768"><ele>80.0</ele><time>2026-04-23T12:50:41Z</time></trkpt><trkpt lat="45.40230500554966" lon="9.843360411122575"><ele>80.0</ele><time>2026-04-23T12:51:10Z</time></trkpt><trkpt lat="45.40235562978613" lon="9.843253001682728"><ele>80.0</ele><time>2026-04-23T12:51:12Z</time></trkpt><trkpt lat="45.40242024448029" lon="9.84309888208364"><ele>80.0</ele><time>2026-04-23T12:51:14Z</time></trkpt><trkpt lat="45.40245634422646" lon="9.84299760700402"><ele>80.0</ele><time>2026-04-23T12:51:15Z</time></trkpt><trkpt lat="45.40249070913387" lon="9.842890595870042"><ele>80.0</ele><time>2026-04-23T12:51:16Z</time></trkpt><trkpt lat="45.4025266050548" lon="9.842772510669816"><ele>80.0</ele><time>2026-04-23T12:51:17Z</time></trkpt><trkpt lat="45.40256414129485" lon="9.842655919212026"><ele>80.0</ele><time>2026-04-23T12:51:18Z</time></trkpt><trkpt lat="45.40260761413449" lon="9.842536385070526"><ele>80.0</ele><time>2026-04-23T12:51:19Z</time></trkpt><trkpt lat="45.40265277005627" lon="9.84241033777327"><ele>79.6</ele><time>2026-04-23T12:51:20Z</time></trkpt><trkpt lat="45.402699457142035" lon="9.842277218337594"><ele>79.2</ele><time>2026-04-23T12:51:21Z</time></trkpt><trkpt lat="45.40274436908835" lon="9.842143135945378"><ele>78.8</ele><time>2026-04-23T12:51:22Z</time></trkpt><trkpt lat="45.40278989332469" lon="9.842014016113383"><ele>78.4</ele><time>2026-04-23T12:51:23Z</time></trkpt><trkpt lat="45.40283611940051" lon="9.841877407040277"><ele>78.0</ele><time>2026-04-23T12:51:24Z</time></trkpt><trkpt lat="45.40287640167375" lon="9.841749421524545"><ele>78.0</ele><time>2026-04-23T12:51:25Z</time></trkpt><trkpt lat="45.402910288703275" lon="9.841620629091146"><ele>78.0</ele><time>2026-04-23T12:51:26Z</time></trkpt><trkpt lat="45.40293994830839" lon="9.84148145540585"><ele>78.0</ele><time>2026-04-23T12:51:27Z</time></trkpt><trkpt lat="45.402961736318034" lon="9.841367518029175"><ele>78.0</ele><time>2026-04-23T12:51:28Z</time></trkpt><trkpt lat="45.40298160276193" lon="9.841246913783277"><ele>78.0</ele><time>2026-04-23T12:51:29Z</time></trkpt><trkpt lat="45.40299039932958" lon="9.841123325058184"><ele>78.0</ele><time>2026-04-23T12:51:30Z</time></trkpt><trkpt lat="45.402984297809326" lon="9.841003965956284"><ele>78.0</ele><time>2026-04-23T12:51:31Z</time></trkpt><trkpt lat="45.4029846146816" lon="9.840887458508007"><ele>78.0</ele><time>2026-04-23T12:51:32Z</time></trkpt><trkpt lat="45.40299446182932" lon="9.840753677225537"><ele>78.0</ele><time>2026-04-23T12:51:33Z</time></trkpt><trkpt lat="45.402998674719214" lon="9.840617044298064"><ele>78.0</ele><time>2026-04-23T12:51:34Z</time></trkpt><trkpt lat="45.40299924730639" lon="9.84049317166924"><ele>78.0</ele><time>2026-04-23T12:51:35Z</time></trkpt><trkpt lat="45.40301060091653" lon="9.840375213655442"><ele>78.0</ele><time>2026-04-23T12:51:36Z</time></trkpt><trkpt lat="45.403018392475" lon="9.840242705893148"><ele>78.0</ele><time>2026-04-23T12:51:37Z</time></trkpt><trkpt lat="45.4030272981676" lon="9.840143509553224"><ele>78.0</ele><time>2026-04-23T12:51:38Z</time></trkpt><trkpt lat="45.40304677608426" lon="9.839957353510291"><ele>78.0</ele><time>2026-04-23T12:51:40Z</time></trkpt><trkpt lat="45.40305702169137" lon="9.83983544091859"><ele>78.0</ele><time>2026-04-23T12:51:41Z</time></trkpt><trkpt lat="45.403069124466626" lon="9.839708207997944"><ele>78.16666666666667</ele><time>2026-04-23T12:51:42Z</time></trkpt><trkpt lat="45.40308039839348" lon="9.839616024744792"><ele>78.33333333333333</ele><time>2026-04-23T12:51:43Z</time></trkpt><trkpt lat="45.403091527608" lon="9.839443727202337"><ele>78.5</ele><time>2026-04-23T12:51:45Z</time></trkpt><trkpt lat="45.403102429441006" lon="9.839338026752152"><ele>78.66666666666666</ele><time>2026-04-23T12:51:46Z</time></trkpt><trkpt lat="45.40311186681456" lon="9.83922237101521"><ele>78.83333333333333</ele><time>2026-04-23T12:51:47Z</time></trkpt><trkpt lat="45.403118577982376" lon="9.83910593139854"><ele>79.0</ele><time>2026-04-23T12:51:48Z</time></trkpt><trkpt lat="45.403126459214995" lon="9.83899101579091"><ele>79.0</ele><time>2026-04-23T12:51:49Z</time></trkpt><trkpt lat="45.40313828974524" lon="9.83886985020672"><ele>79.0</ele><time>2026-04-23T12:51:50Z</time></trkpt><trkpt lat="45.403160843218835" lon="9.838754672016053"><ele>79.0</ele><time>2026-04-23T12:51:51Z</time></trkpt><trkpt lat="45.40318843538466" lon="9.83863546563252"><ele>79.0</ele><time>2026-04-23T12:51:52Z</time></trkpt><trkpt lat="45.403210808312984" lon="9.838513544147892"><ele>79.0</ele><time>2026-04-23T12:51:53Z</time></trkpt><trkpt lat="45.40323239273001" lon="9.83839551001555"><ele>79.0</ele><time>2026-04-23T12:51:54Z</time></trkpt><trkpt lat="45.403253763587365" lon="9.838277110983656"><ele>79.0</ele><time>2026-04-23T12:51:55Z</time></trkpt><trkpt lat="45.403281443335615" lon="9.838160484548498"><ele>79.0</ele><time>2026-04-23T12:51:56Z</time></trkpt><trkpt lat="45.403306418171034" lon="9.83803572120966"><ele>79.0</ele><time>2026-04-23T12:51:57Z</time></trkpt><trkpt lat="45.40332772429815" lon="9.83792391903674"><ele>79.0</ele><time>2026-04-23T12:51:58Z</time></trkpt><trkpt lat="45.4033541603177" lon="9.837795471698485"><ele>79.0</ele><time>2026-04-23T12:51:59Z</time></trkpt><trkpt lat="45.40338267151861" lon="9.83766922082286"><ele>79.0</ele><time>2026-04-23T12:52:00Z</time></trkpt><trkpt lat="45.4034052846828" lon="9.837542898255588"><ele>79.0</ele><time>2026-04-23T12:52:01Z</time></trkpt><trkpt lat="45.40342340191716" lon="9.837414202018067"><ele>79.0</ele><time>2026-04-23T12:52:02Z</time></trkpt><trkpt lat="45.403442345384015" lon="9.837284630891027"><ele>79.0</ele><time>2026-04-23T12:52:03Z</time></trkpt><trkpt lat="45.403467089148755" lon="9.83715394845917"><ele>79.0</ele><time>2026-04-23T12:52:04Z</time></trkpt><trkpt lat="45.403493249329095" lon="9.837021865060253"><ele>79.0</ele><time>2026-04-23T12:52:05Z</time></trkpt><trkpt lat="45.40351748174676" lon="9.836884253356045"><ele>78.83333333333333</ele><time>2026-04-23T12:52:06Z</time></trkpt><trkpt lat="45.40353914450524" lon="9.836755531432871"><ele>78.66666666666666</ele><time>2026-04-23T12:52:07Z</time></trkpt><trkpt lat="45.403561085294335" lon="9.836648469934289"><ele>78.5</ele><time>2026-04-23T12:52:08Z</time></trkpt><trkpt lat="45.403577675081806" lon="9.836545674133541"><ele>78.33333333333333</ele><time>2026-04-23T12:52:09.001Z</time></trkpt><trkpt lat="45.4035906890742" lon="9.836441605182937"><ele>78.16666666666667</ele><time>2026-04-23T12:52:10.001Z</time></trkpt><trkpt lat="45.40361534604774" lon="9.836338780511984"><ele>78.0</ele><time>2026-04-23T12:52:11.001Z</time></trkpt><trkpt lat="45.403638965997494" lon="9.836237574050779"><ele>78.0</ele><time>2026-04-23T12:52:12.001Z</time></trkpt><trkpt lat="45.4036614109543" lon="9.836135273878726"><ele>78.0</ele><time>2026-04-23T12:52:13.001Z</time></trkpt><trkpt lat="45.403681128264225" lon="9.836026539018036"><ele>78.0</ele><time>2026-04-23T12:52:14.001Z</time></trkpt><trkpt lat="45.40369540051565" lon="9.835907941105699"><ele>78.0</ele><time>2026-04-23T12:52:15.001Z</time></trkpt><trkpt lat="45.40371046731116" lon="9.835786000984813"><ele>78.0</ele><time>2026-04-23T12:52:16.001Z</time></trkpt><trkpt lat="45.403735924051766" lon="9.835666780028768"><ele>78.0</ele><time>2026-04-23T12:52:17.001Z</time></trkpt><trkpt lat="45.403763576203346" lon="9.835545772055426"><ele>78.0</ele><time>2026-04-23T12:52:18.001Z</time></trkpt><trkpt lat="45.403791027485234" lon="9.835424350259409"><ele>78.0</ele><time>2026-04-23T12:52:19.001Z</time></trkpt><trkpt lat="45.40381840347809" lon="9.835305959363499"><ele>78.0</ele><time>2026-04-23T12:52:20.001Z</time></trkpt><trkpt lat="45.40383883936735" lon="9.835184474140808"><ele>78.0</ele><time>2026-04-23T12:52:21.001Z</time></trkpt><trkpt lat="45.40388050041233" lon="9.835071766211051"><ele>78.0</ele><time>2026-04-23T12:52:22.001Z</time></trkpt><trkpt lat="45.40390122241448" lon="9.834951316688294"><ele>78.0</ele><time>2026-04-23T12:52:23.001Z</time></trkpt><trkpt lat="45.40392397451677" lon="9.83482743563162"><ele>78.0</ele><time>2026-04-23T12:52:24.001Z</time></trkpt><trkpt lat="45.403947094053564" lon="9.8347055726207"><ele>78.0</ele><time>2026-04-23T12:52:25.001Z</time></trkpt><trkpt lat="45.40397065891647" lon="9.834581362230873"><ele>78.0</ele><time>2026-04-23T12:52:26.001Z</time></trkpt><trkpt lat="45.403993853646305" lon="9.834453883561075"><ele>78.0</ele><time>2026-04-23T12:52:27.001Z</time></trkpt><trkpt lat="45.40401468675813" lon="9.834323748444923"><ele>78.0</ele><time>2026-04-23T12:52:28.001Z</time></trkpt><trkpt lat="45.4040168357903" lon="9.834188751052405"><ele>78.33333333333333</ele><time>2026-04-23T12:52:29.001Z</time></trkpt><trkpt lat="45.404014386174666" lon="9.834068760711723"><ele>78.66666666666667</ele><time>2026-04-23T12:52:30.001Z</time></trkpt><trkpt lat="45.40398379442802" lon="9.833950486909863"><ele>79.0</ele><time>2026-04-23T12:52:31.001Z</time></trkpt><trkpt lat="45.40397625762234" lon="9.833819482807314"><ele>79.33333333333334</ele><time>2026-04-23T12:52:32.001Z</time></trkpt><trkpt lat="45.40389458389647" lon="9.833738157671393"><ele>79.66666666666667</ele><time>2026-04-23T12:52:33.001Z</time></trkpt><trkpt lat="45.403881620793356" lon="9.83364667684371"><ele>80.0</ele><time>2026-04-23T12:52:34.001Z</time></trkpt><trkpt lat="45.40387188815675" lon="9.833513873953601"><ele>80.0</ele><time>2026-04-23T12:52:36.001Z</time></trkpt><trkpt lat="45.40380799001746" lon="9.833428377739475"><ele>80.0</ele><time>2026-04-23T12:52:39.001Z</time></trkpt><trkpt lat="45.40369466773627" lon="9.83341651351831"><ele>80.0</ele><time>2026-04-23T12:52:41.001Z</time></trkpt><trkpt lat="45.40363186932912" lon="9.833404172233026"><ele>80.0</ele><time>2026-04-23T12:52:42.001Z</time></trkpt><trkpt lat="45.40356090303507" lon="9.833386184310381"><ele>80.0</ele><time>2026-04-23T12:52:43.001Z</time></trkpt><trkpt lat="45.403489433705026" lon="9.833370286451167"><ele>80.0</ele><time>2026-04-23T12:52:44.001Z</time></trkpt><trkpt lat="45.40342107303546" lon="9.833350556112356"><ele>80.0</ele><time>2026-04-23T12:52:45.001Z</time></trkpt><trkpt lat="45.40335009895639" lon="9.83333241790268"><ele>80.0</ele><time>2026-04-23T12:52:46.001Z</time></trkpt><trkpt lat="45.403270998416076" lon="9.833320410001914"><ele>80.0</ele><time>2026-04-23T12:52:47.001Z</time></trkpt><trkpt lat="45.40318650951291" lon="9.833305260416907"><ele>80.0</ele><time>2026-04-23T12:52:48.001Z</time></trkpt><trkpt lat="45.40310950193234" lon="9.833280161578152"><ele>80.0</ele><time>2026-04-23T12:52:49.001Z</time></trkpt><trkpt lat="45.40303674169001" lon="9.83325204345456"><ele>80.0</ele><time>2026-04-23T12:52:50.001Z</time></trkpt><trkpt lat="45.40295770648906" lon="9.833226289016466"><ele>79.66666666666667</ele><time>2026-04-23T12:52:51.001Z</time></trkpt><trkpt lat="45.40287612407055" lon="9.833208082426452"><ele>79.33333333333334</ele><time>2026-04-23T12:52:52.001Z</time></trkpt><trkpt lat="45.4027990685563" lon="9.833191447980221"><ele>79.0</ele><time>2026-04-23T12:52:53.001Z</time></trkpt><trkpt lat="45.40272558366447" lon="9.833177948083357"><ele>78.66666666666667</ele><time>2026-04-23T12:52:54.001Z</time></trkpt><trkpt lat="45.40265348584991" lon="9.833160322555399"><ele>78.33333333333333</ele><time>2026-04-23T12:52:55.001Z</time></trkpt><trkpt lat="45.402579281948384" lon="9.83313910889649"><ele>78.0</ele><time>2026-04-23T12:52:56.001Z</time></trkpt><trkpt lat="45.40250406772607" lon="9.833119504090355"><ele>78.0</ele><time>2026-04-23T12:52:57.001Z</time></trkpt><trkpt lat="45.402429287364804" lon="9.833103485937741"><ele>78.0</ele><time>2026-04-23T12:52:58.001Z</time></trkpt><trkpt lat="45.40235351474339" lon="9.833088082616252"><ele>78.0</ele><time>2026-04-23T12:52:59.001Z</time></trkpt><trkpt lat="45.4022754294947" lon="9.833064124359753"><ele>78.0</ele><time>2026-04-23T12:53:00.001Z</time></trkpt><trkpt lat="45.402200458132924" lon="9.833043494038447"><ele>78.0</ele><time>2026-04-23T12:53:01.001Z</time></trkpt><trkpt lat="45.40212266869718" lon="9.833027992519451"><ele>78.0</ele><time>2026-04-23T12:53:02.001Z</time></trkpt><trkpt lat="45.402047926812145" lon="9.833004240598994"><ele>78.0</ele><time>2026-04-23T12:53:03.001Z</time></trkpt><trkpt lat="45.40196830463056" lon="9.832973886794532"><ele>78.0</ele><time>2026-04-23T12:53:04.001Z</time></trkpt><trkpt lat="45.40189497048082" lon="9.832952380093413"><ele>78.0</ele><time>2026-04-23T12:53:05.001Z</time></trkpt><trkpt lat="45.401830924880734" lon="9.832937881412164"><ele>78.0</ele><time>2026-04-23T12:53:06.001Z</time></trkpt><trkpt lat="45.40176716819981" lon="9.832909167548708"><ele>78.0</ele><time>2026-04-23T12:53:07.001Z</time></trkpt><trkpt lat="45.401706571635735" lon="9.832862135134366"><ele>78.0</ele><time>2026-04-23T12:53:08.001Z</time></trkpt><trkpt lat="45.40164444684235" lon="9.832806052141345"><ele>78.0</ele><time>2026-04-23T12:53:09.001Z</time></trkpt><trkpt lat="45.40158316058679" lon="9.83273792150632"><ele>78.0</ele><time>2026-04-23T12:53:10.001Z</time></trkpt><trkpt lat="45.40152791335318" lon="9.832665896871818"><ele>78.0</ele><time>2026-04-23T12:53:11.001Z</time></trkpt><trkpt lat="45.40146929829965" lon="9.832597698615572"><ele>78.0</ele><time>2026-04-23T12:53:12.001Z</time></trkpt><trkpt lat="45.40141415246574" lon="9.832534250841032"><ele>78.0</ele><time>2026-04-23T12:53:13.001Z</time></trkpt><trkpt lat="45.401359271479436" lon="9.832472447258974"><ele>78.0</ele><time>2026-04-23T12:53:14.001Z</time></trkpt><trkpt lat="45.40130565958417" lon="9.832399145951888"><ele>78.0</ele><time>2026-04-23T12:53:15.001Z</time></trkpt><trkpt lat="45.401254223501304" lon="9.83232694368143"><ele>78.0</ele><time>2026-04-23T12:53:16.001Z</time></trkpt><trkpt lat="45.40120134109356" lon="9.832246943837637"><ele>78.33333333333333</ele><time>2026-04-23T12:53:17.001Z</time></trkpt><trkpt lat="45.40114419540363" lon="9.832167908976526"><ele>78.66666666666667</ele><time>2026-04-23T12:53:18.001Z</time></trkpt><trkpt lat="45.401094923403086" lon="9.832101379750073"><ele>79.0</ele><time>2026-04-23T12:53:19.001Z</time></trkpt><trkpt lat="45.40102927343804" lon="9.832051500326124"><ele>79.33333333333334</ele><time>2026-04-23T12:53:20.001Z</time></trkpt><trkpt lat="45.40096460136918" lon="9.831994514663288"><ele>79.66666666666667</ele><time>2026-04-23T12:53:21.001Z</time></trkpt><trkpt lat="45.40090257522009" lon="9.831934229808793"><ele>80.0</ele><time>2026-04-23T12:53:22.001Z</time></trkpt><trkpt lat="45.40083254874965" lon="9.831885760467511"><ele>80.0</ele><time>2026-04-23T12:53:23.001Z</time></trkpt><trkpt lat="45.400763353311" lon="9.83185247958946"><ele>80.0</ele><time>2026-04-23T12:53:24.001Z</time></trkpt><trkpt lat="45.400699233733356" lon="9.83181315708228"><ele>80.0</ele><time>2026-04-23T12:53:25.001Z</time></trkpt><trkpt lat="45.400617546445105" lon="9.831780956042733"><ele>80.0</ele><time>2026-04-23T12:53:26.001Z</time></trkpt><trkpt lat="45.40054012126334" lon="9.831751303280027"><ele>80.0</ele><time>2026-04-23T12:53:27.001Z</time></trkpt><trkpt lat="45.400469688620205" lon="9.83172852492772"><ele>80.0</ele><time>2026-04-23T12:53:28.001Z</time></trkpt><trkpt lat="45.400404740592656" lon="9.831723402648835"><ele>80.0</ele><time>2026-04-23T12:53:29.001Z</time></trkpt><trkpt lat="45.4003305968518" lon="9.831725030110439"><ele>80.0</ele><time>2026-04-23T12:53:30.001Z</time></trkpt><trkpt lat="45.40026173908948" lon="9.831710043966375"><ele>80.0</ele><time>2026-04-23T12:53:31.001Z</time></trkpt><trkpt lat="45.40019635324533" lon="9.831687292040359"><ele>80.0</ele><time>2026-04-23T12:53:32.001Z</time></trkpt><trkpt lat="45.40013655792349" lon="9.831649224713368"><ele>80.0</ele><time>2026-04-23T12:53:33.001Z</time></trkpt><trkpt lat="45.40006121111134" lon="9.831607218488585"><ele>80.0</ele><time>2026-04-23T12:53:34.001Z</time></trkpt><trkpt lat="45.39997959781426" lon="9.831579581011319"><ele>80.0</ele><time>2026-04-23T12:53:35.001Z</time></trkpt><trkpt lat="45.39990041252586" lon="9.83157280461051"><ele>80.0</ele><time>2026-04-23T12:53:36.001Z</time></trkpt><trkpt lat="45.39981429962746" lon="9.831583444692878"><ele>80.0</ele><time>2026-04-23T12:53:37.001Z</time></trkpt><trkpt lat="45.3997210082011" lon="9.831608739243787"><ele>80.0</ele><time>2026-04-23T12:53:38.001Z</time></trkpt><trkpt lat="45.3996276946704" lon="9.831651003879758"><ele>80.0</ele><time>2026-04-23T12:53:39.001Z</time></trkpt><trkpt lat="45.399535454690074" lon="9.831706641437579"><ele>80.0</ele><time>2026-04-23T12:53:40.001Z</time></trkpt><trkpt lat="45.399447547927544" lon="9.831776390920831"><ele>80.0</ele><time>2026-04-23T12:53:41.001Z</time></trkpt><trkpt lat="45.39936325089308" lon="9.83185716752997"><ele>79.6</ele><time>2026-04-23T12:53:42.001Z</time></trkpt><trkpt lat="45.399280854225225" lon="9.831938992071242"><ele>79.2</ele><time>2026-04-23T12:53:43.001Z</time></trkpt><trkpt lat="45.39919159525889" lon="9.832002461605548"><ele>78.8</ele><time>2026-04-23T12:53:44.001Z</time></trkpt><trkpt lat="45.399096398537154" lon="9.832052840603744"><ele>78.4</ele><time>2026-04-23T12:53:45.001Z</time></trkpt><trkpt lat="45.398998177295304" lon="9.832083916604105"><ele>78.0</ele><time>2026-04-23T12:53:46.001Z</time></trkpt><trkpt lat="45.39890200098854" lon="9.832116364459397"><ele>77.8</ele><time>2026-04-23T12:53:47.001Z</time></trkpt><trkpt lat="45.39880513153019" lon="9.832156852577953"><ele>77.6</ele><time>2026-04-23T12:53:48.001Z</time></trkpt><trkpt lat="45.39871390542125" lon="9.83219556828889"><ele>77.4</ele><time>2026-04-23T12:53:49.001Z</time></trkpt><trkpt lat="45.39862969349396" lon="9.83223096292008"><ele>77.2</ele><time>2026-04-23T12:53:50.001Z</time></trkpt><trkpt lat="45.39854314976108" lon="9.832266034415241"><ele>77.0</ele><time>2026-04-23T12:53:51.001Z</time></trkpt><trkpt lat="45.398450043947264" lon="9.832305181927348"><ele>77.0</ele><time>2026-04-23T12:53:52.001Z</time></trkpt><trkpt lat="45.39836239166373" lon="9.832343821155572"><ele>77.0</ele><time>2026-04-23T12:53:53.001Z</time></trkpt><trkpt lat="45.39826997441198" lon="9.832378789875413"><ele>77.0</ele><time>2026-04-23T12:53:54.001Z</time></trkpt><trkpt lat="45.398175553343464" lon="9.83240595099947"><ele>77.0</ele><time>2026-04-23T12:53:55.001Z</time></trkpt><trkpt lat="45.398073330691616" lon="9.832420306024591"><ele>77.0</ele><time>2026-04-23T12:53:56.001Z</time></trkpt><trkpt lat="45.39797120596609" lon="9.832425974964863"><ele>77.4</ele><time>2026-04-23T12:53:57.001Z</time></trkpt><trkpt lat="45.39787154783405" lon="9.832422739005642"><ele>77.80000000000001</ele><time>2026-04-23T12:53:58.001Z</time></trkpt><trkpt lat="45.39776634491084" lon="9.83241772260406"><ele>78.2</ele><time>2026-04-23T12:53:59.001Z</time></trkpt><trkpt lat="45.39766707076343" lon="9.832411162239326"><ele>78.60000000000001</ele><time>2026-04-23T12:54:00.001Z</time></trkpt><trkpt lat="45.39757442133643" lon="9.832404715629941"><ele>79.0</ele><time>2026-04-23T12:54:01.001Z</time></trkpt><trkpt lat="45.39748129790977" lon="9.83240364601513"><ele>79.0</ele><time>2026-04-23T12:54:02.001Z</time></trkpt><trkpt lat="45.39738740262297" lon="9.832412655623449"><ele>79.0</ele><time>2026-04-23T12:54:03.001Z</time></trkpt><trkpt lat="45.39728727452598" lon="9.832421271950684"><ele>79.0</ele><time>2026-04-23T12:54:04.001Z</time></trkpt><trkpt lat="45.397187649599324" lon="9.832425683389353"><ele>79.0</ele><time>2026-04-23T12:54:05.001Z</time></trkpt><trkpt lat="45.397085558561365" lon="9.832425562916006"><ele>79.0</ele><time>2026-04-23T12:54:06.001Z</time></trkpt><trkpt lat="45.39697822589954" lon="9.832423412299054"><ele>78.4</ele><time>2026-04-23T12:54:07.001Z</time></trkpt><trkpt lat="45.3968696783856" lon="9.832423097457994"><ele>77.80000000000001</ele><time>2026-04-23T12:54:08Z</time></trkpt><trkpt lat="45.396761826905596" lon="9.83242333095678"><ele>77.19999999999999</ele><time>2026-04-23T12:54:09Z</time></trkpt><trkpt lat="45.3966674692513" lon="9.832424061218616"><ele>76.6</ele><time>2026-04-23T12:54:10Z</time></trkpt><trkpt lat="45.396579187782535" lon="9.83241718388843"><ele>76.0</ele><time>2026-04-23T12:54:11Z</time></trkpt><trkpt lat="45.39649250878244" lon="9.832402658497047"><ele>76.0</ele><time>2026-04-23T12:54:12Z</time></trkpt><trkpt lat="45.396404741617026" lon="9.832371479101495"><ele>76.0</ele><time>2026-04-23T12:54:13Z</time></trkpt><trkpt lat="45.39632456019655" lon="9.832317284136444"><ele>76.0</ele><time>2026-04-23T12:54:14Z</time></trkpt><trkpt lat="45.396254130168394" lon="9.832238204056376"><ele>76.0</ele><time>2026-04-23T12:54:15Z</time></trkpt><trkpt lat="45.39619349619315" lon="9.832142394751303"><ele>76.0</ele><time>2026-04-23T12:54:16Z</time></trkpt><trkpt lat="45.39612957351714" lon="9.832040968127352"><ele>76.0</ele><time>2026-04-23T12:54:17Z</time></trkpt><trkpt lat="45.3960553241112" lon="9.831952839490956"><ele>76.0</ele><time>2026-04-23T12:54:18Z</time></trkpt><trkpt lat="45.395980296276015" lon="9.831894713385353"><ele>76.0</ele><time>2026-04-23T12:54:19Z</time></trkpt><trkpt lat="45.395904830410146" lon="9.83185359597464"><ele>76.0</ele><time>2026-04-23T12:54:20Z</time></trkpt><trkpt lat="45.39582849528909" lon="9.831812351160382"><ele>76.0</ele><time>2026-04-23T12:54:21Z</time></trkpt><trkpt lat="45.39574242098571" lon="9.831765011719929"><ele>76.0</ele><time>2026-04-23T12:54:22Z</time></trkpt><trkpt lat="45.395652887878754" lon="9.831704434269216"><ele>76.0</ele><time>2026-04-23T12:54:23Z</time></trkpt><trkpt lat="45.39556896196113" lon="9.831632191222324"><ele>76.0</ele><time>2026-04-23T12:54:24Z</time></trkpt><trkpt lat="45.395489537959335" lon="9.831546651691966"><ele>76.0</ele><time>2026-04-23T12:54:25Z</time></trkpt><trkpt lat="45.39542124349495" lon="9.831450699427231"><ele>76.0</ele><time>2026-04-23T12:54:26Z</time></trkpt><trkpt lat="45.39535785766959" lon="9.83134509937551"><ele>76.0</ele><time>2026-04-23T12:54:27Z</time></trkpt><trkpt lat="45.395296200754636" lon="9.831244242062798"><ele>76.0</ele><time>2026-04-23T12:54:28Z</time></trkpt><trkpt lat="45.395229297763436" lon="9.831144538216837"><ele>76.0</ele><time>2026-04-23T12:54:29Z</time></trkpt><trkpt lat="45.39515618346019" lon="9.831056992772806"><ele>76.0</ele><time>2026-04-23T12:54:30Z</time></trkpt><trkpt lat="45.39508215351282" lon="9.830987981761474"><ele>76.0</ele><time>2026-04-23T12:54:31Z</time></trkpt><trkpt lat="45.39501929283624" lon="9.830958633381012"><ele>76.0</ele><time>2026-04-23T12:54:32Z</time></trkpt><trkpt lat="45.394950535566316" lon="9.830950453055074"><ele>76.0</ele><time>2026-04-23T12:54:33.001Z</time></trkpt><trkpt lat="45.394871396676145" lon="9.83095468591254"><ele>76.16666666666666</ele><time>2026-04-23T12:54:34.001Z</time></trkpt><trkpt lat="45.39478332752247" lon="9.830961321246225"><ele>76.33333333333333</ele><time>2026-04-23T12:54:35.001Z</time></trkpt><trkpt lat="45.39469904584998" lon="9.830964410369036"><ele>76.5</ele><time>2026-04-23T12:54:36.001Z</time></trkpt><trkpt lat="45.39462241632061" lon="9.830966489840666"><ele>76.66666666666667</ele><time>2026-04-23T12:54:37.001Z</time></trkpt><trkpt lat="45.39455049034518" lon="9.830985055485256"><ele>76.83333333333334</ele><time>2026-04-23T12:54:38.001Z</time></trkpt><trkpt lat="45.39447164590137" lon="9.831009931025275"><ele>77.0</ele><time>2026-04-23T12:54:39.001Z</time></trkpt><trkpt lat="45.39440683404414" lon="9.831036106270783"><ele>77.0</ele><time>2026-04-23T12:54:40.001Z</time></trkpt><trkpt lat="45.39432358184008" lon="9.831096629616818"><ele>77.0</ele><time>2026-04-23T12:54:42.001Z</time></trkpt><trkpt lat="45.3942250628508" lon="9.831176603997621"><ele>77.0</ele><time>2026-04-23T12:54:44.001Z</time></trkpt><trkpt lat="45.39416826020665" lon="9.831221476501938"><ele>77.0</ele><time>2026-04-23T12:54:45.001Z</time></trkpt><trkpt lat="45.3941130373293" lon="9.831265811642574"><ele>77.0</ele><time>2026-04-23T12:54:46.001Z</time></trkpt><trkpt lat="45.39405660374901" lon="9.831310485889254"><ele>77.0</ele><time>2026-04-23T12:54:47.001Z</time></trkpt><trkpt lat="45.39399582670519" lon="9.831356504421384"><ele>77.0</ele><time>2026-04-23T12:54:48.001Z</time></trkpt><trkpt lat="45.39393327132034" lon="9.831405016006855"><ele>77.0</ele><time>2026-04-23T12:54:49.001Z</time></trkpt><trkpt lat="45.39387147323582" lon="9.83145381690864"><ele>77.0</ele><time>2026-04-23T12:54:50.001Z</time></trkpt><trkpt lat="45.39380390791409" lon="9.831509758307815"><ele>77.0</ele><time>2026-04-23T12:54:51.001Z</time></trkpt><trkpt lat="45.39372964785554" lon="9.831560973637677"><ele>77.0</ele><time>2026-04-23T12:54:52.001Z</time></trkpt><trkpt lat="45.393650628143945" lon="9.831608209636986"><ele>77.0</ele><time>2026-04-23T12:54:53.001Z</time></trkpt><trkpt lat="45.39356151748224" lon="9.831646688110094"><ele>76.66666666666667</ele><time>2026-04-23T12:54:54.001Z</time></trkpt><trkpt lat="45.3934801072232" lon="9.831662223773991"><ele>76.33333333333334</ele><time>2026-04-23T12:54:55.001Z</time></trkpt><trkpt lat="45.39341486887504" lon="9.831665987599731"><ele>76.0</ele><time>2026-04-23T12:54:56.001Z</time></trkpt><trkpt lat="45.3933284149329" lon="9.831671313465584"><ele>75.66666666666667</ele><time>2026-04-23T12:54:57.001Z</time></trkpt><trkpt lat="45.39324325028979" lon="9.831679877297104"><ele>75.33333333333333</ele><time>2026-04-23T12:54:58.001Z</time></trkpt><trkpt lat="45.393123277301186" lon="9.83169842691162"><ele>75.0</ele><time>2026-04-23T12:55:00.001Z</time></trkpt><trkpt lat="45.39304658285182" lon="9.831706422556298"><ele>74.83333333333333</ele><time>2026-04-23T12:55:01.001Z</time></trkpt><trkpt lat="45.39295880410552" lon="9.831722905710345"><ele>74.66666666666667</ele><time>2026-04-23T12:55:02.001Z</time></trkpt><trkpt lat="45.39289442269743" lon="9.831737919498872"><ele>74.5</ele><time>2026-04-23T12:55:03.001Z</time></trkpt><trkpt lat="45.392828545827115" lon="9.831750137897505"><ele>74.33333333333334</ele><time>2026-04-23T12:55:04.001Z</time></trkpt><trkpt lat="45.392754703050834" lon="9.831771366330418"><ele>74.16666666666667</ele><time>2026-04-23T12:55:05.001Z</time></trkpt><trkpt lat="45.39267377494198" lon="9.83179787179017"><ele>74.0</ele><time>2026-04-23T12:55:06.001Z</time></trkpt><trkpt lat="45.39258255765547" lon="9.83183278569528"><ele>74.0</ele><time>2026-04-23T12:55:07.001Z</time></trkpt><trkpt lat="45.39249156794219" lon="9.831866489376733"><ele>74.0</ele><time>2026-04-23T12:55:08.001Z</time></trkpt><trkpt lat="45.39239615345111" lon="9.831897776195468"><ele>74.0</ele><time>2026-04-23T12:55:09.001Z</time></trkpt><trkpt lat="45.39230159167768" lon="9.831928196128686"><ele>74.0</ele><time>2026-04-23T12:55:10.001Z</time></trkpt><trkpt lat="45.3922041494799" lon="9.83196370669505"><ele>74.0</ele><time>2026-04-23T12:55:11.001Z</time></trkpt><trkpt lat="45.39210667156462" lon="9.831995513813958"><ele>74.2</ele><time>2026-04-23T12:55:12.001Z</time></trkpt><trkpt lat="45.39200898441588" lon="9.832020830786888"><ele>74.4</ele><time>2026-04-23T12:55:13.001Z</time></trkpt><trkpt lat="45.391912456712895" lon="9.832044379539756"><ele>74.6</ele><time>2026-04-23T12:55:14.001Z</time></trkpt><trkpt lat="45.39181581219624" lon="9.832063911084546"><ele>74.8</ele><time>2026-04-23T12:55:15.001Z</time></trkpt><trkpt lat="45.39171974042138" lon="9.832075247285145"><ele>75.0</ele><time>2026-04-23T12:55:16.001Z</time></trkpt><trkpt lat="45.39162229390323" lon="9.83208925862204"><ele>75.0</ele><time>2026-04-23T12:55:17.001Z</time></trkpt><trkpt lat="45.39152242591355" lon="9.832109046500815"><ele>75.0</ele><time>2026-04-23T12:55:18.001Z</time></trkpt><trkpt lat="45.39142138462301" lon="9.832131850726105"><ele>75.0</ele><time>2026-04-23T12:55:19.001Z</time></trkpt><trkpt lat="45.391311458810314" lon="9.832150659026823"><ele>75.0</ele><time>2026-04-23T12:55:20.001Z</time></trkpt><trkpt lat="45.391202412088035" lon="9.832159710793773"><ele>75.0</ele><time>2026-04-23T12:55:21.001Z</time></trkpt><trkpt lat="45.39110585397726" lon="9.83215786116664"><ele>75.2</ele><time>2026-04-23T12:55:22.001Z</time></trkpt><trkpt lat="45.391008649622094" lon="9.832154500522096"><ele>75.4</ele><time>2026-04-23T12:55:23.001Z</time></trkpt><trkpt lat="45.3909096461669" lon="9.832156940017192"><ele>75.6</ele><time>2026-04-23T12:55:24.001Z</time></trkpt><trkpt lat="45.39080595658052" lon="9.832165653794632"><ele>75.8</ele><time>2026-04-23T12:55:25.001Z</time></trkpt><trkpt lat="45.39069692206702" lon="9.832180089218555"><ele>76.0</ele><time>2026-04-23T12:55:26.001Z</time></trkpt><trkpt lat="45.390594443918864" lon="9.832197827154273"><ele>76.0</ele><time>2026-04-23T12:55:27.001Z</time></trkpt><trkpt lat="45.39050110426184" lon="9.83222018696389"><ele>76.0</ele><time>2026-04-23T12:55:28.001Z</time></trkpt><trkpt lat="45.39040650525896" lon="9.832240899641313"><ele>76.0</ele><time>2026-04-23T12:55:29Z</time></trkpt><trkpt lat="45.39031219105378" lon="9.832258679925868"><ele>76.0</ele><time>2026-04-23T12:55:30Z</time></trkpt><trkpt lat="45.3902180778539" lon="9.832269930246625"><ele>76.0</ele><time>2026-04-23T12:55:31Z</time></trkpt><trkpt lat="45.39012225165602" lon="9.832280876870954"><ele>76.0</ele><time>2026-04-23T12:55:32Z</time></trkpt><trkpt lat="45.39003365587745" lon="9.832283892974782"><ele>76.0</ele><time>2026-04-23T12:55:33Z</time></trkpt><trkpt lat="45.38994055386657" lon="9.832297257995084"><ele>76.0</ele><time>2026-04-23T12:55:34Z</time></trkpt><trkpt lat="45.38984805683447" lon="9.832319324970799"><ele>76.0</ele><time>2026-04-23T12:55:35Z</time></trkpt><trkpt lat="45.38975199692687" lon="9.832343554496271"><ele>76.0</ele><time>2026-04-23T12:55:36Z</time></trkpt><trkpt lat="45.38965932498573" lon="9.832362027647076"><ele>75.8</ele><time>2026-04-23T12:55:37Z</time></trkpt><trkpt lat="45.38956497124398" lon="9.832385081546377"><ele>75.6</ele><time>2026-04-23T12:55:38Z</time></trkpt><trkpt lat="45.38946835903595" lon="9.832399940095126"><ele>75.4</ele><time>2026-04-23T12:55:39Z</time></trkpt><trkpt lat="45.38938093401328" lon="9.832403179788702"><ele>75.2</ele><time>2026-04-23T12:55:40Z</time></trkpt><trkpt lat="45.38929568765448" lon="9.832394175554128"><ele>75.0</ele><time>2026-04-23T12:55:41Z</time></trkpt><trkpt lat="45.389205803785394" lon="9.832367913815204"><ele>75.0</ele><time>2026-04-23T12:55:42Z</time></trkpt><trkpt lat="45.38912026876499" lon="9.832321904255542"><ele>75.0</ele><time>2026-04-23T12:55:43Z</time></trkpt><trkpt lat="45.38903988641471" lon="9.832258042941207"><ele>75.0</ele><time>2026-04-23T12:55:44Z</time></trkpt><trkpt lat="45.38895992933648" lon="9.832190315113788"><ele>75.0</ele><time>2026-04-23T12:55:45Z</time></trkpt><trkpt lat="45.38888366599307" lon="9.832127768500435"><ele>75.0</ele><time>2026-04-23T12:55:46Z</time></trkpt><trkpt lat="45.3888044751337" lon="9.832070317087757"><ele>74.83333333333333</ele><time>2026-04-23T12:55:47Z</time></trkpt><trkpt lat="45.38871876889871" lon="9.83201497997593"><ele>74.66666666666667</ele><time>2026-04-23T12:55:48Z</time></trkpt><trkpt lat="45.388632610189575" lon="9.831965053570576"><ele>74.5</ele><time>2026-04-23T12:55:49Z</time></trkpt><trkpt lat="45.38855585276731" lon="9.831935983454596"><ele>74.33333333333334</ele><time>2026-04-23T12:55:50Z</time></trkpt><trkpt lat="45.388478379919995" lon="9.831929007359975"><ele>74.16666666666667</ele><time>2026-04-23T12:55:51Z</time></trkpt><trkpt lat="45.38839679836763" lon="9.831927821932634"><ele>74.0</ele><time>2026-04-23T12:55:52Z</time></trkpt><trkpt lat="45.388307933799254" lon="9.831923537845254"><ele>74.0</ele><time>2026-04-23T12:55:53Z</time></trkpt><trkpt lat="45.388217807401105" lon="9.831921568093655"><ele>74.0</ele><time>2026-04-23T12:55:54Z</time></trkpt><trkpt lat="45.388125914797484" lon="9.83192380370498"><ele>74.0</ele><time>2026-04-23T12:55:55Z</time></trkpt><trkpt lat="45.38803857495113" lon="9.831916374015966"><ele>74.0</ele><time>2026-04-23T12:55:56Z</time></trkpt><trkpt lat="45.3879464387294" lon="9.831916649506779"><ele>74.0</ele><time>2026-04-23T12:55:57Z</time></trkpt><trkpt lat="45.387866039059865" lon="9.8319157651176"><ele>74.0</ele><time>2026-04-23T12:55:58Z</time></trkpt><trkpt lat="45.38775403524913" lon="9.831916230101527"><ele>74.2</ele><time>2026-04-23T12:56:00Z</time></trkpt><trkpt lat="45.38762449332249" lon="9.831931927274555"><ele>74.4</ele><time>2026-04-23T12:56:02Z</time></trkpt><trkpt lat="45.38755209444611" lon="9.83193735467421"><ele>74.6</ele><time>2026-04-23T12:56:03Z</time></trkpt><trkpt lat="45.38747920940884" lon="9.831945261298486"><ele>74.8</ele><time>2026-04-23T12:56:04Z</time></trkpt><trkpt lat="45.38733775197852" lon="9.831964577657766"><ele>75.0</ele><time>2026-04-23T12:56:06Z</time></trkpt><trkpt lat="45.387263396531004" lon="9.831968550533631"><ele>75.0</ele><time>2026-04-23T12:56:07Z</time></trkpt><trkpt lat="45.38718770011477" lon="9.83196271557098"><ele>75.0</ele><time>2026-04-23T12:56:08Z</time></trkpt><trkpt lat="45.38710986524693" lon="9.831946147139178"><ele>75.0</ele><time>2026-04-23T12:56:09Z</time></trkpt><trkpt lat="45.38703225712301" lon="9.831918473183999"><ele>75.0</ele><time>2026-04-23T12:56:10Z</time></trkpt><trkpt lat="45.38695721771874" lon="9.831858561157647"><ele>75.0</ele><time>2026-04-23T12:56:11Z</time></trkpt><trkpt lat="45.38687199269677" lon="9.831849567721122"><ele>75.0</ele><time>2026-04-23T12:56:12Z</time></trkpt><trkpt lat="45.38680605111982" lon="9.831815545765144"><ele>75.0</ele><time>2026-04-23T12:56:13Z</time></trkpt><trkpt lat="45.386740782447546" lon="9.831777179152885"><ele>75.0</ele><time>2026-04-23T12:56:14Z</time></trkpt><trkpt lat="45.38667698293785" lon="9.831736363694269"><ele>75.0</ele><time>2026-04-23T12:56:15Z</time></trkpt><trkpt lat="45.38661219372235" lon="9.831697103942394"><ele>75.0</ele><time>2026-04-23T12:56:16Z</time></trkpt><trkpt lat="45.386535093967225" lon="9.83167525843587"><ele>75.0</ele><time>2026-04-23T12:56:17Z</time></trkpt><trkpt lat="45.38642985488727" lon="9.831657864954956"><ele>75.0</ele><time>2026-04-23T12:56:18Z</time></trkpt><trkpt lat="45.386327316840585" lon="9.831639944725122"><ele>75.0</ele><time>2026-04-23T12:56:19Z</time></trkpt><trkpt lat="45.38624165405631" lon="9.831620627492265"><ele>75.0</ele><time>2026-04-23T12:56:20Z</time></trkpt><trkpt lat="45.386157694592065" lon="9.831601005309533"><ele>75.0</ele><time>2026-04-23T12:56:21Z</time></trkpt><trkpt lat="45.386069436779586" lon="9.831573980531607"><ele>75.0</ele><time>2026-04-23T12:56:22Z</time></trkpt><trkpt lat="45.38597572110975" lon="9.831546351878155"><ele>75.0</ele><time>2026-04-23T12:56:23Z</time></trkpt><trkpt lat="45.38588278343003" lon="9.831524045815364"><ele>75.0</ele><time>2026-04-23T12:56:24Z</time></trkpt><trkpt lat="45.385790839874794" lon="9.831500754247129"><ele>75.0</ele><time>2026-04-23T12:56:25Z</time></trkpt><trkpt lat="45.38569751868397" lon="9.831472160271549"><ele>75.0</ele><time>2026-04-23T12:56:26Z</time></trkpt><trkpt lat="45.385606801597085" lon="9.8314356553626"><ele>75.0</ele><time>2026-04-23T12:56:27Z</time></trkpt><trkpt lat="45.385514838867074" lon="9.83139770354813"><ele>75.0</ele><time>2026-04-23T12:56:28Z</time></trkpt><trkpt lat="45.38543087379998" lon="9.831361874617663"><ele>74.8</ele><time>2026-04-23T12:56:29Z</time></trkpt><trkpt lat="45.38533179603809" lon="9.831334470344176"><ele>74.6</ele><time>2026-04-23T12:56:30Z</time></trkpt><trkpt lat="45.38523589255092" lon="9.831305046788142"><ele>74.4</ele><time>2026-04-23T12:56:31Z</time></trkpt><trkpt lat="45.385142308054874" lon="9.831281463327048"><ele>74.2</ele><time>2026-04-23T12:56:32Z</time></trkpt><trkpt lat="45.38504636539681" lon="9.831265002455249"><ele>74.0</ele><time>2026-04-23T12:56:33Z</time></trkpt><trkpt lat="45.3849505535576" lon="9.831248152656674"><ele>74.0</ele><time>2026-04-23T12:56:34Z</time></trkpt><trkpt lat="45.384858866071575" lon="9.83122931013813"><ele>74.0</ele><time>2026-04-23T12:56:35Z</time></trkpt><trkpt lat="45.38476686442913" lon="9.831212354835165"><ele>74.0</ele><time>2026-04-23T12:56:36Z</time></trkpt><trkpt lat="45.38467310377815" lon="9.831197468985104"><ele>74.0</ele><time>2026-04-23T12:56:37Z</time></trkpt><trkpt lat="45.384582327218496" lon="9.831176573412247"><ele>74.0</ele><time>2026-04-23T12:56:38Z</time></trkpt><trkpt lat="45.38448739929202" lon="9.831154576075582"><ele>74.0</ele><time>2026-04-23T12:56:39.001Z</time></trkpt><trkpt lat="45.38439228316499" lon="9.831131631964176"><ele>74.0</ele><time>2026-04-23T12:56:40.001Z</time></trkpt><trkpt lat="45.38429642695058" lon="9.831106775244821"><ele>74.0</ele><time>2026-04-23T12:56:41.001Z</time></trkpt><trkpt lat="45.384201333977146" lon="9.8310801452159"><ele>74.0</ele><time>2026-04-23T12:56:42.001Z</time></trkpt><trkpt lat="45.384105226122564" lon="9.831051905365584"><ele>74.0</ele><time>2026-04-23T12:56:43.001Z</time></trkpt><trkpt lat="45.384009869825626" lon="9.831023521080056"><ele>74.0</ele><time>2026-04-23T12:56:44.001Z</time></trkpt><trkpt lat="45.383914074376165" lon="9.830998201443435"><ele>74.0</ele><time>2026-04-23T12:56:45.001Z</time></trkpt><trkpt lat="45.383825367484235" lon="9.830976360270425"><ele>74.0</ele><time>2026-04-23T12:56:46.001Z</time></trkpt><trkpt lat="45.38373998122355" lon="9.830952829940033"><ele>74.0</ele><time>2026-04-23T12:56:47.001Z</time></trkpt><trkpt lat="45.38365221289789" lon="9.830926807266803"><ele>74.0</ele><time>2026-04-23T12:56:48.001Z</time></trkpt><trkpt lat="45.383563356458936" lon="9.83090109546801"><ele>73.83333333333334</ele><time>2026-04-23T12:56:49.001Z</time></trkpt><trkpt lat="45.38347791776228" lon="9.830876337658768"><ele>73.66666666666667</ele><time>2026-04-23T12:56:50.001Z</time></trkpt><trkpt lat="45.38340053432249" lon="9.830851761628427"><ele>73.5</ele><time>2026-04-23T12:56:51.001Z</time></trkpt><trkpt lat="45.38332929145912" lon="9.830825965796024"><ele>73.33333333333333</ele><time>2026-04-23T12:56:52.001Z</time></trkpt><trkpt lat="45.383262632878356" lon="9.830791684782383"><ele>73.16666666666666</ele><time>2026-04-23T12:56:53.001Z</time></trkpt><trkpt lat="45.38319315782705" lon="9.830745365454407"><ele>73.0</ele><time>2026-04-23T12:56:54.001Z</time></trkpt><trkpt lat="45.38311954981686" lon="9.830695781885561"><ele>73.0</ele><time>2026-04-23T12:56:55.001Z</time></trkpt><trkpt lat="45.383040716460584" lon="9.830640812750255"><ele>73.0</ele><time>2026-04-23T12:56:56.001Z</time></trkpt><trkpt lat="45.3829638877972" lon="9.830592629121128"><ele>73.0</ele><time>2026-04-23T12:56:57.001Z</time></trkpt><trkpt lat="45.382895258586736" lon="9.830547208489335"><ele>73.0</ele><time>2026-04-23T12:56:58.001Z</time></trkpt><trkpt lat="45.382831624620856" lon="9.83049906130128"><ele>73.0</ele><time>2026-04-23T12:56:59.001Z</time></trkpt><trkpt lat="45.38275695716583" lon="9.830445265947105"><ele>73.0</ele><time>2026-04-23T12:57:00.001Z</time></trkpt><trkpt lat="45.38268248923283" lon="9.830394389242104"><ele>73.0</ele><time>2026-04-23T12:57:01.001Z</time></trkpt><trkpt lat="45.382614129369095" lon="9.830341949564554"><ele>73.0</ele><time>2026-04-23T12:57:02.001Z</time></trkpt><trkpt lat="45.3825397702001" lon="9.830284095150212"><ele>73.0</ele><time>2026-04-23T12:57:03.001Z</time></trkpt><trkpt lat="45.38245592064744" lon="9.83022561214957"><ele>73.0</ele><time>2026-04-23T12:57:04.001Z</time></trkpt><trkpt lat="45.38236954146131" lon="9.830170902878594"><ele>73.0</ele><time>2026-04-23T12:57:05.001Z</time></trkpt><trkpt lat="45.38228394490641" lon="9.830126673345621"><ele>73.0</ele><time>2026-04-23T12:57:06.001Z</time></trkpt><trkpt lat="45.382191250417634" lon="9.830093533729032"><ele>73.4</ele><time>2026-04-23T12:57:07.001Z</time></trkpt><trkpt lat="45.382092720636216" lon="9.83007246680037"><ele>73.8</ele><time>2026-04-23T12:57:08.001Z</time></trkpt><trkpt lat="45.38199003836219" lon="9.830068408617604"><ele>74.2</ele><time>2026-04-23T12:57:09.001Z</time></trkpt><trkpt lat="45.38188439389583" lon="9.830068491140292"><ele>74.6</ele><time>2026-04-23T12:57:10.001Z</time></trkpt><trkpt lat="45.3817805405667" lon="9.830066104953382"><ele>75.0</ele><time>2026-04-23T12:57:11.001Z</time></trkpt><trkpt lat="45.3816728272126" lon="9.830065767304578"><ele>75.0</ele><time>2026-04-23T12:57:12.001Z</time></trkpt><trkpt lat="45.38156203462803" lon="9.830068703432508"><ele>75.0</ele><time>2026-04-23T12:57:13.001Z</time></trkpt><trkpt lat="45.38145894564257" lon="9.830069028883315"><ele>75.0</ele><time>2026-04-23T12:57:14.001Z</time></trkpt><trkpt lat="45.381364296975335" lon="9.830067786193297"><ele>75.0</ele><time>2026-04-23T12:57:15.001Z</time></trkpt><trkpt lat="45.38127582180941" lon="9.830067888797231"><ele>75.0</ele><time>2026-04-23T12:57:16.001Z</time></trkpt><trkpt lat="45.38119564574461" lon="9.83006974296987"><ele>75.0</ele><time>2026-04-23T12:57:17.001Z</time></trkpt><trkpt lat="45.381114057484844" lon="9.830070884607084"><ele>75.0</ele><time>2026-04-23T12:57:18.001Z</time></trkpt><trkpt lat="45.38102165741824" lon="9.830061547890203"><ele>75.0</ele><time>2026-04-23T12:57:19.001Z</time></trkpt><trkpt lat="45.38092602382842" lon="9.830055169108418"><ele>75.0</ele><time>2026-04-23T12:57:20.001Z</time></trkpt><trkpt lat="45.380827346813916" lon="9.830054571139758"><ele>75.0</ele><time>2026-04-23T12:57:21.001Z</time></trkpt><trkpt lat="45.38072789057716" lon="9.830048547521216"><ele>75.0</ele><time>2026-04-23T12:57:22.001Z</time></trkpt><trkpt lat="45.380625679639856" lon="9.830037695696884"><ele>75.0</ele><time>2026-04-23T12:57:23.001Z</time></trkpt><trkpt lat="45.38052066827512" lon="9.830031619511209"><ele>75.0</ele><time>2026-04-23T12:57:24.001Z</time></trkpt><trkpt lat="45.38041905584538" lon="9.83002709555136"><ele>75.0</ele><time>2026-04-23T12:57:25.001Z</time></trkpt><trkpt lat="45.380313103693716" lon="9.830022073215764"><ele>75.0</ele><time>2026-04-23T12:57:26.001Z</time></trkpt><trkpt lat="45.38020604654434" lon="9.830018270607294"><ele>74.8</ele><time>2026-04-23T12:57:27Z</time></trkpt><trkpt lat="45.38010806363883" lon="9.830018483338222"><ele>74.6</ele><time>2026-04-23T12:57:28Z</time></trkpt><trkpt lat="45.38000840873468" lon="9.830015684778042"><ele>74.4</ele><time>2026-04-23T12:57:29Z</time></trkpt><trkpt lat="45.379911076159445" lon="9.830007148039362"><ele>74.2</ele><time>2026-04-23T12:57:30Z</time></trkpt><trkpt lat="45.37981312140224" lon="9.829994276741896"><ele>74.0</ele><time>2026-04-23T12:57:31Z</time></trkpt><trkpt lat="45.37971117218014" lon="9.829980924543886"><ele>74.2</ele><time>2026-04-23T12:57:32Z</time></trkpt><trkpt lat="45.379608708245726" lon="9.82996296576798"><ele>74.4</ele><time>2026-04-23T12:57:33Z</time></trkpt><trkpt lat="45.379505904855414" lon="9.829937043578148"><ele>74.6</ele><time>2026-04-23T12:57:34Z</time></trkpt><trkpt lat="45.37940529200811" lon="9.829901647994259"><ele>74.8</ele><time>2026-04-23T12:57:35Z</time></trkpt><trkpt lat="45.37930457517746" lon="9.829862514480698"><ele>75.0</ele><time>2026-04-23T12:57:36Z</time></trkpt><trkpt lat="45.37920545844816" lon="9.829826200479095"><ele>75.0</ele><time>2026-04-23T12:57:37Z</time></trkpt><trkpt lat="45.379117513981036" lon="9.829801322821961"><ele>75.0</ele><time>2026-04-23T12:57:38Z</time></trkpt><trkpt lat="45.37903029981838" lon="9.829789489422788"><ele>75.0</ele><time>2026-04-23T12:57:39Z</time></trkpt><trkpt lat="45.37894108830382" lon="9.829783831063073"><ele>75.0</ele><time>2026-04-23T12:57:40Z</time></trkpt><trkpt lat="45.37885017964297" lon="9.829781084296272"><ele>75.0</ele><time>2026-04-23T12:57:41Z</time></trkpt><trkpt lat="45.378753930552136" lon="9.829781033884961"><ele>74.8</ele><time>2026-04-23T12:57:42Z</time></trkpt><trkpt lat="45.378660322720464" lon="9.829786933156164"><ele>74.6</ele><time>2026-04-23T12:57:43Z</time></trkpt><trkpt lat="45.37856794382882" lon="9.829795162915602"><ele>74.4</ele><time>2026-04-23T12:57:44Z</time></trkpt><trkpt lat="45.37847355595005" lon="9.829804924792885"><ele>74.2</ele><time>2026-04-23T12:57:45Z</time></trkpt><trkpt lat="45.37837974949953" lon="9.82980929071396"><ele>74.0</ele><time>2026-04-23T12:57:46Z</time></trkpt><trkpt lat="45.37828763704869" lon="9.829811975914938"><ele>74.0</ele><time>2026-04-23T12:57:47Z</time></trkpt><trkpt lat="45.378200066799195" lon="9.829809830508335"><ele>74.0</ele><time>2026-04-23T12:57:48Z</time></trkpt><trkpt lat="45.37810483655297" lon="9.829810083765732"><ele>74.0</ele><time>2026-04-23T12:57:49Z</time></trkpt><trkpt lat="45.37801099112583" lon="9.829808544800791"><ele>74.0</ele><time>2026-04-23T12:57:50Z</time></trkpt><trkpt lat="45.37791595190311" lon="9.829802227393921"><ele>74.0</ele><time>2026-04-23T12:57:51Z</time></trkpt><trkpt lat="45.377817335160174" lon="9.829800728631996"><ele>74.0</ele><time>2026-04-23T12:57:52Z</time></trkpt><trkpt lat="45.37771820972755" lon="9.829802518465657"><ele>74.0</ele><time>2026-04-23T12:57:53Z</time></trkpt><trkpt lat="45.3776222258405" lon="9.8298071467362"><ele>74.0</ele><time>2026-04-23T12:57:54Z</time></trkpt><trkpt lat="45.3775345016214" lon="9.829814331368892"><ele>74.0</ele><time>2026-04-23T12:57:55Z</time></trkpt><trkpt lat="45.37744526327669" lon="9.829814427377572"><ele>74.0</ele><time>2026-04-23T12:57:56Z</time></trkpt><trkpt lat="45.37734743704076" lon="9.82980992937184"><ele>74.0</ele><time>2026-04-23T12:57:57Z</time></trkpt><trkpt lat="45.37724988200576" lon="9.82981060965856"><ele>74.0</ele><time>2026-04-23T12:57:58Z</time></trkpt><trkpt lat="45.37715518957752" lon="9.829817847061834"><ele>74.0</ele><time>2026-04-23T12:57:59Z</time></trkpt><trkpt lat="45.37706098571439" lon="9.82983362036416"><ele>74.0</ele><time>2026-04-23T12:58:00Z</time></trkpt><trkpt lat="45.376964455712674" lon="9.829859625905"><ele>74.0</ele><time>2026-04-23T12:58:01Z</time></trkpt><trkpt lat="45.37687626411468" lon="9.82989022908093"><ele>74.0</ele><time>2026-04-23T12:58:02Z</time></trkpt><trkpt lat="45.37678966688874" lon="9.829919555837213"><ele>74.0</ele><time>2026-04-23T12:58:03Z</time></trkpt><trkpt lat="45.37670863671035" lon="9.829933299888753"><ele>74.0</ele><time>2026-04-23T12:58:04Z</time></trkpt><trkpt lat="45.3766270944722" lon="9.829938363854316"><ele>74.0</ele><time>2026-04-23T12:58:05Z</time></trkpt><trkpt lat="45.37654882517944" lon="9.829941909297778"><ele>74.0</ele><time>2026-04-23T12:58:06Z</time></trkpt><trkpt lat="45.37648103755259" lon="9.829944150404657"><ele>74.0</ele><time>2026-04-23T12:58:07Z</time></trkpt><trkpt lat="45.37635743953967" lon="9.829951073521919"><ele>74.0</ele><time>2026-04-23T12:58:09Z</time></trkpt><trkpt lat="45.376264924416404" lon="9.829957039081812"><ele>74.0</ele><time>2026-04-23T12:58:11Z</time></trkpt><trkpt lat="45.37619815573148" lon="9.829967462636128"><ele>74.0</ele><time>2026-04-23T12:58:14Z</time></trkpt><trkpt lat="45.37610551431034" lon="9.829966854497416"><ele>74.0</ele><time>2026-04-23T12:58:21Z</time></trkpt><trkpt lat="45.376037040127066" lon="9.829970925867134"><ele>74.0</ele><time>2026-04-23T12:58:24Z</time></trkpt><trkpt lat="45.375909942485436" lon="9.829969818334877"><ele>74.0</ele><time>2026-04-23T12:58:25Z</time></trkpt><trkpt lat="45.37583808823558" lon="9.829964923834243"><ele>74.0</ele><time>2026-04-23T12:58:26Z</time></trkpt><trkpt lat="45.37576128466829" lon="9.829965083421447"><ele>74.0</ele><time>2026-04-23T12:58:27Z</time></trkpt><trkpt lat="45.37567743062368" lon="9.829972736776682"><ele>74.0</ele><time>2026-04-23T12:58:28Z</time></trkpt><trkpt lat="45.3755857536367" lon="9.829986311376208"><ele>74.0</ele><time>2026-04-23T12:58:29Z</time></trkpt><trkpt lat="45.37549257114043" lon="9.82999920024409"><ele>74.0</ele><time>2026-04-23T12:58:30Z</time></trkpt><trkpt lat="45.375383346093045" lon="9.830006933340014"><ele>73.8</ele><time>2026-04-23T12:58:31Z</time></trkpt><trkpt lat="45.37528193781281" lon="9.830011853418915"><ele>73.60000000000001</ele><time>2026-04-23T12:58:32Z</time></trkpt><trkpt lat="45.375171841531944" lon="9.830019005692149"><ele>73.4</ele><time>2026-04-23T12:58:33Z</time></trkpt><trkpt lat="45.37506583937879" lon="9.830025366217143"><ele>73.2</ele><time>2026-04-23T12:58:34Z</time></trkpt><trkpt lat="45.374958833924005" lon="9.830033869074137"><ele>73.0</ele><time>2026-04-23T12:58:35Z</time></trkpt><trkpt lat="45.374848507424865" lon="9.8300341090152"><ele>73.0</ele><time>2026-04-23T12:58:36Z</time></trkpt><trkpt lat="45.37473728442973" lon="9.830040527994043"><ele>73.0</ele><time>2026-04-23T12:58:37Z</time></trkpt><trkpt lat="45.374598626326176" lon="9.830054346686486"><ele>73.0</ele><time>2026-04-23T12:58:38Z</time></trkpt><trkpt lat="45.37446763028115" lon="9.83006415828098"><ele>73.0</ele><time>2026-04-23T12:58:39Z</time></trkpt><trkpt lat="45.37433869582179" lon="9.83007511749184"><ele>72.75</ele><time>2026-04-23T12:58:40Z</time></trkpt><trkpt lat="45.37420150606098" lon="9.830089883176496"><ele>72.5</ele><time>2026-04-23T12:58:41Z</time></trkpt><trkpt lat="45.37405939011583" lon="9.830108435954449"><ele>72.25</ele><time>2026-04-23T12:58:42Z</time></trkpt><trkpt lat="45.373932901611965" lon="9.830123289214669"><ele>72.0</ele><time>2026-04-23T12:58:43Z</time></trkpt><trkpt lat="45.373816231468396" lon="9.830134481980114"><ele>72.0</ele><time>2026-04-23T12:58:44Z</time></trkpt><trkpt lat="45.37369703736207" lon="9.830143874423731"><ele>72.0</ele><time>2026-04-23T12:58:45.001Z</time></trkpt><trkpt lat="45.373586354271325" lon="9.830154033308409"><ele>72.0</ele><time>2026-04-23T12:58:46.001Z</time></trkpt><trkpt lat="45.37347183334157" lon="9.830163562390142"><ele>72.0</ele><time>2026-04-23T12:58:47.001Z</time></trkpt><trkpt lat="45.37336235555837" lon="9.83017031644404"><ele>72.0</ele><time>2026-04-23T12:58:48.001Z</time></trkpt><trkpt lat="45.373260919042636" lon="9.830182719910997"><ele>72.0</ele><time>2026-04-23T12:58:49.001Z</time></trkpt><trkpt lat="45.373163986352516" lon="9.830196705949001"><ele>72.0</ele><time>2026-04-23T12:58:50.001Z</time></trkpt><trkpt lat="45.37306064871506" lon="9.83020085347826"><ele>72.0</ele><time>2026-04-23T12:58:51.001Z</time></trkpt><trkpt lat="45.37295188480886" lon="9.830201222018767"><ele>72.0</ele><time>2026-04-23T12:58:52.001Z</time></trkpt><trkpt lat="45.3728563859859" lon="9.830216772839945"><ele>72.33333333333333</ele><time>2026-04-23T12:58:53.001Z</time></trkpt><trkpt lat="45.37276700934554" lon="9.830233275811329"><ele>72.66666666666667</ele><time>2026-04-23T12:58:54.001Z</time></trkpt><trkpt lat="45.37267841307065" lon="9.830225962038881"><ele>73.0</ele><time>2026-04-23T12:58:55.001Z</time></trkpt><trkpt lat="45.37261444810996" lon="9.830227582328833"><ele>73.33333333333334</ele><time>2026-04-23T12:58:56.001Z</time></trkpt><trkpt lat="45.37253333045717" lon="9.830244175519148"><ele>73.66666666666667</ele><time>2026-04-23T12:58:58.001Z</time></trkpt><trkpt lat="45.37247291590689" lon="9.830306969896279"><ele>74.0</ele><time>2026-04-23T12:59:01.001Z</time></trkpt><trkpt lat="45.372358710802125" lon="9.830297948306105"><ele>74.0</ele><time>2026-04-23T12:59:04.001Z</time></trkpt><trkpt lat="45.37225033660478" lon="9.830408929398837"><ele>74.0</ele><time>2026-04-23T12:59:06.001Z</time></trkpt><trkpt lat="45.37217714795514" lon="9.830472639247368"><ele>74.0</ele><time>2026-04-23T12:59:07.001Z</time></trkpt><trkpt lat="45.37211132541063" lon="9.830538758223629"><ele>74.0</ele><time>2026-04-23T12:59:08.001Z</time></trkpt><trkpt lat="45.372039138584796" lon="9.83061396787723"><ele>74.0</ele><time>2026-04-23T12:59:09.001Z</time></trkpt><trkpt lat="45.37195990180062" lon="9.830693680120099"><ele>74.0</ele><time>2026-04-23T12:59:10.001Z</time></trkpt><trkpt lat="45.37187896447373" lon="9.830770533116999"><ele>74.0</ele><time>2026-04-23T12:59:11.001Z</time></trkpt><trkpt lat="45.371797304392246" lon="9.830844943200496"><ele>74.0</ele><time>2026-04-23T12:59:12.001Z</time></trkpt><trkpt lat="45.37171420048459" lon="9.830922940401003"><ele>74.0</ele><time>2026-04-23T12:59:13.001Z</time></trkpt><trkpt lat="45.3716303510392" lon="9.831003157157502"><ele>74.0</ele><time>2026-04-23T12:59:14.001Z</time></trkpt><trkpt lat="45.37153930592377" lon="9.831085438881644"><ele>74.0</ele><time>2026-04-23T12:59:15.001Z</time></trkpt><trkpt lat="45.37144471949432" lon="9.831165086758999"><ele>74.0</ele><time>2026-04-23T12:59:16.001Z</time></trkpt><trkpt lat="45.37135065832888" lon="9.831244647388388"><ele>74.0</ele><time>2026-04-23T12:59:17.001Z</time></trkpt><trkpt lat="45.371259484459486" lon="9.83132935459694"><ele>74.0</ele><time>2026-04-23T12:59:18.001Z</time></trkpt><trkpt lat="45.37116777188124" lon="9.831424656106806"><ele>74.0</ele><time>2026-04-23T12:59:19Z</time></trkpt><trkpt lat="45.371078334108766" lon="9.831524740671433"><ele>74.0</ele><time>2026-04-23T12:59:20Z</time></trkpt><trkpt lat="45.370925084375976" lon="9.831522955424179"><ele>74.0</ele><time>2026-04-23T12:59:21Z</time></trkpt><trkpt lat="45.3708257273037" lon="9.831627951800794"><ele>74.0</ele><time>2026-04-23T12:59:22Z</time></trkpt><trkpt lat="45.370717930594395" lon="9.831743554037011"><ele>74.0</ele><time>2026-04-23T12:59:23Z</time></trkpt><trkpt lat="45.3706034015863" lon="9.83184803707438"><ele>73.5</ele><time>2026-04-23T12:59:24Z</time></trkpt><trkpt lat="45.370491473066544" lon="9.831953331789675"><ele>73.0</ele><time>2026-04-23T12:59:25Z</time></trkpt><trkpt lat="45.37039165334733" lon="9.832047235384383"><ele>72.5</ele><time>2026-04-23T12:59:26Z</time></trkpt><trkpt lat="45.37029968127482" lon="9.832132916888048"><ele>72.0</ele><time>2026-04-23T12:59:27Z</time></trkpt><trkpt lat="45.37020948967939" lon="9.832216670635514"><ele>72.0</ele><time>2026-04-23T12:59:28Z</time></trkpt><trkpt lat="45.37012017780416" lon="9.832299433113747"><ele>72.0</ele><time>2026-04-23T12:59:29Z</time></trkpt><trkpt lat="45.370025872747405" lon="9.832386822615398"><ele>72.0</ele><time>2026-04-23T12:59:30Z</time></trkpt><trkpt lat="45.369930066414085" lon="9.832475603302731"><ele>72.0</ele><time>2026-04-23T12:59:31Z</time></trkpt><trkpt lat="45.369832243443966" lon="9.832566252753153"><ele>72.0</ele><time>2026-04-23T12:59:32Z</time></trkpt><trkpt lat="45.36973720306712" lon="9.832654323714324"><ele>72.0</ele><time>2026-04-23T12:59:33Z</time></trkpt><trkpt lat="45.36964301035724" lon="9.832741609175173"><ele>72.0</ele><time>2026-04-23T12:59:34Z</time></trkpt><trkpt lat="45.36954993116" lon="9.832827862767669"><ele>72.0</ele><time>2026-04-23T12:59:35Z</time></trkpt><trkpt lat="45.36951534891162" lon="9.833049216674166"><ele>72.0</ele><time>2026-04-23T12:59:36Z</time></trkpt><trkpt lat="45.36942023585659" lon="9.833137304468893"><ele>72.0</ele><time>2026-04-23T12:59:37Z</time></trkpt><trkpt lat="45.3693261289795" lon="9.833225768558973"><ele>72.0</ele><time>2026-04-23T12:59:38Z</time></trkpt><trkpt lat="45.369227325758715" lon="9.83331101468791"><ele>72.0</ele><time>2026-04-23T12:59:39Z</time></trkpt><trkpt lat="45.36913024250181" lon="9.833391529824185"><ele>71.75</ele><time>2026-04-23T12:59:40Z</time></trkpt><trkpt lat="45.36902996990015" lon="9.833478871142292"><ele>71.5</ele><time>2026-04-23T12:59:41Z</time></trkpt><trkpt lat="45.36893170533656" lon="9.833568744186755"><ele>71.25</ele><time>2026-04-23T12:59:42Z</time></trkpt><trkpt lat="45.368830503554335" lon="9.83366104031195"><ele>71.0</ele><time>2026-04-23T12:59:43Z</time></trkpt><trkpt lat="45.36872636913161" lon="9.8337479222762"><ele>71.0</ele><time>2026-04-23T12:59:44Z</time></trkpt><trkpt lat="45.36862430715089" lon="9.833836582135724"><ele>71.0</ele><time>2026-04-23T12:59:45Z</time></trkpt><trkpt lat="45.36852757998973" lon="9.833930427701675"><ele>71.0</ele><time>2026-04-23T12:59:46Z</time></trkpt><trkpt lat="45.368429042518066" lon="9.834030597018405"><ele>71.0</ele><time>2026-04-23T12:59:47Z</time></trkpt><trkpt lat="45.36833306077946" lon="9.834128036597924"><ele>71.0</ele><time>2026-04-23T12:59:48Z</time></trkpt><trkpt lat="45.36823790164455" lon="9.83423052364722"><ele>71.0</ele><time>2026-04-23T12:59:49Z</time></trkpt><trkpt lat="45.36814633599242" lon="9.834334500566202"><ele>71.0</ele><time>2026-04-23T12:59:50Z</time></trkpt><trkpt lat="45.36805570071945" lon="9.834440040391026"><ele>71.0</ele><time>2026-04-23T12:59:51Z</time></trkpt><trkpt lat="45.367964212251565" lon="9.834546674979197"><ele>71.25</ele><time>2026-04-23T12:59:52Z</time></trkpt><trkpt lat="45.367870934803854" lon="9.834643725655178"><ele>71.5</ele><time>2026-04-23T12:59:53Z</time></trkpt><trkpt lat="45.36776919558453" lon="9.834730245788883"><ele>71.75</ele><time>2026-04-23T12:59:54Z</time></trkpt><trkpt lat="45.36766404932321" lon="9.83481401318436"><ele>72.0</ele><time>2026-04-23T12:59:55Z</time></trkpt><trkpt lat="45.36755790465436" lon="9.834900407950709"><ele>72.0</ele><time>2026-04-23T12:59:56Z</time></trkpt><trkpt lat="45.367460594789634" lon="9.834995011622205"><ele>72.0</ele><time>2026-04-23T12:59:57Z</time></trkpt><trkpt lat="45.367365537764734" lon="9.835096156975302"><ele>72.0</ele><time>2026-04-23T12:59:58Z</time></trkpt><trkpt lat="45.36726922713521" lon="9.835192826822134"><ele>72.0</ele><time>2026-04-23T12:59:59Z</time></trkpt><trkpt lat="45.36717483671545" lon="9.835287278006605"><ele>72.0</ele><time>2026-04-23T13:00:00Z</time></trkpt><trkpt lat="45.367077562275625" lon="9.835385968532481"><ele>72.0</ele><time>2026-04-23T13:00:01Z</time></trkpt><trkpt lat="45.366980395086465" lon="9.835488136397451"><ele>72.0</ele><time>2026-04-23T13:00:02Z</time></trkpt><trkpt lat="45.36687993927487" lon="9.835599394037352"><ele>72.0</ele><time>2026-04-23T13:00:03Z</time></trkpt><trkpt lat="45.36678844198252" lon="9.835700189786863"><ele>72.0</ele><time>2026-04-23T13:00:04Z</time></trkpt><trkpt lat="45.366693959846614" lon="9.835792329191307"><ele>72.0</ele><time>2026-04-23T13:00:05Z</time></trkpt><trkpt lat="45.36660393941874" lon="9.835877041246636"><ele>72.0</ele><time>2026-04-23T13:00:06Z</time></trkpt><trkpt lat="45.36651078741927" lon="9.83595163888101"><ele>72.0</ele><time>2026-04-23T13:00:07Z</time></trkpt><trkpt lat="45.36641788612094" lon="9.836029673812954"><ele>72.0</ele><time>2026-04-23T13:00:08Z</time></trkpt><trkpt lat="45.36632206808942" lon="9.836122110736055"><ele>72.0</ele><time>2026-04-23T13:00:09Z</time></trkpt><trkpt lat="45.36622337875534" lon="9.83621858122464"><ele>72.0</ele><time>2026-04-23T13:00:10Z</time></trkpt><trkpt lat="45.36612213824466" lon="9.836310709237214"><ele>72.0</ele><time>2026-04-23T13:00:11Z</time></trkpt><trkpt lat="45.36601522076856" lon="9.836383138239958"><ele>72.0</ele><time>2026-04-23T13:00:12Z</time></trkpt><trkpt lat="45.36590683718582" lon="9.836445248066864"><ele>72.0</ele><time>2026-04-23T13:00:13Z</time></trkpt><trkpt lat="45.36579355812234" lon="9.836507247200863"><ele>72.0</ele><time>2026-04-23T13:00:14Z</time></trkpt><trkpt lat="45.36567883422307" lon="9.836571730288712"><ele>72.0</ele><time>2026-04-23T13:00:15Z</time></trkpt><trkpt lat="45.3655610783025" lon="9.836626499074358"><ele>72.0</ele><time>2026-04-23T13:00:16Z</time></trkpt><trkpt lat="45.36544565490766" lon="9.836683626751869"><ele>72.25</ele><time>2026-04-23T13:00:17Z</time></trkpt><trkpt lat="45.365326844003995" lon="9.83673617360365"><ele>72.5</ele><time>2026-04-23T13:00:18Z</time></trkpt><trkpt lat="45.3652113785777" lon="9.836784357663937"><ele>72.75</ele><time>2026-04-23T13:00:19Z</time></trkpt><trkpt lat="45.36510741023626" lon="9.836823594241705"><ele>73.0</ele><time>2026-04-23T13:00:20Z</time></trkpt><trkpt lat="45.3650086014497" lon="9.83685725889852"><ele>73.0</ele><time>2026-04-23T13:00:21Z</time></trkpt><trkpt lat="45.364905272197575" lon="9.83689195892066"><ele>73.0</ele><time>2026-04-23T13:00:22Z</time></trkpt><trkpt lat="45.36478965094945" lon="9.836928618582844"><ele>73.0</ele><time>2026-04-23T13:00:23Z</time></trkpt><trkpt lat="45.36466642936489" lon="9.836955608209996"><ele>73.0</ele><time>2026-04-23T13:00:24Z</time></trkpt><trkpt lat="45.36454400674173" lon="9.836968179273125"><ele>73.0</ele><time>2026-04-23T13:00:25Z</time></trkpt><trkpt lat="45.364424004448495" lon="9.836976191359042"><ele>73.0</ele><time>2026-04-23T13:00:26Z</time></trkpt><trkpt lat="45.364318995872566" lon="9.836956574014444"><ele>73.0</ele><time>2026-04-23T13:00:27Z</time></trkpt><trkpt lat="45.364227398401894" lon="9.836949693218768"><ele>73.0</ele><time>2026-04-23T13:00:28Z</time></trkpt><trkpt lat="45.364150138680884" lon="9.836947344163494"><ele>73.0</ele><time>2026-04-23T13:00:29Z</time></trkpt><trkpt lat="45.3640295858794" lon="9.836940450604802"><ele>73.0</ele><time>2026-04-23T13:00:31Z</time></trkpt><trkpt lat="45.363952824314985" lon="9.836923933784965"><ele>73.0</ele><time>2026-04-23T13:00:32Z</time></trkpt><trkpt lat="45.36385653154176" lon="9.836905817518918"><ele>73.0</ele><time>2026-04-23T13:00:33Z</time></trkpt><trkpt lat="45.36376281536649" lon="9.83688944192468"><ele>73.0</ele><time>2026-04-23T13:00:34Z</time></trkpt><trkpt lat="45.363672899656784" lon="9.836884829207952"><ele>73.0</ele><time>2026-04-23T13:00:35Z</time></trkpt><trkpt lat="45.36357721701449" lon="9.836898612956027"><ele>73.4</ele><time>2026-04-23T13:00:36Z</time></trkpt><trkpt lat="45.36348622231579" lon="9.836916847012676"><ele>73.8</ele><time>2026-04-23T13:00:37Z</time></trkpt><trkpt lat="45.36338660233498" lon="9.83692121933923"><ele>74.2</ele><time>2026-04-23T13:00:38Z</time></trkpt><trkpt lat="45.3632768100846" lon="9.836918908021714"><ele>74.6</ele><time>2026-04-23T13:00:39Z</time></trkpt><trkpt lat="45.36316570930047" lon="9.836915151991217"><ele>75.0</ele><time>2026-04-23T13:00:40Z</time></trkpt><trkpt lat="45.36305887320372" lon="9.836906794788177"><ele>74.4</ele><time>2026-04-23T13:00:41Z</time></trkpt><trkpt lat="45.36295481279491" lon="9.836898532650078"><ele>73.8</ele><time>2026-04-23T13:00:42Z</time></trkpt><trkpt lat="45.36286004272165" lon="9.836890754557256"><ele>73.2</ele><time>2026-04-23T13:00:43Z</time></trkpt><trkpt lat="45.36276757087474" lon="9.836875868483459"><ele>72.6</ele><time>2026-04-23T13:00:44Z</time></trkpt><trkpt lat="45.362676320157256" lon="9.836864040793168"><ele>72.0</ele><time>2026-04-23T13:00:45Z</time></trkpt><trkpt lat="45.36259708576375" lon="9.836856195218306"><ele>72.0</ele><time>2026-04-23T13:00:46Z</time></trkpt><trkpt lat="45.36249233728527" lon="9.836846813384566"><ele>72.0</ele><time>2026-04-23T13:00:48Z</time></trkpt><trkpt lat="45.36241922705761" lon="9.836815595669497"><ele>72.0</ele><time>2026-04-23T13:00:49Z</time></trkpt><trkpt lat="45.362321755424794" lon="9.83677804812869"><ele>72.0</ele><time>2026-04-23T13:00:50Z</time></trkpt><trkpt lat="45.362221435617656" lon="9.836743140229563"><ele>72.0</ele><time>2026-04-23T13:00:51.001Z</time></trkpt><trkpt lat="45.362120754940044" lon="9.83670000167437"><ele>72.0</ele><time>2026-04-23T13:00:52.001Z</time></trkpt><trkpt lat="45.36202428206886" lon="9.836657501037115"><ele>72.0</ele><time>2026-04-23T13:00:53.001Z</time></trkpt><trkpt lat="45.361938630881866" lon="9.836633406132147"><ele>72.0</ele><time>2026-04-23T13:00:54.001Z</time></trkpt><trkpt lat="45.361851703420044" lon="9.836386372748105"><ele>72.0</ele><time>2026-04-23T13:00:55.001Z</time></trkpt><trkpt lat="45.36175923604418" lon="9.83638957729168"><ele>72.0</ele><time>2026-04-23T13:00:56.001Z</time></trkpt><trkpt lat="45.36167136304467" lon="9.836393402013277"><ele>72.0</ele><time>2026-04-23T13:00:57.001Z</time></trkpt><trkpt lat="45.36157862360583" lon="9.836397976962935"><ele>72.0</ele><time>2026-04-23T13:00:58.001Z</time></trkpt><trkpt lat="45.361484774098344" lon="9.836402963980532"><ele>72.0</ele><time>2026-04-23T13:00:59.001Z</time></trkpt><trkpt lat="45.3613920718938" lon="9.836407890031115"><ele>72.0</ele><time>2026-04-23T13:01:00.001Z</time></trkpt><trkpt lat="45.36129571867598" lon="9.83641301008912"><ele>72.0</ele><time>2026-04-23T13:01:01.001Z</time></trkpt><trkpt lat="45.361197913822096" lon="9.8364182072869"><ele>72.0</ele><time>2026-04-23T13:01:02.001Z</time></trkpt><trkpt lat="45.3611026985428" lon="9.836423266878045"><ele>72.0</ele><time>2026-04-23T13:01:03.001Z</time></trkpt><trkpt lat="45.36100754873625" lon="9.83642792639041"><ele>72.0</ele><time>2026-04-23T13:01:04.001Z</time></trkpt><trkpt lat="45.36091717870206" lon="9.836431942170268"><ele>72.0</ele><time>2026-04-23T13:01:05.001Z</time></trkpt><trkpt lat="45.36083669538999" lon="9.836435518612214"><ele>72.0</ele><time>2026-04-23T13:01:06.001Z</time></trkpt><trkpt lat="45.36075793864404" lon="9.836439018333087"><ele>72.0</ele><time>2026-04-23T13:01:07.001Z</time></trkpt><trkpt lat="45.36066831700872" lon="9.836443000855647"><ele>72.0</ele><time>2026-04-23T13:01:08.001Z</time></trkpt><trkpt lat="45.3605794296088" lon="9.836446950750805"><ele>72.0</ele><time>2026-04-23T13:01:09.001Z</time></trkpt><trkpt lat="45.36049004709965" lon="9.836450922649997"><ele>72.0</ele><time>2026-04-23T13:01:10.001Z</time></trkpt><trkpt lat="45.36040028700333" lon="9.836454462110245"><ele>72.0</ele><time>2026-04-23T13:01:11.001Z</time></trkpt><trkpt lat="45.36030838745651" lon="9.836457717626203"><ele>72.0</ele><time>2026-04-23T13:01:12.001Z</time></trkpt><trkpt lat="45.36021496083308" lon="9.836461027244804"><ele>72.0</ele><time>2026-04-23T13:01:13.001Z</time></trkpt><trkpt lat="45.360121294497034" lon="9.836464345351528"><ele>72.0</ele><time>2026-04-23T13:01:14.001Z</time></trkpt><trkpt lat="45.360028982672816" lon="9.836467615472106"><ele>72.0</ele><time>2026-04-23T13:01:15.001Z</time></trkpt><trkpt lat="45.35993918326526" lon="9.83647079659503"><ele>72.0</ele><time>2026-04-23T13:01:16.001Z</time></trkpt><trkpt lat="45.359860055679455" lon="9.836473599678179"><ele>72.0</ele><time>2026-04-23T13:01:17.001Z</time></trkpt><trkpt lat="45.3597511137588" lon="9.836701037455876"><ele>72.0</ele><time>2026-04-23T13:01:19.001Z</time></trkpt><trkpt lat="45.359688710535174" lon="9.836713014519132"><ele>72.0</ele><time>2026-04-23T13:01:21Z</time></trkpt><trkpt lat="45.359658983837974" lon="9.83681494973394"><ele>72.0</ele><time>2026-04-23T13:01:23Z</time></trkpt><trkpt lat="45.35966953421049" lon="9.836918072356069"><ele>72.0</ele><time>2026-04-23T13:01:25Z</time></trkpt><trkpt lat="45.35959618925886" lon="9.836923513028784"><ele>72.0</ele><time>2026-04-23T13:01:29Z</time></trkpt><trkpt lat="45.359559031090974" lon="9.836670259073674"><ele>72.0</ele><time>2026-04-23T13:01:30Z</time></trkpt><trkpt lat="45.359489855852765" lon="9.836656678143264"><ele>72.0</ele><time>2026-04-23T13:01:31Z</time></trkpt><trkpt lat="45.359369449134434" lon="9.836638898108104"><ele>72.0</ele><time>2026-04-23T13:01:33Z</time></trkpt><trkpt lat="45.359305760605594" lon="9.836623099924283"><ele>72.0</ele><time>2026-04-23T13:01:34Z</time></trkpt><trkpt lat="45.35919412828364" lon="9.83692071464636"><ele>72.0</ele><time>2026-04-23T13:01:35Z</time></trkpt><trkpt lat="45.35911382329398" lon="9.836920709076093"><ele>72.0</ele><time>2026-04-23T13:01:36Z</time></trkpt><trkpt lat="45.35902750553623" lon="9.836922991932425"><ele>72.0</ele><time>2026-04-23T13:01:37Z</time></trkpt><trkpt lat="45.35893429665784" lon="9.83692926466754"><ele>72.0</ele><time>2026-04-23T13:01:38Z</time></trkpt><trkpt lat="45.358839362511326" lon="9.83693542742884"><ele>72.0</ele><time>2026-04-23T13:01:39Z</time></trkpt><trkpt lat="45.358743862320146" lon="9.836938370286587"><ele>72.0</ele><time>2026-04-23T13:01:40Z</time></trkpt><trkpt lat="45.35864733798666" lon="9.836941871765148"><ele>72.0</ele><time>2026-04-23T13:01:41Z</time></trkpt><trkpt lat="45.35854676843801" lon="9.836941735369853"><ele>72.0</ele><time>2026-04-23T13:01:42Z</time></trkpt><trkpt lat="45.35844643564569" lon="9.836948377165262"><ele>72.0</ele><time>2026-04-23T13:01:43Z</time></trkpt><trkpt lat="45.35834301189537" lon="9.836952508979737"><ele>72.0</ele><time>2026-04-23T13:01:44Z</time></trkpt><trkpt lat="45.35823975509727" lon="9.83695514623296"><ele>72.0</ele><time>2026-04-23T13:01:45Z</time></trkpt><trkpt lat="45.35813580558551" lon="9.836958051171614"><ele>72.0</ele><time>2026-04-23T13:01:46Z</time></trkpt><trkpt lat="45.35803960160203" lon="9.83696512265133"><ele>72.0</ele><time>2026-04-23T13:01:47Z</time></trkpt><trkpt lat="45.357950488511094" lon="9.836969784465811"><ele>72.0</ele><time>2026-04-23T13:01:48Z</time></trkpt><trkpt lat="45.35786471606409" lon="9.83697538804797"><ele>72.0</ele><time>2026-04-23T13:01:49Z</time></trkpt><trkpt lat="45.35778577552763" lon="9.836989304188936"><ele>71.83333333333333</ele><time>2026-04-23T13:01:50Z</time></trkpt><trkpt lat="45.35771123997028" lon="9.837015409319497"><ele>71.66666666666667</ele><time>2026-04-23T13:01:51Z</time></trkpt><trkpt lat="45.35763818488617" lon="9.83705338223013"><ele>71.5</ele><time>2026-04-23T13:01:52Z</time></trkpt><trkpt lat="45.35756604611391" lon="9.837102278227995"><ele>71.33333333333334</ele><time>2026-04-23T13:01:53Z</time></trkpt><trkpt lat="45.357487345550126" lon="9.837148652961345"><ele>71.16666666666667</ele><time>2026-04-23T13:01:54Z</time></trkpt><trkpt lat="45.35739993003543" lon="9.837177254283821"><ele>71.0</ele><time>2026-04-23T13:01:55Z</time></trkpt><trkpt lat="45.35730564157514" lon="9.837186882846593"><ele>71.0</ele><time>2026-04-23T13:01:56Z</time></trkpt><trkpt lat="45.35721470933343" lon="9.837184409602179"><ele>71.0</ele><time>2026-04-23T13:01:57Z</time></trkpt><trkpt lat="45.35711934475229" lon="9.837177296541508"><ele>71.0</ele><time>2026-04-23T13:01:58Z</time></trkpt><trkpt lat="45.35702679772215" lon="9.83716833082582"><ele>71.0</ele><time>2026-04-23T13:01:59Z</time></trkpt><trkpt lat="45.35693367850756" lon="9.837155355148493"><ele>71.0</ele><time>2026-04-23T13:02:00Z</time></trkpt><trkpt lat="45.356840955259976" lon="9.83714360655309"><ele>71.2</ele><time>2026-04-23T13:02:01Z</time></trkpt><trkpt lat="45.356747505521454" lon="9.837131004966357"><ele>71.39999999999999</ele><time>2026-04-23T13:02:02Z</time></trkpt><trkpt lat="45.356659057349056" lon="9.837121766233045"><ele>71.6</ele><time>2026-04-23T13:02:03Z</time></trkpt><trkpt lat="45.3565666008144" lon="9.837104545755924"><ele>71.8</ele><time>2026-04-23T13:02:04Z</time></trkpt><trkpt lat="45.35647239044962" lon="9.837091634791049"><ele>72.0</ele><time>2026-04-23T13:02:05Z</time></trkpt><trkpt lat="45.35637453019724" lon="9.8370823088107"><ele>71.8</ele><time>2026-04-23T13:02:06Z</time></trkpt><trkpt lat="45.356276626789956" lon="9.837071394116885"><ele>71.6</ele><time>2026-04-23T13:02:07Z</time></trkpt><trkpt lat="45.35617635627284" lon="9.837056824598605"><ele>71.39999999999999</ele><time>2026-04-23T13:02:08Z</time></trkpt><trkpt lat="45.35607538936359" lon="9.837043301020897"><ele>71.2</ele><time>2026-04-23T13:02:09Z</time></trkpt><trkpt lat="45.35597860216174" lon="9.83703573302244"><ele>71.0</ele><time>2026-04-23T13:02:10Z</time></trkpt><trkpt lat="45.35587958883297" lon="9.837028607222237"><ele>71.0</ele><time>2026-04-23T13:02:11Z</time></trkpt><trkpt lat="45.35578171203997" lon="9.837022418877481"><ele>71.0</ele><time>2026-04-23T13:02:12Z</time></trkpt><trkpt lat="45.35569261615998" lon="9.837015621822262"><ele>71.0</ele><time>2026-04-23T13:02:13Z</time></trkpt><trkpt lat="45.355608744649096" lon="9.837013772090613"><ele>71.0</ele><time>2026-04-23T13:02:14Z</time></trkpt><trkpt lat="45.35553149270605" lon="9.837006253243317"><ele>71.0</ele><time>2026-04-23T13:02:15Z</time></trkpt><trkpt lat="45.355425852692804" lon="9.837004919991951"><ele>71.33333333333334</ele><time>2026-04-23T13:02:17Z</time></trkpt><trkpt lat="45.35535351974198" lon="9.837026444112244"><ele>71.66666666666667</ele><time>2026-04-23T13:02:19Z</time></trkpt><trkpt lat="45.35524850194169" lon="9.83702949267112"><ele>72.0</ele><time>2026-04-23T13:02:22Z</time></trkpt><trkpt lat="45.35513079518214" lon="9.837039608695122"><ele>72.33333333333333</ele><time>2026-04-23T13:02:24Z</time></trkpt><trkpt lat="45.355065242955106" lon="9.837032286380119"><ele>72.66666666666666</ele><time>2026-04-23T13:02:25Z</time></trkpt><trkpt lat="45.35500437741424" lon="9.836997017762624"><ele>73.0</ele><time>2026-04-23T13:02:26Z</time></trkpt><trkpt lat="45.354949334557496" lon="9.836940798293153"><ele>73.0</ele><time>2026-04-23T13:02:27Z</time></trkpt><trkpt lat="45.35486376959139" lon="9.836827987162213"><ele>73.0</ele><time>2026-04-23T13:02:29Z</time></trkpt><trkpt lat="45.35478928439659" lon="9.836815920734526"><ele>73.0</ele><time>2026-04-23T13:02:30Z</time></trkpt><trkpt lat="45.35470163639002" lon="9.836824709187976"><ele>73.0</ele><time>2026-04-23T13:02:31Z</time></trkpt><trkpt lat="45.35462071568631" lon="9.836819095198166"><ele>73.0</ele><time>2026-04-23T13:02:32Z</time></trkpt><trkpt lat="45.35454275347864" lon="9.836789102015052"><ele>73.0</ele><time>2026-04-23T13:02:33Z</time></trkpt><trkpt lat="45.354462798768985" lon="9.836724300568658"><ele>73.4</ele><time>2026-04-23T13:02:35Z</time></trkpt><trkpt lat="45.35438693790456" lon="9.836758348503414"><ele>73.8</ele><time>2026-04-23T13:02:39Z</time></trkpt><trkpt lat="45.3543457835798" lon="9.836915525808271"><ele>74.2</ele><time>2026-04-23T13:02:41Z</time></trkpt><trkpt lat="45.354290214522635" lon="9.837044767117714"><ele>74.6</ele><time>2026-04-23T13:02:43Z</time></trkpt><trkpt lat="45.35421850002965" lon="9.837074348314463"><ele>75.0</ele><time>2026-04-23T13:02:44Z</time></trkpt><trkpt lat="45.354131161093775" lon="9.837081712302439"><ele>75.0</ele><time>2026-04-23T13:02:45Z</time></trkpt><trkpt lat="45.35404406747442" lon="9.837083591980086"><ele>75.0</ele><time>2026-04-23T13:02:46Z</time></trkpt><trkpt lat="45.353954339211434" lon="9.837098199825702"><ele>75.0</ele><time>2026-04-23T13:02:47Z</time></trkpt><trkpt lat="45.35386285654871" lon="9.83713008794628"><ele>75.0</ele><time>2026-04-23T13:02:48Z</time></trkpt><trkpt lat="45.353773703424764" lon="9.837173940997177"><ele>75.0</ele><time>2026-04-23T13:02:49Z</time></trkpt><trkpt lat="45.35368303053337" lon="9.837219003006938"><ele>75.0</ele><time>2026-04-23T13:02:50Z</time></trkpt><trkpt lat="45.353590616649264" lon="9.83726568086287"><ele>75.0</ele><time>2026-04-23T13:02:51Z</time></trkpt><trkpt lat="45.353493809975056" lon="9.837309370646318"><ele>75.0</ele><time>2026-04-23T13:02:52Z</time></trkpt><trkpt lat="45.35340376291976" lon="9.837339469698895"><ele>75.0</ele><time>2026-04-23T13:02:53Z</time></trkpt><trkpt lat="45.353320406233905" lon="9.837374532309914"><ele>75.0</ele><time>2026-04-23T13:02:54Z</time></trkpt><trkpt lat="45.35323706218072" lon="9.837408839551644"><ele>75.0</ele><time>2026-04-23T13:02:55Z</time></trkpt><trkpt lat="45.353153486253305" lon="9.83744435122416"><ele>75.0</ele><time>2026-04-23T13:02:56Z</time></trkpt><trkpt lat="45.35307272302219" lon="9.837482281582785"><ele>75.0</ele><time>2026-04-23T13:02:57.001Z</time></trkpt><trkpt lat="45.352988826374414" lon="9.837520972181437"><ele>75.0</ele><time>2026-04-23T13:02:58.001Z</time></trkpt><trkpt lat="45.352907277640725" lon="9.837557512238153"><ele>75.0</ele><time>2026-04-23T13:02:59.001Z</time></trkpt><trkpt lat="45.35282438542243" lon="9.83758947254911"><ele>75.0</ele><time>2026-04-23T13:03:00.001Z</time></trkpt><trkpt lat="45.35273851594018" lon="9.837614655735917"><ele>74.2</ele><time>2026-04-23T13:03:01.001Z</time></trkpt><trkpt lat="45.35264758862467" lon="9.83764017746001"><ele>73.4</ele><time>2026-04-23T13:03:02.001Z</time></trkpt><trkpt lat="45.35255144013917" lon="9.837666648698644"><ele>72.6</ele><time>2026-04-23T13:03:03.001Z</time></trkpt><trkpt lat="45.35245440071729" lon="9.837691798278485"><ele>71.8</ele><time>2026-04-23T13:03:04.001Z</time></trkpt><trkpt lat="45.35235439392181" lon="9.837715730142898"><ele>71.0</ele><time>2026-04-23T13:03:05.001Z</time></trkpt><trkpt lat="45.352251259832315" lon="9.837737465200753"><ele>71.0</ele><time>2026-04-23T13:03:06.001Z</time></trkpt><trkpt lat="45.352147749399386" lon="9.837759541069978"><ele>71.0</ele><time>2026-04-23T13:03:07.001Z</time></trkpt><trkpt lat="45.352041982671984" lon="9.837783076700989"><ele>71.0</ele><time>2026-04-23T13:03:08.001Z</time></trkpt><trkpt lat="45.35193402645646" lon="9.837782724540748"><ele>71.0</ele><time>2026-04-23T13:03:09.001Z</time></trkpt><trkpt lat="45.35182341083701" lon="9.837801953554628"><ele>71.0</ele><time>2026-04-23T13:03:10.001Z</time></trkpt><trkpt lat="45.35171257104601" lon="9.837820430879072"><ele>71.0</ele><time>2026-04-23T13:03:11.001Z</time></trkpt><trkpt lat="45.35160138539177" lon="9.837860981318558"><ele>71.0</ele><time>2026-04-23T13:03:12.001Z</time></trkpt><trkpt lat="45.351487139989715" lon="9.837874036054858"><ele>71.0</ele><time>2026-04-23T13:03:13.001Z</time></trkpt><trkpt lat="45.35137423413279" lon="9.837890032775327"><ele>71.0</ele><time>2026-04-23T13:03:14.001Z</time></trkpt><trkpt lat="45.351259679196566" lon="9.837905794272405"><ele>71.25</ele><time>2026-04-23T13:03:15.001Z</time></trkpt><trkpt lat="45.35114383393548" lon="9.837918703452962"><ele>71.5</ele><time>2026-04-23T13:03:16.001Z</time></trkpt><trkpt lat="45.351028428581294" lon="9.837929604276072"><ele>71.75</ele><time>2026-04-23T13:03:17.001Z</time></trkpt><trkpt lat="45.3509135792821" lon="9.837918451239014"><ele>72.0</ele><time>2026-04-23T13:03:18Z</time></trkpt><trkpt lat="45.35079952151603" lon="9.837929934769786"><ele>72.0</ele><time>2026-04-23T13:03:19Z</time></trkpt><trkpt lat="45.35068773965783" lon="9.837941189156997"><ele>72.0</ele><time>2026-04-23T13:03:20Z</time></trkpt><trkpt lat="45.350575748651906" lon="9.837951511405667"><ele>72.0</ele><time>2026-04-23T13:03:21Z</time></trkpt><trkpt lat="45.350457481877534" lon="9.83796177909101"><ele>72.0</ele><time>2026-04-23T13:03:22Z</time></trkpt><trkpt lat="45.35032300243993" lon="9.837985515067333"><ele>71.75</ele><time>2026-04-23T13:03:23Z</time></trkpt><trkpt lat="45.35018834642699" lon="9.837973765031427"><ele>71.5</ele><time>2026-04-23T13:03:24Z</time></trkpt><trkpt lat="45.35006077890062" lon="9.837920290792646"><ele>71.25</ele><time>2026-04-23T13:03:25Z</time></trkpt><trkpt lat="45.34994337392984" lon="9.837833319930436"><ele>71.0</ele><time>2026-04-23T13:03:26Z</time></trkpt><trkpt lat="45.34982991926804" lon="9.837738485328249"><ele>71.0</ele><time>2026-04-23T13:03:27Z</time></trkpt><trkpt lat="45.34971198188968" lon="9.837647109086271"><ele>71.0</ele><time>2026-04-23T13:03:28Z</time></trkpt><trkpt lat="45.3496046146345" lon="9.837546295151624"><ele>71.0</ele><time>2026-04-23T13:03:29Z</time></trkpt><trkpt lat="45.34950592170692" lon="9.837444761016926"><ele>71.0</ele><time>2026-04-23T13:03:30Z</time></trkpt><trkpt lat="45.34940399324793" lon="9.837350195197075"><ele>70.5</ele><time>2026-04-23T13:03:31Z</time></trkpt><trkpt lat="45.34929354724365" lon="9.837271250706312"><ele>70.0</ele><time>2026-04-23T13:03:32Z</time></trkpt><trkpt lat="45.349182556049136" lon="9.837187269908288"><ele>69.5</ele><time>2026-04-23T13:03:33Z</time></trkpt><trkpt lat="45.349071758450116" lon="9.83709745476934"><ele>69.0</ele><time>2026-04-23T13:03:34Z</time></trkpt><trkpt lat="45.34896041416175" lon="9.837001426024136"><ele>69.0</ele><time>2026-04-23T13:03:35Z</time></trkpt><trkpt lat="45.34884740712194" lon="9.83690703067595"><ele>69.0</ele><time>2026-04-23T13:03:36Z</time></trkpt><trkpt lat="45.34873100271007" lon="9.83681128453376"><ele>69.0</ele><time>2026-04-23T13:03:37Z</time></trkpt><trkpt lat="45.348618355799275" lon="9.836718845028877"><ele>69.0</ele><time>2026-04-23T13:03:38Z</time></trkpt><trkpt lat="45.34850042417829" lon="9.836621769642468"><ele>69.0</ele><time>2026-04-23T13:03:39Z</time></trkpt><trkpt lat="45.348373706980006" lon="9.836513205128398"><ele>69.0</ele><time>2026-04-23T13:03:40Z</time></trkpt><trkpt lat="45.34824873415579" lon="9.836408399268324"><ele>69.0</ele><time>2026-04-23T13:03:41Z</time></trkpt><trkpt lat="45.34813474694918" lon="9.83631306699411"><ele>69.0</ele><time>2026-04-23T13:03:42Z</time></trkpt><trkpt lat="45.348028014166914" lon="9.836226050960585"><ele>69.0</ele><time>2026-04-23T13:03:43Z</time></trkpt><trkpt lat="45.34792064156917" lon="9.836140279241793"><ele>69.0</ele><time>2026-04-23T13:03:44Z</time></trkpt><trkpt lat="45.34783243189712" lon="9.836070419715627"><ele>69.0</ele><time>2026-04-23T13:03:45Z</time></trkpt><trkpt lat="45.347761220370884" lon="9.836013620102712"><ele>69.0</ele><time>2026-04-23T13:03:46Z</time></trkpt><trkpt lat="45.34768839477853" lon="9.835973191392252"><ele>69.0</ele><time>2026-04-23T13:03:47Z</time></trkpt><trkpt lat="45.34761209476918" lon="9.835945238941608"><ele>69.0</ele><time>2026-04-23T13:03:48Z</time></trkpt><trkpt lat="45.34753634170473" lon="9.835925250683534"><ele>69.0</ele><time>2026-04-23T13:03:49Z</time></trkpt><trkpt lat="45.34741950624189" lon="9.835973182537781"><ele>69.0</ele><time>2026-04-23T13:03:51Z</time></trkpt><trkpt lat="45.34734370005939" lon="9.836047545494274"><ele>69.0</ele><time>2026-04-23T13:03:52Z</time></trkpt><trkpt lat="45.347264484849724" lon="9.836147524922767"><ele>69.0</ele><time>2026-04-23T13:03:53Z</time></trkpt><trkpt lat="45.34717967402225" lon="9.836248502925205"><ele>69.0</ele><time>2026-04-23T13:03:54Z</time></trkpt><trkpt lat="45.347118631041575" lon="9.836309068233271"><ele>69.0</ele><time>2026-04-23T13:03:55Z</time></trkpt><trkpt lat="45.34698877830998" lon="9.836379664869572"><ele>69.0</ele><time>2026-04-23T13:03:57Z</time></trkpt><trkpt lat="45.34690432167911" lon="9.836413624167555"><ele>69.0</ele><time>2026-04-23T13:03:58Z</time></trkpt><trkpt lat="45.34681833682115" lon="9.8364517284467"><ele>69.0</ele><time>2026-04-23T13:03:59Z</time></trkpt><trkpt lat="45.34672828080615" lon="9.836487870415528"><ele>69.0</ele><time>2026-04-23T13:04:00Z</time></trkpt><trkpt lat="45.346636940565844" lon="9.836528093811607"><ele>69.0</ele><time>2026-04-23T13:04:01Z</time></trkpt><trkpt lat="45.346545499512025" lon="9.836569200526872"><ele>69.0</ele><time>2026-04-23T13:04:02Z</time></trkpt><trkpt lat="45.3464507233595" lon="9.83662051669041"><ele>69.0</ele><time>2026-04-23T13:04:03Z</time></trkpt><trkpt lat="45.346353891263036" lon="9.836672841713431"><ele>69.0</ele><time>2026-04-23T13:04:04Z</time></trkpt><trkpt lat="45.3462527095793" lon="9.836720786133663"><ele>69.5</ele><time>2026-04-23T13:04:05Z</time></trkpt><trkpt lat="45.3461461932902" lon="9.836771600480231"><ele>70.0</ele><time>2026-04-23T13:04:06Z</time></trkpt><trkpt lat="45.346039667746" lon="9.836823922666534"><ele>70.5</ele><time>2026-04-23T13:04:07Z</time></trkpt><trkpt lat="45.345933613225746" lon="9.836877744536016"><ele>71.0</ele><time>2026-04-23T13:04:08Z</time></trkpt><trkpt lat="45.34582613745399" lon="9.836932056751108"><ele>70.5</ele><time>2026-04-23T13:04:09Z</time></trkpt><trkpt lat="45.34572277177585" lon="9.836979086889254"><ele>70.0</ele><time>2026-04-23T13:04:10Z</time></trkpt><trkpt lat="45.34561349600339" lon="9.837029537664149"><ele>69.5</ele><time>2026-04-23T13:04:11Z</time></trkpt><trkpt lat="45.345505551456206" lon="9.837069318860438"><ele>69.0</ele><time>2026-04-23T13:04:12Z</time></trkpt><trkpt lat="45.34538957054338" lon="9.837110535849282"><ele>69.0</ele><time>2026-04-23T13:04:13Z</time></trkpt><trkpt lat="45.34527387437401" lon="9.837146272952001"><ele>69.0</ele><time>2026-04-23T13:04:14Z</time></trkpt><trkpt lat="45.3451633413012" lon="9.83718813642481"><ele>69.0</ele><time>2026-04-23T13:04:15Z</time></trkpt><trkpt lat="45.34504540614908" lon="9.837227901715721"><ele>69.0</ele><time>2026-04-23T13:04:16Z</time></trkpt><trkpt lat="45.34492932565719" lon="9.83727572088898"><ele>69.0</ele><time>2026-04-23T13:04:17Z</time></trkpt><trkpt lat="45.34481385672487" lon="9.837334506069753"><ele>69.0</ele><time>2026-04-23T13:04:18Z</time></trkpt><trkpt lat="45.34470563977521" lon="9.837396792764185"><ele>69.0</ele><time>2026-04-23T13:04:19Z</time></trkpt><trkpt lat="45.34460503661535" lon="9.837453543846971"><ele>69.0</ele><time>2026-04-23T13:04:20Z</time></trkpt><trkpt lat="45.34452644344105" lon="9.837503020532635"><ele>69.0</ele><time>2026-04-23T13:04:21Z</time></trkpt><trkpt lat="45.34446250280934" lon="9.837570921272096"><ele>69.5</ele><time>2026-04-23T13:04:22Z</time></trkpt><trkpt lat="45.344420984790375" lon="9.837647142555848"><ele>70.0</ele><time>2026-04-23T13:04:23Z</time></trkpt><trkpt lat="45.34438616202118" lon="9.837743168303277"><ele>70.5</ele><time>2026-04-23T13:04:24Z</time></trkpt><trkpt lat="45.344353799052996" lon="9.837862870413106"><ele>71.0</ele><time>2026-04-23T13:04:25Z</time></trkpt><trkpt lat="45.3443236566877" lon="9.837996300212815"><ele>71.5</ele><time>2026-04-23T13:04:26Z</time></trkpt><trkpt lat="45.34428865961087" lon="9.838127628244523"><ele>72.0</ele><time>2026-04-23T13:04:27Z</time></trkpt><trkpt lat="45.344241376248235" lon="9.838267094420917"><ele>72.0</ele><time>2026-04-23T13:04:28Z</time></trkpt><trkpt lat="45.34417547892733" lon="9.838397405912291"><ele>72.0</ele><time>2026-04-23T13:04:29Z</time></trkpt><trkpt lat="45.34409555863271" lon="9.838513825204101"><ele>72.0</ele><time>2026-04-23T13:04:30Z</time></trkpt><trkpt lat="45.34400632981062" lon="9.838621884648541"><ele>72.0</ele><time>2026-04-23T13:04:31Z</time></trkpt><trkpt lat="45.343915321987694" lon="9.838724204550136"><ele>71.25</ele><time>2026-04-23T13:04:32Z</time></trkpt><trkpt lat="45.343821911719616" lon="9.838818024022755"><ele>70.5</ele><time>2026-04-23T13:04:33Z</time></trkpt><trkpt lat="45.343723209521" lon="9.838904110757662"><ele>69.75</ele><time>2026-04-23T13:04:34Z</time></trkpt><trkpt lat="45.343615120828375" lon="9.838983665670096"><ele>69.0</ele><time>2026-04-23T13:04:35Z</time></trkpt><trkpt lat="45.34350482233646" lon="9.839046854421724"><ele>69.0</ele><time>2026-04-23T13:04:36Z</time></trkpt><trkpt lat="45.343389551744686" lon="9.839099474414345"><ele>69.0</ele><time>2026-04-23T13:04:37Z</time></trkpt><trkpt lat="45.34327459485061" lon="9.83914892648024"><ele>69.0</ele><time>2026-04-23T13:04:38Z</time></trkpt><trkpt lat="45.343158542465105" lon="9.839192219719571"><ele>69.0</ele><time>2026-04-23T13:04:39Z</time></trkpt><trkpt lat="45.34303928489598" lon="9.839231572648199"><ele>69.0</ele><time>2026-04-23T13:04:40Z</time></trkpt><trkpt lat="45.34291809776416" lon="9.839264205235459"><ele>69.0</ele><time>2026-04-23T13:04:41Z</time></trkpt><trkpt lat="45.34280104969335" lon="9.839307856787125"><ele>69.0</ele><time>2026-04-23T13:04:42Z</time></trkpt><trkpt lat="45.34268999634858" lon="9.839351485972642"><ele>69.0</ele><time>2026-04-23T13:04:43Z</time></trkpt><trkpt lat="45.342580883095096" lon="9.839394239954437"><ele>69.0</ele><time>2026-04-23T13:04:44Z</time></trkpt><trkpt lat="45.34247059833469" lon="9.839426959219535"><ele>69.0</ele><time>2026-04-23T13:04:45Z</time></trkpt><trkpt lat="45.342361088499786" lon="9.839463704602975"><ele>69.0</ele><time>2026-04-23T13:04:46Z</time></trkpt><trkpt lat="45.342257794364485" lon="9.839498723633762"><ele>69.0</ele><time>2026-04-23T13:04:47Z</time></trkpt><trkpt lat="45.342175565554555" lon="9.839526873046282"><ele>69.0</ele><time>2026-04-23T13:04:48Z</time></trkpt><trkpt lat="45.34210159572467" lon="9.839564474585424"><ele>69.5</ele><time>2026-04-23T13:04:49Z</time></trkpt><trkpt lat="45.34202386936427" lon="9.839595314158075"><ele>70.0</ele><time>2026-04-23T13:04:50Z</time></trkpt><trkpt lat="45.34194109204316" lon="9.839614972227801"><ele>70.5</ele><time>2026-04-23T13:04:51Z</time></trkpt><trkpt lat="45.34185587069733" lon="9.839633240370551"><ele>71.0</ele><time>2026-04-23T13:04:52Z</time></trkpt><trkpt lat="45.341783381701894" lon="9.839648252576396"><ele>71.5</ele><time>2026-04-23T13:04:53Z</time></trkpt><trkpt lat="45.34169886452766" lon="9.839686878192541"><ele>72.0</ele><time>2026-04-23T13:04:54Z</time></trkpt><trkpt lat="45.34160637927167" lon="9.839713437789548"><ele>72.0</ele><time>2026-04-23T13:04:55Z</time></trkpt><trkpt lat="45.34151576015254" lon="9.839740310886862"><ele>72.0</ele><time>2026-04-23T13:04:56Z</time></trkpt><trkpt lat="45.3414276221769" lon="9.839765028593952"><ele>72.0</ele><time>2026-04-23T13:04:57Z</time></trkpt><trkpt lat="45.3413359693277" lon="9.839787735776861"><ele>72.0</ele><time>2026-04-23T13:04:58Z</time></trkpt><trkpt lat="45.341241022925814" lon="9.839814804088993"><ele>72.0</ele><time>2026-04-23T13:04:59Z</time></trkpt><trkpt lat="45.34114414754586" lon="9.839837943528432"><ele>72.2</ele><time>2026-04-23T13:05:00Z</time></trkpt><trkpt lat="45.341046691337844" lon="9.839860465852556"><ele>72.4</ele><time>2026-04-23T13:05:01Z</time></trkpt><trkpt lat="45.34093862061524" lon="9.839878010264748"><ele>72.6</ele><time>2026-04-23T13:05:02Z</time></trkpt><trkpt lat="45.34082925377875" lon="9.839909965618041"><ele>72.8</ele><time>2026-04-23T13:05:03.001Z</time></trkpt><trkpt lat="45.340714110942024" lon="9.839944846687615"><ele>73.0</ele><time>2026-04-23T13:05:04.001Z</time></trkpt><trkpt lat="45.340598979137035" lon="9.839977419603697"><ele>72.6</ele><time>2026-04-23T13:05:05.001Z</time></trkpt><trkpt lat="45.340484596069054" lon="9.840006826788526"><ele>72.19999999999999</ele><time>2026-04-23T13:05:06.001Z</time></trkpt><trkpt lat="45.34037385257036" lon="9.840039082985042"><ele>71.8</ele><time>2026-04-23T13:05:07.001Z</time></trkpt><trkpt lat="45.34027683985671" lon="9.840075609043806"><ele>71.39999999999999</ele><time>2026-04-23T13:05:08.001Z</time></trkpt><trkpt lat="45.34021519625903" lon="9.840100214421712"><ele>71.0</ele><time>2026-04-23T13:05:09.001Z</time></trkpt><trkpt lat="45.34013204442013" lon="9.840133240711918"><ele>71.0</ele><time>2026-04-23T13:05:11.001Z</time></trkpt><trkpt lat="45.34001562737193" lon="9.840212722735279"><ele>71.0</ele><time>2026-04-23T13:05:13.001Z</time></trkpt><trkpt lat="45.33994236440143" lon="9.84026763940879"><ele>71.0</ele><time>2026-04-23T13:05:14Z</time></trkpt><trkpt lat="45.33986072791468" lon="9.840337758083946"><ele>71.0</ele><time>2026-04-23T13:05:15Z</time></trkpt><trkpt lat="45.33977473960576" lon="9.840420318096315"><ele>71.0</ele><time>2026-04-23T13:05:16Z</time></trkpt><trkpt lat="45.339680583764554" lon="9.840497939519064"><ele>71.0</ele><time>2026-04-23T13:05:17Z</time></trkpt><trkpt lat="45.339571179525734" lon="9.840561912648141"><ele>71.0</ele><time>2026-04-23T13:05:18Z</time></trkpt><trkpt lat="45.3394714296706" lon="9.840630982008031"><ele>71.0</ele><time>2026-04-23T13:05:19Z</time></trkpt><trkpt lat="45.33938181067201" lon="9.840707698262081"><ele>71.0</ele><time>2026-04-23T13:05:20Z</time></trkpt><trkpt lat="45.33929202842457" lon="9.840797659383329"><ele>71.0</ele><time>2026-04-23T13:05:21Z</time></trkpt><trkpt lat="45.33919107220878" lon="9.840900027634747"><ele>70.8</ele><time>2026-04-23T13:05:22Z</time></trkpt><trkpt lat="45.33909244689669" lon="9.841024170071613"><ele>70.6</ele><time>2026-04-23T13:05:23Z</time></trkpt><trkpt lat="45.339001131259934" lon="9.841158601313499"><ele>70.4</ele><time>2026-04-23T13:05:24Z</time></trkpt><trkpt lat="45.338928427894224" lon="9.841261984619967"><ele>70.2</ele><time>2026-04-23T13:05:25Z</time></trkpt><trkpt lat="45.33888156984584" lon="9.841347568665894"><ele>70.0</ele><time>2026-04-23T13:05:26Z</time></trkpt><trkpt lat="45.3388402442178" lon="9.841450064244988"><ele>70.0</ele><time>2026-04-23T13:05:27Z</time></trkpt><trkpt lat="45.33880514214542" lon="9.841585569465472"><ele>70.0</ele><time>2026-04-23T13:05:28Z</time></trkpt><trkpt lat="45.33877630482606" lon="9.841732266653402"><ele>70.0</ele><time>2026-04-23T13:05:29Z</time></trkpt><trkpt lat="45.33875293042882" lon="9.841900725778894"><ele>70.0</ele><time>2026-04-23T13:05:30Z</time></trkpt><trkpt lat="45.33873189999672" lon="9.8420731993707"><ele>70.0</ele><time>2026-04-23T13:05:31Z</time></trkpt><trkpt lat="45.338707903733955" lon="9.842240915221865"><ele>70.0</ele><time>2026-04-23T13:05:32Z</time></trkpt><trkpt lat="45.338684123849" lon="9.842409096991062"><ele>70.0</ele><time>2026-04-23T13:05:33Z</time></trkpt><trkpt lat="45.33866063642353" lon="9.842575738361287"><ele>70.0</ele><time>2026-04-23T13:05:34Z</time></trkpt><trkpt lat="45.338635741970705" lon="9.842745476125215"><ele>70.0</ele><time>2026-04-23T13:05:35Z</time></trkpt><trkpt lat="45.33861251730668" lon="9.842914526111942"><ele>70.0</ele><time>2026-04-23T13:05:36Z</time></trkpt><trkpt lat="45.33858953447636" lon="9.84308622282724"><ele>70.0</ele><time>2026-04-23T13:05:37Z</time></trkpt><trkpt lat="45.33855640223456" lon="9.843268998394265"><ele>70.0</ele><time>2026-04-23T13:05:38Z</time></trkpt><trkpt lat="45.33851217170998" lon="9.843464179106567"><ele>70.0</ele><time>2026-04-23T13:05:39Z</time></trkpt><trkpt lat="45.33847539922597" lon="9.843654798792995"><ele>70.0</ele><time>2026-04-23T13:05:40Z</time></trkpt><trkpt lat="45.33844657891901" lon="9.843825018454831"><ele>70.0</ele><time>2026-04-23T13:05:41Z</time></trkpt><trkpt lat="45.33841176177277" lon="9.843992818885583"><ele>70.0</ele><time>2026-04-23T13:05:42Z</time></trkpt><trkpt lat="45.33837310206804" lon="9.844139510666434"><ele>70.0</ele><time>2026-04-23T13:05:43Z</time></trkpt><trkpt lat="45.33834815406653" lon="9.844266187657343"><ele>70.0</ele><time>2026-04-23T13:05:44Z</time></trkpt><trkpt lat="45.33833471596222" lon="9.844384331632657"><ele>70.0</ele><time>2026-04-23T13:05:45Z</time></trkpt><trkpt lat="45.33833481088795" lon="9.844505818746601"><ele>70.0</ele><time>2026-04-23T13:05:46Z</time></trkpt><trkpt lat="45.33834557419562" lon="9.844643258969146"><ele>70.0</ele><time>2026-04-23T13:05:47Z</time></trkpt><trkpt lat="45.338372874686875" lon="9.844789330903783"><ele>70.8</ele><time>2026-04-23T13:05:48Z</time></trkpt><trkpt lat="45.33841565381959" lon="9.84494435159643"><ele>71.6</ele><time>2026-04-23T13:05:49Z</time></trkpt><trkpt lat="45.338452087181885" lon="9.845093960179272"><ele>72.4</ele><time>2026-04-23T13:05:50Z</time></trkpt><trkpt lat="45.33847292659865" lon="9.845233434894084"><ele>73.2</ele><time>2026-04-23T13:05:51Z</time></trkpt><trkpt lat="45.33847923655133" lon="9.845373285638962"><ele>74.0</ele><time>2026-04-23T13:05:52Z</time></trkpt><trkpt lat="45.33846732140502" lon="9.845521798783702"><ele>74.0</ele><time>2026-04-23T13:05:53Z</time></trkpt><trkpt lat="45.338442405702445" lon="9.845680986898572"><ele>74.0</ele><time>2026-04-23T13:05:54Z</time></trkpt><trkpt lat="45.33841768923348" lon="9.845842574881932"><ele>74.0</ele><time>2026-04-23T13:05:55Z</time></trkpt><trkpt lat="45.33839258883865" lon="9.8460080365898"><ele>74.0</ele><time>2026-04-23T13:05:56Z</time></trkpt><trkpt lat="45.33836025613478" lon="9.846168981665437"><ele>73.25</ele><time>2026-04-23T13:05:57Z</time></trkpt><trkpt lat="45.33831876314941" lon="9.84632550723565"><ele>72.5</ele><time>2026-04-23T13:05:58Z</time></trkpt><trkpt lat="45.338275183764715" lon="9.84648083282409"><ele>71.75</ele><time>2026-04-23T13:05:59Z</time></trkpt><trkpt lat="45.338234047338176" lon="9.846632386189691"><ele>71.0</ele><time>2026-04-23T13:06:00Z</time></trkpt><trkpt lat="45.33819650202663" lon="9.8467840388122"><ele>71.0</ele><time>2026-04-23T13:06:01Z</time></trkpt><trkpt lat="45.33815478508297" lon="9.846941441207463"><ele>71.0</ele><time>2026-04-23T13:06:02Z</time></trkpt><trkpt lat="45.33811281940176" lon="9.847093506537918"><ele>71.0</ele><time>2026-04-23T13:06:03Z</time></trkpt><trkpt lat="45.33807533936057" lon="9.847252719438272"><ele>71.0</ele><time>2026-04-23T13:06:04Z</time></trkpt><trkpt lat="45.33804342456114" lon="9.847410848619164"><ele>71.0</ele><time>2026-04-23T13:06:05Z</time></trkpt><trkpt lat="45.33801210900561" lon="9.847571461955265"><ele>71.0</ele><time>2026-04-23T13:06:06Z</time></trkpt><trkpt lat="45.33798579066836" lon="9.847733182844662"><ele>71.0</ele><time>2026-04-23T13:06:07Z</time></trkpt><trkpt lat="45.337965081327155" lon="9.847888288096804"><ele>71.0</ele><time>2026-04-23T13:06:08Z</time></trkpt><trkpt lat="45.33794559305367" lon="9.848039412792197"><ele>71.0</ele><time>2026-04-23T13:06:09Z</time></trkpt><trkpt lat="45.337926541706246" lon="9.848196176631854"><ele>71.0</ele><time>2026-04-23T13:06:10Z</time></trkpt><trkpt lat="45.33790971922389" lon="9.848354603377008"><ele>71.0</ele><time>2026-04-23T13:06:11Z</time></trkpt><trkpt lat="45.33789289321075" lon="9.848514818801691"><ele>71.0</ele><time>2026-04-23T13:06:12Z</time></trkpt><trkpt lat="45.33787665483827" lon="9.848666806419434"><ele>71.0</ele><time>2026-04-23T13:06:13Z</time></trkpt><trkpt lat="45.3378560405695" lon="9.848820556314635"><ele>70.6</ele><time>2026-04-23T13:06:14Z</time></trkpt><trkpt lat="45.337839583232615" lon="9.8489796546114"><ele>70.19999999999999</ele><time>2026-04-23T13:06:15Z</time></trkpt><trkpt lat="45.337839762292425" lon="9.849125804153582"><ele>69.80000000000001</ele><time>2026-04-23T13:06:16Z</time></trkpt><trkpt lat="45.33785124620869" lon="9.849273664154614"><ele>69.4</ele><time>2026-04-23T13:06:17Z</time></trkpt><trkpt lat="45.33787546774812" lon="9.849428878761882"><ele>69.0</ele><time>2026-04-23T13:06:18Z</time></trkpt><trkpt lat="45.33789925224792" lon="9.849596878099911"><ele>69.0</ele><time>2026-04-23T13:06:19Z</time></trkpt><trkpt lat="45.33791370850973" lon="9.849770980469206"><ele>69.0</ele><time>2026-04-23T13:06:20Z</time></trkpt><trkpt lat="45.337924610643846" lon="9.849925949804534"><ele>69.0</ele><time>2026-04-23T13:06:21Z</time></trkpt><trkpt lat="45.33793240745262" lon="9.850062634249229"><ele>69.0</ele><time>2026-04-23T13:06:22Z</time></trkpt><trkpt lat="45.337927670260704" lon="9.850214085998546"><ele>69.0</ele><time>2026-04-23T13:06:23Z</time></trkpt><trkpt lat="45.33791010953251" lon="9.850351680178537"><ele>69.0</ele><time>2026-04-23T13:06:24Z</time></trkpt><trkpt lat="45.33788416218557" lon="9.85049877112354"><ele>69.0</ele><time>2026-04-23T13:06:25Z</time></trkpt><trkpt lat="45.33785742266525" lon="9.850650189196935"><ele>69.0</ele><time>2026-04-23T13:06:26Z</time></trkpt><trkpt lat="45.337829434638635" lon="9.85078496472414"><ele>69.0</ele><time>2026-04-23T13:06:27Z</time></trkpt><trkpt lat="45.33779190167414" lon="9.850897497451808"><ele>69.0</ele><time>2026-04-23T13:06:28Z</time></trkpt><trkpt lat="45.33775958708271" lon="9.850990865951141"><ele>69.2</ele><time>2026-04-23T13:06:29Z</time></trkpt><trkpt lat="45.33768986660875" lon="9.851132344274319"><ele>69.4</ele><time>2026-04-23T13:06:31Z</time></trkpt><trkpt lat="45.33763757879442" lon="9.851213742305102"><ele>69.6</ele><time>2026-04-23T13:06:32Z</time></trkpt><trkpt lat="45.337570865286054" lon="9.851295967004694"><ele>69.8</ele><time>2026-04-23T13:06:33Z</time></trkpt><trkpt lat="45.33750370946431" lon="9.851383084281398"><ele>70.0</ele><time>2026-04-23T13:06:34Z</time></trkpt><trkpt lat="45.33743674368431" lon="9.851461380892719"><ele>70.0</ele><time>2026-04-23T13:06:35Z</time></trkpt><trkpt lat="45.33736282188481" lon="9.851543713317069"><ele>70.0</ele><time>2026-04-23T13:06:36Z</time></trkpt><trkpt lat="45.33728483607161" lon="9.85163522012723"><ele>70.0</ele><time>2026-04-23T13:06:37Z</time></trkpt><trkpt lat="45.33721044464655" lon="9.851724875425758"><ele>70.0</ele><time>2026-04-23T13:06:38Z</time></trkpt><trkpt lat="45.337130592915926" lon="9.851819757406254"><ele>70.0</ele><time>2026-04-23T13:06:39Z</time></trkpt><trkpt lat="45.33705135480531" lon="9.851915620025725"><ele>70.0</ele><time>2026-04-23T13:06:40Z</time></trkpt><trkpt lat="45.33696519941235" lon="9.852017339152127"><ele>70.0</ele><time>2026-04-23T13:06:41Z</time></trkpt><trkpt lat="45.33686877832076" lon="9.852128382506672"><ele>70.0</ele><time>2026-04-23T13:06:42Z</time></trkpt><trkpt lat="45.33676530171896" lon="9.852247693876167"><ele>70.0</ele><time>2026-04-23T13:06:43Z</time></trkpt><trkpt lat="45.33666701165727" lon="9.852360877850694"><ele>70.0</ele><time>2026-04-23T13:06:44Z</time></trkpt><trkpt lat="45.33659521542308" lon="9.852458462784536"><ele>70.0</ele><time>2026-04-23T13:06:45Z</time></trkpt><trkpt lat="45.33654397421113" lon="9.85255844516448"><ele>70.0</ele><time>2026-04-23T13:06:46Z</time></trkpt><trkpt lat="45.33649747177071" lon="9.85267551995567"><ele>70.0</ele><time>2026-04-23T13:06:47Z</time></trkpt><trkpt lat="45.33645078519755" lon="9.85280767371693"><ele>70.0</ele><time>2026-04-23T13:06:48Z</time></trkpt><trkpt lat="45.336403410626076" lon="9.852945547076672"><ele>70.0</ele><time>2026-04-23T13:06:49Z</time></trkpt><trkpt lat="45.33635260540112" lon="9.853081243068358"><ele>70.0</ele><time>2026-04-23T13:06:50Z</time></trkpt><trkpt lat="45.33630404024094" lon="9.853214732717582"><ele>70.0</ele><time>2026-04-23T13:06:51Z</time></trkpt><trkpt lat="45.3362546500223" lon="9.853355599636885"><ele>70.0</ele><time>2026-04-23T13:06:52Z</time></trkpt><trkpt lat="45.33621722505599" lon="9.853499614418036"><ele>70.0</ele><time>2026-04-23T13:06:53Z</time></trkpt><trkpt lat="45.336199194802894" lon="9.853644471963968"><ele>70.0</ele><time>2026-04-23T13:06:54Z</time></trkpt><trkpt lat="45.33619701900501" lon="9.853798260520776"><ele>70.0</ele><time>2026-04-23T13:06:55Z</time></trkpt><trkpt lat="45.336196655211054" lon="9.853956851771015"><ele>70.0</ele><time>2026-04-23T13:06:56Z</time></trkpt><trkpt lat="45.33619161242413" lon="9.854112628973567"><ele>70.0</ele><time>2026-04-23T13:06:57Z</time></trkpt><trkpt lat="45.336179356688554" lon="9.854258550103372"><ele>70.0</ele><time>2026-04-23T13:06:58Z</time></trkpt><trkpt lat="45.33616670120827" lon="9.854398580436992"><ele>70.33333333333333</ele><time>2026-04-23T13:06:59Z</time></trkpt><trkpt lat="45.336159760338916" lon="9.854528660076431"><ele>70.66666666666666</ele><time>2026-04-23T13:07:00Z</time></trkpt><trkpt lat="45.336150217494435" lon="9.854654124658403"><ele>71.0</ele><time>2026-04-23T13:07:01Z</time></trkpt><trkpt lat="45.33613765805124" lon="9.854765874553637"><ele>71.33333333333333</ele><time>2026-04-23T13:07:02Z</time></trkpt><trkpt lat="45.33612542506873" lon="9.854870514011006"><ele>71.66666666666667</ele><time>2026-04-23T13:07:03Z</time></trkpt><trkpt lat="45.3361114829046" lon="9.854968519244526"><ele>72.0</ele><time>2026-04-23T13:07:04Z</time></trkpt><trkpt lat="45.336099453700896" lon="9.855056695566555"><ele>71.83333333333333</ele><time>2026-04-23T13:07:05Z</time></trkpt><trkpt lat="45.33604694350482" lon="9.855197400994655"><ele>71.66666666666667</ele><time>2026-04-23T13:07:07Z</time></trkpt><trkpt lat="45.336011285065446" lon="9.855287283578711"><ele>71.5</ele><time>2026-04-23T13:07:08Z</time></trkpt><trkpt lat="45.3359746887522" lon="9.855396156489514"><ele>71.33333333333334</ele><time>2026-04-23T13:07:09Z</time></trkpt><trkpt lat="45.33594318428378" lon="9.85549288443751"><ele>71.16666666666667</ele><time>2026-04-23T13:07:10Z</time></trkpt><trkpt lat="45.3359057588167" lon="9.855589932999758"><ele>71.0</ele><time>2026-04-23T13:07:12Z</time></trkpt><trkpt lat="45.33586509482137" lon="9.855757244851816"><ele>71.0</ele><time>2026-04-23T13:07:14Z</time></trkpt><trkpt lat="45.335834658550986" lon="9.855848884389948"><ele>71.0</ele><time>2026-04-23T13:07:15Z</time></trkpt><trkpt lat="45.33580108846096" lon="9.855927452088302"><ele>71.0</ele><time>2026-04-23T13:07:16Z</time></trkpt><trkpt lat="45.335732228385034" lon="9.85607321880816"><ele>71.0</ele><time>2026-04-23T13:07:18Z</time></trkpt><trkpt lat="45.33569604255327" lon="9.856175920316218"><ele>71.0</ele><time>2026-04-23T13:07:19Z</time></trkpt><trkpt lat="45.33565319607585" lon="9.856290590384843"><ele>71.0</ele><time>2026-04-23T13:07:20Z</time></trkpt><trkpt lat="45.33561930294899" lon="9.856404977580029"><ele>71.0</ele><time>2026-04-23T13:07:21Z</time></trkpt><trkpt lat="45.33558936564696" lon="9.856495986672625"><ele>71.0</ele><time>2026-04-23T13:07:22Z</time></trkpt><trkpt lat="45.3355543603664" lon="9.856595643157299"><ele>71.0</ele><time>2026-04-23T13:07:23Z</time></trkpt><trkpt lat="45.335510547437146" lon="9.856700206726066"><ele>71.0</ele><time>2026-04-23T13:07:24Z</time></trkpt><trkpt lat="45.33546908935198" lon="9.856814961986629"><ele>71.0</ele><time>2026-04-23T13:07:25Z</time></trkpt><trkpt lat="45.33542636657156" lon="9.856932022652737"><ele>71.0</ele><time>2026-04-23T13:07:26Z</time></trkpt><trkpt lat="45.335382094001204" lon="9.857051245212059"><ele>70.8</ele><time>2026-04-23T13:07:27Z</time></trkpt><trkpt lat="45.33533843689669" lon="9.857172269759845"><ele>70.6</ele><time>2026-04-23T13:07:28Z</time></trkpt><trkpt lat="45.33530254350267" lon="9.85727299793893"><ele>70.4</ele><time>2026-04-23T13:07:29Z</time></trkpt><trkpt lat="45.335264343235934" lon="9.857381007421687"><ele>70.2</ele><time>2026-04-23T13:07:30Z</time></trkpt><trkpt lat="45.33522043685688" lon="9.857504748628395"><ele>70.0</ele><time>2026-04-23T13:07:31Z</time></trkpt><trkpt lat="45.33517237654341" lon="9.85764516225673"><ele>69.8</ele><time>2026-04-23T13:07:32Z</time></trkpt><trkpt lat="45.3351205635812" lon="9.857790753740323"><ele>69.6</ele><time>2026-04-23T13:07:33Z</time></trkpt><trkpt lat="45.33506808124727" lon="9.85792460291923"><ele>69.4</ele><time>2026-04-23T13:07:34Z</time></trkpt><trkpt lat="45.33502027031256" lon="9.858031626546564"><ele>69.2</ele><time>2026-04-23T13:07:35Z</time></trkpt><trkpt lat="45.33497650275397" lon="9.858109825629658"><ele>69.0</ele><time>2026-04-23T13:07:36Z</time></trkpt><trkpt lat="45.33492180156414" lon="9.858173385005836"><ele>69.0</ele><time>2026-04-23T13:07:37Z</time></trkpt><trkpt lat="45.33485555846898" lon="9.8582335498068"><ele>69.0</ele><time>2026-04-23T13:07:38Z</time></trkpt><trkpt lat="45.33477735708804" lon="9.858298024622565"><ele>69.0</ele><time>2026-04-23T13:07:39Z</time></trkpt><trkpt lat="45.33469868015393" lon="9.858359187127279"><ele>69.0</ele><time>2026-04-23T13:07:40Z</time></trkpt><trkpt lat="45.33461558701378" lon="9.858412293333629"><ele>69.0</ele><time>2026-04-23T13:07:41Z</time></trkpt><trkpt lat="45.33452540865477" lon="9.858463501757285"><ele>69.0</ele><time>2026-04-23T13:07:42Z</time></trkpt><trkpt lat="45.33442913148291" lon="9.858508262831101"><ele>68.60000000000001</ele><time>2026-04-23T13:07:43Z</time></trkpt><trkpt lat="45.33433125886988" lon="9.85854364371217"><ele>68.2</ele><time>2026-04-23T13:07:44Z</time></trkpt><trkpt lat="45.33422364084461" lon="9.85857027604341"><ele>67.80000000000001</ele><time>2026-04-23T13:07:45Z</time></trkpt><trkpt lat="45.33410857660386" lon="9.858599250160273"><ele>67.4</ele><time>2026-04-23T13:07:46Z</time></trkpt><trkpt lat="45.33400029182554" lon="9.858626594297206"><ele>67.0</ele><time>2026-04-23T13:07:47Z</time></trkpt><trkpt lat="45.33392630384597" lon="9.858634723661204"><ele>67.16666666666666</ele><time>2026-04-23T13:07:48Z</time></trkpt><trkpt lat="45.33382361656482" lon="9.858608375913889"><ele>67.33333333333333</ele><time>2026-04-23T13:07:50Z</time></trkpt><trkpt lat="45.333727924897495" lon="9.858624851270587"><ele>67.5</ele><time>2026-04-23T13:07:52Z</time></trkpt><trkpt lat="45.33367012942426" lon="9.85867740962731"><ele>67.66666666666667</ele><time>2026-04-23T13:07:53Z</time></trkpt><trkpt lat="45.33360576605024" lon="9.85872032556537"><ele>67.83333333333334</ele><time>2026-04-23T13:07:54Z</time></trkpt><trkpt lat="45.33351093483255" lon="9.858747289815463"><ele>68.0</ele><time>2026-04-23T13:07:56Z</time></trkpt><trkpt lat="45.33347753806824" lon="9.858663702111818"><ele>68.0</ele><time>2026-04-23T13:07:58Z</time></trkpt><trkpt lat="45.333454091808434" lon="9.858531497422161"><ele>68.0</ele><time>2026-04-23T13:08:00Z</time></trkpt><trkpt lat="45.33337340679502" lon="9.858493727325625"><ele>68.0</ele><time>2026-04-23T13:08:02Z</time></trkpt><trkpt lat="45.333266400437914" lon="9.858547393374673"><ele>68.0</ele><time>2026-04-23T13:08:04Z</time></trkpt><trkpt lat="45.33315529421642" lon="9.8585955315512"><ele>68.0</ele><time>2026-04-23T13:08:06Z</time></trkpt><trkpt lat="45.33305028978777" lon="9.858671076464091"><ele>68.5</ele><time>2026-04-23T13:08:08Z</time></trkpt><trkpt lat="45.33299097612341" lon="9.858715928586818"><ele>69.0</ele><time>2026-04-23T13:08:09Z</time></trkpt><trkpt lat="45.332940978852875" lon="9.858775522714627"><ele>69.5</ele><time>2026-04-23T13:08:10Z</time></trkpt><trkpt lat="45.332850567568066" lon="9.858766515432281"><ele>70.0</ele><time>2026-04-23T13:08:12Z</time></trkpt><trkpt lat="45.332776221009155" lon="9.85865588726955"><ele>70.5</ele><time>2026-04-23T13:08:14Z</time></trkpt><trkpt lat="45.33274475472628" lon="9.858576366474688"><ele>71.0</ele><time>2026-04-23T13:08:15Z</time></trkpt><trkpt lat="45.332675013720795" lon="9.858435325998077"><ele>71.0</ele><time>2026-04-23T13:08:17Z</time></trkpt><trkpt lat="45.33263022210498" lon="9.85837035816973"><ele>71.0</ele><time>2026-04-23T13:08:18Z</time></trkpt><trkpt lat="45.33258266355807" lon="9.858305573711405"><ele>71.0</ele><time>2026-04-23T13:08:19Z</time></trkpt><trkpt lat="45.332537574668976" lon="9.858189316364616"><ele>71.0</ele><time>2026-04-23T13:08:21Z</time></trkpt><trkpt lat="45.3325903057337" lon="9.858070495567121"><ele>71.0</ele><time>2026-04-23T13:08:23Z</time></trkpt><trkpt lat="45.33269287781578" lon="9.857979073392885"><ele>71.0</ele><time>2026-04-23T13:08:25Z</time></trkpt><trkpt lat="45.33273628135643" lon="9.857872181211453"><ele>71.0</ele><time>2026-04-23T13:08:27Z</time></trkpt><trkpt lat="45.33269130201894" lon="9.857714077546337"><ele>71.0</ele><time>2026-04-23T13:08:29Z</time></trkpt><trkpt lat="45.33284271589424" lon="9.857493083981009"><ele>71.0</ele><time>2026-04-23T13:08:30Z</time></trkpt><trkpt lat="45.33280762857021" lon="9.85738695335617"><ele>71.0</ele><time>2026-04-23T13:08:31Z</time></trkpt><trkpt lat="45.33277109508918" lon="9.857274188458039"><ele>71.0</ele><time>2026-04-23T13:08:32Z</time></trkpt><trkpt lat="45.33273356971648" lon="9.857153819251915"><ele>71.0</ele><time>2026-04-23T13:08:33Z</time></trkpt><trkpt lat="45.33270705836711" lon="9.857046553197625"><ele>71.0</ele><time>2026-04-23T13:08:34Z</time></trkpt><trkpt lat="45.33268530886929" lon="9.856937340153548"><ele>71.0</ele><time>2026-04-23T13:08:35Z</time></trkpt><trkpt lat="45.33267157439899" lon="9.85682496781271"><ele>71.0</ele><time>2026-04-23T13:08:36Z</time></trkpt><trkpt lat="45.33267401394258" lon="9.856726993966793"><ele>71.0</ele><time>2026-04-23T13:08:37Z</time></trkpt><trkpt lat="45.33267298522809" lon="9.856572482556794"><ele>71.0</ele><time>2026-04-23T13:08:38Z</time></trkpt><trkpt lat="45.33267844615632" lon="9.856419784953092"><ele>71.0</ele><time>2026-04-23T13:08:39Z</time></trkpt><trkpt lat="45.33269852172203" lon="9.856297639652707"><ele>71.0</ele><time>2026-04-23T13:08:40Z</time></trkpt><trkpt lat="45.33272746894155" lon="9.85613678086074"><ele>71.0</ele><time>2026-04-23T13:08:41Z</time></trkpt><trkpt lat="45.33276176641812" lon="9.855965084349876"><ele>71.0</ele><time>2026-04-23T13:08:42Z</time></trkpt><trkpt lat="45.33279187334877" lon="9.855814366122164"><ele>71.0</ele><time>2026-04-23T13:08:43Z</time></trkpt><trkpt lat="45.33281875024996" lon="9.855683537671318"><ele>71.0</ele><time>2026-04-23T13:08:44Z</time></trkpt><trkpt lat="45.33284550809839" lon="9.85555388418823"><ele>71.0</ele><time>2026-04-23T13:08:45Z</time></trkpt><trkpt lat="45.33286914805405" lon="9.855449552657348"><ele>71.0</ele><time>2026-04-23T13:08:46Z</time></trkpt><trkpt lat="45.33289309760836" lon="9.855364911726642"><ele>71.0</ele><time>2026-04-23T13:08:47Z</time></trkpt><trkpt lat="45.332926722809574" lon="9.855253948178618"><ele>71.0</ele><time>2026-04-23T13:08:48Z</time></trkpt><trkpt lat="45.33295441341442" lon="9.855121974334445"><ele>71.0</ele><time>2026-04-23T13:08:49Z</time></trkpt><trkpt lat="45.332967532664874" lon="9.854999744617755"><ele>71.0</ele><time>2026-04-23T13:08:50Z</time></trkpt><trkpt lat="45.332987448576205" lon="9.854884684171699"><ele>71.0</ele><time>2026-04-23T13:08:51Z</time></trkpt><trkpt lat="45.33301220966396" lon="9.854757312172167"><ele>71.0</ele><time>2026-04-23T13:08:52Z</time></trkpt><trkpt lat="45.33304226672628" lon="9.854616337265721"><ele>71.0</ele><time>2026-04-23T13:08:53Z</time></trkpt><trkpt lat="45.33307438447239" lon="9.854465697257032"><ele>71.0</ele><time>2026-04-23T13:08:54Z</time></trkpt><trkpt lat="45.333108358776705" lon="9.854306349537579"><ele>71.0</ele><time>2026-04-23T13:08:55Z</time></trkpt><trkpt lat="45.333143724768945" lon="9.854140474465892"><ele>71.0</ele><time>2026-04-23T13:08:56Z</time></trkpt><trkpt lat="45.33318044870631" lon="9.853967161729647"><ele>71.0</ele><time>2026-04-23T13:08:57Z</time></trkpt><trkpt lat="45.33321808701235" lon="9.853787412210261"><ele>71.0</ele><time>2026-04-23T13:08:58Z</time></trkpt><trkpt lat="45.33325636822578" lon="9.853604592356366"><ele>71.0</ele><time>2026-04-23T13:08:59Z</time></trkpt><trkpt lat="45.333291094789274" lon="9.853438748469284"><ele>71.0</ele><time>2026-04-23T13:09:00Z</time></trkpt><trkpt lat="45.33332342811256" lon="9.853284328697649"><ele>71.0</ele><time>2026-04-23T13:09:01Z</time></trkpt><trkpt lat="45.33335787577675" lon="9.85312129496713"><ele>70.5</ele><time>2026-04-23T13:09:02Z</time></trkpt><trkpt lat="45.33339232514214" lon="9.852958253185824"><ele>70.0</ele><time>2026-04-23T13:09:03Z</time></trkpt><trkpt lat="45.33342658526821" lon="9.852796107036294"><ele>69.5</ele><time>2026-04-23T13:09:04Z</time></trkpt><trkpt lat="45.33346057473207" lon="9.852635241866379"><ele>69.0</ele><time>2026-04-23T13:09:05Z</time></trkpt><trkpt lat="45.33349434756148" lon="9.8524754019896"><ele>68.75</ele><time>2026-04-23T13:09:06Z</time></trkpt><trkpt lat="45.33352828552931" lon="9.852314780549992"><ele>68.5</ele><time>2026-04-23T13:09:07Z</time></trkpt><trkpt lat="45.33356206730295" lon="9.852154898338192"><ele>68.25</ele><time>2026-04-23T13:09:08Z</time></trkpt><trkpt lat="45.33359770502353" lon="9.851986232317918"><ele>68.0</ele><time>2026-04-23T13:09:09Z</time></trkpt><trkpt lat="45.33363477165907" lon="9.85181273389995"><ele>68.25</ele><time>2026-04-23T13:09:10Z</time></trkpt><trkpt lat="45.33367184947191" lon="9.851639959622863"><ele>68.5</ele><time>2026-04-23T13:09:11Z</time></trkpt><trkpt lat="45.333706688321385" lon="9.851477618415107"><ele>68.75</ele><time>2026-04-23T13:09:12Z</time></trkpt><trkpt lat="45.33374377595525" lon="9.851304798371197"><ele>69.0</ele><time>2026-04-23T13:09:13Z</time></trkpt><trkpt lat="45.33378342382267" lon="9.851120048219089"><ele>69.5</ele><time>2026-04-23T13:09:14Z</time></trkpt><trkpt lat="45.33382427104015" lon="9.850929709358615"><ele>70.0</ele><time>2026-04-23T13:09:15Z</time></trkpt><trkpt lat="45.33386097845222" lon="9.850749767851076"><ele>70.5</ele><time>2026-04-23T13:09:16Z</time></trkpt><trkpt lat="45.333895642997994" lon="9.850578001490963"><ele>71.0</ele><time>2026-04-23T13:09:17Z</time></trkpt><trkpt lat="45.33393169493011" lon="9.850400105650383"><ele>71.0</ele><time>2026-04-23T13:09:18Z</time></trkpt><trkpt lat="45.33396900492529" lon="9.850225071105024"><ele>71.0</ele><time>2026-04-23T13:09:19Z</time></trkpt><trkpt lat="45.334005354679725" lon="9.850054541393323"><ele>71.0</ele><time>2026-04-23T13:09:20Z</time></trkpt><trkpt lat="45.33404170391499" lon="9.849883173059796"><ele>71.0</ele><time>2026-04-23T13:09:21Z</time></trkpt><trkpt lat="45.33407707454792" lon="9.849715337381303"><ele>70.75</ele><time>2026-04-23T13:09:22Z</time></trkpt><trkpt lat="45.33411017477688" lon="9.849558274897433"><ele>70.5</ele><time>2026-04-23T13:09:23Z</time></trkpt><trkpt lat="45.33414221854435" lon="9.849407276587042"><ele>70.25</ele><time>2026-04-23T13:09:24Z</time></trkpt><trkpt lat="45.334177127553176" lon="9.849243459136495"><ele>70.0</ele><time>2026-04-23T13:09:25Z</time></trkpt><trkpt lat="45.33421357740314" lon="9.849072410983368"><ele>69.75</ele><time>2026-04-23T13:09:26Z</time></trkpt><trkpt lat="45.334250611951305" lon="9.848898619017598"><ele>69.5</ele><time>2026-04-23T13:09:27Z</time></trkpt><trkpt lat="45.33428982914904" lon="9.848714163190811"><ele>69.25</ele><time>2026-04-23T13:09:28Z</time></trkpt><trkpt lat="45.3343296785252" lon="9.848525514196975"><ele>69.0</ele><time>2026-04-23T13:09:29Z</time></trkpt><trkpt lat="45.334369760517134" lon="9.848335763989395"><ele>68.75</ele><time>2026-04-23T13:09:30Z</time></trkpt><trkpt lat="45.334405576945294" lon="9.848166823311736"><ele>68.5</ele><time>2026-04-23T13:09:31Z</time></trkpt><trkpt lat="45.334441614071885" lon="9.848000452891059"><ele>68.25</ele><time>2026-04-23T13:09:32Z</time></trkpt><trkpt lat="45.33447937653377" lon="9.847826117224303"><ele>68.0</ele><time>2026-04-23T13:09:33Z</time></trkpt><trkpt lat="45.33451997171743" lon="9.84763870388619"><ele>68.25</ele><time>2026-04-23T13:09:34Z</time></trkpt><trkpt lat="45.33455656357724" lon="9.847463670060668"><ele>68.5</ele><time>2026-04-23T13:09:35Z</time></trkpt><trkpt lat="45.334590513674236" lon="9.847300773350467"><ele>68.75</ele><time>2026-04-23T13:09:36Z</time></trkpt><trkpt lat="45.33462769391877" lon="9.847122378000453"><ele>69.0</ele><time>2026-04-23T13:09:37Z</time></trkpt><trkpt lat="45.33466838751143" lon="9.846928292642867"><ele>68.75</ele><time>2026-04-23T13:09:38Z</time></trkpt><trkpt lat="45.33470671709216" lon="9.846745532150017"><ele>68.5</ele><time>2026-04-23T13:09:39Z</time></trkpt><trkpt lat="45.33474314416697" lon="9.846571843045696"><ele>68.25</ele><time>2026-04-23T13:09:40Z</time></trkpt><trkpt lat="45.33477913682131" lon="9.846400225319359"><ele>68.0</ele><time>2026-04-23T13:09:41Z</time></trkpt><trkpt lat="45.33481772940508" lon="9.846215845745803"><ele>68.25</ele><time>2026-04-23T13:09:42Z</time></trkpt><trkpt lat="45.33485590966682" lon="9.846031572955125"><ele>68.5</ele><time>2026-04-23T13:09:43Z</time></trkpt><trkpt lat="45.33489132594439" lon="9.845860640229933"><ele>68.75</ele><time>2026-04-23T13:09:44Z</time></trkpt><trkpt lat="45.33492519660284" lon="9.845697167258464"><ele>69.0</ele><time>2026-04-23T13:09:45Z</time></trkpt><trkpt lat="45.334954733490726" lon="9.845554610745411"><ele>69.0</ele><time>2026-04-23T13:09:46Z</time></trkpt><trkpt lat="45.33498683565342" lon="9.845404653625627"><ele>69.0</ele><time>2026-04-23T13:09:47Z</time></trkpt><trkpt lat="45.33502316850484" lon="9.845239937934265"><ele>69.0</ele><time>2026-04-23T13:09:48Z</time></trkpt><trkpt lat="45.335057846039284" lon="9.84507821102659"><ele>69.0</ele><time>2026-04-23T13:09:49Z</time></trkpt><trkpt lat="45.335088374560556" lon="9.844931412985812"><ele>69.2</ele><time>2026-04-23T13:09:50Z</time></trkpt><trkpt lat="45.33511554318637" lon="9.844802579816424"><ele>69.4</ele><time>2026-04-23T13:09:51Z</time></trkpt><trkpt lat="45.33513839974346" lon="9.8447132753589"><ele>69.6</ele><time>2026-04-23T13:09:52Z</time></trkpt><trkpt lat="45.33516512615483" lon="9.84462636908904"><ele>69.8</ele><time>2026-04-23T13:09:53Z</time></trkpt><trkpt lat="45.33520773838044" lon="9.844460005017199"><ele>70.0</ele><time>2026-04-23T13:09:54Z</time></trkpt><trkpt lat="45.33523352902349" lon="9.844312169366656"><ele>69.66666666666666</ele><time>2026-04-23T13:09:55Z</time></trkpt><trkpt lat="45.33526049044621" lon="9.844157622630588"><ele>69.33333333333333</ele><time>2026-04-23T13:09:56Z</time></trkpt><trkpt lat="45.3350883768466" lon="9.843930196588838"><ele>69.0</ele><time>2026-04-23T13:09:57Z</time></trkpt><trkpt lat="45.33512017860104" lon="9.843777164956888"><ele>69.0</ele><time>2026-04-23T13:09:58Z</time></trkpt><trkpt lat="45.33515249458861" lon="9.843622517535014"><ele>69.0</ele><time>2026-04-23T13:09:59Z</time></trkpt><trkpt lat="45.33518481245672" lon="9.843462762210892"><ele>69.0</ele><time>2026-04-23T13:10:00Z</time></trkpt><trkpt lat="45.33521450940533" lon="9.84330962001127"><ele>69.0</ele><time>2026-04-23T13:10:01Z</time></trkpt><trkpt lat="45.33524779589305" lon="9.843157201974071"><ele>69.2</ele><time>2026-04-23T13:10:02Z</time></trkpt><trkpt lat="45.335279225225094" lon="9.842999598874616"><ele>69.4</ele><time>2026-04-23T13:10:03Z</time></trkpt><trkpt lat="45.335311309625794" lon="9.84285671976729"><ele>69.6</ele><time>2026-04-23T13:10:04Z</time></trkpt><trkpt lat="45.33534132849235" lon="9.842709120952787"><ele>69.8</ele><time>2026-04-23T13:10:05Z</time></trkpt><trkpt lat="45.335378373366765" lon="9.842548425776405"><ele>70.0</ele><time>2026-04-23T13:10:06Z</time></trkpt><trkpt lat="45.33541252269707" lon="9.842380600507136"><ele>70.0</ele><time>2026-04-23T13:10:07Z</time></trkpt><trkpt lat="45.33544768294775" lon="9.842213781305349"><ele>70.0</ele><time>2026-04-23T13:10:08Z</time></trkpt><trkpt lat="45.33548468118372" lon="9.84203720167354"><ele>70.0</ele><time>2026-04-23T13:10:09Z</time></trkpt><trkpt lat="45.3355257364747" lon="9.84186012588363"><ele>70.0</ele><time>2026-04-23T13:10:10Z</time></trkpt><trkpt lat="45.335559757237235" lon="9.84168626893908"><ele>70.0</ele><time>2026-04-23T13:10:11Z</time></trkpt><trkpt lat="45.33559831709962" lon="9.841506877622027"><ele>70.0</ele><time>2026-04-23T13:10:12Z</time></trkpt><trkpt lat="45.335639446524226" lon="9.841321272068967"><ele>70.0</ele><time>2026-04-23T13:10:13Z</time></trkpt><trkpt lat="45.3356778187573" lon="9.841129187102132"><ele>70.0</ele><time>2026-04-23T13:10:14Z</time></trkpt><trkpt lat="45.33571026450795" lon="9.840971167595669"><ele>69.8</ele><time>2026-04-23T13:10:15Z</time></trkpt><trkpt lat="45.3357385344112" lon="9.84082862882867"><ele>69.6</ele><time>2026-04-23T13:10:16Z</time></trkpt><trkpt lat="45.335769786356316" lon="9.84068967925592"><ele>69.4</ele><time>2026-04-23T13:10:17Z</time></trkpt><trkpt lat="45.33580240030822" lon="9.840544288061785"><ele>69.2</ele><time>2026-04-23T13:10:18Z</time></trkpt><trkpt lat="45.33583781744073" lon="9.840390724843044"><ele>69.0</ele><time>2026-04-23T13:10:19Z</time></trkpt><trkpt lat="45.3358700460165" lon="9.84023260136828"><ele>69.25</ele><time>2026-04-23T13:10:20Z</time></trkpt><trkpt lat="45.33590346017874" lon="9.840076620767917"><ele>69.5</ele><time>2026-04-23T13:10:21Z</time></trkpt><trkpt lat="45.335933549006455" lon="9.839919714197837"><ele>69.75</ele><time>2026-04-23T13:10:22Z</time></trkpt><trkpt lat="45.335961535386915" lon="9.839763812038674"><ele>70.0</ele><time>2026-04-23T13:10:23Z</time></trkpt><trkpt lat="45.33599430994955" lon="9.839612030780616"><ele>70.0</ele><time>2026-04-23T13:10:24Z</time></trkpt><trkpt lat="45.336027304395074" lon="9.83946819417306"><ele>70.0</ele><time>2026-04-23T13:10:25Z</time></trkpt><trkpt lat="45.33605709746893" lon="9.839322960471957"><ele>70.0</ele><time>2026-04-23T13:10:26Z</time></trkpt><trkpt lat="45.336088826780916" lon="9.83917047218047"><ele>70.0</ele><time>2026-04-23T13:10:27Z</time></trkpt><trkpt lat="45.33612009392414" lon="9.839021590400632"><ele>70.0</ele><time>2026-04-23T13:10:28Z</time></trkpt><trkpt lat="45.336151523762624" lon="9.838874954408086"><ele>70.0</ele><time>2026-04-23T13:10:29Z</time></trkpt><trkpt lat="45.33618155083595" lon="9.838723714151296"><ele>70.0</ele><time>2026-04-23T13:10:30Z</time></trkpt><trkpt lat="45.33621272607211" lon="9.83856588318337"><ele>70.0</ele><time>2026-04-23T13:10:31Z</time></trkpt><trkpt lat="45.336248794223714" lon="9.83840102999739"><ele>70.0</ele><time>2026-04-23T13:10:32Z</time></trkpt><trkpt lat="45.3362880466733" lon="9.838231301871787"><ele>70.0</ele><time>2026-04-23T13:10:33Z</time></trkpt><trkpt lat="45.33632686741639" lon="9.838068256564192"><ele>70.0</ele><time>2026-04-23T13:10:34Z</time></trkpt><trkpt lat="45.33636697005874" lon="9.837903862270029"><ele>70.0</ele><time>2026-04-23T13:10:35Z</time></trkpt><trkpt lat="45.336411085992296" lon="9.837726830786425"><ele>70.0</ele><time>2026-04-23T13:10:36Z</time></trkpt><trkpt lat="45.336460371103854" lon="9.837542103973501"><ele>70.5</ele><time>2026-04-23T13:10:37Z</time></trkpt><trkpt lat="45.336508605831824" lon="9.837367277760416"><ele>71.0</ele><time>2026-04-23T13:10:38Z</time></trkpt><trkpt lat="45.33655417717309" lon="9.837195610534037"><ele>71.5</ele><time>2026-04-23T13:10:39Z</time></trkpt><trkpt lat="45.33660266439399" lon="9.837019299122577"><ele>72.0</ele><time>2026-04-23T13:10:40Z</time></trkpt><trkpt lat="45.336654266717986" lon="9.836843218853309"><ele>71.75</ele><time>2026-04-23T13:10:41Z</time></trkpt><trkpt lat="45.3367037978944" lon="9.836682723331226"><ele>71.5</ele><time>2026-04-23T13:10:42Z</time></trkpt><trkpt lat="45.33674993713224" lon="9.836524419667697"><ele>71.25</ele><time>2026-04-23T13:10:43Z</time></trkpt><trkpt lat="45.33679176955302" lon="9.83636136353551"><ele>71.0</ele><time>2026-04-23T13:10:44Z</time></trkpt><trkpt lat="45.33683893109477" lon="9.836189476889103"><ele>71.0</ele><time>2026-04-23T13:10:45Z</time></trkpt><trkpt lat="45.33688757251753" lon="9.836017648383745"><ele>71.0</ele><time>2026-04-23T13:10:46Z</time></trkpt><trkpt lat="45.33693131714399" lon="9.835855965736341"><ele>71.0</ele><time>2026-04-23T13:10:47Z</time></trkpt><trkpt lat="45.336973206765" lon="9.835704768355125"><ele>71.0</ele><time>2026-04-23T13:10:48Z</time></trkpt><trkpt lat="45.337015963946456" lon="9.835551530235023"><ele>70.5</ele><time>2026-04-23T13:10:49Z</time></trkpt><trkpt lat="45.33705854501838" lon="9.835382168221834"><ele>70.0</ele><time>2026-04-23T13:10:50Z</time></trkpt><trkpt lat="45.337108644364726" lon="9.83520989246145"><ele>69.5</ele><time>2026-04-23T13:10:51Z</time></trkpt><trkpt lat="45.337157415701945" lon="9.835051177469108"><ele>69.0</ele><time>2026-04-23T13:10:52Z</time></trkpt><trkpt lat="45.33719961176587" lon="9.83490880566533"><ele>69.0</ele><time>2026-04-23T13:10:53Z</time></trkpt><trkpt lat="45.33723688341551" lon="9.834774590341944"><ele>69.0</ele><time>2026-04-23T13:10:54Z</time></trkpt><trkpt lat="45.33727041697467" lon="9.83464396241479"><ele>69.0</ele><time>2026-04-23T13:10:55Z</time></trkpt><trkpt lat="45.337306751501586" lon="9.83452197441371"><ele>69.0</ele><time>2026-04-23T13:10:56Z</time></trkpt><trkpt lat="45.33734601052545" lon="9.83439648827928"><ele>69.0</ele><time>2026-04-23T13:10:57Z</time></trkpt><trkpt lat="45.33738307399037" lon="9.834267515777766"><ele>69.0</ele><time>2026-04-23T13:10:58Z</time></trkpt><trkpt lat="45.33742283940952" lon="9.834127953131414"><ele>69.0</ele><time>2026-04-23T13:10:59Z</time></trkpt><trkpt lat="45.33746789197854" lon="9.83398191563683"><ele>69.0</ele><time>2026-04-23T13:11:00Z</time></trkpt><trkpt lat="45.3375023669834" lon="9.83381697763789"><ele>69.0</ele><time>2026-04-23T13:11:01Z</time></trkpt><trkpt lat="45.33755390240588" lon="9.83365392370655"><ele>69.0</ele><time>2026-04-23T13:11:02Z</time></trkpt><trkpt lat="45.33760621986571" lon="9.833474580675585"><ele>69.0</ele><time>2026-04-23T13:11:03Z</time></trkpt><trkpt lat="45.33765875737665" lon="9.83328356099809"><ele>69.0</ele><time>2026-04-23T13:11:04Z</time></trkpt><trkpt lat="45.33771009976379" lon="9.833093081795292"><ele>69.0</ele><time>2026-04-23T13:11:05Z</time></trkpt><trkpt lat="45.33776141971183" lon="9.832916479641698"><ele>69.25</ele><time>2026-04-23T13:11:06Z</time></trkpt><trkpt lat="45.33780825549969" lon="9.83275189685894"><ele>69.5</ele><time>2026-04-23T13:11:07Z</time></trkpt><trkpt lat="45.33785653416483" lon="9.832592165254763"><ele>69.75</ele><time>2026-04-23T13:11:08Z</time></trkpt><trkpt lat="45.33790323139396" lon="9.832412114681189"><ele>70.0</ele><time>2026-04-23T13:11:09Z</time></trkpt><trkpt lat="45.33795257964923" lon="9.832238630174773"><ele>70.0</ele><time>2026-04-23T13:11:10Z</time></trkpt><trkpt lat="45.33799790136765" lon="9.832075897842378"><ele>70.0</ele><time>2026-04-23T13:11:11Z</time></trkpt><trkpt lat="45.33804384113214" lon="9.831923020832225"><ele>70.0</ele><time>2026-04-23T13:11:12Z</time></trkpt><trkpt lat="45.3380870056429" lon="9.831763724354957"><ele>70.0</ele><time>2026-04-23T13:11:13Z</time></trkpt><trkpt lat="45.33812856638054" lon="9.83160728698243"><ele>69.5</ele><time>2026-04-23T13:11:14Z</time></trkpt><trkpt lat="45.338178885707855" lon="9.831450426831301"><ele>69.0</ele><time>2026-04-23T13:11:15Z</time></trkpt><trkpt lat="45.33822411429825" lon="9.831295159451637"><ele>68.5</ele><time>2026-04-23T13:11:16Z</time></trkpt><trkpt lat="45.338265500523406" lon="9.831137222117514"><ele>68.0</ele><time>2026-04-23T13:11:17Z</time></trkpt><trkpt lat="45.338308506375945" lon="9.83097894343796"><ele>68.0</ele><time>2026-04-23T13:11:18Z</time></trkpt><trkpt lat="45.3383558084331" lon="9.830825048778461"><ele>68.0</ele><time>2026-04-23T13:11:19Z</time></trkpt><trkpt lat="45.338396732386386" lon="9.830677356806273"><ele>68.0</ele><time>2026-04-23T13:11:20Z</time></trkpt><trkpt lat="45.33843475095552" lon="9.83053825921575"><ele>68.0</ele><time>2026-04-23T13:11:21Z</time></trkpt><trkpt lat="45.33847727205625" lon="9.83038998491684"><ele>68.0</ele><time>2026-04-23T13:11:22Z</time></trkpt><trkpt lat="45.3385220658122" lon="9.830241728519997"><ele>68.25</ele><time>2026-04-23T13:11:23Z</time></trkpt><trkpt lat="45.33856149254013" lon="9.830086358005293"><ele>68.5</ele><time>2026-04-23T13:11:24Z</time></trkpt><trkpt lat="45.33860381852506" lon="9.829935637205097"><ele>68.75</ele><time>2026-04-23T13:11:25Z</time></trkpt><trkpt lat="45.33864580956928" lon="9.829784640897849"><ele>69.0</ele><time>2026-04-23T13:11:26Z</time></trkpt><trkpt lat="45.33868801498305" lon="9.829630057170135"><ele>69.0</ele><time>2026-04-23T13:11:27Z</time></trkpt><trkpt lat="45.338730297193756" lon="9.829477369264097"><ele>69.0</ele><time>2026-04-23T13:11:28Z</time></trkpt><trkpt lat="45.338770387402974" lon="9.829325601467904"><ele>69.0</ele><time>2026-04-23T13:11:29Z</time></trkpt><trkpt lat="45.33880488781306" lon="9.829173207598425"><ele>69.0</ele><time>2026-04-23T13:11:30Z</time></trkpt><trkpt lat="45.33883488852469" lon="9.829029182664197"><ele>69.0</ele><time>2026-04-23T13:11:31Z</time></trkpt><trkpt lat="45.33886858848942" lon="9.828898088689687"><ele>69.2</ele><time>2026-04-23T13:11:32Z</time></trkpt><trkpt lat="45.33891554069235" lon="9.828766837634976"><ele>69.4</ele><time>2026-04-23T13:11:33Z</time></trkpt><trkpt lat="45.33896280961731" lon="9.828628543158795"><ele>69.6</ele><time>2026-04-23T13:11:34Z</time></trkpt><trkpt lat="45.339004434712834" lon="9.828494156870565"><ele>69.8</ele><time>2026-04-23T13:11:35Z</time></trkpt><trkpt lat="45.33904216765129" lon="9.828344078641212"><ele>70.0</ele><time>2026-04-23T13:11:36Z</time></trkpt><trkpt lat="45.33908406894195" lon="9.828191110256139"><ele>70.0</ele><time>2026-04-23T13:11:37Z</time></trkpt><trkpt lat="45.33912672273489" lon="9.828036889330567"><ele>70.0</ele><time>2026-04-23T13:11:38Z</time></trkpt><trkpt lat="45.3391691997254" lon="9.827887472877107"><ele>70.0</ele><time>2026-04-23T13:11:39Z</time></trkpt><trkpt lat="45.33920860323671" lon="9.827741982910968"><ele>70.0</ele><time>2026-04-23T13:11:40Z</time></trkpt><trkpt lat="45.33925043221785" lon="9.827591956098713"><ele>70.2</ele><time>2026-04-23T13:11:41Z</time></trkpt><trkpt lat="45.339291207554794" lon="9.827444108796154"><ele>70.4</ele><time>2026-04-23T13:11:42Z</time></trkpt><trkpt lat="45.33932541452339" lon="9.827308504547105"><ele>70.6</ele><time>2026-04-23T13:11:43Z</time></trkpt><trkpt lat="45.33936762072189" lon="9.827162063007249"><ele>70.8</ele><time>2026-04-23T13:11:44Z</time></trkpt><trkpt lat="45.33941037730078" lon="9.827015899517209"><ele>71.0</ele><time>2026-04-23T13:11:45Z</time></trkpt><trkpt lat="45.33945231078275" lon="9.826868687903909"><ele>70.5</ele><time>2026-04-23T13:11:46Z</time></trkpt><trkpt lat="45.33949573254752" lon="9.826722006840004"><ele>70.0</ele><time>2026-04-23T13:11:47Z</time></trkpt><trkpt lat="45.33953511542687" lon="9.82657089347789"><ele>69.5</ele><time>2026-04-23T13:11:48Z</time></trkpt><trkpt lat="45.33957742204263" lon="9.826417888862851"><ele>69.0</ele><time>2026-04-23T13:11:49Z</time></trkpt><trkpt lat="45.33962393582687" lon="9.826263425405138"><ele>69.0</ele><time>2026-04-23T13:11:50Z</time></trkpt><trkpt lat="45.33966576292933" lon="9.826110093503942"><ele>69.0</ele><time>2026-04-23T13:11:51Z</time></trkpt><trkpt lat="45.33970618626565" lon="9.825967300218807"><ele>69.0</ele><time>2026-04-23T13:11:52Z</time></trkpt><trkpt lat="45.339744963987755" lon="9.825827145885787"><ele>69.0</ele><time>2026-04-23T13:11:53Z</time></trkpt><trkpt lat="45.33977786343805" lon="9.825705953266498"><ele>69.0</ele><time>2026-04-23T13:11:54Z</time></trkpt><trkpt lat="45.33981224127422" lon="9.825581861743993"><ele>69.16666666666667</ele><time>2026-04-23T13:11:55Z</time></trkpt><trkpt lat="45.33984420707485" lon="9.82546287124401"><ele>69.33333333333333</ele><time>2026-04-23T13:11:56Z</time></trkpt><trkpt lat="45.33986822560967" lon="9.825317984627347"><ele>69.5</ele><time>2026-04-23T13:11:58Z</time></trkpt><trkpt lat="45.33994365015393" lon="9.825306087625059"><ele>69.66666666666666</ele><time>2026-04-23T13:12:00Z</time></trkpt><trkpt lat="45.34002291814751" lon="9.825359492480674"><ele>69.83333333333333</ele><time>2026-04-23T13:12:01Z</time></trkpt><trkpt lat="45.34009239499321" lon="9.825392566272383"><ele>70.0</ele><time>2026-04-23T13:12:02Z</time></trkpt><trkpt lat="45.34014671519931" lon="9.82528586911631"><ele>70.0</ele><time>2026-04-23T13:12:04Z</time></trkpt><trkpt lat="45.34016188501527" lon="9.825155844206078"><ele>70.0</ele><time>2026-04-23T13:12:05Z</time></trkpt><trkpt lat="45.34018702196682" lon="9.825015121182226"><ele>70.0</ele><time>2026-04-23T13:12:06Z</time></trkpt><trkpt lat="45.34023054621741" lon="9.82487022168001"><ele>70.0</ele><time>2026-04-23T13:12:07Z</time></trkpt><trkpt lat="45.340272287449814" lon="9.82472116000104"><ele>70.0</ele><time>2026-04-23T13:12:08Z</time></trkpt><trkpt lat="45.34031656287592" lon="9.824564818904607"><ele>70.0</ele><time>2026-04-23T13:12:09Z</time></trkpt><trkpt lat="45.3403682297481" lon="9.824394498474446"><ele>70.0</ele><time>2026-04-23T13:12:10Z</time></trkpt><trkpt lat="45.3404191618734" lon="9.824217315938958"><ele>70.0</ele><time>2026-04-23T13:12:11Z</time></trkpt><trkpt lat="45.34046610041844" lon="9.824037720502979"><ele>70.0</ele><time>2026-04-23T13:12:12Z</time></trkpt><trkpt lat="45.34051430428205" lon="9.823860639383462"><ele>70.0</ele><time>2026-04-23T13:12:13Z</time></trkpt><trkpt lat="45.34056458885331" lon="9.823686610077804"><ele>70.0</ele><time>2026-04-23T13:12:14Z</time></trkpt><trkpt lat="45.34061506372347" lon="9.823509941105684"><ele>70.0</ele><time>2026-04-23T13:12:15Z</time></trkpt><trkpt lat="45.34066979452217" lon="9.823329258766028"><ele>70.0</ele><time>2026-04-23T13:12:16Z</time></trkpt><trkpt lat="45.34072330551188" lon="9.823152888086936"><ele>70.0</ele><time>2026-04-23T13:12:17Z</time></trkpt><trkpt lat="45.340769657864364" lon="9.822966619451751"><ele>70.0</ele><time>2026-04-23T13:12:18Z</time></trkpt><trkpt lat="45.34081495076425" lon="9.822782561090223"><ele>70.0</ele><time>2026-04-23T13:12:19Z</time></trkpt><trkpt lat="45.34085890042218" lon="9.822601343519844"><ele>70.0</ele><time>2026-04-23T13:12:20Z</time></trkpt><trkpt lat="45.340903584619106" lon="9.822421466485023"><ele>70.0</ele><time>2026-04-23T13:12:21Z</time></trkpt><trkpt lat="45.34094635734425" lon="9.822236858622237"><ele>70.0</ele><time>2026-04-23T13:12:22Z</time></trkpt><trkpt lat="45.34098556065613" lon="9.822051735307452"><ele>70.0</ele><time>2026-04-23T13:12:23Z</time></trkpt><trkpt lat="45.34102084641048" lon="9.821865126976943"><ele>70.0</ele><time>2026-04-23T13:12:24Z</time></trkpt><trkpt lat="45.341072173823534" lon="9.821686770843588"><ele>70.0</ele><time>2026-04-23T13:12:25Z</time></trkpt><trkpt lat="45.34110609642029" lon="9.821500062001135"><ele>70.0</ele><time>2026-04-23T13:12:26Z</time></trkpt><trkpt lat="45.341126490710735" lon="9.821305582124012"><ele>70.0</ele><time>2026-04-23T13:12:27Z</time></trkpt><trkpt lat="45.341164543961256" lon="9.821108935184867"><ele>70.0</ele><time>2026-04-23T13:12:28Z</time></trkpt><trkpt lat="45.341203609571664" lon="9.820916352707778"><ele>70.0</ele><time>2026-04-23T13:12:29Z</time></trkpt><trkpt lat="45.34127125736787" lon="9.820743933517258"><ele>70.0</ele><time>2026-04-23T13:12:30Z</time></trkpt><trkpt lat="45.341321413868684" lon="9.820560255933685"><ele>70.0</ele><time>2026-04-23T13:12:31Z</time></trkpt><trkpt lat="45.34131398384339" lon="9.820343195093306"><ele>70.0</ele><time>2026-04-23T13:12:32Z</time></trkpt><trkpt lat="45.34135858080598" lon="9.82014534150189"><ele>70.5</ele><time>2026-04-23T13:12:33Z</time></trkpt><trkpt lat="45.341398261975435" lon="9.819932651392392"><ele>71.0</ele><time>2026-04-23T13:12:34Z</time></trkpt><trkpt lat="45.34142298549756" lon="9.819729525771349"><ele>71.5</ele><time>2026-04-23T13:12:35Z</time></trkpt><trkpt lat="45.34145699640528" lon="9.81955006173943"><ele>72.0</ele><time>2026-04-23T13:12:36Z</time></trkpt><trkpt lat="45.34148768316892" lon="9.819375803536113"><ele>72.25</ele><time>2026-04-23T13:12:37Z</time></trkpt><trkpt lat="45.34153354157259" lon="9.819202144774977"><ele>72.5</ele><time>2026-04-23T13:12:38Z</time></trkpt><trkpt lat="45.34156808099228" lon="9.819012681338542"><ele>72.75</ele><time>2026-04-23T13:12:39Z</time></trkpt><trkpt lat="45.34158918893571" lon="9.818812063710789"><ele>73.0</ele><time>2026-04-23T13:12:40Z</time></trkpt><trkpt lat="45.34163661840053" lon="9.818614933141717"><ele>72.5</ele><time>2026-04-23T13:12:41Z</time></trkpt><trkpt lat="45.34166611899904" lon="9.818420413643713"><ele>72.0</ele><time>2026-04-23T13:12:42Z</time></trkpt><trkpt lat="45.341707909783274" lon="9.818247158295513"><ele>71.5</ele><time>2026-04-23T13:12:43Z</time></trkpt><trkpt lat="45.341739998214" lon="9.818076992417874"><ele>71.0</ele><time>2026-04-23T13:12:44Z</time></trkpt><trkpt lat="45.34176363057246" lon="9.817897611682726"><ele>71.0</ele><time>2026-04-23T13:12:45Z</time></trkpt><trkpt lat="45.34179533977823" lon="9.817712821721365"><ele>71.0</ele><time>2026-04-23T13:12:46Z</time></trkpt><trkpt lat="45.341827745044355" lon="9.817535981523378"><ele>71.0</ele><time>2026-04-23T13:12:47Z</time></trkpt><trkpt lat="45.34186296251866" lon="9.817365247163545"><ele>71.0</ele><time>2026-04-23T13:12:48Z</time></trkpt><trkpt lat="45.341900053106066" lon="9.817198606206833"><ele>70.75</ele><time>2026-04-23T13:12:49Z</time></trkpt><trkpt lat="45.34193310373761" lon="9.817026506662703"><ele>70.5</ele><time>2026-04-23T13:12:50Z</time></trkpt><trkpt lat="45.34196774387034" lon="9.816843669120574"><ele>70.25</ele><time>2026-04-23T13:12:51Z</time></trkpt><trkpt lat="45.34200021896467" lon="9.8166639657491"><ele>70.0</ele><time>2026-04-23T13:12:52Z</time></trkpt><trkpt lat="45.34203473566394" lon="9.816478237954144"><ele>70.0</ele><time>2026-04-23T13:12:53Z</time></trkpt><trkpt lat="45.34206675383375" lon="9.81630533817054"><ele>70.0</ele><time>2026-04-23T13:12:54Z</time></trkpt><trkpt lat="45.34209872899355" lon="9.81613416936915"><ele>70.0</ele><time>2026-04-23T13:12:55Z</time></trkpt><trkpt lat="45.34213478202857" lon="9.815949920806073"><ele>70.0</ele><time>2026-04-23T13:12:56Z</time></trkpt><trkpt lat="45.342167177299196" lon="9.815781428069291"><ele>70.0</ele><time>2026-04-23T13:12:57Z</time></trkpt><trkpt lat="45.34219327370425" lon="9.81563135195895"><ele>70.0</ele><time>2026-04-23T13:12:58Z</time></trkpt><trkpt lat="45.34221833310534" lon="9.815492718354694"><ele>70.0</ele><time>2026-04-23T13:12:59Z</time></trkpt><trkpt lat="45.34224562467205" lon="9.815356912462551"><ele>70.0</ele><time>2026-04-23T13:13:00Z</time></trkpt><trkpt lat="45.34227054979204" lon="9.815220803843218"><ele>70.0</ele><time>2026-04-23T13:13:01Z</time></trkpt><trkpt lat="45.34229651010585" lon="9.815090713843755"><ele>70.2</ele><time>2026-04-23T13:13:02Z</time></trkpt><trkpt lat="45.34232139236062" lon="9.814978417802472"><ele>70.4</ele><time>2026-04-23T13:13:03Z</time></trkpt><trkpt lat="45.34235056342422" lon="9.814897337337806"><ele>70.6</ele><time>2026-04-23T13:13:04Z</time></trkpt><trkpt lat="45.34240680330044" lon="9.814783152754503"><ele>70.8</ele><time>2026-04-23T13:13:06Z</time></trkpt><trkpt lat="45.342525428763444" lon="9.814871650925907"><ele>71.0</ele><time>2026-04-23T13:13:07Z</time></trkpt><trkpt lat="45.34262577105247" lon="9.81489845770027"><ele>71.0</ele><time>2026-04-23T13:13:08Z</time></trkpt><trkpt lat="45.34274236620663" lon="9.814929368884108"><ele>71.0</ele><time>2026-04-23T13:13:09Z</time></trkpt><trkpt lat="45.342869404931164" lon="9.81494077000994"><ele>71.0</ele><time>2026-04-23T13:13:10Z</time></trkpt><trkpt lat="45.34300033309792" lon="9.814977510513774"><ele>71.0</ele><time>2026-04-23T13:13:11Z</time></trkpt><trkpt lat="45.343129768016674" lon="9.815010063322806"><ele>71.75</ele><time>2026-04-23T13:13:12Z</time></trkpt><trkpt lat="45.34325858762318" lon="9.81503717258649"><ele>72.5</ele><time>2026-04-23T13:13:13Z</time></trkpt><trkpt lat="45.34339021753427" lon="9.8150634554843"><ele>73.25</ele><time>2026-04-23T13:13:14Z</time></trkpt><trkpt lat="45.343509607034946" lon="9.815085993757245"><ele>74.0</ele><time>2026-04-23T13:13:15Z</time></trkpt><trkpt lat="45.343630672648395" lon="9.815108132823088"><ele>74.0</ele><time>2026-04-23T13:13:16Z</time></trkpt><trkpt lat="45.34376235821988" lon="9.81514089525818"><ele>74.0</ele><time>2026-04-23T13:13:17Z</time></trkpt><trkpt lat="45.343893805404605" lon="9.815177860838265"><ele>74.0</ele><time>2026-04-23T13:13:18Z</time></trkpt><trkpt lat="45.34400202087984" lon="9.815203375085737"><ele>74.0</ele><time>2026-04-23T13:13:19Z</time></trkpt><trkpt lat="45.34407909868086" lon="9.81520425091116"><ele>73.25</ele><time>2026-04-23T13:13:20Z</time></trkpt><trkpt lat="45.34415910058029" lon="9.815246337279397"><ele>72.5</ele><time>2026-04-23T13:13:22Z</time></trkpt><trkpt lat="45.344221483928585" lon="9.814987095292096"><ele>71.75</ele><time>2026-04-23T13:13:23Z</time></trkpt><trkpt lat="45.34426154573252" lon="9.81482799725242"><ele>71.0</ele><time>2026-04-23T13:13:24Z</time></trkpt><trkpt lat="45.344318322496136" lon="9.814668533261026"><ele>71.0</ele><time>2026-04-23T13:13:25Z</time></trkpt><trkpt lat="45.34437750428725" lon="9.8145128235595"><ele>71.0</ele><time>2026-04-23T13:13:26Z</time></trkpt><trkpt lat="45.34443903718016" lon="9.81433555282046"><ele>71.0</ele><time>2026-04-23T13:13:27Z</time></trkpt><trkpt lat="45.344504045374364" lon="9.814145786191286"><ele>71.0</ele><time>2026-04-23T13:13:28Z</time></trkpt><trkpt lat="45.344561833648626" lon="9.813947315628436"><ele>71.0</ele><time>2026-04-23T13:13:29Z</time></trkpt><trkpt lat="45.34463305338901" lon="9.813752108292869"><ele>71.0</ele><time>2026-04-23T13:13:30Z</time></trkpt><trkpt lat="45.34470683804216" lon="9.813599211041565"><ele>71.0</ele><time>2026-04-23T13:13:31Z</time></trkpt><trkpt lat="45.344784287231825" lon="9.813491914828177"><ele>71.0</ele><time>2026-04-23T13:13:32Z</time></trkpt><trkpt lat="45.34489676085415" lon="9.813412842590209"><ele>71.0</ele><time>2026-04-23T13:13:33Z</time></trkpt><trkpt lat="45.34504701874249" lon="9.813364105581972"><ele>71.0</ele><time>2026-04-23T13:13:34Z</time></trkpt><trkpt lat="45.345200421799014" lon="9.813330208217282"><ele>71.0</ele><time>2026-04-23T13:13:35Z</time></trkpt><trkpt lat="45.345345445424805" lon="9.813305200330868"><ele>71.0</ele><time>2026-04-23T13:13:36Z</time></trkpt><trkpt lat="45.345457303225906" lon="9.813291679789815"><ele>71.0</ele><time>2026-04-23T13:13:37Z</time></trkpt><trkpt lat="45.345556241609664" lon="9.81325673118792"><ele>71.0</ele><time>2026-04-23T13:13:38Z</time></trkpt><trkpt lat="45.34565171612868" lon="9.813191432101151"><ele>71.0</ele><time>2026-04-23T13:13:39Z</time></trkpt><trkpt lat="45.3457490375546" lon="9.813106233418912"><ele>71.0</ele><time>2026-04-23T13:13:40Z</time></trkpt><trkpt lat="45.34585120124965" lon="9.813001315665932"><ele>71.75</ele><time>2026-04-23T13:13:41Z</time></trkpt><trkpt lat="45.345950547392476" lon="9.81287863194229"><ele>72.5</ele><time>2026-04-23T13:13:42Z</time></trkpt><trkpt lat="45.3460287294125" lon="9.812757730956116"><ele>73.25</ele><time>2026-04-23T13:13:43Z</time></trkpt><trkpt lat="45.34607405856769" lon="9.812614358691373"><ele>74.0</ele><time>2026-04-23T13:13:44Z</time></trkpt><trkpt lat="45.34610061477744" lon="9.812431446724938"><ele>74.0</ele><time>2026-04-23T13:13:45Z</time></trkpt><trkpt lat="45.34612929569937" lon="9.812255678034067"><ele>74.0</ele><time>2026-04-23T13:13:46Z</time></trkpt><trkpt lat="45.346185955359374" lon="9.812137952785784"><ele>74.0</ele><time>2026-04-23T13:13:47Z</time></trkpt><trkpt lat="45.34627842960374" lon="9.812064745002417"><ele>74.0</ele><time>2026-04-23T13:13:48Z</time></trkpt><trkpt lat="45.34639192930899" lon="9.812010386709602"><ele>73.5</ele><time>2026-04-23T13:13:49Z</time></trkpt><trkpt lat="45.34651790202607" lon="9.81196740946429"><ele>73.0</ele><time>2026-04-23T13:13:50Z</time></trkpt><trkpt lat="45.346645400512784" lon="9.811926091744136"><ele>72.5</ele><time>2026-04-23T13:13:51Z</time></trkpt><trkpt lat="45.346777037228975" lon="9.811876036246135"><ele>72.0</ele><time>2026-04-23T13:13:52Z</time></trkpt><trkpt lat="45.34690105606964" lon="9.811807382615825"><ele>72.0</ele><time>2026-04-23T13:13:53Z</time></trkpt><trkpt lat="45.34701283809873" lon="9.811746659732039"><ele>72.0</ele><time>2026-04-23T13:13:54Z</time></trkpt><trkpt lat="45.347116078149035" lon="9.811693953037851"><ele>72.0</ele><time>2026-04-23T13:13:55Z</time></trkpt><trkpt lat="45.3472225652783" lon="9.811639721479292"><ele>72.0</ele><time>2026-04-23T13:13:56Z</time></trkpt><trkpt lat="45.34733798859515" lon="9.811578561535985"><ele>72.0</ele><time>2026-04-23T13:13:57Z</time></trkpt><trkpt lat="45.347454560423905" lon="9.811515135886406"><ele>72.0</ele><time>2026-04-23T13:13:58Z</time></trkpt><trkpt lat="45.3475663360892" lon="9.811457520804515"><ele>72.0</ele><time>2026-04-23T13:13:59Z</time></trkpt><trkpt lat="45.34767644243103" lon="9.811398352467364"><ele>72.0</ele><time>2026-04-23T13:14:00Z</time></trkpt><trkpt lat="45.347782312923506" lon="9.811343815376938"><ele>72.0</ele><time>2026-04-23T13:14:01Z</time></trkpt><trkpt lat="45.347885239347946" lon="9.811290266487793"><ele>72.0</ele><time>2026-04-23T13:14:02Z</time></trkpt><trkpt lat="45.34799311292721" lon="9.811221822870664"><ele>72.0</ele><time>2026-04-23T13:14:03Z</time></trkpt><trkpt lat="45.34810590632013" lon="9.811137633212168"><ele>72.0</ele><time>2026-04-23T13:14:04Z</time></trkpt><trkpt lat="45.34822300782062" lon="9.81104378085266"><ele>72.0</ele><time>2026-04-23T13:14:05Z</time></trkpt><trkpt lat="45.34834219017149" lon="9.810946661391032"><ele>72.0</ele><time>2026-04-23T13:14:06Z</time></trkpt><trkpt lat="45.34846609876424" lon="9.810844942049876"><ele>72.0</ele><time>2026-04-23T13:14:07Z</time></trkpt><trkpt lat="45.34858745972749" lon="9.810752956558746"><ele>72.0</ele><time>2026-04-23T13:14:08Z</time></trkpt><trkpt lat="45.3486998741662" lon="9.810677260931243"><ele>72.0</ele><time>2026-04-23T13:14:09Z</time></trkpt><trkpt lat="45.348818017673594" lon="9.810607912906447"><ele>72.0</ele><time>2026-04-23T13:14:10Z</time></trkpt><trkpt lat="45.348946844767426" lon="9.810539790080027"><ele>72.0</ele><time>2026-04-23T13:14:11Z</time></trkpt><trkpt lat="45.34907786292421" lon="9.810486085759065"><ele>72.0</ele><time>2026-04-23T13:14:12Z</time></trkpt><trkpt lat="45.34920448084127" lon="9.81043254422841"><ele>72.0</ele><time>2026-04-23T13:14:13Z</time></trkpt><trkpt lat="45.34933203210363" lon="9.810376385232981"><ele>72.0</ele><time>2026-04-23T13:14:14Z</time></trkpt><trkpt lat="45.34946805206124" lon="9.810335856093394"><ele>72.0</ele><time>2026-04-23T13:14:15Z</time></trkpt><trkpt lat="45.34959798724442" lon="9.810272564572019"><ele>72.0</ele><time>2026-04-23T13:14:16Z</time></trkpt><trkpt lat="45.34971394694864" lon="9.810209860998224"><ele>72.25</ele><time>2026-04-23T13:14:17Z</time></trkpt><trkpt lat="45.349825292662786" lon="9.810145751507614"><ele>72.5</ele><time>2026-04-23T13:14:18Z</time></trkpt><trkpt lat="45.34992876170299" lon="9.810056331969918"><ele>72.75</ele><time>2026-04-23T13:14:19Z</time></trkpt><trkpt lat="45.35003323861301" lon="9.809985447235409"><ele>73.0</ele><time>2026-04-23T13:14:20Z</time></trkpt><trkpt lat="45.3501370119236" lon="9.809913394974917"><ele>73.0</ele><time>2026-04-23T13:14:21Z</time></trkpt><trkpt lat="45.350239714214666" lon="9.809840920594478"><ele>73.0</ele><time>2026-04-23T13:14:22Z</time></trkpt><trkpt lat="45.350343391422555" lon="9.809769706473231"><ele>73.0</ele><time>2026-04-23T13:14:23Z</time></trkpt><trkpt lat="45.350413945810274" lon="9.809702779084608"><ele>73.0</ele><time>2026-04-23T13:14:24Z</time></trkpt><trkpt lat="45.35048496891747" lon="9.809645817282357"><ele>73.0</ele><time>2026-04-23T13:14:25Z</time></trkpt><trkpt lat="45.350553060328075" lon="9.809612982564664"><ele>73.25</ele><time>2026-04-23T13:14:26Z</time></trkpt><trkpt lat="45.35063289302966" lon="9.809537737810414"><ele>73.5</ele><time>2026-04-23T13:14:28Z</time></trkpt><trkpt lat="45.35076307444674" lon="9.80988523605499"><ele>73.75</ele><time>2026-04-23T13:14:34Z</time></trkpt><trkpt lat="45.350783028841526" lon="9.80997949250283"><ele>74.0</ele><time>2026-04-23T13:14:35Z</time></trkpt><trkpt lat="45.35080298571015" lon="9.810081325739647"><ele>74.0</ele><time>2026-04-23T13:14:36Z</time></trkpt><trkpt lat="45.3508267726001" lon="9.810187283458404"><ele>74.0</ele><time>2026-04-23T13:14:37Z</time></trkpt><trkpt lat="45.350852127095145" lon="9.810296485302208"><ele>74.0</ele><time>2026-04-23T13:14:38Z</time></trkpt><trkpt lat="45.35087267488372" lon="9.810400371301602"><ele>74.0</ele><time>2026-04-23T13:14:39Z</time></trkpt><trkpt lat="45.35089404583524" lon="9.810498636359515"><ele>74.0</ele><time>2026-04-23T13:14:40Z</time></trkpt><trkpt lat="45.35091178751687" lon="9.810593804258358"><ele>74.0</ele><time>2026-04-23T13:14:41Z</time></trkpt><trkpt lat="45.350945163308154" lon="9.810756883805597"><ele>74.0</ele><time>2026-04-23T13:14:43Z</time></trkpt><trkpt lat="45.35096978036217" lon="9.810846776969028"><ele>74.0</ele><time>2026-04-23T13:14:44Z</time></trkpt><trkpt lat="45.35099948077839" lon="9.810941743299164"><ele>74.0</ele><time>2026-04-23T13:14:45Z</time></trkpt><trkpt lat="45.35102590458448" lon="9.811028311077843"><ele>74.0</ele><time>2026-04-23T13:14:46Z</time></trkpt><trkpt lat="45.35104798518306" lon="9.81111453002565"><ele>74.0</ele><time>2026-04-23T13:14:47Z</time></trkpt><trkpt lat="45.351072810970855" lon="9.811234401214515"><ele>74.0</ele><time>2026-04-23T13:14:49Z</time></trkpt><trkpt lat="45.351094169134726" lon="9.811359592622162"><ele>73.5</ele><time>2026-04-23T13:14:51Z</time></trkpt><trkpt lat="45.3510937366421" lon="9.811487273413066"><ele>73.0</ele><time>2026-04-23T13:14:53Z</time></trkpt><trkpt lat="45.35107315371228" lon="9.811572470179817"><ele>72.5</ele><time>2026-04-23T13:14:55Z</time></trkpt><trkpt lat="45.35101596156729" lon="9.81162575489972"><ele>72.0</ele><time>2026-04-23T13:14:57Z</time></trkpt><trkpt lat="45.350784707972075" lon="9.811735606395905"><ele>72.0</ele><time>2026-04-23T13:15:01Z</time></trkpt><trkpt lat="45.35071260293938" lon="9.811766544654079"><ele>72.0</ele><time>2026-04-23T13:15:02Z</time></trkpt><trkpt lat="45.350617334135165" lon="9.811810135871312"><ele>72.0</ele><time>2026-04-23T13:15:03Z</time></trkpt><trkpt lat="45.350548270627584" lon="9.811858708250913"><ele>72.0</ele><time>2026-04-23T13:15:04Z</time></trkpt><trkpt lat="45.35048309474672" lon="9.811903702678087"><ele>72.0</ele><time>2026-04-23T13:15:05Z</time></trkpt><trkpt lat="45.35040178825001" lon="9.811848403575791"><ele>72.0</ele><time>2026-04-23T13:15:07Z</time></trkpt><trkpt lat="45.35045181601759" lon="9.811766477651808"><ele>72.0</ele><time>2026-04-23T13:15:08Z</time></trkpt><trkpt lat="45.350521346840935" lon="9.811759917108127"><ele>72.0</ele><time>2026-04-23T13:15:09Z</time></trkpt><trkpt lat="45.350591578413145" lon="9.811738059915612"><ele>72.0</ele><time>2026-04-23T13:15:10Z</time></trkpt><trkpt lat="45.3506830628115" lon="9.811707899296774"><ele>72.0</ele><time>2026-04-23T13:15:11Z</time></trkpt><trkpt lat="45.350756854703846" lon="9.811670735255651"><ele>72.0</ele><time>2026-04-23T13:15:12Z</time></trkpt><trkpt lat="45.35081104072885" lon="9.811620875647655"><ele>72.0</ele><time>2026-04-23T13:15:13Z</time></trkpt><trkpt lat="45.350807835625" lon="9.811511077421539"><ele>72.0</ele><time>2026-04-23T13:15:15Z</time></trkpt><trkpt lat="45.35085825911068" lon="9.811435753685128"><ele>72.0</ele><time>2026-04-23T13:15:17Z</time></trkpt><trkpt lat="45.35103477662504" lon="9.811405779276399"><ele>72.0</ele><time>2026-04-23T13:15:19Z</time></trkpt><trkpt lat="45.350979971270874" lon="9.811266173928123"><ele>72.0</ele><time>2026-04-23T13:15:21Z</time></trkpt><trkpt lat="45.350914265480924" lon="9.81128180936701"><ele>72.0</ele><time>2026-04-23T13:15:22Z</time></trkpt><trkpt lat="45.35085022234303" lon="9.811383917461407"><ele>72.0</ele><time>2026-04-23T13:15:23Z</time></trkpt><trkpt lat="45.350711453508744" lon="9.811506524452913"><ele>72.0</ele><time>2026-04-23T13:15:26Z</time></trkpt><trkpt lat="45.35061726584212" lon="9.811609023778354"><ele>72.0</ele><time>2026-04-23T13:15:27Z</time></trkpt><trkpt lat="45.35050696586877" lon="9.811728233615028"><ele>72.0</ele><time>2026-04-23T13:15:28Z</time></trkpt><trkpt lat="45.35043359191557" lon="9.811784866399735"><ele>72.0</ele><time>2026-04-23T13:15:29Z</time></trkpt><trkpt lat="45.35037057354244" lon="9.811752079942373"><ele>72.0</ele><time>2026-04-23T13:15:30Z</time></trkpt><trkpt lat="45.35031759417383" lon="9.81162694282498"><ele>72.0</ele><time>2026-04-23T13:15:32Z</time></trkpt><trkpt lat="45.350358055181786" lon="9.811556998346958"><ele>72.0</ele><time>2026-04-23T13:15:34Z</time></trkpt><trkpt lat="45.350441843699535" lon="9.811500900409357"><ele>72.0</ele><time>2026-04-23T13:15:37Z</time></trkpt><trkpt lat="45.3505100737312" lon="9.811452199966034"><ele>72.0</ele><time>2026-04-23T13:15:38Z</time></trkpt><trkpt lat="45.35059504646333" lon="9.811390101413194"><ele>72.0</ele><time>2026-04-23T13:15:39Z</time></trkpt><trkpt lat="45.350688794701654" lon="9.811325699892988"><ele>72.0</ele><time>2026-04-23T13:15:40Z</time></trkpt><trkpt lat="45.35079574982704" lon="9.81126631612017"><ele>72.0</ele><time>2026-04-23T13:15:41Z</time></trkpt><trkpt lat="45.35088717692749" lon="9.811219185998944"><ele>72.0</ele><time>2026-04-23T13:15:42Z</time></trkpt><trkpt lat="45.350990766271316" lon="9.811181860988558"><ele>72.0</ele><time>2026-04-23T13:15:43Z</time></trkpt><trkpt lat="45.351075965079644" lon="9.81117576889848"><ele>72.0</ele><time>2026-04-23T13:15:44Z</time></trkpt><trkpt lat="45.35114537358189" lon="9.811258717525275"><ele>72.0</ele><time>2026-04-23T13:15:46Z</time></trkpt><trkpt lat="45.35101231303806" lon="9.811376531138286"><ele>72.0</ele><time>2026-04-23T13:15:48Z</time></trkpt><trkpt lat="45.35102554989508" lon="9.81148236071462"><ele>72.0</ele><time>2026-04-23T13:15:52Z</time></trkpt><trkpt lat="45.351056585000144" lon="9.811580247424569"><ele>72.0</ele><time>2026-04-23T13:15:54Z</time></trkpt><trkpt lat="45.3509287934161" lon="9.811663530486708"><ele>72.0</ele><time>2026-04-23T13:15:56Z</time></trkpt><trkpt lat="45.35085235868082" lon="9.811705967324107"><ele>72.0</ele><time>2026-04-23T13:15:57Z</time></trkpt><trkpt lat="45.350771348735556" lon="9.811761521722692"><ele>72.0</ele><time>2026-04-23T13:15:58Z</time></trkpt><trkpt lat="45.35068301863949" lon="9.81179752245785"><ele>72.0</ele><time>2026-04-23T13:15:59Z</time></trkpt><trkpt lat="45.350586123245705" lon="9.811848213395734"><ele>72.0</ele><time>2026-04-23T13:16:00Z</time></trkpt><trkpt lat="45.35049551167084" lon="9.811917449382673"><ele>72.0</ele><time>2026-04-23T13:16:01Z</time></trkpt><trkpt lat="45.35041036087827" lon="9.811889479028103"><ele>72.0</ele><time>2026-04-23T13:16:03Z</time></trkpt><trkpt lat="45.350463477533864" lon="9.811823059925144"><ele>72.0</ele><time>2026-04-23T13:16:04Z</time></trkpt><trkpt lat="45.35053431441438" lon="9.811756614809983"><ele>72.0</ele><time>2026-04-23T13:16:05Z</time></trkpt><trkpt lat="45.35034181375276" lon="9.811868832135877"><ele>72.0</ele><time>2026-04-23T13:16:06Z</time></trkpt><trkpt lat="45.35040647623859" lon="9.811844457667661"><ele>72.0</ele><time>2026-04-23T13:16:08Z</time></trkpt><trkpt lat="45.35048753031888" lon="9.811790630227337"><ele>72.0</ele><time>2026-04-23T13:16:09Z</time></trkpt><trkpt lat="45.35053595624152" lon="9.811708332694746"><ele>72.0</ele><time>2026-04-23T13:16:11Z</time></trkpt><trkpt lat="45.3506030555997" lon="9.811631231386041"><ele>72.0</ele><time>2026-04-23T13:16:13Z</time></trkpt><trkpt lat="45.35068378829705" lon="9.81156990361322"><ele>72.0</ele><time>2026-04-23T13:16:15Z</time></trkpt><trkpt lat="45.35072473960174" lon="9.811466271619466"><ele>72.0</ele><time>2026-04-23T13:16:17Z</time></trkpt><trkpt lat="45.35076387422386" lon="9.811373971318229"><ele>72.0</ele><time>2026-04-23T13:16:19Z</time></trkpt><trkpt lat="45.35062382620262" lon="9.81145822617985"><ele>72.0</ele><time>2026-04-23T13:16:23Z</time></trkpt><trkpt lat="45.350519255832744" lon="9.811543286771519"><ele>72.0</ele><time>2026-04-23T13:16:24Z</time></trkpt><trkpt lat="45.35040578127991" lon="9.811585753112112"><ele>72.0</ele><time>2026-04-23T13:16:25Z</time></trkpt><trkpt lat="45.35030740068476" lon="9.811694048695161"><ele>72.0</ele><time>2026-04-23T13:16:26Z</time></trkpt><trkpt lat="45.35031149111855" lon="9.811585931216513"><ele>72.0</ele><time>2026-04-23T13:16:27Z</time></trkpt><trkpt lat="45.350364594104214" lon="9.81148489253772"><ele>72.0</ele><time>2026-04-23T13:16:28Z</time></trkpt><trkpt lat="45.35046277737015" lon="9.811402164129456"><ele>72.0</ele><time>2026-04-23T13:16:29Z</time></trkpt><trkpt lat="45.35055972880481" lon="9.811351195713154"><ele>72.0</ele><time>2026-04-23T13:16:30Z</time></trkpt><trkpt lat="45.35065514577671" lon="9.811306119452246"><ele>72.0</ele><time>2026-04-23T13:16:31Z</time></trkpt><trkpt lat="45.35075531982506" lon="9.811267292823466"><ele>72.0</ele><time>2026-04-23T13:16:32Z</time></trkpt><trkpt lat="45.3508417339223" lon="9.811221681197933"><ele>72.0</ele><time>2026-04-23T13:16:33Z</time></trkpt><trkpt lat="45.350910274495305" lon="9.811195108412313"><ele>72.0</ele><time>2026-04-23T13:16:34Z</time></trkpt><trkpt lat="45.351018397011316" lon="9.811204774311799"><ele>72.0</ele><time>2026-04-23T13:16:36Z</time></trkpt><trkpt lat="45.35105156431481" lon="9.811328612887207"><ele>72.0</ele><time>2026-04-23T13:16:39Z</time></trkpt><trkpt lat="45.35106933867188" lon="9.81144577985931"><ele>72.0</ele><time>2026-04-23T13:16:41Z</time></trkpt><trkpt lat="45.351110969457096" lon="9.811527579878366"><ele>72.0</ele><time>2026-04-23T13:17:40Z</time></trkpt><trkpt lat="45.35106505297961" lon="9.811603353584895"><ele>72.0</ele><time>2026-04-23T13:47:55Z</time></trkpt><trkpt lat="45.35099079221014" lon="9.811656013895576"><ele>72.0</ele><time>2026-04-23T13:47:58Z</time></trkpt><trkpt lat="45.35090116990881" lon="9.811693542811845"><ele>72.0</ele><time>2026-04-23T13:48:00Z</time></trkpt><trkpt lat="45.350842739548604" lon="9.811739760258748"><ele>72.0</ele><time>2026-04-23T13:48:01Z</time></trkpt><trkpt lat="45.35070990226576" lon="9.81179438437617"><ele>72.0</ele><time>2026-04-23T13:48:03Z</time></trkpt><trkpt lat="45.35061990150203" lon="9.81183106331287"><ele>72.0</ele><time>2026-04-23T13:48:04Z</time></trkpt><trkpt lat="45.35054646478588" lon="9.811873135806595"><ele>72.0</ele><time>2026-04-23T13:48:05Z</time></trkpt><trkpt lat="45.35045366712105" lon="9.81186604563281"><ele>72.0</ele><time>2026-04-23T13:48:07Z</time></trkpt><trkpt lat="45.3504931601856" lon="9.811781551374343"><ele>72.0</ele><time>2026-04-23T13:48:09Z</time></trkpt><trkpt lat="45.35056993242604" lon="9.811767540167265"><ele>72.0</ele><time>2026-04-23T13:48:10Z</time></trkpt><trkpt lat="45.350658576167476" lon="9.811730859169863"><ele>72.0</ele><time>2026-04-23T13:48:11Z</time></trkpt><trkpt lat="45.35074603259026" lon="9.81167008251729"><ele>72.0</ele><time>2026-04-23T13:48:12Z</time></trkpt><trkpt lat="45.35082157940728" lon="9.811593979674626"><ele>72.0</ele><time>2026-04-23T13:48:14Z</time></trkpt><trkpt lat="45.35088689559703" lon="9.811492721105925"><ele>72.0</ele><time>2026-04-23T13:48:16Z</time></trkpt><trkpt lat="45.35099619750175" lon="9.811444354703987"><ele>72.0</ele><time>2026-04-23T13:48:18Z</time></trkpt><trkpt lat="45.350949453074946" lon="9.811330189074155"><ele>72.0</ele><time>2026-04-23T13:48:22Z</time></trkpt><trkpt lat="45.35087569228543" lon="9.811315167249733"><ele>72.0</ele><time>2026-04-23T13:48:23Z</time></trkpt><trkpt lat="45.350796615029935" lon="9.811378711781652"><ele>72.0</ele><time>2026-04-23T13:48:24Z</time></trkpt><trkpt lat="45.35071084945736" lon="9.81145049649869"><ele>72.0</ele><time>2026-04-23T13:48:25Z</time></trkpt><trkpt lat="45.35062195086131" lon="9.811549855590027"><ele>72.0</ele><time>2026-04-23T13:48:26Z</time></trkpt><trkpt lat="45.35052883528794" lon="9.811635873701288"><ele>72.0</ele><time>2026-04-23T13:48:27Z</time></trkpt><trkpt lat="45.350459957373936" lon="9.811713400646896"><ele>72.0</ele><time>2026-04-23T13:48:28Z</time></trkpt><trkpt lat="45.35038652890416" lon="9.811631351529787"><ele>72.0</ele><time>2026-04-23T13:48:31Z</time></trkpt><trkpt lat="45.350428127550764" lon="9.8115348000216"><ele>72.0</ele><time>2026-04-23T13:48:34Z</time></trkpt><trkpt lat="45.350456011075096" lon="9.811428756621588"><ele>72.0</ele><time>2026-04-23T13:48:36Z</time></trkpt><trkpt lat="45.35057793381637" lon="9.811385297120946"><ele>72.0</ele><time>2026-04-23T13:48:38Z</time></trkpt><trkpt lat="45.350651287211214" lon="9.811346616893267"><ele>72.0</ele><time>2026-04-23T13:48:39Z</time></trkpt><trkpt lat="45.350713979998055" lon="9.811309151665853"><ele>72.0</ele><time>2026-04-23T13:48:40Z</time></trkpt><trkpt lat="45.35080599473642" lon="9.811270798139008"><ele>72.0</ele><time>2026-04-23T13:48:41Z</time></trkpt><trkpt lat="45.35089096970644" lon="9.811233699618128"><ele>72.0</ele><time>2026-04-23T13:48:42Z</time></trkpt><trkpt lat="45.35100733911311" lon="9.811224661152416"><ele>72.0</ele><time>2026-04-23T13:48:45Z</time></trkpt><trkpt lat="45.3510653103041" lon="9.811132118567448"><ele>72.0</ele><time>2026-04-23T13:48:48Z</time></trkpt><trkpt lat="45.351020757176855" lon="9.811024142743939"><ele>72.0</ele><time>2026-04-23T13:48:51Z</time></trkpt><trkpt lat="45.35100096081704" lon="9.81084710554712"><ele>72.0</ele><time>2026-04-23T13:48:53Z</time></trkpt><trkpt lat="45.350994594396646" lon="9.810690841702819"><ele>72.33333333333333</ele><time>2026-04-23T13:48:56Z</time></trkpt><trkpt lat="45.35097047274569" lon="9.81059566479897"><ele>72.66666666666667</ele><time>2026-04-23T13:48:57Z</time></trkpt><trkpt lat="45.35092755446157" lon="9.810465301022266"><ele>73.0</ele><time>2026-04-23T13:48:58Z</time></trkpt><trkpt lat="45.35090359301702" lon="9.810358990213835"><ele>73.33333333333334</ele><time>2026-04-23T13:48:59Z</time></trkpt><trkpt lat="45.35087623973019" lon="9.810250352444035"><ele>73.66666666666667</ele><time>2026-04-23T13:49:00Z</time></trkpt><trkpt lat="45.35084091168131" lon="9.810127859388276"><ele>74.0</ele><time>2026-04-23T13:49:01Z</time></trkpt><trkpt lat="45.350807281096436" lon="9.810005191567983"><ele>74.0</ele><time>2026-04-23T13:49:02Z</time></trkpt><trkpt lat="45.35076974443425" lon="9.809853675333626"><ele>74.0</ele><time>2026-04-23T13:49:03Z</time></trkpt><trkpt lat="45.35073174517949" lon="9.809713853586699"><ele>74.0</ele><time>2026-04-23T13:49:04Z</time></trkpt><trkpt lat="45.35069521417081" lon="9.809584147966262"><ele>74.0</ele><time>2026-04-23T13:49:05Z</time></trkpt><trkpt lat="45.35068050749889" lon="9.809496417720384"><ele>74.0</ele><time>2026-04-23T13:49:06Z</time></trkpt><trkpt lat="45.35070822146106" lon="9.80940852903715"><ele>74.0</ele><time>2026-04-23T13:49:08Z</time></trkpt><trkpt lat="45.350770451274926" lon="9.80932926933953"><ele>73.60000000000001</ele><time>2026-04-23T13:49:10Z</time></trkpt><trkpt lat="45.35083181107092" lon="9.809308030874774"><ele>73.2</ele><time>2026-04-23T13:49:11Z</time></trkpt><trkpt lat="45.350908456744136" lon="9.80929663475201"><ele>72.80000000000001</ele><time>2026-04-23T13:49:12Z</time></trkpt><trkpt lat="45.35099876383789" lon="9.80927607552237"><ele>72.4</ele><time>2026-04-23T13:49:13Z</time></trkpt><trkpt lat="45.35109440621634" lon="9.809254316068847"><ele>72.0</ele><time>2026-04-23T13:49:14Z</time></trkpt><trkpt lat="45.351258677324566" lon="9.809205519127282"><ele>72.0</ele><time>2026-04-23T13:49:15Z</time></trkpt><trkpt lat="45.351342732673345" lon="9.8091653370827"><ele>72.0</ele><time>2026-04-23T13:49:16Z</time></trkpt><trkpt lat="45.35142773802932" lon="9.809132302877714"><ele>72.0</ele><time>2026-04-23T13:49:17Z</time></trkpt><trkpt lat="45.351514969097735" lon="9.809089954438626"><ele>72.0</ele><time>2026-04-23T13:49:18Z</time></trkpt><trkpt lat="45.35159897219618" lon="9.809048071271418"><ele>72.0</ele><time>2026-04-23T13:49:19Z</time></trkpt><trkpt lat="45.351682143105926" lon="9.809006224630764"><ele>72.0</ele><time>2026-04-23T13:49:20Z</time></trkpt><trkpt lat="45.35176300254733" lon="9.808971586747125"><ele>72.0</ele><time>2026-04-23T13:49:21Z</time></trkpt><trkpt lat="45.35184879813513" lon="9.808935887198782"><ele>72.0</ele><time>2026-04-23T13:49:22Z</time></trkpt><trkpt lat="45.35194477268687" lon="9.808890647444438"><ele>72.0</ele><time>2026-04-23T13:49:23Z</time></trkpt><trkpt lat="45.352047218502996" lon="9.808845628094163"><ele>72.0</ele><time>2026-04-23T13:49:24Z</time></trkpt><trkpt lat="45.352134295570764" lon="9.808803539750297"><ele>72.0</ele><time>2026-04-23T13:49:25Z</time></trkpt><trkpt lat="45.352216317913744" lon="9.808758385426689"><ele>71.75</ele><time>2026-04-23T13:49:26Z</time></trkpt><trkpt lat="45.35230335148199" lon="9.808712064695998"><ele>71.5</ele><time>2026-04-23T13:49:27Z</time></trkpt><trkpt lat="45.352409770560115" lon="9.808669834186048"><ele>71.25</ele><time>2026-04-23T13:49:28Z</time></trkpt><trkpt lat="45.35252979130451" lon="9.808622197147393"><ele>71.0</ele><time>2026-04-23T13:49:29Z</time></trkpt><trkpt lat="45.352655000379805" lon="9.808557375327865"><ele>71.2</ele><time>2026-04-23T13:49:30Z</time></trkpt><trkpt lat="45.35277496971995" lon="9.808490291871479"><ele>71.39999999999999</ele><time>2026-04-23T13:49:31Z</time></trkpt><trkpt lat="45.35284023443062" lon="9.808415526739752"><ele>71.6</ele><time>2026-04-23T13:49:32Z</time></trkpt><trkpt lat="45.35286967518244" lon="9.808315403213252"><ele>71.8</ele><time>2026-04-23T13:49:33Z</time></trkpt><trkpt lat="45.352854391626344" lon="9.808182175555306"><ele>72.0</ele><time>2026-04-23T13:49:34Z</time></trkpt><trkpt lat="45.3528411157957" lon="9.808009377997376"><ele>72.0</ele><time>2026-04-23T13:49:35Z</time></trkpt><trkpt lat="45.352845206804545" lon="9.80786386248663"><ele>72.0</ele><time>2026-04-23T13:49:36Z</time></trkpt><trkpt lat="45.35290438270418" lon="9.807770278792551"><ele>72.0</ele><time>2026-04-23T13:49:37Z</time></trkpt><trkpt lat="45.35300844369376" lon="9.807663246373728"><ele>72.0</ele><time>2026-04-23T13:49:38Z</time></trkpt><trkpt lat="45.35314377587481" lon="9.807542962106394"><ele>72.33333333333333</ele><time>2026-04-23T13:49:39Z</time></trkpt><trkpt lat="45.35328503952844" lon="9.807421851635807"><ele>72.66666666666666</ele><time>2026-04-23T13:49:40Z</time></trkpt><trkpt lat="45.35341694748519" lon="9.807324818486823"><ele>73.0</ele><time>2026-04-23T13:49:41Z</time></trkpt><trkpt lat="45.353540726743354" lon="9.807242442024126"><ele>73.0</ele><time>2026-04-23T13:49:42Z</time></trkpt><trkpt lat="45.35365815716184" lon="9.807172500549099"><ele>73.0</ele><time>2026-04-23T13:49:43Z</time></trkpt><trkpt lat="45.35377509131316" lon="9.807097330352622"><ele>73.0</ele><time>2026-04-23T13:49:44Z</time></trkpt><trkpt lat="45.35389925218505" lon="9.807016835591877"><ele>73.0</ele><time>2026-04-23T13:49:45Z</time></trkpt><trkpt lat="45.35401945493838" lon="9.806937166525369"><ele>73.0</ele><time>2026-04-23T13:49:46Z</time></trkpt><trkpt lat="45.354128764047736" lon="9.806865464911116"><ele>73.0</ele><time>2026-04-23T13:49:47Z</time></trkpt><trkpt lat="45.3542413971225" lon="9.806792435482715"><ele>73.0</ele><time>2026-04-23T13:49:48Z</time></trkpt><trkpt lat="45.35435549558934" lon="9.806725089426635"><ele>73.0</ele><time>2026-04-23T13:49:49Z</time></trkpt><trkpt lat="45.35445820865188" lon="9.806663303065982"><ele>72.8</ele><time>2026-04-23T13:49:50Z</time></trkpt><trkpt lat="45.354555534875075" lon="9.806592553216472"><ele>72.6</ele><time>2026-04-23T13:49:51Z</time></trkpt><trkpt lat="45.35464786770516" lon="9.80651981352066"><ele>72.4</ele><time>2026-04-23T13:49:52Z</time></trkpt><trkpt lat="45.354739441726" lon="9.806444148233007"><ele>72.2</ele><time>2026-04-23T13:49:53Z</time></trkpt><trkpt lat="45.35482828540144" lon="9.806368677256636"><ele>72.0</ele><time>2026-04-23T13:49:54Z</time></trkpt><trkpt lat="45.35491008523017" lon="9.806293824416498"><ele>72.0</ele><time>2026-04-23T13:49:55Z</time></trkpt><trkpt lat="45.35498468141615" lon="9.80621686445928"><ele>72.0</ele><time>2026-04-23T13:49:56Z</time></trkpt><trkpt lat="45.35504942959795" lon="9.80613426312679"><ele>72.0</ele><time>2026-04-23T13:49:57Z</time></trkpt><trkpt lat="45.35509411130773" lon="9.80604780033727"><ele>72.0</ele><time>2026-04-23T13:49:58Z</time></trkpt><trkpt lat="45.35512250229945" lon="9.805946652234098"><ele>72.0</ele><time>2026-04-23T13:49:59Z</time></trkpt><trkpt lat="45.35513062777263" lon="9.805820905114327"><ele>72.0</ele><time>2026-04-23T13:50:00Z</time></trkpt><trkpt lat="45.35512955430217" lon="9.80568502067889"><ele>72.0</ele><time>2026-04-23T13:50:01Z</time></trkpt><trkpt lat="45.35513001185359" lon="9.805538069268463"><ele>72.0</ele><time>2026-04-23T13:50:02Z</time></trkpt><trkpt lat="45.35513004295886" lon="9.805394057307609"><ele>72.0</ele><time>2026-04-23T13:50:03Z</time></trkpt><trkpt lat="45.35513812671549" lon="9.805243254679068"><ele>72.0</ele><time>2026-04-23T13:50:04Z</time></trkpt><trkpt lat="45.355148442232036" lon="9.805087701464725"><ele>72.0</ele><time>2026-04-23T13:50:05Z</time></trkpt><trkpt lat="45.35514936159135" lon="9.804931132629687"><ele>72.0</ele><time>2026-04-23T13:50:06Z</time></trkpt><trkpt lat="45.35515474199593" lon="9.80477400870744"><ele>72.0</ele><time>2026-04-23T13:50:07Z</time></trkpt><trkpt lat="45.355166953811775" lon="9.804615953510071"><ele>72.0</ele><time>2026-04-23T13:50:08Z</time></trkpt><trkpt lat="45.35517774286053" lon="9.80446363481004"><ele>72.0</ele><time>2026-04-23T13:50:09Z</time></trkpt><trkpt lat="45.35520247393034" lon="9.804306789283281"><ele>72.0</ele><time>2026-04-23T13:50:10Z</time></trkpt><trkpt lat="45.35521522819769" lon="9.804144413383268"><ele>72.0</ele><time>2026-04-23T13:50:11Z</time></trkpt><trkpt lat="45.35521422151649" lon="9.803977636130831"><ele>72.0</ele><time>2026-04-23T13:50:12Z</time></trkpt><trkpt lat="45.35522793776654" lon="9.803821643500267"><ele>72.0</ele><time>2026-04-23T13:50:13Z</time></trkpt><trkpt lat="45.355248198434666" lon="9.803650406801676"><ele>72.0</ele><time>2026-04-23T13:50:14Z</time></trkpt><trkpt lat="45.35526356794909" lon="9.80346622514656"><ele>72.0</ele><time>2026-04-23T13:50:15Z</time></trkpt><trkpt lat="45.35528856360017" lon="9.803282979586395"><ele>72.0</ele><time>2026-04-23T13:50:16Z</time></trkpt><trkpt lat="45.35530746105346" lon="9.803102733459449"><ele>72.0</ele><time>2026-04-23T13:50:17Z</time></trkpt><trkpt lat="45.35532880259861" lon="9.80292513361285"><ele>72.0</ele><time>2026-04-23T13:50:18Z</time></trkpt><trkpt lat="45.355343945955056" lon="9.802748885170518"><ele>71.75</ele><time>2026-04-23T13:50:19Z</time></trkpt><trkpt lat="45.355362546922755" lon="9.802572067599257"><ele>71.5</ele><time>2026-04-23T13:50:20Z</time></trkpt><trkpt lat="45.35537593099127" lon="9.802393680344435"><ele>71.25</ele><time>2026-04-23T13:50:21Z</time></trkpt><trkpt lat="45.35540581033961" lon="9.802217164404816"><ele>71.0</ele><time>2026-04-23T13:50:22Z</time></trkpt><trkpt lat="45.35542600717407" lon="9.80203764064299"><ele>71.0</ele><time>2026-04-23T13:50:23Z</time></trkpt><trkpt lat="45.35544877737643" lon="9.801858768796372"><ele>71.0</ele><time>2026-04-23T13:50:24Z</time></trkpt><trkpt lat="45.35546955853085" lon="9.801680288094271"><ele>71.0</ele><time>2026-04-23T13:50:25Z</time></trkpt><trkpt lat="45.355487141292755" lon="9.801503284045253"><ele>71.0</ele><time>2026-04-23T13:50:26Z</time></trkpt><trkpt lat="45.35550093951168" lon="9.801330436761033"><ele>71.75</ele><time>2026-04-23T13:50:27Z</time></trkpt><trkpt lat="45.35550522370502" lon="9.801160271772748"><ele>72.5</ele><time>2026-04-23T13:50:28Z</time></trkpt><trkpt lat="45.355533405678" lon="9.800990156517473"><ele>73.25</ele><time>2026-04-23T13:50:29Z</time></trkpt><trkpt lat="45.355544839255664" lon="9.800818657851972"><ele>74.0</ele><time>2026-04-23T13:50:30Z</time></trkpt><trkpt lat="45.355554783703376" lon="9.800646525670137"><ele>74.0</ele><time>2026-04-23T13:50:31Z</time></trkpt><trkpt lat="45.355548555034005" lon="9.800470415991786"><ele>74.0</ele><time>2026-04-23T13:50:32Z</time></trkpt><trkpt lat="45.35556221721406" lon="9.800295859243668"><ele>74.0</ele><time>2026-04-23T13:50:33Z</time></trkpt><trkpt lat="45.35557077330145" lon="9.800135089621342"><ele>74.0</ele><time>2026-04-23T13:50:34Z</time></trkpt><trkpt lat="45.3555807399314" lon="9.800000253253067"><ele>74.0</ele><time>2026-04-23T13:50:35Z</time></trkpt><trkpt lat="45.3555952110437" lon="9.799893251018498"><ele>74.0</ele><time>2026-04-23T13:50:36Z</time></trkpt><trkpt lat="45.355637130071656" lon="9.799792475830605"><ele>74.0</ele><time>2026-04-23T13:50:37Z</time></trkpt><trkpt lat="45.355720767407554" lon="9.799733160821722"><ele>74.0</ele><time>2026-04-23T13:50:38Z</time></trkpt><trkpt lat="45.35579859024608" lon="9.7996472523558"><ele>74.0</ele><time>2026-04-23T13:50:39Z</time></trkpt><trkpt lat="45.35587498062175" lon="9.799548120006103"><ele>74.0</ele><time>2026-04-23T13:50:40Z</time></trkpt><trkpt lat="45.35593961818052" lon="9.799435507603393"><ele>74.0</ele><time>2026-04-23T13:50:41Z</time></trkpt><trkpt lat="45.3560209158823" lon="9.799337426518623"><ele>74.0</ele><time>2026-04-23T13:50:42Z</time></trkpt><trkpt lat="45.35610219918145" lon="9.799237397034991"><ele>74.0</ele><time>2026-04-23T13:50:43Z</time></trkpt><trkpt lat="45.35618730766722" lon="9.799124500444288"><ele>74.0</ele><time>2026-04-23T13:50:44Z</time></trkpt><trkpt lat="45.35626997875144" lon="9.799000638224628"><ele>73.5</ele><time>2026-04-23T13:50:45Z</time></trkpt><trkpt lat="45.35635525859396" lon="9.798888877050874"><ele>73.0</ele><time>2026-04-23T13:50:46Z</time></trkpt><trkpt lat="45.35643660097495" lon="9.798778598121045"><ele>72.5</ele><time>2026-04-23T13:50:47Z</time></trkpt><trkpt lat="45.35652252375284" lon="9.798667755178428"><ele>72.0</ele><time>2026-04-23T13:50:48Z</time></trkpt><trkpt lat="45.35660880086515" lon="9.798553240055327"><ele>72.0</ele><time>2026-04-23T13:50:49Z</time></trkpt><trkpt lat="45.35669629761721" lon="9.798437394843145"><ele>72.0</ele><time>2026-04-23T13:50:50Z</time></trkpt><trkpt lat="45.35678282373795" lon="9.798322083364557"><ele>72.0</ele><time>2026-04-23T13:50:51Z</time></trkpt><trkpt lat="45.35686969307591" lon="9.798206942937341"><ele>72.0</ele><time>2026-04-23T13:50:52Z</time></trkpt><trkpt lat="45.35695509615267" lon="9.798085674025044"><ele>72.0</ele><time>2026-04-23T13:50:53Z</time></trkpt><trkpt lat="45.35703768388233" lon="9.797962337945979"><ele>72.0</ele><time>2026-04-23T13:50:54Z</time></trkpt><trkpt lat="45.35712211515259" lon="9.797841622707397"><ele>72.0</ele><time>2026-04-23T13:50:55Z</time></trkpt><trkpt lat="45.35721022552853" lon="9.797731023474041"><ele>72.0</ele><time>2026-04-23T13:50:56Z</time></trkpt><trkpt lat="45.35730079204663" lon="9.797610587014551"><ele>72.0</ele><time>2026-04-23T13:50:57Z</time></trkpt><trkpt lat="45.35738448005366" lon="9.797494825816251"><ele>72.0</ele><time>2026-04-23T13:50:58Z</time></trkpt><trkpt lat="45.357470299427824" lon="9.797374629952575"><ele>72.0</ele><time>2026-04-23T13:50:59Z</time></trkpt><trkpt lat="45.35755088490715" lon="9.797266007595738"><ele>72.0</ele><time>2026-04-23T13:51:00Z</time></trkpt><trkpt lat="45.35761395206882" lon="9.79718046579018"><ele>72.0</ele><time>2026-04-23T13:51:01Z</time></trkpt><trkpt lat="45.35766899002273" lon="9.797136026117258"><ele>72.0</ele><time>2026-04-23T13:51:02Z</time></trkpt><trkpt lat="45.357728475608084" lon="9.797057047761271"><ele>72.0</ele><time>2026-04-23T13:51:04Z</time></trkpt><trkpt lat="45.35761449329955" lon="9.79687042916218"><ele>72.0</ele><time>2026-04-23T13:51:05Z</time></trkpt><trkpt lat="45.35755762873702" lon="9.796793176826688"><ele>72.0</ele><time>2026-04-23T13:51:06Z</time></trkpt><trkpt lat="45.357495699653505" lon="9.79671903479236"><ele>72.0</ele><time>2026-04-23T13:51:07Z</time></trkpt><trkpt lat="45.35744732635302" lon="9.796636245048317"><ele>71.8</ele><time>2026-04-23T13:51:08Z</time></trkpt><trkpt lat="45.35738417536812" lon="9.79654871477935"><ele>71.6</ele><time>2026-04-23T13:51:09Z</time></trkpt><trkpt lat="45.35732872217959" lon="9.796457264305664"><ele>71.39999999999999</ele><time>2026-04-23T13:51:10Z</time></trkpt><trkpt lat="45.35726939330078" lon="9.796360396436343"><ele>71.2</ele><time>2026-04-23T13:51:11Z</time></trkpt><trkpt lat="45.35720199846024" lon="9.796238122335456"><ele>71.0</ele><time>2026-04-23T13:51:12Z</time></trkpt><trkpt lat="45.357136884214285" lon="9.796090358107909"><ele>71.25</ele><time>2026-04-23T13:51:13Z</time></trkpt><trkpt lat="45.35707411284775" lon="9.795927999540229"><ele>71.5</ele><time>2026-04-23T13:51:14Z</time></trkpt><trkpt lat="45.357019355570365" lon="9.79576843291475"><ele>71.75</ele><time>2026-04-23T13:51:15Z</time></trkpt><trkpt lat="45.35696755528199" lon="9.795628470070453"><ele>72.0</ele><time>2026-04-23T13:51:16Z</time></trkpt><trkpt lat="45.356919466670014" lon="9.795499444706637"><ele>72.0</ele><time>2026-04-23T13:51:17Z</time></trkpt><trkpt lat="45.35687362950253" lon="9.795376085177692"><ele>72.0</ele><time>2026-04-23T13:51:18Z</time></trkpt><trkpt lat="45.356835782478974" lon="9.795257166452814"><ele>72.0</ele><time>2026-04-23T13:51:19Z</time></trkpt><trkpt lat="45.3568011060358" lon="9.795144226903236"><ele>72.0</ele><time>2026-04-23T13:51:20Z</time></trkpt><trkpt lat="45.35676021847612" lon="9.795031722606717"><ele>72.0</ele><time>2026-04-23T13:51:21Z</time></trkpt><trkpt lat="45.35671504990985" lon="9.794906532213913"><ele>72.0</ele><time>2026-04-23T13:51:22Z</time></trkpt><trkpt lat="45.3566766125126" lon="9.79476964431601"><ele>72.0</ele><time>2026-04-23T13:51:23Z</time></trkpt><trkpt lat="45.35663747865202" lon="9.794629940168244"><ele>72.0</ele><time>2026-04-23T13:51:24Z</time></trkpt><trkpt lat="45.35660543708904" lon="9.794486427218006"><ele>72.0</ele><time>2026-04-23T13:51:25Z</time></trkpt><trkpt lat="45.356587183321864" lon="9.794336790431942"><ele>72.0</ele><time>2026-04-23T13:51:26Z</time></trkpt><trkpt lat="45.356572013872174" lon="9.79418096858467"><ele>72.0</ele><time>2026-04-23T13:51:27Z</time></trkpt><trkpt lat="45.35655590040195" lon="9.794030183288914"><ele>72.0</ele><time>2026-04-23T13:51:28Z</time></trkpt><trkpt lat="45.35654136277485" lon="9.793875948190003"><ele>72.0</ele><time>2026-04-23T13:51:29Z</time></trkpt><trkpt lat="45.35652682998055" lon="9.793721937085015"><ele>72.0</ele><time>2026-04-23T13:51:30Z</time></trkpt><trkpt lat="45.35651148321199" lon="9.793566483645533"><ele>72.0</ele><time>2026-04-23T13:51:31Z</time></trkpt><trkpt lat="45.35649322468414" lon="9.79341210152603"><ele>71.75</ele><time>2026-04-23T13:51:32Z</time></trkpt><trkpt lat="45.35647542344157" lon="9.793253170055591"><ele>71.5</ele><time>2026-04-23T13:51:33Z</time></trkpt><trkpt lat="45.35645642167801" lon="9.793081719594438"><ele>71.25</ele><time>2026-04-23T13:51:34Z</time></trkpt><trkpt lat="45.356436195469755" lon="9.792900585915143"><ele>71.0</ele><time>2026-04-23T13:51:35Z</time></trkpt><trkpt lat="45.356414668148396" lon="9.792709231860258"><ele>71.0</ele><time>2026-04-23T13:51:36Z</time></trkpt><trkpt lat="45.35639099413545" lon="9.792516568017188"><ele>71.0</ele><time>2026-04-23T13:51:37Z</time></trkpt><trkpt lat="45.35636868518899" lon="9.79234139061025"><ele>71.0</ele><time>2026-04-23T13:51:38Z</time></trkpt><trkpt lat="45.35635154402981" lon="9.792183042360143"><ele>71.0</ele><time>2026-04-23T13:51:39Z</time></trkpt><trkpt lat="45.35633894165691" lon="9.79203304727067"><ele>71.2</ele><time>2026-04-23T13:51:40Z</time></trkpt><trkpt lat="45.35632370683713" lon="9.791892011503842"><ele>71.39999999999999</ele><time>2026-04-23T13:51:41Z</time></trkpt><trkpt lat="45.35631061094816" lon="9.791759571155678"><ele>71.6</ele><time>2026-04-23T13:51:42Z</time></trkpt><trkpt lat="45.35629608510621" lon="9.791634691907417"><ele>71.8</ele><time>2026-04-23T13:51:43Z</time></trkpt><trkpt lat="45.35628259708863" lon="9.79150876758629"><ele>72.0</ele><time>2026-04-23T13:51:44Z</time></trkpt><trkpt lat="45.35626721127285" lon="9.791389786585851"><ele>72.0</ele><time>2026-04-23T13:51:45Z</time></trkpt><trkpt lat="45.35625228655935" lon="9.791275714756834"><ele>72.0</ele><time>2026-04-23T13:51:46Z</time></trkpt><trkpt lat="45.35623638891666" lon="9.79115058415287"><ele>72.0</ele><time>2026-04-23T13:51:47Z</time></trkpt><trkpt lat="45.35622018965778" lon="9.791010576217321"><ele>72.0</ele><time>2026-04-23T13:51:48Z</time></trkpt><trkpt lat="45.35620426605119" lon="9.790873729186151"><ele>72.0</ele><time>2026-04-23T13:51:49Z</time></trkpt><trkpt lat="45.35618922827909" lon="9.79076060928891"><ele>72.0</ele><time>2026-04-23T13:51:50Z</time></trkpt><trkpt lat="45.35621891057348" lon="9.790593882182645"><ele>72.0</ele><time>2026-04-23T13:51:52Z</time></trkpt><trkpt lat="45.356284161553134" lon="9.79052943551772"><ele>72.0</ele><time>2026-04-23T13:51:53Z</time></trkpt><trkpt lat="45.356375370037526" lon="9.7905443987471"><ele>72.0</ele><time>2026-04-23T13:51:54Z</time></trkpt><trkpt lat="45.35647260365978" lon="9.79053443618501"><ele>72.0</ele><time>2026-04-23T13:51:55Z</time></trkpt><trkpt lat="45.3565719374437" lon="9.790502921146947"><ele>72.0</ele><time>2026-04-23T13:51:56Z</time></trkpt><trkpt lat="45.35665936577545" lon="9.790494560692144"><ele>72.0</ele><time>2026-04-23T13:51:57Z</time></trkpt><trkpt lat="45.356727935684916" lon="9.790461859700716"><ele>72.0</ele><time>2026-04-23T13:51:58Z</time></trkpt><trkpt lat="45.35677589044322" lon="9.790393620678314"><ele>72.0</ele><time>2026-04-23T13:51:59Z</time></trkpt><trkpt lat="45.356790591863344" lon="9.790299624083207"><ele>72.0</ele><time>2026-04-23T13:52:00Z</time></trkpt><trkpt lat="45.35678176858051" lon="9.790170752660936"><ele>72.0</ele><time>2026-04-23T13:52:02Z</time></trkpt><trkpt lat="45.356907460641175" lon="9.790106209577583"><ele>72.0</ele><time>2026-04-23T13:52:05Z</time></trkpt><trkpt lat="45.356973777684004" lon="9.790063926848141"><ele>72.0</ele><time>2026-04-23T13:52:06Z</time></trkpt><trkpt lat="45.35705241179016" lon="9.790056041642899"><ele>72.0</ele><time>2026-04-23T13:52:07Z</time></trkpt><trkpt lat="45.35713829987724" lon="9.790051378250102"><ele>72.0</ele><time>2026-04-23T13:52:08Z</time></trkpt><trkpt lat="45.35723456296227" lon="9.790041701867983"><ele>72.0</ele><time>2026-04-23T13:52:09Z</time></trkpt><trkpt lat="45.35732818983525" lon="9.790025658887721"><ele>72.0</ele><time>2026-04-23T13:52:10Z</time></trkpt><trkpt lat="45.35742973289511" lon="9.790009757388932"><ele>72.0</ele><time>2026-04-23T13:52:11Z</time></trkpt><trkpt lat="45.357541527689186" lon="9.790000900841049"><ele>72.0</ele><time>2026-04-23T13:52:12Z</time></trkpt><trkpt lat="45.3576384176755" lon="9.789993703344106"><ele>72.0</ele><time>2026-04-23T13:52:13Z</time></trkpt><trkpt lat="45.35771171491465" lon="9.789993918638986"><ele>72.0</ele><time>2026-04-23T13:52:14Z</time></trkpt><trkpt lat="45.35782101650982" lon="9.790020847865422"><ele>72.0</ele><time>2026-04-23T13:52:16Z</time></trkpt><trkpt lat="45.357914989212496" lon="9.789985617126753"><ele>72.0</ele><time>2026-04-23T13:52:18Z</time></trkpt><trkpt lat="45.357968168773475" lon="9.78989060686304"><ele>72.0</ele><time>2026-04-23T13:52:20Z</time></trkpt><trkpt lat="45.35795625808822" lon="9.789728667159102"><ele>72.0</ele><time>2026-04-23T13:52:22Z</time></trkpt><trkpt lat="45.35793664351821" lon="9.789631868194476"><ele>72.0</ele><time>2026-04-23T13:52:23Z</time></trkpt><trkpt lat="45.35792887482137" lon="9.78953083179707"><ele>72.0</ele><time>2026-04-23T13:52:24Z</time></trkpt><trkpt lat="45.35793703220339" lon="9.78941290238348"><ele>72.0</ele><time>2026-04-23T13:52:25Z</time></trkpt><trkpt lat="45.35794496764422" lon="9.789294561584315"><ele>72.2</ele><time>2026-04-23T13:52:26Z</time></trkpt><trkpt lat="45.357949273453166" lon="9.789182836349141"><ele>72.4</ele><time>2026-04-23T13:52:27Z</time></trkpt><trkpt lat="45.3579755336679" lon="9.78903569686496"><ele>72.6</ele><time>2026-04-23T13:52:29Z</time></trkpt><trkpt lat="45.35795633488923" lon="9.788898028349545"><ele>72.8</ele><time>2026-04-23T13:52:31Z</time></trkpt><trkpt lat="45.35795127636061" lon="9.788702583815201"><ele>73.0</ele><time>2026-04-23T13:52:33Z</time></trkpt><trkpt lat="45.35795974008713" lon="9.788592627034697"><ele>72.8</ele><time>2026-04-23T13:52:34Z</time></trkpt><trkpt lat="45.35795803058175" lon="9.78847163726422"><ele>72.6</ele><time>2026-04-23T13:52:35Z</time></trkpt><trkpt lat="45.35796663080832" lon="9.788343628848239"><ele>72.4</ele><time>2026-04-23T13:52:36Z</time></trkpt><trkpt lat="45.357973424578816" lon="9.788205187443266"><ele>72.2</ele><time>2026-04-23T13:52:37Z</time></trkpt><trkpt lat="45.35798504386215" lon="9.788093565971618"><ele>72.0</ele><time>2026-04-23T13:52:38Z</time></trkpt><trkpt lat="45.357985248198226" lon="9.78795230289157"><ele>72.0</ele><time>2026-04-23T13:52:39Z</time></trkpt><trkpt lat="45.35798323321466" lon="9.78781083911168"><ele>72.0</ele><time>2026-04-23T13:52:40Z</time></trkpt><trkpt lat="45.35799265247775" lon="9.787678323498591"><ele>72.0</ele><time>2026-04-23T13:52:41Z</time></trkpt><trkpt lat="45.357997208859686" lon="9.787545697266495"><ele>72.0</ele><time>2026-04-23T13:52:42Z</time></trkpt><trkpt lat="45.35800089934794" lon="9.787413921705621"><ele>72.0</ele><time>2026-04-23T13:52:43Z</time></trkpt><trkpt lat="45.35800374689496" lon="9.787281345210717"><ele>72.0</ele><time>2026-04-23T13:52:44Z</time></trkpt><trkpt lat="45.35800901611115" lon="9.78715773630018"><ele>72.0</ele><time>2026-04-23T13:52:45Z</time></trkpt><trkpt lat="45.35801230643652" lon="9.787039569681937"><ele>72.0</ele><time>2026-04-23T13:52:46Z</time></trkpt><trkpt lat="45.358006792548814" lon="9.786935365885475"><ele>72.0</ele><time>2026-04-23T13:52:47Z</time></trkpt><trkpt lat="45.358029560119824" lon="9.786794314703966"><ele>72.0</ele><time>2026-04-23T13:52:49Z</time></trkpt><trkpt lat="45.35810967032416" lon="9.786738032187113"><ele>72.0</ele><time>2026-04-23T13:52:52Z</time></trkpt><trkpt lat="45.358187707772004" lon="9.786698650001602"><ele>72.6</ele><time>2026-04-23T13:52:55Z</time></trkpt><trkpt lat="45.358262472312965" lon="9.786667186773489"><ele>73.2</ele><time>2026-04-23T13:52:57Z</time></trkpt><trkpt lat="45.35836123516588" lon="9.786629907707402"><ele>73.8</ele><time>2026-04-23T13:52:59Z</time></trkpt><trkpt lat="45.358424162045175" lon="9.78652511345019"><ele>74.4</ele><time>2026-04-23T13:53:01Z</time></trkpt><trkpt lat="45.35841587015641" lon="9.786347312273017"><ele>75.0</ele><time>2026-04-23T13:53:03Z</time></trkpt><trkpt lat="45.358399030491995" lon="9.786242507392814"><ele>75.0</ele><time>2026-04-23T13:53:04Z</time></trkpt><trkpt lat="45.3583768395286" lon="9.786119863644602"><ele>75.0</ele><time>2026-04-23T13:53:05Z</time></trkpt><trkpt lat="45.35835269947661" lon="9.785991664091583"><ele>75.0</ele><time>2026-04-23T13:53:06Z</time></trkpt><trkpt lat="45.358329721997244" lon="9.785856398318328"><ele>75.0</ele><time>2026-04-23T13:53:07Z</time></trkpt><trkpt lat="45.35830634867716" lon="9.785725757445734"><ele>75.0</ele><time>2026-04-23T13:53:08Z</time></trkpt><trkpt lat="45.35828725192982" lon="9.785587884675794"><ele>75.0</ele><time>2026-04-23T13:53:09Z</time></trkpt><trkpt lat="45.35827754816278" lon="9.785447694845159"><ele>75.0</ele><time>2026-04-23T13:53:10Z</time></trkpt><trkpt lat="45.35827653654871" lon="9.785298976413566"><ele>75.0</ele><time>2026-04-23T13:53:11Z</time></trkpt><trkpt lat="45.35827716576341" lon="9.785166352873068"><ele>75.0</ele><time>2026-04-23T13:53:12Z</time></trkpt><trkpt lat="45.35829070869448" lon="9.785032775816225"><ele>75.0</ele><time>2026-04-23T13:53:13Z</time></trkpt><trkpt lat="45.358297968516666" lon="9.784890589684087"><ele>75.0</ele><time>2026-04-23T13:53:14Z</time></trkpt><trkpt lat="45.35830815217185" lon="9.784745424124772"><ele>75.0</ele><time>2026-04-23T13:53:15Z</time></trkpt><trkpt lat="45.35831716834866" lon="9.784600755388457"><ele>75.0</ele><time>2026-04-23T13:53:16Z</time></trkpt><trkpt lat="45.358317122649886" lon="9.784450421512146"><ele>75.0</ele><time>2026-04-23T13:53:17Z</time></trkpt><trkpt lat="45.358320659095604" lon="9.784312959116763"><ele>75.0</ele><time>2026-04-23T13:53:18Z</time></trkpt><trkpt lat="45.35832455411774" lon="9.784179910966449"><ele>75.0</ele><time>2026-04-23T13:53:19Z</time></trkpt><trkpt lat="45.35833061820562" lon="9.784054070877719"><ele>75.0</ele><time>2026-04-23T13:53:20Z</time></trkpt><trkpt lat="45.35833490280152" lon="9.783923598490002"><ele>75.0</ele><time>2026-04-23T13:53:21Z</time></trkpt><trkpt lat="45.35834087413523" lon="9.783790873844984"><ele>75.0</ele><time>2026-04-23T13:53:22Z</time></trkpt><trkpt lat="45.35834752329972" lon="9.783659166777559"><ele>75.0</ele><time>2026-04-23T13:53:23Z</time></trkpt><trkpt lat="45.35835369278939" lon="9.783528898926019"><ele>74.83333333333333</ele><time>2026-04-23T13:53:24Z</time></trkpt><trkpt lat="45.35835852997542" lon="9.783401481946806"><ele>74.66666666666667</ele><time>2026-04-23T13:53:25Z</time></trkpt><trkpt lat="45.3583668914132" lon="9.783286165023874"><ele>74.5</ele><time>2026-04-23T13:53:26Z</time></trkpt><trkpt lat="45.35837158123029" lon="9.783167365832083"><ele>74.33333333333334</ele><time>2026-04-23T13:53:27Z</time></trkpt><trkpt lat="45.35838877533703" lon="9.783044011766089"><ele>74.16666666666667</ele><time>2026-04-23T13:53:28Z</time></trkpt><trkpt lat="45.358400980066826" lon="9.782918509564508"><ele>74.0</ele><time>2026-04-23T13:53:29Z</time></trkpt><trkpt lat="45.358406231180744" lon="9.782787961506138"><ele>73.4</ele><time>2026-04-23T13:53:30Z</time></trkpt><trkpt lat="45.3584002221061" lon="9.782651545240867"><ele>72.80000000000001</ele><time>2026-04-23T13:53:31Z</time></trkpt><trkpt lat="45.35838078241192" lon="9.782525897480852"><ele>72.19999999999999</ele><time>2026-04-23T13:53:32Z</time></trkpt><trkpt lat="45.35836849552403" lon="9.78239306943797"><ele>71.6</ele><time>2026-04-23T13:53:33Z</time></trkpt><trkpt lat="45.35836091388604" lon="9.782261731094119"><ele>71.0</ele><time>2026-04-23T13:53:34Z</time></trkpt><trkpt lat="45.35835581689019" lon="9.782131456010974"><ele>71.0</ele><time>2026-04-23T13:53:35Z</time></trkpt><trkpt lat="45.358352258771305" lon="9.781999842777184"><ele>71.0</ele><time>2026-04-23T13:53:36Z</time></trkpt><trkpt lat="45.35835141255764" lon="9.781867030746287"><ele>71.0</ele><time>2026-04-23T13:53:37Z</time></trkpt><trkpt lat="45.358350515475266" lon="9.781735123501758"><ele>71.0</ele><time>2026-04-23T13:53:38Z</time></trkpt><trkpt lat="45.35834665560297" lon="9.781604544262468"><ele>71.0</ele><time>2026-04-23T13:53:39Z</time></trkpt><trkpt lat="45.35834514783366" lon="9.781471179215634"><ele>70.83333333333334</ele><time>2026-04-23T13:53:40Z</time></trkpt><trkpt lat="45.358336787290426" lon="9.781339002081113"><ele>70.66666666666667</ele><time>2026-04-23T13:53:41Z</time></trkpt><trkpt lat="45.35832654719637" lon="9.781213965294231"><ele>70.5</ele><time>2026-04-23T13:53:42Z</time></trkpt><trkpt lat="45.358314282528475" lon="9.781090075804268"><ele>70.33333333333333</ele><time>2026-04-23T13:53:43Z</time></trkpt><trkpt lat="45.35830145595885" lon="9.780967298883834"><ele>70.16666666666666</ele><time>2026-04-23T13:53:44Z</time></trkpt><trkpt lat="45.358292801323536" lon="9.780836077618723"><ele>70.0</ele><time>2026-04-23T13:53:45Z</time></trkpt><trkpt lat="45.35830518751862" lon="9.78071207387179"><ele>70.5</ele><time>2026-04-23T13:53:46Z</time></trkpt><trkpt lat="45.35832910331529" lon="9.780586235487844"><ele>71.0</ele><time>2026-04-23T13:53:47Z</time></trkpt><trkpt lat="45.3583592212281" lon="9.78047764342703"><ele>71.5</ele><time>2026-04-23T13:53:48Z</time></trkpt><trkpt lat="45.358383897934154" lon="9.780331269652534"><ele>72.0</ele><time>2026-04-23T13:53:50Z</time></trkpt><trkpt lat="45.35845376771099" lon="9.780270969816529"><ele>72.5</ele><time>2026-04-23T13:53:53Z</time></trkpt><trkpt lat="45.358521608729404" lon="9.780293382220139"><ele>73.0</ele><time>2026-04-23T13:53:54Z</time></trkpt><trkpt lat="45.35859565880833" lon="9.78036566410351"><ele>73.0</ele><time>2026-04-23T13:53:55Z</time></trkpt><trkpt lat="45.35867653488814" lon="9.780413139021224"><ele>73.0</ele><time>2026-04-23T13:53:56Z</time></trkpt><trkpt lat="45.35876317840794" lon="9.78045446154861"><ele>73.0</ele><time>2026-04-23T13:53:57Z</time></trkpt><trkpt lat="45.3588561133339" lon="9.780494924612915"><ele>73.0</ele><time>2026-04-23T13:53:58Z</time></trkpt><trkpt lat="45.35895109939155" lon="9.780535356726164"><ele>73.0</ele><time>2026-04-23T13:53:59Z</time></trkpt><trkpt lat="45.35904910476653" lon="9.780569567590735"><ele>72.8</ele><time>2026-04-23T13:54:00Z</time></trkpt><trkpt lat="45.359152784534906" lon="9.780592308126447"><ele>72.6</ele><time>2026-04-23T13:54:01Z</time></trkpt><trkpt lat="45.35926600638079" lon="9.780609161240733"><ele>72.4</ele><time>2026-04-23T13:54:02Z</time></trkpt><trkpt lat="45.35937746449203" lon="9.780623529720451"><ele>72.2</ele><time>2026-04-23T13:54:03Z</time></trkpt><trkpt lat="45.35947435224237" lon="9.780638250344072"><ele>72.0</ele><time>2026-04-23T13:54:04Z</time></trkpt><trkpt lat="45.35956222649911" lon="9.780651900227218"><ele>72.0</ele><time>2026-04-23T13:54:05Z</time></trkpt><trkpt lat="45.35964880862259" lon="9.78067112335115"><ele>72.0</ele><time>2026-04-23T13:54:06Z</time></trkpt><trkpt lat="45.35973757620481" lon="9.780697323329"><ele>72.0</ele><time>2026-04-23T13:54:07Z</time></trkpt><trkpt lat="45.35983036747667" lon="9.780739655337374"><ele>72.0</ele><time>2026-04-23T13:54:08Z</time></trkpt><trkpt lat="45.35992268325028" lon="9.780791486664734"><ele>72.0</ele><time>2026-04-23T13:54:09Z</time></trkpt><trkpt lat="45.360010170891364" lon="9.780864893690783"><ele>72.4</ele><time>2026-04-23T13:54:10Z</time></trkpt><trkpt lat="45.36008499228146" lon="9.780957681705182"><ele>72.80000000000001</ele><time>2026-04-23T13:54:11Z</time></trkpt><trkpt lat="45.360139218323596" lon="9.781080388554093"><ele>73.2</ele><time>2026-04-23T13:54:12Z</time></trkpt><trkpt lat="45.36017937950247" lon="9.781223010254367"><ele>73.60000000000001</ele><time>2026-04-23T13:54:13Z</time></trkpt><trkpt lat="45.3602172078988" lon="9.781339878176663"><ele>74.0</ele><time>2026-04-23T13:54:14Z</time></trkpt><trkpt lat="45.36025588553155" lon="9.781414901589411"><ele>74.0</ele><time>2026-04-23T13:54:15Z</time></trkpt><trkpt lat="45.360373892295165" lon="9.78147360064113"><ele>74.0</ele><time>2026-04-23T13:54:17Z</time></trkpt><trkpt lat="45.36044417268835" lon="9.781468513895335"><ele>74.0</ele><time>2026-04-23T13:54:18Z</time></trkpt><trkpt lat="45.36052117868628" lon="9.781458291309576"><ele>74.0</ele><time>2026-04-23T13:54:19Z</time></trkpt><trkpt lat="45.36060193921975" lon="9.781448464688324"><ele>74.0</ele><time>2026-04-23T13:54:20Z</time></trkpt><trkpt lat="45.360687241194725" lon="9.781447265443617"><ele>74.0</ele><time>2026-04-23T13:54:21Z</time></trkpt><trkpt lat="45.36077008280394" lon="9.78143335049672"><ele>74.0</ele><time>2026-04-23T13:54:22Z</time></trkpt><trkpt lat="45.36085957360285" lon="9.78142144952421"><ele>74.0</ele><time>2026-04-23T13:54:23Z</time></trkpt><trkpt lat="45.360946867793665" lon="9.781412990735816"><ele>74.0</ele><time>2026-04-23T13:54:24Z</time></trkpt><trkpt lat="45.361028161573344" lon="9.781412647499923"><ele>74.0</ele><time>2026-04-23T13:54:25Z</time></trkpt><trkpt lat="45.361109159982476" lon="9.781406262719107"><ele>74.0</ele><time>2026-04-23T13:54:26Z</time></trkpt><trkpt lat="45.36119622197945" lon="9.7814083092912"><ele>74.0</ele><time>2026-04-23T13:54:27Z</time></trkpt><trkpt lat="45.36128590096166" lon="9.78141735460378"><ele>73.8</ele><time>2026-04-23T13:54:28Z</time></trkpt><trkpt lat="45.36137854582488" lon="9.781431349973555"><ele>73.60000000000001</ele><time>2026-04-23T13:54:29Z</time></trkpt><trkpt lat="45.36147394992056" lon="9.781446699269708"><ele>73.4</ele><time>2026-04-23T13:54:30Z</time></trkpt><trkpt lat="45.36156721617599" lon="9.781468881076776"><ele>73.2</ele><time>2026-04-23T13:54:31Z</time></trkpt><trkpt lat="45.36166018169184" lon="9.781496436176068"><ele>73.0</ele><time>2026-04-23T13:54:32Z</time></trkpt><trkpt lat="45.36175467768173" lon="9.781525861136044"><ele>73.0</ele><time>2026-04-23T13:54:33Z</time></trkpt><trkpt lat="45.3618497432022" lon="9.781555969174422"><ele>73.0</ele><time>2026-04-23T13:54:34Z</time></trkpt><trkpt lat="45.361942762929424" lon="9.78159078166172"><ele>73.0</ele><time>2026-04-23T13:54:35Z</time></trkpt><trkpt lat="45.362019688615966" lon="9.781654946573175"><ele>73.0</ele><time>2026-04-23T13:54:36Z</time></trkpt><trkpt lat="45.362096925588915" lon="9.781719822663499"><ele>73.0</ele><time>2026-04-23T13:54:37Z</time></trkpt><trkpt lat="45.36217479658666" lon="9.781811531430554"><ele>73.25</ele><time>2026-04-23T13:54:38Z</time></trkpt><trkpt lat="45.362264653120356" lon="9.781926026906413"><ele>73.5</ele><time>2026-04-23T13:54:39Z</time></trkpt><trkpt lat="45.36235973322512" lon="9.782053864648347"><ele>73.75</ele><time>2026-04-23T13:54:40Z</time></trkpt><trkpt lat="45.362447523155325" lon="9.782171900175314"><ele>74.0</ele><time>2026-04-23T13:54:41Z</time></trkpt><trkpt lat="45.362513478679624" lon="9.782271043495713"><ele>74.0</ele><time>2026-04-23T13:54:42Z</time></trkpt><trkpt lat="45.36256307683715" lon="9.782351189548663"><ele>74.0</ele><time>2026-04-23T13:54:43Z</time></trkpt><trkpt lat="45.36260537423077" lon="9.782420843176471"><ele>74.0</ele><time>2026-04-23T13:54:44Z</time></trkpt><trkpt lat="45.36264629029025" lon="9.782493841632167"><ele>74.0</ele><time>2026-04-23T13:54:45Z</time></trkpt><trkpt lat="45.362694838196916" lon="9.782587704384257"><ele>74.0</ele><time>2026-04-23T13:54:46Z</time></trkpt><trkpt lat="45.36274720520994" lon="9.78270168493511"><ele>74.0</ele><time>2026-04-23T13:54:47Z</time></trkpt><trkpt lat="45.36279412694684" lon="9.782822484501466"><ele>73.8</ele><time>2026-04-23T13:54:48Z</time></trkpt><trkpt lat="45.36283846197628" lon="9.782951917703963"><ele>73.60000000000001</ele><time>2026-04-23T13:54:49Z</time></trkpt><trkpt lat="45.36288343441829" lon="9.783091003380449"><ele>73.4</ele><time>2026-04-23T13:54:50Z</time></trkpt><trkpt lat="45.3629248806969" lon="9.783225906213602"><ele>73.2</ele><time>2026-04-23T13:54:51Z</time></trkpt><trkpt lat="45.36297062885377" lon="9.783369453234696"><ele>73.0</ele><time>2026-04-23T13:54:52Z</time></trkpt><trkpt lat="45.363022558602175" lon="9.783512650247948"><ele>73.2</ele><time>2026-04-23T13:54:53Z</time></trkpt><trkpt lat="45.36308454857941" lon="9.78363192474425"><ele>73.4</ele><time>2026-04-23T13:54:54Z</time></trkpt><trkpt lat="45.36312908024746" lon="9.78375067428464"><ele>73.60000000000001</ele><time>2026-04-23T13:54:55Z</time></trkpt><trkpt lat="45.36317782735173" lon="9.783863043245756"><ele>73.8</ele><time>2026-04-23T13:54:56Z</time></trkpt><trkpt lat="45.363221975235156" lon="9.783974736380541"><ele>74.0</ele><time>2026-04-23T13:54:57Z</time></trkpt><trkpt lat="45.36326193162818" lon="9.784087168093606"><ele>74.0</ele><time>2026-04-23T13:54:58Z</time></trkpt><trkpt lat="45.36330349220319" lon="9.784199477608679"><ele>74.0</ele><time>2026-04-23T13:54:59Z</time></trkpt><trkpt lat="45.36334850345166" lon="9.784304449898057"><ele>74.0</ele><time>2026-04-23T13:55:00Z</time></trkpt><trkpt lat="45.36338951990863" lon="9.78440871301253"><ele>74.0</ele><time>2026-04-23T13:55:01Z</time></trkpt><trkpt lat="45.36342883867619" lon="9.784506633196688"><ele>74.0</ele><time>2026-04-23T13:55:02Z</time></trkpt><trkpt lat="45.36345102496068" lon="9.784624103494263"><ele>74.0</ele><time>2026-04-23T13:55:03Z</time></trkpt><trkpt lat="45.36349379094691" lon="9.784698142676746"><ele>73.83333333333334</ele><time>2026-04-23T13:55:04Z</time></trkpt><trkpt lat="45.36354391603141" lon="9.784837460898999"><ele>73.66666666666667</ele><time>2026-04-23T13:55:06Z</time></trkpt><trkpt lat="45.363571460196205" lon="9.784945975870698"><ele>73.5</ele><time>2026-04-23T13:55:08Z</time></trkpt><trkpt lat="45.36361604792702" lon="9.785027469606783"><ele>73.33333333333333</ele><time>2026-04-23T13:55:10Z</time></trkpt><trkpt lat="45.363687732629835" lon="9.785039772133155"><ele>73.16666666666666</ele><time>2026-04-23T13:55:11Z</time></trkpt><trkpt lat="45.363744183545776" lon="9.784994034087036"><ele>73.0</ele><time>2026-04-23T13:55:13Z</time></trkpt><trkpt lat="45.36367205890412" lon="9.78485231808645"><ele>73.0</ele><time>2026-04-23T13:55:28Z</time></trkpt><trkpt lat="45.363729926585016" lon="9.784758541461501"><ele>73.0</ele><time>2026-04-23T13:57:45Z</time></trkpt><trkpt lat="45.36376917153253" lon="9.784645388273121"><ele>73.0</ele><time>2026-04-23T13:57:47Z</time></trkpt><trkpt lat="45.36380317231238" lon="9.784536386636393"><ele>73.0</ele><time>2026-04-23T13:57:49Z</time></trkpt><trkpt lat="45.363832551272885" lon="9.784426755448205"><ele>73.0</ele><time>2026-04-23T13:57:51Z</time></trkpt><trkpt lat="45.36384684306179" lon="9.78429296005546"><ele>73.0</ele><time>2026-04-23T13:57:54Z</time></trkpt><trkpt lat="45.363852247904305" lon="9.784185521667554"><ele>73.14285714285714</ele><time>2026-04-23T13:57:56Z</time></trkpt><trkpt lat="45.36387344277084" lon="9.784074433992304"><ele>73.28571428571429</ele><time>2026-04-23T13:57:58Z</time></trkpt><trkpt lat="45.36386146860982" lon="9.783961364382689"><ele>73.42857142857143</ele><time>2026-04-23T13:58:01Z</time></trkpt><trkpt lat="45.363802131006196" lon="9.78392000193375"><ele>73.57142857142857</ele><time>2026-04-23T13:58:05Z</time></trkpt><trkpt lat="45.363729826100275" lon="9.783927161479744"><ele>73.71428571428571</ele><time>2026-04-23T14:42:02Z</time></trkpt><trkpt lat="45.3636615988538" lon="9.783950838598892"><ele>73.85714285714286</ele><time>2026-04-23T14:42:05Z</time></trkpt><trkpt lat="45.3637226517603" lon="9.784006018439374"><ele>74.0</ele><time>2026-04-23T14:42:08Z</time></trkpt><trkpt lat="45.363808569798344" lon="9.783996015341858"><ele>74.0</ele><time>2026-04-23T14:42:11Z</time></trkpt><trkpt lat="45.36387863191875" lon="9.784062207675163"><ele>74.0</ele><time>2026-04-23T14:42:14Z</time></trkpt><trkpt lat="45.363862180508896" lon="9.78419168116341"><ele>74.0</ele><time>2026-04-23T14:42:17Z</time></trkpt><trkpt lat="45.36384556167731" lon="9.784287156525293"><ele>74.0</ele><time>2026-04-23T14:42:19Z</time></trkpt><trkpt lat="45.363827486984114" lon="9.784391211814752"><ele>74.0</ele><time>2026-04-23T14:42:21Z</time></trkpt><trkpt lat="45.36381956905708" lon="9.784492633134331"><ele>74.0</ele><time>2026-04-23T14:42:24Z</time></trkpt><trkpt lat="45.36379064234681" lon="9.784574419284716"><ele>73.83333333333334</ele><time>2026-04-23T14:42:25Z</time></trkpt><trkpt lat="45.363755575183674" lon="9.784668582752156"><ele>73.66666666666667</ele><time>2026-04-23T14:42:26Z</time></trkpt><trkpt lat="45.363702859908294" lon="9.784793778076386"><ele>73.5</ele><time>2026-04-23T14:42:28Z</time></trkpt><trkpt lat="45.363656763800996" lon="9.78487201005585"><ele>73.33333333333333</ele><time>2026-04-23T14:42:31Z</time></trkpt><trkpt lat="45.36358903634153" lon="9.784896491954377"><ele>73.16666666666666</ele><time>2026-04-23T14:43:35Z</time></trkpt><trkpt lat="45.36353273727421" lon="9.784779027789728"><ele>73.0</ele><time>2026-04-23T14:43:37Z</time></trkpt><trkpt lat="45.36348985335922" lon="9.784626211004758"><ele>73.0</ele><time>2026-04-23T14:43:39Z</time></trkpt><trkpt lat="45.36345978120314" lon="9.784543556512121"><ele>73.0</ele><time>2026-04-23T14:43:40Z</time></trkpt><trkpt lat="45.36342638331587" lon="9.78445618274444"><ele>73.0</ele><time>2026-04-23T14:43:41Z</time></trkpt><trkpt lat="45.36338984146887" lon="9.784362576409691"><ele>73.0</ele><time>2026-04-23T14:43:42Z</time></trkpt><trkpt lat="45.363348894202474" lon="9.784265146270927"><ele>73.0</ele><time>2026-04-23T14:43:43Z</time></trkpt><trkpt lat="45.363308926546964" lon="9.784156053353756"><ele>73.0</ele><time>2026-04-23T14:43:44Z</time></trkpt><trkpt lat="45.36326670338916" lon="9.784046056861175"><ele>73.16666666666666</ele><time>2026-04-23T14:43:45Z</time></trkpt><trkpt lat="45.36322318040784" lon="9.783940967543845"><ele>73.33333333333333</ele><time>2026-04-23T14:43:46Z</time></trkpt><trkpt lat="45.36318473860187" lon="9.78384719174457"><ele>73.5</ele><time>2026-04-23T14:43:47Z</time></trkpt><trkpt lat="45.363146548704755" lon="9.783745563309276"><ele>73.66666666666667</ele><time>2026-04-23T14:43:49Z</time></trkpt><trkpt lat="45.363111259068205" lon="9.78366636052501"><ele>73.83333333333334</ele><time>2026-04-23T14:43:51Z</time></trkpt><trkpt lat="45.363076817887844" lon="9.783579091183837"><ele>74.0</ele><time>2026-04-23T14:43:53Z</time></trkpt><trkpt lat="45.363034237587534" lon="9.783471303548872"><ele>73.83333333333334</ele><time>2026-04-23T14:43:55Z</time></trkpt><trkpt lat="45.36299321405277" lon="9.783358615562225"><ele>73.66666666666667</ele><time>2026-04-23T14:43:57Z</time></trkpt><trkpt lat="45.36295486790528" lon="9.783238889113509"><ele>73.5</ele><time>2026-04-23T14:43:59Z</time></trkpt><trkpt lat="45.36293115489471" lon="9.783128125311919"><ele>73.33333333333333</ele><time>2026-04-23T14:44:01Z</time></trkpt><trkpt lat="45.362889067803636" lon="9.783045128082886"><ele>73.16666666666666</ele><time>2026-04-23T14:44:03Z</time></trkpt><trkpt lat="45.362853311943304" lon="9.78292962568714"><ele>73.0</ele><time>2026-04-23T14:44:05Z</time></trkpt><trkpt lat="45.362826880118625" lon="9.782845089270014"><ele>73.0</ele><time>2026-04-23T14:44:06Z</time></trkpt><trkpt lat="45.362801559232715" lon="9.782762381702366"><ele>73.0</ele><time>2026-04-23T14:44:07Z</time></trkpt><trkpt lat="45.362756514368364" lon="9.78265340999537"><ele>73.0</ele><time>2026-04-23T14:44:09Z</time></trkpt><trkpt lat="45.36270408880041" lon="9.782547641090824"><ele>73.0</ele><time>2026-04-23T14:44:11Z</time></trkpt><trkpt lat="45.36266493101748" lon="9.78247408958469"><ele>73.0</ele><time>2026-04-23T14:44:12Z</time></trkpt><trkpt lat="45.362588909958035" lon="9.782328427840106"><ele>73.0</ele><time>2026-04-23T14:44:14Z</time></trkpt><trkpt lat="45.362541578383116" lon="9.782257099487255"><ele>73.0</ele><time>2026-04-23T14:44:15Z</time></trkpt><trkpt lat="45.362494515728564" lon="9.782183367718646"><ele>73.0</ele><time>2026-04-23T14:44:16Z</time></trkpt><trkpt lat="45.36244380132389" lon="9.782104897938767"><ele>73.0</ele><time>2026-04-23T14:44:17Z</time></trkpt><trkpt lat="45.36238306103836" lon="9.78203370897469"><ele>73.0</ele><time>2026-04-23T14:44:18Z</time></trkpt><trkpt lat="45.36233053421027" lon="9.781975350936674"><ele>73.0</ele><time>2026-04-23T14:44:19Z</time></trkpt><trkpt lat="45.362247327933936" lon="9.781864732862788"><ele>73.0</ele><time>2026-04-23T14:44:21Z</time></trkpt><trkpt lat="45.362175066672975" lon="9.78177769768586"><ele>73.0</ele><time>2026-04-23T14:44:23Z</time></trkpt><trkpt lat="45.36208409988987" lon="9.781677216029484"><ele>73.0</ele><time>2026-04-23T14:44:25Z</time></trkpt><trkpt lat="45.3620214280821" lon="9.781625436999235"><ele>73.0</ele><time>2026-04-23T14:44:27Z</time></trkpt><trkpt lat="45.36195715962251" lon="9.781566174628374"><ele>73.0</ele><time>2026-04-23T14:44:29Z</time></trkpt><trkpt lat="45.361832448241415" lon="9.781533757488022"><ele>73.0</ele><time>2026-04-23T14:44:31Z</time></trkpt><trkpt lat="45.36176550644313" lon="9.781517494115839"><ele>73.0</ele><time>2026-04-23T14:44:32Z</time></trkpt><trkpt lat="45.361703820519736" lon="9.781479217958047"><ele>73.0</ele><time>2026-04-23T14:44:33Z</time></trkpt><trkpt lat="45.36163745603744" lon="9.781484134404742"><ele>73.0</ele><time>2026-04-23T14:44:34Z</time></trkpt><trkpt lat="45.36154668093455" lon="9.781436524571012"><ele>73.0</ele><time>2026-04-23T14:44:36Z</time></trkpt><trkpt lat="45.361431124946186" lon="9.781419966956523"><ele>73.0</ele><time>2026-04-23T14:44:38Z</time></trkpt><trkpt lat="45.361310136692616" lon="9.781405388892933"><ele>73.16666666666666</ele><time>2026-04-23T14:44:40Z</time></trkpt><trkpt lat="45.361216978851225" lon="9.781396195985208"><ele>73.33333333333333</ele><time>2026-04-23T14:44:42Z</time></trkpt><trkpt lat="45.36112215868464" lon="9.781402062272413"><ele>73.5</ele><time>2026-04-23T14:44:44Z</time></trkpt><trkpt lat="45.36105875058689" lon="9.781403412611485"><ele>73.66666666666667</ele><time>2026-04-23T14:44:45Z</time></trkpt><trkpt lat="45.360944273832374" lon="9.781395622429848"><ele>73.83333333333334</ele><time>2026-04-23T14:44:47Z</time></trkpt><trkpt lat="45.36087677691417" lon="9.781404277944675"><ele>74.0</ele><time>2026-04-23T14:44:49Z</time></trkpt><trkpt lat="45.36071427750167" lon="9.781415711850608"><ele>74.0</ele><time>2026-04-23T14:44:52Z</time></trkpt><trkpt lat="45.36063457093118" lon="9.78141864826487"><ele>74.0</ele><time>2026-04-23T14:44:54Z</time></trkpt><trkpt lat="45.36049703294023" lon="9.781424158621206"><ele>74.0</ele><time>2026-04-23T14:44:56Z</time></trkpt><trkpt lat="45.36042940476179" lon="9.781430915010962"><ele>74.0</ele><time>2026-04-23T14:44:57Z</time></trkpt><trkpt lat="45.36036319720544" lon="9.781432585877461"><ele>74.0</ele><time>2026-04-23T14:44:58Z</time></trkpt><trkpt lat="45.36029739999104" lon="9.781423503033468"><ele>74.0</ele><time>2026-04-23T14:44:59Z</time></trkpt><trkpt lat="45.36018879442354" lon="9.781351476581857"><ele>74.0</ele><time>2026-04-23T14:45:01Z</time></trkpt><trkpt lat="45.36017407993084" lon="9.781231159269028"><ele>74.0</ele><time>2026-04-23T14:45:02Z</time></trkpt><trkpt lat="45.36017395237577" lon="9.781100066322635"><ele>74.0</ele><time>2026-04-23T14:45:03Z</time></trkpt><trkpt lat="45.360102134578966" lon="9.780941620126798"><ele>74.0</ele><time>2026-04-23T14:45:04Z</time></trkpt><trkpt lat="45.360010513875004" lon="9.78082661211832"><ele>74.0</ele><time>2026-04-23T14:45:05Z</time></trkpt><trkpt lat="45.359927184586645" lon="9.780762066931615"><ele>74.16666666666667</ele><time>2026-04-23T14:45:06Z</time></trkpt><trkpt lat="45.35985184396331" lon="9.780712744650163"><ele>74.33333333333334</ele><time>2026-04-23T14:45:07Z</time></trkpt><trkpt lat="45.35978478229336" lon="9.780677529006578"><ele>74.5</ele><time>2026-04-23T14:45:08Z</time></trkpt><trkpt lat="45.35970159837748" lon="9.780642178749073"><ele>74.66666666666667</ele><time>2026-04-23T14:45:09Z</time></trkpt><trkpt lat="45.359604799803" lon="9.780643523715325"><ele>74.83333333333333</ele><time>2026-04-23T14:45:10Z</time></trkpt><trkpt lat="45.35950232726572" lon="9.780622246487457"><ele>75.0</ele><time>2026-04-23T14:45:11Z</time></trkpt><trkpt lat="45.35942404496976" lon="9.780604679577964"><ele>74.4</ele><time>2026-04-23T14:45:12Z</time></trkpt><trkpt lat="45.35932554215352" lon="9.780591470065437"><ele>73.8</ele><time>2026-04-23T14:45:13Z</time></trkpt><trkpt lat="45.35921877098675" lon="9.7805738932033"><ele>73.2</ele><time>2026-04-23T14:45:14Z</time></trkpt><trkpt lat="45.35911308041014" lon="9.780553210808037"><ele>72.6</ele><time>2026-04-23T14:45:15Z</time></trkpt><trkpt lat="45.35900972029384" lon="9.780524908509083"><ele>72.0</ele><time>2026-04-23T14:45:16Z</time></trkpt><trkpt lat="45.358907953641484" lon="9.78049347215376"><ele>72.2</ele><time>2026-04-23T14:45:17Z</time></trkpt><trkpt lat="45.35880616716463" lon="9.78045959971604"><ele>72.4</ele><time>2026-04-23T14:45:18Z</time></trkpt><trkpt lat="45.35870808629194" lon="9.780423972379452"><ele>72.6</ele><time>2026-04-23T14:45:19Z</time></trkpt><trkpt lat="45.35861730871484" lon="9.780387739211175"><ele>72.8</ele><time>2026-04-23T14:45:20Z</time></trkpt><trkpt lat="45.358539761892985" lon="9.780328053239792"><ele>73.0</ele><time>2026-04-23T14:45:21Z</time></trkpt><trkpt lat="45.35847503087649" lon="9.780294552243308"><ele>73.0</ele><time>2026-04-23T14:45:22Z</time></trkpt><trkpt lat="45.35839380854683" lon="9.780240902768284"><ele>73.0</ele><time>2026-04-23T14:45:24Z</time></trkpt><trkpt lat="45.35832255480596" lon="9.780421539453108"><ele>73.0</ele><time>2026-04-23T14:45:27Z</time></trkpt><trkpt lat="45.35831898868412" lon="9.780536500395874"><ele>73.0</ele><time>2026-04-23T14:45:28Z</time></trkpt><trkpt lat="45.358302008307625" lon="9.780663305456558"><ele>73.0</ele><time>2026-04-23T14:45:29Z</time></trkpt><trkpt lat="45.35827961800598" lon="9.780788533411869"><ele>73.0</ele><time>2026-04-23T14:45:30Z</time></trkpt><trkpt lat="45.358267489459365" lon="9.780913915905852"><ele>73.0</ele><time>2026-04-23T14:45:31Z</time></trkpt><trkpt lat="45.35827235679922" lon="9.78104724640981"><ele>73.0</ele><time>2026-04-23T14:45:32Z</time></trkpt><trkpt lat="45.35829102980971" lon="9.78117237166144"><ele>73.0</ele><time>2026-04-23T14:45:33Z</time></trkpt><trkpt lat="45.35831384502673" lon="9.781300048568601"><ele>73.0</ele><time>2026-04-23T14:45:34Z</time></trkpt><trkpt lat="45.35832179491558" lon="9.781416722859678"><ele>73.0</ele><time>2026-04-23T14:45:35Z</time></trkpt><trkpt lat="45.35832270434849" lon="9.781546181562899"><ele>72.6</ele><time>2026-04-23T14:45:36Z</time></trkpt><trkpt lat="45.35832152083778" lon="9.781684608547208"><ele>72.19999999999999</ele><time>2026-04-23T14:45:37Z</time></trkpt><trkpt lat="45.35833118725783" lon="9.781821937172726"><ele>71.8</ele><time>2026-04-23T14:45:38Z</time></trkpt><trkpt lat="45.35833822679779" lon="9.781960089324883"><ele>71.39999999999999</ele><time>2026-04-23T14:45:39Z</time></trkpt><trkpt lat="45.35834493922576" lon="9.782096034093534"><ele>71.0</ele><time>2026-04-23T14:45:40Z</time></trkpt><trkpt lat="45.35835334433723" lon="9.782238136843265"><ele>71.0</ele><time>2026-04-23T14:45:41Z</time></trkpt><trkpt lat="45.35835595720844" lon="9.782375572989798"><ele>71.0</ele><time>2026-04-23T14:45:42Z</time></trkpt><trkpt lat="45.35835755799413" lon="9.782508020818257"><ele>71.0</ele><time>2026-04-23T14:45:43Z</time></trkpt><trkpt lat="45.35836575876286" lon="9.782642245653726"><ele>71.0</ele><time>2026-04-23T14:45:44Z</time></trkpt><trkpt lat="45.35838326166481" lon="9.78277583024136"><ele>71.0</ele><time>2026-04-23T14:45:45Z</time></trkpt><trkpt lat="45.35839272847565" lon="9.782925084394112"><ele>71.6</ele><time>2026-04-23T14:45:46Z</time></trkpt><trkpt lat="45.35838877173427" lon="9.783100092024684"><ele>72.19999999999999</ele><time>2026-04-23T14:45:47Z</time></trkpt><trkpt lat="45.35837571433665" lon="9.783276982170557"><ele>72.80000000000001</ele><time>2026-04-23T14:45:48.001Z</time></trkpt><trkpt lat="45.35834483436911" lon="9.783431668913162"><ele>73.4</ele><time>2026-04-23T14:45:49.001Z</time></trkpt><trkpt lat="45.35833764021762" lon="9.783551935781665"><ele>74.0</ele><time>2026-04-23T14:45:50.001Z</time></trkpt><trkpt lat="45.35833575725952" lon="9.783647979253901"><ele>74.16666666666667</ele><time>2026-04-23T14:45:51.001Z</time></trkpt><trkpt lat="45.3583302165012" lon="9.783746782402801"><ele>74.33333333333334</ele><time>2026-04-23T14:45:52.001Z</time></trkpt><trkpt lat="45.35832749765281" lon="9.783861619545025"><ele>74.5</ele><time>2026-04-23T14:45:53.001Z</time></trkpt><trkpt lat="45.35832392513999" lon="9.783981896201166"><ele>74.66666666666667</ele><time>2026-04-23T14:45:54.001Z</time></trkpt><trkpt lat="45.35832282195776" lon="9.78410798931132"><ele>74.83333333333333</ele><time>2026-04-23T14:45:55.001Z</time></trkpt><trkpt lat="45.358319735672154" lon="9.784237930770876"><ele>75.0</ele><time>2026-04-23T14:45:56.001Z</time></trkpt><trkpt lat="45.358315403328675" lon="9.78436942565223"><ele>74.6</ele><time>2026-04-23T14:45:57.001Z</time></trkpt><trkpt lat="45.35831155738493" lon="9.784502767613706"><ele>74.2</ele><time>2026-04-23T14:45:58.001Z</time></trkpt><trkpt lat="45.35830724981922" lon="9.78464038113425"><ele>73.8</ele><time>2026-04-23T14:45:59.001Z</time></trkpt><trkpt lat="45.35830354180717" lon="9.784780732508958"><ele>73.4</ele><time>2026-04-23T14:46:00.001Z</time></trkpt><trkpt lat="45.35829832812194" lon="9.784924246587188"><ele>73.0</ele><time>2026-04-23T14:46:01.001Z</time></trkpt><trkpt lat="45.358285021217426" lon="9.785071498141619"><ele>73.4</ele><time>2026-04-23T14:46:02.001Z</time></trkpt><trkpt lat="45.35827452301726" lon="9.785215255886381"><ele>73.8</ele><time>2026-04-23T14:46:03.001Z</time></trkpt><trkpt lat="45.35826358720077" lon="9.78536629214801"><ele>74.2</ele><time>2026-04-23T14:46:04.001Z</time></trkpt><trkpt lat="45.35826491871264" lon="9.785521004983293"><ele>74.6</ele><time>2026-04-23T14:46:05.001Z</time></trkpt><trkpt lat="45.35828016352035" lon="9.78567957958845"><ele>75.0</ele><time>2026-04-23T14:46:06.001Z</time></trkpt><trkpt lat="45.35830147557651" lon="9.785826699290583"><ele>75.0</ele><time>2026-04-23T14:46:07.001Z</time></trkpt><trkpt lat="45.35832377337733" lon="9.785961780241317"><ele>75.0</ele><time>2026-04-23T14:46:08Z</time></trkpt><trkpt lat="45.35835668200374" lon="9.78608439897765"><ele>75.0</ele><time>2026-04-23T14:46:09Z</time></trkpt><trkpt lat="45.35837804802826" lon="9.786221847835135"><ele>75.0</ele><time>2026-04-23T14:46:10Z</time></trkpt><trkpt lat="45.35839444068898" lon="9.786376971189842"><ele>75.0</ele><time>2026-04-23T14:46:11Z</time></trkpt><trkpt lat="45.35841193514866" lon="9.786516304077487"><ele>75.0</ele><time>2026-04-23T14:46:12Z</time></trkpt><trkpt lat="45.35841895694158" lon="9.786618836379613"><ele>75.0</ele><time>2026-04-23T14:46:13Z</time></trkpt><trkpt lat="45.35832862496622" lon="9.786720555509657"><ele>75.0</ele><time>2026-04-23T14:46:15Z</time></trkpt><trkpt lat="45.358221884692846" lon="9.786729938851105"><ele>75.0</ele><time>2026-04-23T14:46:16Z</time></trkpt><trkpt lat="45.35811857664074" lon="9.786749907586834"><ele>75.0</ele><time>2026-04-23T14:46:17Z</time></trkpt><trkpt lat="45.35806392973859" lon="9.786798596845692"><ele>74.5</ele><time>2026-04-23T14:46:18Z</time></trkpt><trkpt lat="45.35801908622124" lon="9.786891297869227"><ele>74.0</ele><time>2026-04-23T14:46:20Z</time></trkpt><trkpt lat="45.35798907892948" lon="9.786985693274156"><ele>73.5</ele><time>2026-04-23T14:46:23Z</time></trkpt><trkpt lat="45.35797802823987" lon="9.78713692684749"><ele>73.0</ele><time>2026-04-23T14:46:25Z</time></trkpt><trkpt lat="45.35797529743582" lon="9.78724522166895"><ele>72.5</ele><time>2026-04-23T14:46:26Z</time></trkpt><trkpt lat="45.357971726022235" lon="9.787340983075323"><ele>72.0</ele><time>2026-04-23T14:46:27Z</time></trkpt><trkpt lat="45.35796963845039" lon="9.787453718189166"><ele>72.0</ele><time>2026-04-23T14:46:29Z</time></trkpt><trkpt lat="45.357966197936335" lon="9.787601244953358"><ele>72.0</ele><time>2026-04-23T14:46:31Z</time></trkpt><trkpt lat="45.357961598534665" lon="9.787691118785988"><ele>72.0</ele><time>2026-04-23T14:46:32Z</time></trkpt><trkpt lat="45.35795825539774" lon="9.787867754735109"><ele>72.0</ele><time>2026-04-23T14:46:34Z</time></trkpt><trkpt lat="45.35795340170194" lon="9.787959142270946"><ele>72.0</ele><time>2026-04-23T14:46:35Z</time></trkpt><trkpt lat="45.357948468536264" lon="9.78805385472991"><ele>72.0</ele><time>2026-04-23T14:46:36Z</time></trkpt><trkpt lat="45.357941514290715" lon="9.788143326945418"><ele>72.0</ele><time>2026-04-23T14:46:37Z</time></trkpt><trkpt lat="45.35794245628675" lon="9.788310595400295"><ele>72.0</ele><time>2026-04-23T14:46:39Z</time></trkpt><trkpt lat="45.35793583277822" lon="9.788463630960885"><ele>72.0</ele><time>2026-04-23T14:46:41Z</time></trkpt><trkpt lat="45.35793345882085" lon="9.788595485050768"><ele>72.0</ele><time>2026-04-23T14:46:44Z</time></trkpt><trkpt lat="45.35793542890883" lon="9.788742404659919"><ele>72.0</ele><time>2026-04-23T14:46:46Z</time></trkpt><trkpt lat="45.357930966720296" lon="9.788910447636683"><ele>72.0</ele><time>2026-04-23T14:46:48Z</time></trkpt><trkpt lat="45.357942074769895" lon="9.789037219712869"><ele>72.0</ele><time>2026-04-23T14:46:50Z</time></trkpt><trkpt lat="45.35795623175932" lon="9.789131040688122"><ele>72.0</ele><time>2026-04-23T14:46:52Z</time></trkpt><trkpt lat="45.35792297386173" lon="9.789286480195585"><ele>72.0</ele><time>2026-04-23T14:46:54Z</time></trkpt><trkpt lat="45.35790955966438" lon="9.78944673621962"><ele>72.0</ele><time>2026-04-23T14:46:56Z</time></trkpt><trkpt lat="45.35790772960857" lon="9.78955815697777"><ele>72.0</ele><time>2026-04-23T14:46:57Z</time></trkpt><trkpt lat="45.35790229060308" lon="9.789672199965654"><ele>72.0</ele><time>2026-04-23T14:46:58Z</time></trkpt><trkpt lat="45.357898886858145" lon="9.789768844149172"><ele>72.0</ele><time>2026-04-23T14:46:59Z</time></trkpt><trkpt lat="45.357907402554275" lon="9.789903996342415"><ele>72.0</ele><time>2026-04-23T14:47:01Z</time></trkpt><trkpt lat="45.35787437982951" lon="9.789982537317327"><ele>72.0</ele><time>2026-04-23T14:47:03Z</time></trkpt><trkpt lat="45.35778514301481" lon="9.79002385221035"><ele>72.0</ele><time>2026-04-23T14:47:05Z</time></trkpt><trkpt lat="45.35768976893777" lon="9.789999926978357"><ele>72.0</ele><time>2026-04-23T14:47:07Z</time></trkpt><trkpt lat="45.357573528342364" lon="9.789982604808264"><ele>72.0</ele><time>2026-04-23T14:47:09Z</time></trkpt><trkpt lat="45.3575086416614" lon="9.789963408406836"><ele>72.0</ele><time>2026-04-23T14:47:10Z</time></trkpt><trkpt lat="45.357437315318464" lon="9.78996806114021"><ele>72.0</ele><time>2026-04-23T14:47:11Z</time></trkpt><trkpt lat="45.35736276584277" lon="9.78997568660523"><ele>72.0</ele><time>2026-04-23T14:47:12Z</time></trkpt><trkpt lat="45.35728012139443" lon="9.78998488525688"><ele>72.0</ele><time>2026-04-23T14:47:13Z</time></trkpt><trkpt lat="45.357193794867925" lon="9.789996614985478"><ele>72.0</ele><time>2026-04-23T14:47:14Z</time></trkpt><trkpt lat="45.35710633221117" lon="9.790009672950639"><ele>72.0</ele><time>2026-04-23T14:47:15Z</time></trkpt><trkpt lat="45.35703596680695" lon="9.790022211995673"><ele>72.0</ele><time>2026-04-23T14:47:16Z</time></trkpt><trkpt lat="45.35693333324414" lon="9.790048897250065"><ele>72.0</ele><time>2026-04-23T14:47:18Z</time></trkpt><trkpt lat="45.35683648546316" lon="9.790084142942522"><ele>72.0</ele><time>2026-04-23T14:47:20Z</time></trkpt><trkpt lat="45.35671921804436" lon="9.790130239874145"><ele>72.0</ele><time>2026-04-23T14:47:22Z</time></trkpt><trkpt lat="45.35664338942916" lon="9.79011318959322"><ele>72.0</ele><time>2026-04-23T14:47:23Z</time></trkpt><trkpt lat="45.35655791576514" lon="9.79011318959342"><ele>72.0</ele><time>2026-04-23T14:47:24Z</time></trkpt><trkpt lat="45.35646415014599" lon="9.790141668382573"><ele>72.0</ele><time>2026-04-23T14:47:25Z</time></trkpt><trkpt lat="45.35636427119022" lon="9.790154231303468"><ele>72.0</ele><time>2026-04-23T14:47:26Z</time></trkpt><trkpt lat="45.356255390874324" lon="9.790154960301328"><ele>72.0</ele><time>2026-04-23T14:47:27Z</time></trkpt><trkpt lat="45.35614151979291" lon="9.79017322416432"><ele>72.0</ele><time>2026-04-23T14:47:28Z</time></trkpt><trkpt lat="45.35602823807698" lon="9.790191505717253"><ele>72.0</ele><time>2026-04-23T14:47:29Z</time></trkpt><trkpt lat="45.355914055441076" lon="9.790211150361872"><ele>72.0</ele><time>2026-04-23T14:47:30Z</time></trkpt><trkpt lat="45.355799903683256" lon="9.790230789686197"><ele>72.0</ele><time>2026-04-23T14:47:31Z</time></trkpt><trkpt lat="45.3556819715665" lon="9.790251079396679"><ele>72.0</ele><time>2026-04-23T14:47:32Z</time></trkpt><trkpt lat="45.35555790113366" lon="9.790272425194859"><ele>72.0</ele><time>2026-04-23T14:47:33Z</time></trkpt><trkpt lat="45.35544157917533" lon="9.790292437891427"><ele>72.0</ele><time>2026-04-23T14:47:34Z</time></trkpt><trkpt lat="45.355319599023986" lon="9.790313424058201"><ele>71.75</ele><time>2026-04-23T14:47:35Z</time></trkpt><trkpt lat="45.355196875231776" lon="9.79033535108645"><ele>71.5</ele><time>2026-04-23T14:47:36Z</time></trkpt><trkpt lat="45.355073296609646" lon="9.790358478367102"><ele>71.25</ele><time>2026-04-23T14:47:37Z</time></trkpt><trkpt lat="45.35494873374172" lon="9.790381789847943"><ele>71.0</ele><time>2026-04-23T14:47:38Z</time></trkpt><trkpt lat="45.35482464523643" lon="9.7904265430166"><ele>70.75</ele><time>2026-04-23T14:47:39Z</time></trkpt><trkpt lat="45.354697444141294" lon="9.79045146941042"><ele>70.5</ele><time>2026-04-23T14:47:40Z</time></trkpt><trkpt lat="45.354565367830446" lon="9.790451152086405"><ele>70.25</ele><time>2026-04-23T14:47:41Z</time></trkpt><trkpt lat="45.35443766948222" lon="9.79049417027394"><ele>70.0</ele><time>2026-04-23T14:47:42Z</time></trkpt><trkpt lat="45.35431073427066" lon="9.790513109058502"><ele>70.0</ele><time>2026-04-23T14:47:43Z</time></trkpt><trkpt lat="45.35418332577518" lon="9.790536983614656"><ele>70.0</ele><time>2026-04-23T14:47:44Z</time></trkpt><trkpt lat="45.35406484662303" lon="9.790556569338005"><ele>70.0</ele><time>2026-04-23T14:47:45Z</time></trkpt><trkpt lat="45.353958778871196" lon="9.790574068065558"><ele>70.0</ele><time>2026-04-23T14:47:46Z</time></trkpt><trkpt lat="45.35385247396778" lon="9.790587465855545"><ele>70.25</ele><time>2026-04-23T14:47:47Z</time></trkpt><trkpt lat="45.35375618077272" lon="9.790605542811447"><ele>70.5</ele><time>2026-04-23T14:47:48Z</time></trkpt><trkpt lat="45.35364529404834" lon="9.790623956771901"><ele>70.75</ele><time>2026-04-23T14:47:49Z</time></trkpt><trkpt lat="45.35352379693212" lon="9.790622571861874"><ele>71.0</ele><time>2026-04-23T14:47:50Z</time></trkpt><trkpt lat="45.35340177590637" lon="9.79063814285154"><ele>71.0</ele><time>2026-04-23T14:47:51Z</time></trkpt><trkpt lat="45.35327933430718" lon="9.790656664450704"><ele>71.0</ele><time>2026-04-23T14:47:52Z</time></trkpt><trkpt lat="45.35315171960522" lon="9.790680685748187"><ele>71.0</ele><time>2026-04-23T14:47:53Z</time></trkpt><trkpt lat="45.35301977243699" lon="9.790705499984941"><ele>71.0</ele><time>2026-04-23T14:47:54.001Z</time></trkpt><trkpt lat="45.35288912667728" lon="9.79075491945803"><ele>71.25</ele><time>2026-04-23T14:47:55.001Z</time></trkpt><trkpt lat="45.352756696788845" lon="9.79077777589599"><ele>71.5</ele><time>2026-04-23T14:47:56.001Z</time></trkpt><trkpt lat="45.35262670430861" lon="9.79079621864855"><ele>71.75</ele><time>2026-04-23T14:47:57.001Z</time></trkpt><trkpt lat="45.352494781101896" lon="9.790824415729471"><ele>72.0</ele><time>2026-04-23T14:47:58.001Z</time></trkpt><trkpt lat="45.3523640778753" lon="9.790845226157915"><ele>72.0</ele><time>2026-04-23T14:47:59.001Z</time></trkpt><trkpt lat="45.35223383441152" lon="9.790866608256716"><ele>72.0</ele><time>2026-04-23T14:48:00.001Z</time></trkpt><trkpt lat="45.35210336058679" lon="9.79089200585405"><ele>72.0</ele><time>2026-04-23T14:48:01.001Z</time></trkpt><trkpt lat="45.35197136692254" lon="9.790887832788403"><ele>72.0</ele><time>2026-04-23T14:48:02.001Z</time></trkpt><trkpt lat="45.351841423844206" lon="9.79090822204433"><ele>72.0</ele><time>2026-04-23T14:48:03.001Z</time></trkpt><trkpt lat="45.35171597357245" lon="9.790932252799788"><ele>72.0</ele><time>2026-04-23T14:48:04.001Z</time></trkpt><trkpt lat="45.35159017617183" lon="9.790978728822965"><ele>72.0</ele><time>2026-04-23T14:48:05.001Z</time></trkpt><trkpt lat="45.35146526027243" lon="9.790995660623699"><ele>72.0</ele><time>2026-04-23T14:48:06.001Z</time></trkpt><trkpt lat="45.35133994362009" lon="9.791017872403524"><ele>71.75</ele><time>2026-04-23T14:48:07.001Z</time></trkpt><trkpt lat="45.35121256235807" lon="9.791040640070683"><ele>71.5</ele><time>2026-04-23T14:48:08.001Z</time></trkpt><trkpt lat="45.35108748327845" lon="9.791061044600578"><ele>71.25</ele><time>2026-04-23T14:48:09.001Z</time></trkpt><trkpt lat="45.35096198495703" lon="9.791081896274637"><ele>71.0</ele><time>2026-04-23T14:48:10.001Z</time></trkpt><trkpt lat="45.35083662861283" lon="9.791102946735949"><ele>71.0</ele><time>2026-04-23T14:48:11.001Z</time></trkpt><trkpt lat="45.35071149384042" lon="9.79112677339354"><ele>71.0</ele><time>2026-04-23T14:48:12.001Z</time></trkpt><trkpt lat="45.35058485175963" lon="9.791148940201568"><ele>71.0</ele><time>2026-04-23T14:48:13.001Z</time></trkpt><trkpt lat="45.350456390540515" lon="9.791172029889735"><ele>71.0</ele><time>2026-04-23T14:48:14.001Z</time></trkpt><trkpt lat="45.35032807118066" lon="9.791171025317153"><ele>71.0</ele><time>2026-04-23T14:48:15.001Z</time></trkpt><trkpt lat="45.35020209756923" lon="9.791209697093018"><ele>71.0</ele><time>2026-04-23T14:48:16.001Z</time></trkpt><trkpt lat="45.35007489517456" lon="9.791233012571116"><ele>71.0</ele><time>2026-04-23T14:48:17.001Z</time></trkpt><trkpt lat="45.34994545561323" lon="9.791257908009333"><ele>71.0</ele><time>2026-04-23T14:48:18.001Z</time></trkpt><trkpt lat="45.34981804693513" lon="9.791279254943403"><ele>71.0</ele><time>2026-04-23T14:48:19.001Z</time></trkpt><trkpt lat="45.349690984101834" lon="9.791300258335971"><ele>71.0</ele><time>2026-04-23T14:48:20.001Z</time></trkpt><trkpt lat="45.34956511347505" lon="9.79132666754126"><ele>71.0</ele><time>2026-04-23T14:48:21.001Z</time></trkpt><trkpt lat="45.34943986213708" lon="9.791346508749811"><ele>71.0</ele><time>2026-04-23T14:48:22.001Z</time></trkpt><trkpt lat="45.3493153414711" lon="9.791366877700337"><ele>71.0</ele><time>2026-04-23T14:48:23Z</time></trkpt><trkpt lat="45.34919004738209" lon="9.79138997686901"><ele>71.0</ele><time>2026-04-23T14:48:24Z</time></trkpt><trkpt lat="45.349064306590904" lon="9.791413663596751"><ele>71.0</ele><time>2026-04-23T14:48:25Z</time></trkpt><trkpt lat="45.34894204371731" lon="9.791433374006244"><ele>71.0</ele><time>2026-04-23T14:48:26Z</time></trkpt><trkpt lat="45.34881869869968" lon="9.79146029936906"><ele>71.75</ele><time>2026-04-23T14:48:27Z</time></trkpt><trkpt lat="45.34868887176954" lon="9.791461523304434"><ele>72.5</ele><time>2026-04-23T14:48:28Z</time></trkpt><trkpt lat="45.34856152393172" lon="9.79148441142538"><ele>73.25</ele><time>2026-04-23T14:48:29Z</time></trkpt><trkpt lat="45.34843737321553" lon="9.79152957235502"><ele>74.0</ele><time>2026-04-23T14:48:30Z</time></trkpt><trkpt lat="45.34830862289894" lon="9.791544147595694"><ele>74.0</ele><time>2026-04-23T14:48:31Z</time></trkpt><trkpt lat="45.34818968206749" lon="9.791556292494253"><ele>74.0</ele><time>2026-04-23T14:48:32Z</time></trkpt><trkpt lat="45.34806899994238" lon="9.791581222422089"><ele>74.0</ele><time>2026-04-23T14:48:33Z</time></trkpt><trkpt lat="45.34795694755391" lon="9.791604045605984"><ele>74.0</ele><time>2026-04-23T14:48:34Z</time></trkpt><trkpt lat="45.34785716019845" lon="9.791631971560815"><ele>73.5</ele><time>2026-04-23T14:48:35Z</time></trkpt><trkpt lat="45.347778182934555" lon="9.791655948015313"><ele>73.0</ele><time>2026-04-23T14:48:36Z</time></trkpt><trkpt lat="45.347705268650124" lon="9.791682177533342"><ele>72.5</ele><time>2026-04-23T14:48:37Z</time></trkpt><trkpt lat="45.34762199970966" lon="9.791696729039618"><ele>72.0</ele><time>2026-04-23T14:48:38Z</time></trkpt><trkpt lat="45.34752932594083" lon="9.791704486064477"><ele>71.5</ele><time>2026-04-23T14:48:39Z</time></trkpt><trkpt lat="45.34743684383348" lon="9.791719442722584"><ele>71.0</ele><time>2026-04-23T14:48:40Z</time></trkpt><trkpt lat="45.347337344913285" lon="9.791753107606738"><ele>71.0</ele><time>2026-04-23T14:48:41Z</time></trkpt><trkpt lat="45.34723154530572" lon="9.79180645308531"><ele>71.0</ele><time>2026-04-23T14:48:42Z</time></trkpt><trkpt lat="45.34712962930449" lon="9.791871104237352"><ele>71.0</ele><time>2026-04-23T14:48:43Z</time></trkpt><trkpt lat="45.3470296600865" lon="9.791945444487938"><ele>71.0</ele><time>2026-04-23T14:48:44Z</time></trkpt><trkpt lat="45.346935935534255" lon="9.79203234893779"><ele>71.0</ele><time>2026-04-23T14:48:45Z</time></trkpt><trkpt lat="45.346841605750825" lon="9.792130543326103"><ele>71.0</ele><time>2026-04-23T14:48:46Z</time></trkpt><trkpt lat="45.34675441454035" lon="9.792240317841165"><ele>71.0</ele><time>2026-04-23T14:48:47Z</time></trkpt><trkpt lat="45.34667250444419" lon="9.792357157646643"><ele>71.0</ele><time>2026-04-23T14:48:48Z</time></trkpt><trkpt lat="45.34659605551326" lon="9.792479494754827"><ele>71.0</ele><time>2026-04-23T14:48:49Z</time></trkpt><trkpt lat="45.34652271016569" lon="9.792609167086045"><ele>70.5</ele><time>2026-04-23T14:48:50Z</time></trkpt><trkpt lat="45.3464596479462" lon="9.792746909263942"><ele>70.0</ele><time>2026-04-23T14:48:51Z</time></trkpt><trkpt lat="45.346408551518145" lon="9.792897331621123"><ele>69.5</ele><time>2026-04-23T14:48:52Z</time></trkpt><trkpt lat="45.34636244928423" lon="9.793050112278305"><ele>69.0</ele><time>2026-04-23T14:48:53Z</time></trkpt><trkpt lat="45.346325026073515" lon="9.793199590942844"><ele>69.0</ele><time>2026-04-23T14:48:54Z</time></trkpt><trkpt lat="45.34630344244641" lon="9.793342715140604"><ele>69.0</ele><time>2026-04-23T14:48:55Z</time></trkpt><trkpt lat="45.34627542786447" lon="9.793491089044535"><ele>69.0</ele><time>2026-04-23T14:48:56Z</time></trkpt><trkpt lat="45.34624631072434" lon="9.793637729785011"><ele>69.0</ele><time>2026-04-23T14:48:57Z</time></trkpt><trkpt lat="45.346218118287084" lon="9.793791620716249"><ele>69.0</ele><time>2026-04-23T14:48:58Z</time></trkpt><trkpt lat="45.346188959473565" lon="9.793951915382138"><ele>69.25</ele><time>2026-04-23T14:48:59Z</time></trkpt><trkpt lat="45.34615913855511" lon="9.794116935159895"><ele>69.5</ele><time>2026-04-23T14:49:00Z</time></trkpt><trkpt lat="45.34612920073943" lon="9.794281795967294"><ele>69.75</ele><time>2026-04-23T14:49:01Z</time></trkpt><trkpt lat="45.346100154000716" lon="9.794453832248504"><ele>70.0</ele><time>2026-04-23T14:49:02Z</time></trkpt><trkpt lat="45.34606726120074" lon="9.794624453877256"><ele>70.25</ele><time>2026-04-23T14:49:03Z</time></trkpt><trkpt lat="45.346034982106865" lon="9.794796654470264"><ele>70.5</ele><time>2026-04-23T14:49:04Z</time></trkpt><trkpt lat="45.34600319868377" lon="9.794969242974883"><ele>70.75</ele><time>2026-04-23T14:49:05Z</time></trkpt><trkpt lat="45.34597132509294" lon="9.795142170124429"><ele>71.0</ele><time>2026-04-23T14:49:06Z</time></trkpt><trkpt lat="45.345939990711244" lon="9.79531654977154"><ele>70.5</ele><time>2026-04-23T14:49:07Z</time></trkpt><trkpt lat="45.34590868444731" lon="9.795488591497701"><ele>70.0</ele><time>2026-04-23T14:49:08Z</time></trkpt><trkpt lat="45.34587439101604" lon="9.795662534417506"><ele>69.5</ele><time>2026-04-23T14:49:09Z</time></trkpt><trkpt lat="45.345840890653214" lon="9.795835909607586"><ele>69.0</ele><time>2026-04-23T14:49:10Z</time></trkpt><trkpt lat="45.345811225731424" lon="9.796009728335367"><ele>69.0</ele><time>2026-04-23T14:49:11Z</time></trkpt><trkpt lat="45.34577998657552" lon="9.796185275825216"><ele>69.0</ele><time>2026-04-23T14:49:12Z</time></trkpt><trkpt lat="45.34573973101949" lon="9.796371038521672"><ele>69.0</ele><time>2026-04-23T14:49:13Z</time></trkpt><trkpt lat="45.34571048503795" lon="9.796544709133721"><ele>69.0</ele><time>2026-04-23T14:49:14Z</time></trkpt><trkpt lat="45.34568339486826" lon="9.796727776922593"><ele>69.25</ele><time>2026-04-23T14:49:15Z</time></trkpt><trkpt lat="45.34565021926915" lon="9.79690113659112"><ele>69.5</ele><time>2026-04-23T14:49:16Z</time></trkpt><trkpt lat="45.3456180334861" lon="9.797073721516343"><ele>69.75</ele><time>2026-04-23T14:49:17Z</time></trkpt><trkpt lat="45.34558594324481" lon="9.797247650107385"><ele>70.0</ele><time>2026-04-23T14:49:18Z</time></trkpt><trkpt lat="45.34555541626688" lon="9.797418109442276"><ele>70.0</ele><time>2026-04-23T14:49:19Z</time></trkpt><trkpt lat="45.34552304405145" lon="9.797591079106436"><ele>70.0</ele><time>2026-04-23T14:49:20Z</time></trkpt><trkpt lat="45.34549229499492" lon="9.7977621198764"><ele>70.0</ele><time>2026-04-23T14:49:21Z</time></trkpt><trkpt lat="45.34546208798649" lon="9.797936560981501"><ele>70.0</ele><time>2026-04-23T14:49:22Z</time></trkpt><trkpt lat="45.345431271233714" lon="9.798108482984935"><ele>70.0</ele><time>2026-04-23T14:49:23Z</time></trkpt><trkpt lat="45.345397614834184" lon="9.798285922237193"><ele>70.0</ele><time>2026-04-23T14:49:24Z</time></trkpt><trkpt lat="45.34536126551545" lon="9.798465417361154"><ele>70.0</ele><time>2026-04-23T14:49:25Z</time></trkpt><trkpt lat="45.34532638059273" lon="9.798649300364314"><ele>70.0</ele><time>2026-04-23T14:49:26Z</time></trkpt><trkpt lat="45.34529385706383" lon="9.798821674417546"><ele>70.0</ele><time>2026-04-23T14:49:27Z</time></trkpt><trkpt lat="45.34526441454669" lon="9.798991726470529"><ele>70.0</ele><time>2026-04-23T14:49:28Z</time></trkpt><trkpt lat="45.345228823575226" lon="9.7991648016467"><ele>70.0</ele><time>2026-04-23T14:49:29Z</time></trkpt><trkpt lat="45.34519823969491" lon="9.799333122799199"><ele>70.0</ele><time>2026-04-23T14:49:30Z</time></trkpt><trkpt lat="45.34517241395027" lon="9.799498247371732"><ele>70.0</ele><time>2026-04-23T14:49:31Z</time></trkpt><trkpt lat="45.345138262169954" lon="9.79966866431628"><ele>70.0</ele><time>2026-04-23T14:49:32Z</time></trkpt><trkpt lat="45.345104808437725" lon="9.799843641712886"><ele>70.0</ele><time>2026-04-23T14:49:33Z</time></trkpt><trkpt lat="45.345074507557804" lon="9.800020172955398"><ele>70.0</ele><time>2026-04-23T14:49:34Z</time></trkpt><trkpt lat="45.34504628820417" lon="9.800195058291774"><ele>70.25</ele><time>2026-04-23T14:49:35Z</time></trkpt><trkpt lat="45.34502442710941" lon="9.800366029628766"><ele>70.5</ele><time>2026-04-23T14:49:36Z</time></trkpt><trkpt lat="45.34499697179266" lon="9.800531658646044"><ele>70.75</ele><time>2026-04-23T14:49:37Z</time></trkpt><trkpt lat="45.344960307830114" lon="9.800703040135154"><ele>71.0</ele><time>2026-04-23T14:49:38Z</time></trkpt><trkpt lat="45.34492723109866" lon="9.800885362710957"><ele>71.5</ele><time>2026-04-23T14:49:39Z</time></trkpt><trkpt lat="45.344890586845054" lon="9.80106856335078"><ele>72.0</ele><time>2026-04-23T14:49:40Z</time></trkpt><trkpt lat="45.34485624138568" lon="9.801262461617993"><ele>72.5</ele><time>2026-04-23T14:49:41Z</time></trkpt><trkpt lat="45.34481973050477" lon="9.801456764241486"><ele>73.0</ele><time>2026-04-23T14:49:42Z</time></trkpt><trkpt lat="45.34478578713068" lon="9.801649547467221"><ele>73.0</ele><time>2026-04-23T14:49:43Z</time></trkpt><trkpt lat="45.344751282848854" lon="9.801828778550224"><ele>73.0</ele><time>2026-04-23T14:49:44Z</time></trkpt><trkpt lat="45.34471577784469" lon="9.802002228150068"><ele>73.0</ele><time>2026-04-23T14:49:45Z</time></trkpt><trkpt lat="45.34468677214522" lon="9.802176988014809"><ele>73.0</ele><time>2026-04-23T14:49:46Z</time></trkpt><trkpt lat="45.34465958449527" lon="9.802362637030969"><ele>72.5</ele><time>2026-04-23T14:49:47Z</time></trkpt><trkpt lat="45.344626674577384" lon="9.802535432800747"><ele>72.0</ele><time>2026-04-23T14:49:48Z</time></trkpt><trkpt lat="45.34459876957601" lon="9.802715110775988"><ele>71.5</ele><time>2026-04-23T14:49:49Z</time></trkpt><trkpt lat="45.34456464982995" lon="9.802892787675493"><ele>71.0</ele><time>2026-04-23T14:49:50Z</time></trkpt><trkpt lat="45.34452974968866" lon="9.803076700746532"><ele>71.0</ele><time>2026-04-23T14:49:51Z</time></trkpt><trkpt lat="45.34449378456169" lon="9.803271557288166"><ele>71.0</ele><time>2026-04-23T14:49:52Z</time></trkpt><trkpt lat="45.34445782049417" lon="9.803466484120937"><ele>71.0</ele><time>2026-04-23T14:49:53Z</time></trkpt><trkpt lat="45.3444217299031" lon="9.803661751134918"><ele>71.0</ele><time>2026-04-23T14:49:54Z</time></trkpt><trkpt lat="45.34438545337026" lon="9.803856217512754"><ele>71.0</ele><time>2026-04-23T14:49:55Z</time></trkpt><trkpt lat="45.34434902659688" lon="9.804050412699803"><ele>71.0</ele><time>2026-04-23T14:49:56Z</time></trkpt><trkpt lat="45.34431465094969" lon="9.80424388170942"><ele>71.0</ele><time>2026-04-23T14:49:57Z</time></trkpt><trkpt lat="45.34427851325467" lon="9.80443424387878"><ele>71.0</ele><time>2026-04-23T14:49:58Z</time></trkpt><trkpt lat="45.344240287267795" lon="9.804619159426387"><ele>71.0</ele><time>2026-04-23T14:49:59Z</time></trkpt><trkpt lat="45.34420832670536" lon="9.804799942114132"><ele>71.0</ele><time>2026-04-23T14:50:00.001Z</time></trkpt><trkpt lat="45.34418086432112" lon="9.804978554996254"><ele>71.0</ele><time>2026-04-23T14:50:01.001Z</time></trkpt><trkpt lat="45.34415421463683" lon="9.805155158369828"><ele>71.0</ele><time>2026-04-23T14:50:02.001Z</time></trkpt><trkpt lat="45.34412559507909" lon="9.80533007896914"><ele>71.0</ele><time>2026-04-23T14:50:03.001Z</time></trkpt><trkpt lat="45.34408692577941" lon="9.80550852287329"><ele>71.0</ele><time>2026-04-23T14:50:04.001Z</time></trkpt><trkpt lat="45.344039037547056" lon="9.805688764136377"><ele>71.0</ele><time>2026-04-23T14:50:05.001Z</time></trkpt><trkpt lat="45.34399644771455" lon="9.805870100971681"><ele>71.0</ele><time>2026-04-23T14:50:06.001Z</time></trkpt><trkpt lat="45.34395869011085" lon="9.806052585218628"><ele>70.75</ele><time>2026-04-23T14:50:07.001Z</time></trkpt><trkpt lat="45.343924618719235" lon="9.806230965025838"><ele>70.5</ele><time>2026-04-23T14:50:08.001Z</time></trkpt><trkpt lat="45.343892472747456" lon="9.806424186822381"><ele>70.25</ele><time>2026-04-23T14:50:09.001Z</time></trkpt><trkpt lat="45.34385845856285" lon="9.806610487980086"><ele>70.0</ele><time>2026-04-23T14:50:10.001Z</time></trkpt><trkpt lat="45.34382594577202" lon="9.806787656492249"><ele>70.2</ele><time>2026-04-23T14:50:11.001Z</time></trkpt><trkpt lat="45.34379924660365" lon="9.806960999398845"><ele>70.4</ele><time>2026-04-23T14:50:12.001Z</time></trkpt><trkpt lat="45.343772535678674" lon="9.807112940214047"><ele>70.6</ele><time>2026-04-23T14:50:13.001Z</time></trkpt><trkpt lat="45.34374415155393" lon="9.807260253014498"><ele>70.8</ele><time>2026-04-23T14:50:14.001Z</time></trkpt><trkpt lat="45.34371724477672" lon="9.807407324114841"><ele>71.0</ele><time>2026-04-23T14:50:15.001Z</time></trkpt><trkpt lat="45.34368514280974" lon="9.807563460870952"><ele>71.0</ele><time>2026-04-23T14:50:16.001Z</time></trkpt><trkpt lat="45.34365081298818" lon="9.807725975365294"><ele>71.0</ele><time>2026-04-23T14:50:17.001Z</time></trkpt><trkpt lat="45.34361924311732" lon="9.807898856503144"><ele>71.0</ele><time>2026-04-23T14:50:18.001Z</time></trkpt><trkpt lat="45.34358860212015" lon="9.808066923018982"><ele>71.0</ele><time>2026-04-23T14:50:19.001Z</time></trkpt><trkpt lat="45.34355807760236" lon="9.80823572961711"><ele>71.0</ele><time>2026-04-23T14:50:20.001Z</time></trkpt><trkpt lat="45.34352675522462" lon="9.808399375068777"><ele>71.0</ele><time>2026-04-23T14:50:21.001Z</time></trkpt><trkpt lat="45.34350172300629" lon="9.808573401027692"><ele>71.0</ele><time>2026-04-23T14:50:22.001Z</time></trkpt><trkpt lat="45.34347144141439" lon="9.808743629500261"><ele>71.0</ele><time>2026-04-23T14:50:23.001Z</time></trkpt><trkpt lat="45.343441607411876" lon="9.808913303205815"><ele>71.0</ele><time>2026-04-23T14:50:24.001Z</time></trkpt><trkpt lat="45.34341158397795" lon="9.809081647636555"><ele>71.0</ele><time>2026-04-23T14:50:25.001Z</time></trkpt><trkpt lat="45.343378664415916" lon="9.809254153306323"><ele>71.0</ele><time>2026-04-23T14:50:26.001Z</time></trkpt><trkpt lat="45.3433399692885" lon="9.809426508615125"><ele>71.0</ele><time>2026-04-23T14:50:27.001Z</time></trkpt><trkpt lat="45.3433075130592" lon="9.809602860896106"><ele>71.0</ele><time>2026-04-23T14:50:28Z</time></trkpt><trkpt lat="45.34327323970239" lon="9.80977903184718"><ele>71.0</ele><time>2026-04-23T14:50:29Z</time></trkpt><trkpt lat="45.34323822572791" lon="9.809955501687659"><ele>71.0</ele><time>2026-04-23T14:50:30Z</time></trkpt><trkpt lat="45.343206576185246" lon="9.810134312180116"><ele>71.0</ele><time>2026-04-23T14:50:31Z</time></trkpt><trkpt lat="45.343174483448585" lon="9.810313247503903"><ele>70.75</ele><time>2026-04-23T14:50:32Z</time></trkpt><trkpt lat="45.34314417595809" lon="9.81049328315044"><ele>70.5</ele><time>2026-04-23T14:50:33Z</time></trkpt><trkpt lat="45.34311316089786" lon="9.810662289581837"><ele>70.25</ele><time>2026-04-23T14:50:34Z</time></trkpt><trkpt lat="45.34308567014037" lon="9.810812244489798"><ele>70.0</ele><time>2026-04-23T14:50:35Z</time></trkpt><trkpt lat="45.34306121164766" lon="9.81094739248328"><ele>70.5</ele><time>2026-04-23T14:50:36Z</time></trkpt><trkpt lat="45.34304514422407" lon="9.811092220807547"><ele>71.0</ele><time>2026-04-23T14:50:37Z</time></trkpt><trkpt lat="45.34301755382337" lon="9.811242306253488"><ele>71.5</ele><time>2026-04-23T14:50:38Z</time></trkpt><trkpt lat="45.3429811718613" lon="9.811400041059903"><ele>72.0</ele><time>2026-04-23T14:50:39Z</time></trkpt><trkpt lat="45.342940016512095" lon="9.811561812897674"><ele>72.0</ele><time>2026-04-23T14:50:40Z</time></trkpt><trkpt lat="45.34289681742783" lon="9.811730180691795"><ele>72.0</ele><time>2026-04-23T14:50:41Z</time></trkpt><trkpt lat="45.34286555875306" lon="9.81191256658276"><ele>72.0</ele><time>2026-04-23T14:50:42Z</time></trkpt><trkpt lat="45.34283048917991" lon="9.812089362573131"><ele>72.0</ele><time>2026-04-23T14:50:43Z</time></trkpt><trkpt lat="45.34279871961912" lon="9.812264936129662"><ele>72.0</ele><time>2026-04-23T14:50:44Z</time></trkpt><trkpt lat="45.34276598611332" lon="9.812436989933012"><ele>72.0</ele><time>2026-04-23T14:50:45Z</time></trkpt><trkpt lat="45.342731812082555" lon="9.812608831749895"><ele>72.0</ele><time>2026-04-23T14:50:46Z</time></trkpt><trkpt lat="45.34269921131785" lon="9.812781373970024"><ele>72.0</ele><time>2026-04-23T14:50:47Z</time></trkpt><trkpt lat="45.34266883664995" lon="9.812961310244196"><ele>72.25</ele><time>2026-04-23T14:50:48Z</time></trkpt><trkpt lat="45.34263931223896" lon="9.813139278969139"><ele>72.5</ele><time>2026-04-23T14:50:49Z</time></trkpt><trkpt lat="45.34260824437073" lon="9.81331300543615"><ele>72.75</ele><time>2026-04-23T14:50:50Z</time></trkpt><trkpt lat="45.342583686000616" lon="9.813481416370605"><ele>73.0</ele><time>2026-04-23T14:50:51Z</time></trkpt><trkpt lat="45.34256701512396" lon="9.813657857978372"><ele>73.0</ele><time>2026-04-23T14:50:52Z</time></trkpt><trkpt lat="45.34252595591232" lon="9.813813149442455"><ele>73.0</ele><time>2026-04-23T14:50:53Z</time></trkpt><trkpt lat="45.34249553407233" lon="9.81397517975461"><ele>73.0</ele><time>2026-04-23T14:50:54Z</time></trkpt><trkpt lat="45.342464402009256" lon="9.814136751184416"><ele>73.0</ele><time>2026-04-23T14:50:55Z</time></trkpt><trkpt lat="45.34243762078964" lon="9.814293854485392"><ele>72.6</ele><time>2026-04-23T14:50:56Z</time></trkpt><trkpt lat="45.34241425822113" lon="9.814443681454215"><ele>72.19999999999999</ele><time>2026-04-23T14:50:57Z</time></trkpt><trkpt lat="45.34239434706702" lon="9.814576315541235"><ele>71.8</ele><time>2026-04-23T14:50:58Z</time></trkpt><trkpt lat="45.3423754479151" lon="9.814702695777223"><ele>71.39999999999999</ele><time>2026-04-23T14:50:59Z</time></trkpt><trkpt lat="45.342352459867435" lon="9.814827346059406"><ele>71.0</ele><time>2026-04-23T14:51:00Z</time></trkpt><trkpt lat="45.34232596344368" lon="9.814962819119327"><ele>71.0</ele><time>2026-04-23T14:51:01Z</time></trkpt><trkpt lat="45.34229174416325" lon="9.815114560110883"><ele>71.0</ele><time>2026-04-23T14:51:02Z</time></trkpt><trkpt lat="45.34225477323011" lon="9.815272311020916"><ele>71.0</ele><time>2026-04-23T14:51:03Z</time></trkpt><trkpt lat="45.34222249287066" lon="9.815443160903206"><ele>71.0</ele><time>2026-04-23T14:51:04Z</time></trkpt><trkpt lat="45.34219237125954" lon="9.815614265499782"><ele>70.75</ele><time>2026-04-23T14:51:05Z</time></trkpt><trkpt lat="45.34215938914536" lon="9.815787354262342"><ele>70.5</ele><time>2026-04-23T14:51:06Z</time></trkpt><trkpt lat="45.34212452419543" lon="9.815964799185576"><ele>70.25</ele><time>2026-04-23T14:51:07Z</time></trkpt><trkpt lat="45.34208835977236" lon="9.816152602529824"><ele>70.0</ele><time>2026-04-23T14:51:08Z</time></trkpt><trkpt lat="45.34205217050309" lon="9.816342158349897"><ele>70.0</ele><time>2026-04-23T14:51:09Z</time></trkpt><trkpt lat="45.34201896148283" lon="9.816520255990454"><ele>70.0</ele><time>2026-04-23T14:51:10Z</time></trkpt><trkpt lat="45.341975615671956" lon="9.816667078770765"><ele>70.0</ele><time>2026-04-23T14:51:11Z</time></trkpt><trkpt lat="45.34194683151176" lon="9.816819774799075"><ele>70.0</ele><time>2026-04-23T14:51:12Z</time></trkpt><trkpt lat="45.34191842059599" lon="9.816970490891137"><ele>70.0</ele><time>2026-04-23T14:51:13Z</time></trkpt><trkpt lat="45.34190349212516" lon="9.817132032057"><ele>70.0</ele><time>2026-04-23T14:51:14Z</time></trkpt><trkpt lat="45.34186665828534" lon="9.817293790744078"><ele>70.0</ele><time>2026-04-23T14:51:15Z</time></trkpt><trkpt lat="45.34183127716176" lon="9.817460763138511"><ele>70.0</ele><time>2026-04-23T14:51:16Z</time></trkpt><trkpt lat="45.34180101115633" lon="9.817634277570624"><ele>70.25</ele><time>2026-04-23T14:51:17Z</time></trkpt><trkpt lat="45.34175554218502" lon="9.81781408183002"><ele>70.5</ele><time>2026-04-23T14:51:18Z</time></trkpt><trkpt lat="45.34172080095705" lon="9.817996048037088"><ele>70.75</ele><time>2026-04-23T14:51:19Z</time></trkpt><trkpt lat="45.34168791927537" lon="9.81817042066236"><ele>71.0</ele><time>2026-04-23T14:51:20Z</time></trkpt><trkpt lat="45.341672017410986" lon="9.818345812437448"><ele>71.5</ele><time>2026-04-23T14:51:21Z</time></trkpt><trkpt lat="45.34163742858586" lon="9.818527850720121"><ele>72.0</ele><time>2026-04-23T14:51:22Z</time></trkpt><trkpt lat="45.34158904255225" lon="9.818709077509771"><ele>72.5</ele><time>2026-04-23T14:51:23Z</time></trkpt><trkpt lat="45.341557870273846" lon="9.818880070866234"><ele>73.0</ele><time>2026-04-23T14:51:24Z</time></trkpt><trkpt lat="45.34153606079138" lon="9.819053693579178"><ele>73.0</ele><time>2026-04-23T14:51:25Z</time></trkpt><trkpt lat="45.341499692064886" lon="9.819229791978614"><ele>73.0</ele><time>2026-04-23T14:51:26Z</time></trkpt><trkpt lat="45.34147113938674" lon="9.819412104236886"><ele>73.0</ele><time>2026-04-23T14:51:27Z</time></trkpt><trkpt lat="45.34144307978899" lon="9.819598394798389"><ele>73.0</ele><time>2026-04-23T14:51:28Z</time></trkpt><trkpt lat="45.34139421203743" lon="9.819769779243268"><ele>72.5</ele><time>2026-04-23T14:51:29Z</time></trkpt><trkpt lat="45.34137780225797" lon="9.819948225518292"><ele>72.0</ele><time>2026-04-23T14:51:30Z</time></trkpt><trkpt lat="45.34134381376681" lon="9.82012025625949"><ele>71.5</ele><time>2026-04-23T14:51:31Z</time></trkpt><trkpt lat="45.3413131043715" lon="9.820282928296185"><ele>71.0</ele><time>2026-04-23T14:51:32Z</time></trkpt><trkpt lat="45.34128653010832" lon="9.82043032151724"><ele>71.0</ele><time>2026-04-23T14:51:33Z</time></trkpt><trkpt lat="45.34126946471164" lon="9.820561640105558"><ele>71.0</ele><time>2026-04-23T14:51:34Z</time></trkpt><trkpt lat="45.341259920610355" lon="9.820684681202502"><ele>71.0</ele><time>2026-04-23T14:51:35Z</time></trkpt><trkpt lat="45.3412409872821" lon="9.820784729476104"><ele>71.0</ele><time>2026-04-23T14:51:36Z</time></trkpt><trkpt lat="45.3411860472872" lon="9.820872872189643"><ele>71.0</ele><time>2026-04-23T14:51:37Z</time></trkpt><trkpt lat="45.341160529567816" lon="9.82099047807386"><ele>71.0</ele><time>2026-04-23T14:51:38Z</time></trkpt><trkpt lat="45.34114636980064" lon="9.821123720691547"><ele>70.8</ele><time>2026-04-23T14:51:39Z</time></trkpt><trkpt lat="45.341121599406655" lon="9.821260348022978"><ele>70.6</ele><time>2026-04-23T14:51:40Z</time></trkpt><trkpt lat="45.341101560037664" lon="9.821405113434293"><ele>70.4</ele><time>2026-04-23T14:51:41Z</time></trkpt><trkpt lat="45.34107522613886" lon="9.821558272993737"><ele>70.2</ele><time>2026-04-23T14:51:42Z</time></trkpt><trkpt lat="45.341043728168536" lon="9.821720575347578"><ele>70.0</ele><time>2026-04-23T14:51:43Z</time></trkpt><trkpt lat="45.3410097353593" lon="9.821881708806345"><ele>70.0</ele><time>2026-04-23T14:51:44Z</time></trkpt><trkpt lat="45.34097646626459" lon="9.82204070046356"><ele>70.0</ele><time>2026-04-23T14:51:45Z</time></trkpt><trkpt lat="45.34094428998317" lon="9.822202636288218"><ele>70.0</ele><time>2026-04-23T14:51:46Z</time></trkpt><trkpt lat="45.34090923227627" lon="9.822365312505555"><ele>70.0</ele><time>2026-04-23T14:51:47Z</time></trkpt><trkpt lat="45.34086814714716" lon="9.82252612700151"><ele>70.25</ele><time>2026-04-23T14:51:48Z</time></trkpt><trkpt lat="45.340829104839585" lon="9.822694584217292"><ele>70.5</ele><time>2026-04-23T14:51:49Z</time></trkpt><trkpt lat="45.34078821077781" lon="9.822860102831013"><ele>70.75</ele><time>2026-04-23T14:51:50Z</time></trkpt><trkpt lat="45.340729447792185" lon="9.82301960921272"><ele>71.0</ele><time>2026-04-23T14:51:51Z</time></trkpt><trkpt lat="45.34068535203548" lon="9.823185473899892"><ele>71.0</ele><time>2026-04-23T14:51:52Z</time></trkpt><trkpt lat="45.34064019325855" lon="9.823351839616832"><ele>71.0</ele><time>2026-04-23T14:51:53Z</time></trkpt><trkpt lat="45.34059325678809" lon="9.823517338384844"><ele>71.0</ele><time>2026-04-23T14:51:54Z</time></trkpt><trkpt lat="45.34054822651462" lon="9.823676296162922"><ele>71.0</ele><time>2026-04-23T14:51:55Z</time></trkpt><trkpt lat="45.340509921440365" lon="9.823811513834572"><ele>70.8</ele><time>2026-04-23T14:51:56Z</time></trkpt><trkpt lat="45.34047070063652" lon="9.82394996402369"><ele>70.6</ele><time>2026-04-23T14:51:57Z</time></trkpt><trkpt lat="45.34044479455746" lon="9.824095295960731"><ele>70.4</ele><time>2026-04-23T14:51:58Z</time></trkpt><trkpt lat="45.3404019663783" lon="9.82424273172914"><ele>70.2</ele><time>2026-04-23T14:51:59Z</time></trkpt><trkpt lat="45.34035666815774" lon="9.824399229144097"><ele>70.0</ele><time>2026-04-23T14:52:00Z</time></trkpt><trkpt lat="45.34031062788639" lon="9.824567845542328"><ele>70.0</ele><time>2026-04-23T14:52:01Z</time></trkpt><trkpt lat="45.34024694715128" lon="9.824736598776301"><ele>70.0</ele><time>2026-04-23T14:52:02Z</time></trkpt><trkpt lat="45.34019514634525" lon="9.824918648418155"><ele>70.0</ele><time>2026-04-23T14:52:03Z</time></trkpt><trkpt lat="45.34015021207766" lon="9.825089440263275"><ele>70.0</ele><time>2026-04-23T14:52:04Z</time></trkpt><trkpt lat="45.34012483155949" lon="9.825220067545184"><ele>70.0</ele><time>2026-04-23T14:52:05.001Z</time></trkpt><trkpt lat="45.34011098890566" lon="9.825328562430265"><ele>70.0</ele><time>2026-04-23T14:52:06.001Z</time></trkpt><trkpt lat="45.34010419917154" lon="9.825439981358935"><ele>70.0</ele><time>2026-04-23T14:52:08.001Z</time></trkpt><trkpt lat="45.33999747200619" lon="9.825409018514101"><ele>70.0</ele><time>2026-04-23T14:52:09.001Z</time></trkpt><trkpt lat="45.33992339692062" lon="9.8253481430289"><ele>70.0</ele><time>2026-04-23T14:52:10.001Z</time></trkpt><trkpt lat="45.33985509129221" lon="9.825305514966901"><ele>70.0</ele><time>2026-04-23T14:52:11.001Z</time></trkpt><trkpt lat="45.33982695176079" lon="9.825440675811873"><ele>70.0</ele><time>2026-04-23T14:52:13.001Z</time></trkpt><trkpt lat="45.33982114222588" lon="9.825558993678518"><ele>70.0</ele><time>2026-04-23T14:52:14.001Z</time></trkpt><trkpt lat="45.33978019901558" lon="9.825701040332786"><ele>70.0</ele><time>2026-04-23T14:52:15.001Z</time></trkpt><trkpt lat="45.33971500576792" lon="9.825867444232253"><ele>70.0</ele><time>2026-04-23T14:52:16.001Z</time></trkpt><trkpt lat="45.33964877322222" lon="9.826086760458812"><ele>69.75</ele><time>2026-04-23T14:52:17.001Z</time></trkpt><trkpt lat="45.33959112191535" lon="9.826289357260778"><ele>69.5</ele><time>2026-04-23T14:52:18.001Z</time></trkpt><trkpt lat="45.33954191001441" lon="9.826484298253767"><ele>69.25</ele><time>2026-04-23T14:52:19.001Z</time></trkpt><trkpt lat="45.33949495383423" lon="9.826664669202115"><ele>69.0</ele><time>2026-04-23T14:52:20.001Z</time></trkpt><trkpt lat="45.33944851695259" lon="9.826845888677653"><ele>69.5</ele><time>2026-04-23T14:52:21Z</time></trkpt><trkpt lat="45.33939308493391" lon="9.82703229382099"><ele>70.0</ele><time>2026-04-23T14:52:22Z</time></trkpt><trkpt lat="45.33934238188014" lon="9.82721230286652"><ele>70.5</ele><time>2026-04-23T14:52:23Z</time></trkpt><trkpt lat="45.33929849407133" lon="9.827368244581438"><ele>71.0</ele><time>2026-04-23T14:52:24Z</time></trkpt><trkpt lat="45.33926363791053" lon="9.827501051643786"><ele>71.0</ele><time>2026-04-23T14:52:25Z</time></trkpt><trkpt lat="45.33922778022072" lon="9.827636593335495"><ele>71.0</ele><time>2026-04-23T14:52:26Z</time></trkpt><trkpt lat="45.3391961617736" lon="9.827747371143142"><ele>71.0</ele><time>2026-04-23T14:52:27Z</time></trkpt><trkpt lat="45.33916504790833" lon="9.827872217797426"><ele>71.0</ele><time>2026-04-23T14:52:28Z</time></trkpt><trkpt lat="45.33913095376374" lon="9.827998650849487"><ele>71.0</ele><time>2026-04-23T14:52:29Z</time></trkpt><trkpt lat="45.33909267170411" lon="9.828133578243763"><ele>70.8</ele><time>2026-04-23T14:52:30Z</time></trkpt><trkpt lat="45.339051249082814" lon="9.828277505954558"><ele>70.6</ele><time>2026-04-23T14:52:31Z</time></trkpt><trkpt lat="45.33901105499408" lon="9.828420396965411"><ele>70.4</ele><time>2026-04-23T14:52:32Z</time></trkpt><trkpt lat="45.33897244195071" lon="9.828566411910543"><ele>70.2</ele><time>2026-04-23T14:52:33Z</time></trkpt><trkpt lat="45.33893280003533" lon="9.828706990707776"><ele>70.0</ele><time>2026-04-23T14:52:34Z</time></trkpt><trkpt lat="45.33889151236966" lon="9.828843584313683"><ele>70.0</ele><time>2026-04-23T14:52:35Z</time></trkpt><trkpt lat="45.33884481554551" lon="9.828978270322748"><ele>70.0</ele><time>2026-04-23T14:52:36Z</time></trkpt><trkpt lat="45.338801030585095" lon="9.829120189397246"><ele>70.0</ele><time>2026-04-23T14:52:37Z</time></trkpt><trkpt lat="45.3387662442856" lon="9.829277173201818"><ele>70.0</ele><time>2026-04-23T14:52:38Z</time></trkpt><trkpt lat="45.33872665127454" lon="9.829438028487317"><ele>69.75</ele><time>2026-04-23T14:52:39Z</time></trkpt><trkpt lat="45.338684111188165" lon="9.829587912625342"><ele>69.5</ele><time>2026-04-23T14:52:40Z</time></trkpt><trkpt lat="45.33864417001176" lon="9.829741096548577"><ele>69.25</ele><time>2026-04-23T14:52:41Z</time></trkpt><trkpt lat="45.3386002833033" lon="9.829897727991346"><ele>69.0</ele><time>2026-04-23T14:52:42Z</time></trkpt><trkpt lat="45.33855959649546" lon="9.830056621175476"><ele>68.75</ele><time>2026-04-23T14:52:43Z</time></trkpt><trkpt lat="45.33851959056464" lon="9.830212368523497"><ele>68.5</ele><time>2026-04-23T14:52:44Z</time></trkpt><trkpt lat="45.33847933446837" lon="9.830370872018115"><ele>68.25</ele><time>2026-04-23T14:52:45Z</time></trkpt><trkpt lat="45.33843241886479" lon="9.830525757939473"><ele>68.0</ele><time>2026-04-23T14:52:46Z</time></trkpt><trkpt lat="45.33838675954248" lon="9.83067766139529"><ele>68.0</ele><time>2026-04-23T14:52:47Z</time></trkpt><trkpt lat="45.33834442090366" lon="9.830833124286682"><ele>68.0</ele><time>2026-04-23T14:52:48Z</time></trkpt><trkpt lat="45.33830149139523" lon="9.830990666246178"><ele>68.0</ele><time>2026-04-23T14:52:49Z</time></trkpt><trkpt lat="45.33825605777924" lon="9.831143936542913"><ele>68.0</ele><time>2026-04-23T14:52:50Z</time></trkpt><trkpt lat="45.3382149786582" lon="9.831303971920809"><ele>68.0</ele><time>2026-04-23T14:52:51Z</time></trkpt><trkpt lat="45.338173161608694" lon="9.831453300254989"><ele>68.0</ele><time>2026-04-23T14:52:52Z</time></trkpt><trkpt lat="45.33812962187402" lon="9.831600266378901"><ele>68.0</ele><time>2026-04-23T14:52:53Z</time></trkpt><trkpt lat="45.33808559691835" lon="9.831751787379607"><ele>68.0</ele><time>2026-04-23T14:52:54Z</time></trkpt><trkpt lat="45.33804226454568" lon="9.831906691463825"><ele>68.5</ele><time>2026-04-23T14:52:55Z</time></trkpt><trkpt lat="45.33800338092864" lon="9.832064474062946"><ele>69.0</ele><time>2026-04-23T14:52:56Z</time></trkpt><trkpt lat="45.33795804360141" lon="9.832216018734522"><ele>69.5</ele><time>2026-04-23T14:52:57Z</time></trkpt><trkpt lat="45.337914020217475" lon="9.832373619515094"><ele>70.0</ele><time>2026-04-23T14:52:58Z</time></trkpt><trkpt lat="45.33786670555204" lon="9.832528514907361"><ele>70.0</ele><time>2026-04-23T14:52:59Z</time></trkpt><trkpt lat="45.33782127687733" lon="9.832691499023358"><ele>70.0</ele><time>2026-04-23T14:53:00Z</time></trkpt><trkpt lat="45.337777867099206" lon="9.832849815331837"><ele>70.0</ele><time>2026-04-23T14:53:01Z</time></trkpt><trkpt lat="45.33773479311095" lon="9.833011425965589"><ele>70.0</ele><time>2026-04-23T14:53:02Z</time></trkpt><trkpt lat="45.337691174081286" lon="9.833174253201719"><ele>70.0</ele><time>2026-04-23T14:53:03Z</time></trkpt><trkpt lat="45.33764334978355" lon="9.83333465447211"><ele>70.0</ele><time>2026-04-23T14:53:04Z</time></trkpt><trkpt lat="45.33759991417992" lon="9.833492280597914"><ele>70.0</ele><time>2026-04-23T14:53:05Z</time></trkpt><trkpt lat="45.337558906475415" lon="9.833650592952951"><ele>70.0</ele><time>2026-04-23T14:53:06Z</time></trkpt><trkpt lat="45.33751229162644" lon="9.83380812959112"><ele>69.75</ele><time>2026-04-23T14:53:07Z</time></trkpt><trkpt lat="45.33746625903729" lon="9.833961477729627"><ele>69.5</ele><time>2026-04-23T14:53:08Z</time></trkpt><trkpt lat="45.33742339596606" lon="9.83412130114934"><ele>69.25</ele><time>2026-04-23T14:53:09Z</time></trkpt><trkpt lat="45.337380133569866" lon="9.83427129953164"><ele>69.0</ele><time>2026-04-23T14:53:10Z</time></trkpt><trkpt lat="45.33733415036992" lon="9.834422463713226"><ele>69.0</ele><time>2026-04-23T14:53:11Z</time></trkpt><trkpt lat="45.337288145419365" lon="9.834574060708016"><ele>69.0</ele><time>2026-04-23T14:53:12Z</time></trkpt><trkpt lat="45.337245636066214" lon="9.834724233631137"><ele>69.0</ele><time>2026-04-23T14:53:13Z</time></trkpt><trkpt lat="45.33720089439861" lon="9.834878701254107"><ele>69.0</ele><time>2026-04-23T14:53:14Z</time></trkpt><trkpt lat="45.337158530527375" lon="9.835032090056167"><ele>69.0</ele><time>2026-04-23T14:53:15Z</time></trkpt><trkpt lat="45.33711684612914" lon="9.835185258109961"><ele>69.0</ele><time>2026-04-23T14:53:16Z</time></trkpt><trkpt lat="45.33707413275236" lon="9.835337218389972"><ele>69.0</ele><time>2026-04-23T14:53:17Z</time></trkpt><trkpt lat="45.33703076994262" lon="9.83549181304015"><ele>69.0</ele><time>2026-04-23T14:53:18Z</time></trkpt><trkpt lat="45.336987343441734" lon="9.835647207013142"><ele>69.0</ele><time>2026-04-23T14:53:19Z</time></trkpt><trkpt lat="45.33694214751338" lon="9.835803528692068"><ele>69.0</ele><time>2026-04-23T14:53:20Z</time></trkpt><trkpt lat="45.33689738095815" lon="9.835960693026909"><ele>69.0</ele><time>2026-04-23T14:53:21Z</time></trkpt><trkpt lat="45.33685350340761" lon="9.836118800381604"><ele>69.0</ele><time>2026-04-23T14:53:22Z</time></trkpt><trkpt lat="45.33680916885138" lon="9.836276531049398"><ele>69.4</ele><time>2026-04-23T14:53:23Z</time></trkpt><trkpt lat="45.33676406477056" lon="9.836433433830983"><ele>69.80000000000001</ele><time>2026-04-23T14:53:24Z</time></trkpt><trkpt lat="45.33672143999448" lon="9.836584521054265"><ele>70.19999999999999</ele><time>2026-04-23T14:53:25Z</time></trkpt><trkpt lat="45.33668293805158" lon="9.836727863086434"><ele>70.6</ele><time>2026-04-23T14:53:26Z</time></trkpt><trkpt lat="45.33663866797829" lon="9.83686785060039"><ele>71.0</ele><time>2026-04-23T14:53:27Z</time></trkpt><trkpt lat="45.33659424533296" lon="9.837015171955782"><ele>71.25</ele><time>2026-04-23T14:53:28Z</time></trkpt><trkpt lat="45.33655099842932" lon="9.837167353430562"><ele>71.5</ele><time>2026-04-23T14:53:29Z</time></trkpt><trkpt lat="45.33651010382096" lon="9.83732051756248"><ele>71.75</ele><time>2026-04-23T14:53:30Z</time></trkpt><trkpt lat="45.33646948239204" lon="9.837475651789086"><ele>72.0</ele><time>2026-04-23T14:53:31Z</time></trkpt><trkpt lat="45.33642847381245" lon="9.837632197573251"><ele>71.5</ele><time>2026-04-23T14:53:32Z</time></trkpt><trkpt lat="45.336386392610386" lon="9.837789002931945"><ele>71.0</ele><time>2026-04-23T14:53:33Z</time></trkpt><trkpt lat="45.33634742825289" lon="9.837948449433265"><ele>70.5</ele><time>2026-04-23T14:53:34Z</time></trkpt><trkpt lat="45.33630849386753" lon="9.83811242374595"><ele>70.0</ele><time>2026-04-23T14:53:35Z</time></trkpt><trkpt lat="45.33627019321594" lon="9.838277649303748"><ele>70.0</ele><time>2026-04-23T14:53:36Z</time></trkpt><trkpt lat="45.33623335438017" lon="9.838448897964925"><ele>70.0</ele><time>2026-04-23T14:53:37Z</time></trkpt><trkpt lat="45.336196667328515" lon="9.838618307968623"><ele>70.0</ele><time>2026-04-23T14:53:38Z</time></trkpt><trkpt lat="45.336159708557965" lon="9.838789974876835"><ele>70.0</ele><time>2026-04-23T14:53:39Z</time></trkpt><trkpt lat="45.336124602819325" lon="9.838959761482908"><ele>70.0</ele><time>2026-04-23T14:53:40Z</time></trkpt><trkpt lat="45.336093840743864" lon="9.839125888097529"><ele>70.0</ele><time>2026-04-23T14:53:41Z</time></trkpt><trkpt lat="45.33606006020001" lon="9.839280501305428"><ele>70.0</ele><time>2026-04-23T14:53:42Z</time></trkpt><trkpt lat="45.3360279183997" lon="9.839432274449422"><ele>70.0</ele><time>2026-04-23T14:53:43Z</time></trkpt><trkpt lat="45.3359967025609" lon="9.839586213510072"><ele>70.0</ele><time>2026-04-23T14:53:44Z</time></trkpt><trkpt lat="45.33596474960511" lon="9.839739092171081"><ele>70.0</ele><time>2026-04-23T14:53:45Z</time></trkpt><trkpt lat="45.33593286027978" lon="9.839892944129138"><ele>70.0</ele><time>2026-04-23T14:53:46Z</time></trkpt><trkpt lat="45.33590267559634" lon="9.84004611878531"><ele>70.0</ele><time>2026-04-23T14:53:47Z</time></trkpt><trkpt lat="45.33587347459869" lon="9.840210199204929"><ele>69.75</ele><time>2026-04-23T14:53:48Z</time></trkpt><trkpt lat="45.33584215827486" lon="9.840367443216415"><ele>69.5</ele><time>2026-04-23T14:53:49Z</time></trkpt><trkpt lat="45.335808567744316" lon="9.840527458390154"><ele>69.25</ele><time>2026-04-23T14:53:50Z</time></trkpt><trkpt lat="45.33576915825178" lon="9.840683256660387"><ele>69.0</ele><time>2026-04-23T14:53:51Z</time></trkpt><trkpt lat="45.335735040572175" lon="9.84083925153067"><ele>69.25</ele><time>2026-04-23T14:53:52Z</time></trkpt><trkpt lat="45.33569984708096" lon="9.841003289617895"><ele>69.5</ele><time>2026-04-23T14:53:53Z</time></trkpt><trkpt lat="45.335665499142415" lon="9.841166830829536"><ele>69.75</ele><time>2026-04-23T14:53:54Z</time></trkpt><trkpt lat="45.335630910210256" lon="9.84133310150037"><ele>70.0</ele><time>2026-04-23T14:53:55Z</time></trkpt><trkpt lat="45.335595148942275" lon="9.841498493345647"><ele>70.0</ele><time>2026-04-23T14:53:56Z</time></trkpt><trkpt lat="45.33555701740737" lon="9.841673099069501"><ele>70.0</ele><time>2026-04-23T14:53:57Z</time></trkpt><trkpt lat="45.33551768543732" lon="9.84185127945392"><ele>70.0</ele><time>2026-04-23T14:53:58Z</time></trkpt><trkpt lat="45.33548317528787" lon="9.84203154091894"><ele>70.0</ele><time>2026-04-23T14:53:59Z</time></trkpt><trkpt lat="45.33544486918054" lon="9.842208330286136"><ele>70.0</ele><time>2026-04-23T14:54:00Z</time></trkpt><trkpt lat="45.3354046755179" lon="9.842384820715266"><ele>70.0</ele><time>2026-04-23T14:54:01Z</time></trkpt><trkpt lat="45.33536705436021" lon="9.842561745104137"><ele>70.0</ele><time>2026-04-23T14:54:02Z</time></trkpt><trkpt lat="45.33533092590195" lon="9.842731732888755"><ele>70.0</ele><time>2026-04-23T14:54:03Z</time></trkpt><trkpt lat="45.335296979220864" lon="9.84288494243454"><ele>70.0</ele><time>2026-04-23T14:54:04Z</time></trkpt><trkpt lat="45.335271072830906" lon="9.843025132891004"><ele>70.0</ele><time>2026-04-23T14:54:05Z</time></trkpt><trkpt lat="45.335240958692935" lon="9.843162831401695"><ele>70.0</ele><time>2026-04-23T14:54:06Z</time></trkpt><trkpt lat="45.33520943362842" lon="9.843307274699436"><ele>70.0</ele><time>2026-04-23T14:54:07Z</time></trkpt><trkpt lat="45.33517826433792" lon="9.843457080012305"><ele>70.0</ele><time>2026-04-23T14:54:08Z</time></trkpt><trkpt lat="45.335148318702075" lon="9.843600693487351"><ele>70.0</ele><time>2026-04-23T14:54:09Z</time></trkpt><trkpt lat="45.33512203324193" lon="9.84373628410066"><ele>70.0</ele><time>2026-04-23T14:54:10Z</time></trkpt><trkpt lat="45.33509689468084" lon="9.843867854399047"><ele>70.0</ele><time>2026-04-23T14:54:11Z</time></trkpt><trkpt lat="45.335072374966565" lon="9.843983590236403"><ele>70.0</ele><time>2026-04-23T14:54:12Z</time></trkpt><trkpt lat="45.33505385838005" lon="9.844080049744182"><ele>70.0</ele><time>2026-04-23T14:54:13Z</time></trkpt><trkpt lat="45.33503048617229" lon="9.844215901428019"><ele>70.0</ele><time>2026-04-23T14:54:15Z</time></trkpt><trkpt lat="45.335009730432496" lon="9.84432701205028"><ele>70.0</ele><time>2026-04-23T14:54:17Z</time></trkpt><trkpt lat="45.33516157251538" lon="9.84442976034245"><ele>70.0</ele><time>2026-04-23T14:54:18Z</time></trkpt><trkpt lat="45.335102169129414" lon="9.84465757519446"><ele>70.0</ele><time>2026-04-23T14:54:21Z</time></trkpt><trkpt lat="45.335059541271484" lon="9.844820932381197"><ele>70.0</ele><time>2026-04-23T14:54:23Z</time></trkpt><trkpt lat="45.33503530726554" lon="9.844936242958104"><ele>70.0</ele><time>2026-04-23T14:54:24Z</time></trkpt><trkpt lat="45.33500949012832" lon="9.845060386055598"><ele>70.0</ele><time>2026-04-23T14:54:25Z</time></trkpt><trkpt lat="45.33498106673039" lon="9.845193602047784"><ele>70.0</ele><time>2026-04-23T14:54:26Z</time></trkpt><trkpt lat="45.334951778658976" lon="9.84532638009516"><ele>70.0</ele><time>2026-04-23T14:54:27Z</time></trkpt><trkpt lat="45.33492393358372" lon="9.845452616285428"><ele>70.0</ele><time>2026-04-23T14:54:28Z</time></trkpt><trkpt lat="45.334897419442555" lon="9.845580029262196"><ele>70.0</ele><time>2026-04-23T14:54:29Z</time></trkpt><trkpt lat="45.33487068773628" lon="9.845709046871356"><ele>70.0</ele><time>2026-04-23T14:54:30Z</time></trkpt><trkpt lat="45.33484474845396" lon="9.845834239931937"><ele>70.0</ele><time>2026-04-23T14:54:31Z</time></trkpt><trkpt lat="45.334816113622566" lon="9.84597244275509"><ele>70.0</ele><time>2026-04-23T14:54:32Z</time></trkpt><trkpt lat="45.334788581969235" lon="9.846105321213292"><ele>70.0</ele><time>2026-04-23T14:54:33Z</time></trkpt><trkpt lat="45.33476053706558" lon="9.846240499907221"><ele>70.0</ele><time>2026-04-23T14:54:34Z</time></trkpt><trkpt lat="45.334729361351556" lon="9.846389149832767"><ele>70.0</ele><time>2026-04-23T14:54:35Z</time></trkpt><trkpt lat="45.334696598898184" lon="9.846545365542507"><ele>70.0</ele><time>2026-04-23T14:54:36Z</time></trkpt><trkpt lat="45.334665902706355" lon="9.846691729030937"><ele>70.0</ele><time>2026-04-23T14:54:37Z</time></trkpt><trkpt lat="45.33463417117482" lon="9.84684302915278"><ele>69.75</ele><time>2026-04-23T14:54:38Z</time></trkpt><trkpt lat="45.33460015665091" lon="9.847005214896514"><ele>69.5</ele><time>2026-04-23T14:54:39Z</time></trkpt><trkpt lat="45.33456731799746" lon="9.847162221691066"><ele>69.25</ele><time>2026-04-23T14:54:40Z</time></trkpt><trkpt lat="45.33453337088915" lon="9.84732510405969"><ele>69.0</ele><time>2026-04-23T14:54:41Z</time></trkpt><trkpt lat="45.33449969432873" lon="9.847486688314998"><ele>68.75</ele><time>2026-04-23T14:54:42Z</time></trkpt><trkpt lat="45.334466011527425" lon="9.847646648818781"><ele>68.5</ele><time>2026-04-23T14:54:43Z</time></trkpt><trkpt lat="45.33443272001326" lon="9.847800343684213"><ele>68.25</ele><time>2026-04-23T14:54:44Z</time></trkpt><trkpt lat="45.334398290915985" lon="9.847959290418784"><ele>68.0</ele><time>2026-04-23T14:54:45Z</time></trkpt><trkpt lat="45.33436402522187" lon="9.848117482778042"><ele>68.0</ele><time>2026-04-23T14:54:46Z</time></trkpt><trkpt lat="45.3343301184718" lon="9.848276650757898"><ele>68.0</ele><time>2026-04-23T14:54:47Z</time></trkpt><trkpt lat="45.33429662334778" lon="9.848435218395124"><ele>68.0</ele><time>2026-04-23T14:54:48Z</time></trkpt><trkpt lat="45.334265482808064" lon="9.8485826393005"><ele>68.0</ele><time>2026-04-23T14:54:49Z</time></trkpt><trkpt lat="45.33423524792361" lon="9.848725772813632"><ele>68.0</ele><time>2026-04-23T14:54:50Z</time></trkpt><trkpt lat="45.33420191881421" lon="9.848882318031716"><ele>68.25</ele><time>2026-04-23T14:54:51Z</time></trkpt><trkpt lat="45.33416960340853" lon="9.849033964480123"><ele>68.5</ele><time>2026-04-23T14:54:52Z</time></trkpt><trkpt lat="45.33413649018593" lon="9.849189354855394"><ele>68.75</ele><time>2026-04-23T14:54:53Z</time></trkpt><trkpt lat="45.33410293897518" lon="9.84934680055837"><ele>69.0</ele><time>2026-04-23T14:54:54Z</time></trkpt><trkpt lat="45.334069265643265" lon="9.849505083823951"><ele>69.25</ele><time>2026-04-23T14:54:55Z</time></trkpt><trkpt lat="45.33403519511176" lon="9.849666750440807"><ele>69.5</ele><time>2026-04-23T14:54:56Z</time></trkpt><trkpt lat="45.334000690301906" lon="9.849830477734558"><ele>69.75</ele><time>2026-04-23T14:54:57Z</time></trkpt><trkpt lat="45.33396639949557" lon="9.849992554981199"><ele>70.0</ele><time>2026-04-23T14:54:58Z</time></trkpt><trkpt lat="45.33393124975416" lon="9.850157455005517"><ele>70.25</ele><time>2026-04-23T14:54:59Z</time></trkpt><trkpt lat="45.333896644192116" lon="9.850319802100755"><ele>70.5</ele><time>2026-04-23T14:55:00Z</time></trkpt><trkpt lat="45.33386223187972" lon="9.850486182265941"><ele>70.75</ele><time>2026-04-23T14:55:01Z</time></trkpt><trkpt lat="45.33382934401777" lon="9.850649144983118"><ele>71.0</ele><time>2026-04-23T14:55:02Z</time></trkpt><trkpt lat="45.33379639660605" lon="9.85081240276855"><ele>70.5</ele><time>2026-04-23T14:55:03Z</time></trkpt><trkpt lat="45.33376065893867" lon="9.850982897635406"><ele>70.0</ele><time>2026-04-23T14:55:04Z</time></trkpt><trkpt lat="45.33372532502462" lon="9.851147545732454"><ele>69.5</ele><time>2026-04-23T14:55:05Z</time></trkpt><trkpt lat="45.33369014494378" lon="9.851311477001044"><ele>69.0</ele><time>2026-04-23T14:55:06Z</time></trkpt><trkpt lat="45.33365601246678" lon="9.851470526680645"><ele>69.0</ele><time>2026-04-23T14:55:07Z</time></trkpt><trkpt lat="45.33361946880138" lon="9.851640811950125"><ele>69.0</ele><time>2026-04-23T14:55:08Z</time></trkpt><trkpt lat="45.33358100881072" lon="9.851820026861073"><ele>69.0</ele><time>2026-04-23T14:55:09Z</time></trkpt><trkpt lat="45.333546858314456" lon="9.851980158758865"><ele>69.0</ele><time>2026-04-23T14:55:10Z</time></trkpt><trkpt lat="45.33351638569259" lon="9.85212437943084"><ele>69.0</ele><time>2026-04-23T14:55:11Z</time></trkpt><trkpt lat="45.33348772776436" lon="9.852260011532195"><ele>69.0</ele><time>2026-04-23T14:55:12Z</time></trkpt><trkpt lat="45.33345974743679" lon="9.852392436675878"><ele>69.0</ele><time>2026-04-23T14:55:13Z</time></trkpt><trkpt lat="45.33343076101854" lon="9.852529623454304"><ele>69.0</ele><time>2026-04-23T14:55:14Z</time></trkpt><trkpt lat="45.33340105539279" lon="9.852670214090065"><ele>69.0</ele><time>2026-04-23T14:55:15Z</time></trkpt><trkpt lat="45.333373564539585" lon="9.85280032265552"><ele>69.0</ele><time>2026-04-23T14:55:16Z</time></trkpt><trkpt lat="45.33334535156901" lon="9.852933848866149"><ele>69.0</ele><time>2026-04-23T14:55:17Z</time></trkpt><trkpt lat="45.33331682757468" lon="9.8530688470783"><ele>69.0</ele><time>2026-04-23T14:55:18Z</time></trkpt><trkpt lat="45.333286685644296" lon="9.853211502649478"><ele>69.0</ele><time>2026-04-23T14:55:19Z</time></trkpt><trkpt lat="45.33325734562797" lon="9.853351150441288"><ele>69.0</ele><time>2026-04-23T14:55:20Z</time></trkpt><trkpt lat="45.333228063478934" lon="9.85349099340808"><ele>69.4</ele><time>2026-04-23T14:55:21Z</time></trkpt><trkpt lat="45.33319853764226" lon="9.853632000149927"><ele>69.80000000000001</ele><time>2026-04-23T14:55:22Z</time></trkpt><trkpt lat="45.33316895289001" lon="9.85377328825829"><ele>70.19999999999999</ele><time>2026-04-23T14:55:23Z</time></trkpt><trkpt lat="45.33313844219606" lon="9.853918998392466"><ele>70.6</ele><time>2026-04-23T14:55:24Z</time></trkpt><trkpt lat="45.333106836087346" lon="9.854068805531602"><ele>71.0</ele><time>2026-04-23T14:55:25Z</time></trkpt><trkpt lat="45.33307450647364" lon="9.854220439247106"><ele>70.8</ele><time>2026-04-23T14:55:26Z</time></trkpt><trkpt lat="45.33304360738677" lon="9.85436536446583"><ele>70.6</ele><time>2026-04-23T14:55:27Z</time></trkpt><trkpt lat="45.33301351516792" lon="9.854506504304858"><ele>70.4</ele><time>2026-04-23T14:55:28Z</time></trkpt><trkpt lat="45.332985349913905" lon="9.8546386061711"><ele>70.2</ele><time>2026-04-23T14:55:29Z</time></trkpt><trkpt lat="45.332960470557" lon="9.854758063572879"><ele>70.0</ele><time>2026-04-23T14:55:30Z</time></trkpt><trkpt lat="45.332940544987046" lon="9.854860764143611"><ele>70.0</ele><time>2026-04-23T14:55:31Z</time></trkpt><trkpt lat="45.332922183055544" lon="9.854964995136623"><ele>70.0</ele><time>2026-04-23T14:55:32Z</time></trkpt><trkpt lat="45.3329117663759" lon="9.855055002765926"><ele>70.0</ele><time>2026-04-23T14:55:33Z</time></trkpt><trkpt lat="45.33288530294609" lon="9.855207165048647"><ele>70.0</ele><time>2026-04-23T14:55:34Z</time></trkpt><trkpt lat="45.33284513565365" lon="9.855344035303972"><ele>70.0</ele><time>2026-04-23T14:55:35Z</time></trkpt><trkpt lat="45.332813690473095" lon="9.855462186337189"><ele>70.0</ele><time>2026-04-23T14:55:36Z</time></trkpt><trkpt lat="45.33278610192521" lon="9.85558961989964"><ele>70.2</ele><time>2026-04-23T14:55:37Z</time></trkpt><trkpt lat="45.33276161511142" lon="9.855708269233164"><ele>70.4</ele><time>2026-04-23T14:55:38Z</time></trkpt><trkpt lat="45.332737041991464" lon="9.855829034231615"><ele>70.6</ele><time>2026-04-23T14:55:39Z</time></trkpt><trkpt lat="45.33271154519179" lon="9.855956673698875"><ele>70.8</ele><time>2026-04-23T14:55:40Z</time></trkpt><trkpt lat="45.33268564261348" lon="9.856086344536532"><ele>71.0</ele><time>2026-04-23T14:55:41Z</time></trkpt><trkpt lat="45.332661587888815" lon="9.856210722223421"><ele>71.0</ele><time>2026-04-23T14:55:42Z</time></trkpt><trkpt lat="45.33263934093806" lon="9.856345434229866"><ele>71.0</ele><time>2026-04-23T14:55:43Z</time></trkpt><trkpt lat="45.3326266326615" lon="9.856460831532146"><ele>71.0</ele><time>2026-04-23T14:55:44Z</time></trkpt><trkpt lat="45.332623708509516" lon="9.856582999318725"><ele>71.0</ele><time>2026-04-23T14:55:45Z</time></trkpt><trkpt lat="45.3326237085096" lon="9.856739164816553"><ele>71.0</ele><time>2026-04-23T14:55:46Z</time></trkpt><trkpt lat="45.332626998732486" lon="9.856868687783807"><ele>70.8</ele><time>2026-04-23T14:55:47Z</time></trkpt><trkpt lat="45.332640621561005" lon="9.85699275418004"><ele>70.6</ele><time>2026-04-23T14:55:48Z</time></trkpt><trkpt lat="45.33266592487517" lon="9.857095137804267"><ele>70.4</ele><time>2026-04-23T14:55:49Z</time></trkpt><trkpt lat="45.33270377489224" lon="9.857236429336195"><ele>70.2</ele><time>2026-04-23T14:55:50Z</time></trkpt><trkpt lat="45.33274276609286" lon="9.857358449902238"><ele>70.0</ele><time>2026-04-23T14:55:51Z</time></trkpt><trkpt lat="45.33278592629802" lon="9.857488127043464"><ele>70.0</ele><time>2026-04-23T14:55:52Z</time></trkpt><trkpt lat="45.332825120363566" lon="9.857606679545347"><ele>70.0</ele><time>2026-04-23T14:55:53Z</time></trkpt><trkpt lat="45.332863030137815" lon="9.857726845948802"><ele>70.0</ele><time>2026-04-23T14:55:54Z</time></trkpt><trkpt lat="45.332892295638224" lon="9.85783880045428"><ele>70.0</ele><time>2026-04-23T14:55:56Z</time></trkpt><trkpt lat="45.33257860021035" lon="9.858022301755353"><ele>70.2</ele><time>2026-04-23T14:55:58Z</time></trkpt><trkpt lat="45.33251090599593" lon="9.858084326085171"><ele>70.4</ele><time>2026-04-23T14:55:59Z</time></trkpt><trkpt lat="45.33248311384027" lon="9.858202890161952"><ele>70.6</ele><time>2026-04-23T14:56:01Z</time></trkpt><trkpt lat="45.3325422712723" lon="9.85833190185691"><ele>70.8</ele><time>2026-04-23T14:56:03Z</time></trkpt><trkpt lat="45.33263755889651" lon="9.858436230274656"><ele>71.0</ele><time>2026-04-23T14:56:05Z</time></trkpt><trkpt lat="45.33269903194277" lon="9.858546555076002"><ele>71.0</ele><time>2026-04-23T14:56:07Z</time></trkpt><trkpt lat="45.33276164129449" lon="9.858676183741935"><ele>71.0</ele><time>2026-04-23T14:56:09Z</time></trkpt><trkpt lat="45.33283127117965" lon="9.85878177979464"><ele>71.0</ele><time>2026-04-23T14:56:11Z</time></trkpt><trkpt lat="45.33291300444906" lon="9.858789806235501"><ele>71.0</ele><time>2026-04-23T14:56:13Z</time></trkpt><trkpt lat="45.33302534081178" lon="9.858728802225977"><ele>71.0</ele><time>2026-04-23T14:56:15Z</time></trkpt><trkpt lat="45.333076930180184" lon="9.85867641844148"><ele>70.5</ele><time>2026-04-23T14:56:16Z</time></trkpt><trkpt lat="45.333179444035956" lon="9.85858408947388"><ele>70.0</ele><time>2026-04-23T14:56:18Z</time></trkpt><trkpt lat="45.33324724977441" lon="9.858546192821798"><ele>69.5</ele><time>2026-04-23T14:56:19Z</time></trkpt><trkpt lat="45.33332556009898" lon="9.858517782737604"><ele>69.0</ele><time>2026-04-23T14:56:20Z</time></trkpt><trkpt lat="45.33339275389487" lon="9.858503467376414"><ele>68.5</ele><time>2026-04-23T14:56:21Z</time></trkpt><trkpt lat="45.33347117611373" lon="9.858559908126956"><ele>68.0</ele><time>2026-04-23T14:56:23Z</time></trkpt><trkpt lat="45.33348689769852" lon="9.858669927276045"><ele>68.0</ele><time>2026-04-23T14:56:25Z</time></trkpt><trkpt lat="45.333471045996625" lon="9.858758948684489"><ele>68.0</ele><time>2026-04-23T14:56:27Z</time></trkpt><trkpt lat="45.3333853779684" lon="9.858803048823146"><ele>68.0</ele><time>2026-04-23T14:56:29Z</time></trkpt><trkpt lat="45.3333246718683" lon="9.858833305427192"><ele>68.0</ele><time>2026-04-23T14:56:30Z</time></trkpt><trkpt lat="45.33326285691116" lon="9.858871364811494"><ele>68.0</ele><time>2026-04-23T14:56:31Z</time></trkpt><trkpt lat="45.333197287524925" lon="9.858911735775804"><ele>68.0</ele><time>2026-04-23T14:56:33Z</time></trkpt><trkpt lat="45.333245858620394" lon="9.859045648933511"><ele>68.0</ele><time>2026-04-23T14:56:34Z</time></trkpt><trkpt lat="45.3333067656206" lon="9.859165590408296"><ele>68.0</ele><time>2026-04-23T14:56:36Z</time></trkpt><trkpt lat="45.3333608304908" lon="9.859303756247337"><ele>68.0</ele><time>2026-04-23T14:56:38Z</time></trkpt><trkpt lat="45.333389853716554" lon="9.859393441182398"><ele>68.0</ele><time>2026-04-23T14:56:39Z</time></trkpt><trkpt lat="45.33341600232776" lon="9.859488111409732"><ele>68.0</ele><time>2026-04-23T14:56:40Z</time></trkpt><trkpt lat="45.33344215657525" lon="9.859590889020089"><ele>68.0</ele><time>2026-04-23T14:56:41Z</time></trkpt><trkpt lat="45.33346433597476" lon="9.859703080242504"><ele>68.2</ele><time>2026-04-23T14:56:42Z</time></trkpt><trkpt lat="45.33349139843324" lon="9.859829110234335"><ele>68.4</ele><time>2026-04-23T14:56:43Z</time></trkpt><trkpt lat="45.333533235980724" lon="9.859944029173924"><ele>68.60000000000001</ele><time>2026-04-23T14:56:44Z</time></trkpt><trkpt lat="45.33357476988085" lon="9.86005643941134"><ele>68.8</ele><time>2026-04-23T14:56:45Z</time></trkpt><trkpt lat="45.33359450730585" lon="9.860186124505123"><ele>69.0</ele><time>2026-04-23T14:56:46Z</time></trkpt><trkpt lat="45.33362858074735" lon="9.860314187826042"><ele>69.0</ele><time>2026-04-23T14:56:47Z</time></trkpt><trkpt lat="45.33367126294744" lon="9.860447889026341"><ele>69.0</ele><time>2026-04-23T14:56:48Z</time></trkpt><trkpt lat="45.33371754956603" lon="9.860576421703305"><ele>69.0</ele><time>2026-04-23T14:56:49Z</time></trkpt><trkpt lat="45.33376418248159" lon="9.860712925659165"><ele>69.0</ele><time>2026-04-23T14:56:50Z</time></trkpt><trkpt lat="45.333820964422245" lon="9.860826825893643"><ele>69.0</ele><time>2026-04-23T14:56:51Z</time></trkpt><trkpt lat="45.33385995505555" lon="9.860952715073271"><ele>68.66666666666667</ele><time>2026-04-23T14:56:52Z</time></trkpt><trkpt lat="45.33390109151174" lon="9.86107396727812"><ele>68.33333333333333</ele><time>2026-04-23T14:56:53Z</time></trkpt><trkpt lat="45.33394107170866" lon="9.861201436195529"><ele>68.0</ele><time>2026-04-23T14:56:54Z</time></trkpt><trkpt lat="45.33398173130814" lon="9.86130012076058"><ele>67.66666666666666</ele><time>2026-04-23T14:56:55Z</time></trkpt><trkpt lat="45.33401875467752" lon="9.861410989029265"><ele>67.33333333333333</ele><time>2026-04-23T14:56:56Z</time></trkpt><trkpt lat="45.334044650003946" lon="9.861530747636543"><ele>67.0</ele><time>2026-04-23T14:56:57Z</time></trkpt><trkpt lat="45.33409189528268" lon="9.861625032925467"><ele>67.0</ele><time>2026-04-23T14:56:58Z</time></trkpt><trkpt lat="45.33415108233745" lon="9.861676178034775"><ele>67.0</ele><time>2026-04-23T14:56:59Z</time></trkpt><trkpt lat="45.33423253212648" lon="9.861651544851657"><ele>67.0</ele><time>2026-04-23T14:57:00Z</time></trkpt><trkpt lat="45.3342954800526" lon="9.861576690207361"><ele>67.0</ele><time>2026-04-23T14:57:01Z</time></trkpt><trkpt lat="45.33436669943457" lon="9.861564360264174"><ele>67.0</ele><time>2026-04-23T14:57:02Z</time></trkpt><trkpt lat="45.33444622907698" lon="9.861519899996802"><ele>67.0</ele><time>2026-04-23T14:57:03Z</time></trkpt><trkpt lat="45.33454913532239" lon="9.861519899998036"><ele>67.0</ele><time>2026-04-23T14:57:04Z</time></trkpt><trkpt lat="45.33461836856614" lon="9.861578158833087"><ele>67.0</ele><time>2026-04-23T14:57:05Z</time></trkpt><trkpt lat="45.33463656971067" lon="9.861721296725827"><ele>67.0</ele><time>2026-04-23T14:57:06Z</time></trkpt><trkpt lat="45.33468367048145" lon="9.861890228923492"><ele>67.0</ele><time>2026-04-23T14:57:07Z</time></trkpt><trkpt lat="45.33473867296766" lon="9.862082012134923"><ele>67.0</ele><time>2026-04-23T14:57:08Z</time></trkpt><trkpt lat="45.334793594945765" lon="9.862238286415982"><ele>67.0</ele><time>2026-04-23T14:57:09Z</time></trkpt><trkpt lat="45.3348444546937" lon="9.862375076663694"><ele>67.0</ele><time>2026-04-23T14:57:10Z</time></trkpt><trkpt lat="45.334889052687174" lon="9.862510050882307"><ele>67.0</ele><time>2026-04-23T14:57:11Z</time></trkpt><trkpt lat="45.334939475359484" lon="9.86265604108919"><ele>67.0</ele><time>2026-04-23T14:57:12Z</time></trkpt><trkpt lat="45.33498670183984" lon="9.862802366314716"><ele>67.0</ele><time>2026-04-23T14:57:13Z</time></trkpt><trkpt lat="45.33501685578829" lon="9.862947239805711"><ele>67.0</ele><time>2026-04-23T14:57:14Z</time></trkpt><trkpt lat="45.33505351035079" lon="9.863068473017082"><ele>67.0</ele><time>2026-04-23T14:57:15Z</time></trkpt><trkpt lat="45.3350856450836" lon="9.863189533344245"><ele>67.0</ele><time>2026-04-23T14:57:16Z</time></trkpt><trkpt lat="45.33512115577824" lon="9.863320015748664"><ele>67.0</ele><time>2026-04-23T14:57:17Z</time></trkpt><trkpt lat="45.335165769776495" lon="9.863458418876895"><ele>67.0</ele><time>2026-04-23T14:57:18Z</time></trkpt><trkpt lat="45.33521905868884" lon="9.863615444142273"><ele>67.0</ele><time>2026-04-23T14:57:19Z</time></trkpt><trkpt lat="45.33527469181383" lon="9.863772006135854"><ele>67.0</ele><time>2026-04-23T14:57:20Z</time></trkpt><trkpt lat="45.33532829237267" lon="9.863928923112192"><ele>67.0</ele><time>2026-04-23T14:57:21Z</time></trkpt><trkpt lat="45.33537820748179" lon="9.864085156083249"><ele>67.0</ele><time>2026-04-23T14:57:22Z</time></trkpt><trkpt lat="45.3354393719903" lon="9.864233097677548"><ele>67.0</ele><time>2026-04-23T14:57:23Z</time></trkpt><trkpt lat="45.33549270636396" lon="9.86438531058704"><ele>67.0</ele><time>2026-04-23T14:57:24Z</time></trkpt><trkpt lat="45.33552853411194" lon="9.864543183946562"><ele>67.0</ele><time>2026-04-23T14:57:25Z</time></trkpt><trkpt lat="45.33557823660971" lon="9.864692158812717"><ele>67.0</ele><time>2026-04-23T14:57:26Z</time></trkpt><trkpt lat="45.33562747147499" lon="9.864839732025063"><ele>67.0</ele><time>2026-04-23T14:57:27Z</time></trkpt><trkpt lat="45.33567730734634" lon="9.864995951471805"><ele>67.0</ele><time>2026-04-23T14:57:28Z</time></trkpt><trkpt lat="45.33572646185639" lon="9.865161658989141"><ele>66.75</ele><time>2026-04-23T14:57:29Z</time></trkpt><trkpt lat="45.335780482731614" lon="9.865333920103335"><ele>66.5</ele><time>2026-04-23T14:57:30Z</time></trkpt><trkpt lat="45.33583539381899" lon="9.865500725262212"><ele>66.25</ele><time>2026-04-23T14:57:31Z</time></trkpt><trkpt lat="45.33588870629009" lon="9.865664466937623"><ele>66.0</ele><time>2026-04-23T14:57:32Z</time></trkpt><trkpt lat="45.33595434979862" lon="9.865813249370765"><ele>66.0</ele><time>2026-04-23T14:57:33Z</time></trkpt><trkpt lat="45.33600356978924" lon="9.865972406665197"><ele>66.0</ele><time>2026-04-23T14:57:34Z</time></trkpt><trkpt lat="45.33603204109787" lon="9.866125936275623"><ele>66.0</ele><time>2026-04-23T14:57:35Z</time></trkpt><trkpt lat="45.33606716192962" lon="9.866244763506492"><ele>66.0</ele><time>2026-04-23T14:57:36Z</time></trkpt><trkpt lat="45.33609669082746" lon="9.866340882147638"><ele>66.0</ele><time>2026-04-23T14:57:37Z</time></trkpt><trkpt lat="45.33613022861502" lon="9.866446077194842"><ele>66.0</ele><time>2026-04-23T14:57:38Z</time></trkpt><trkpt lat="45.33617605648192" lon="9.866551716351628"><ele>66.0</ele><time>2026-04-23T14:57:39Z</time></trkpt><trkpt lat="45.33621880082694" lon="9.866668440859243"><ele>66.0</ele><time>2026-04-23T14:57:40Z</time></trkpt><trkpt lat="45.33625841811978" lon="9.866794461071395"><ele>66.0</ele><time>2026-04-23T14:57:41Z</time></trkpt><trkpt lat="45.33629717573957" lon="9.86692156289062"><ele>66.0</ele><time>2026-04-23T14:57:42Z</time></trkpt><trkpt lat="45.336331038200946" lon="9.8670240987002"><ele>66.0</ele><time>2026-04-23T14:57:43Z</time></trkpt><trkpt lat="45.33636147293564" lon="9.867108065213975"><ele>66.0</ele><time>2026-04-23T14:57:44Z</time></trkpt><trkpt lat="45.33639092829951" lon="9.867234611520058"><ele>66.0</ele><time>2026-04-23T14:57:46Z</time></trkpt><trkpt lat="45.3364361243315" lon="9.867372863778328"><ele>66.0</ele><time>2026-04-23T14:57:48Z</time></trkpt><trkpt lat="45.336464082552126" lon="9.867541909507608"><ele>66.0</ele><time>2026-04-23T14:57:50Z</time></trkpt><trkpt lat="45.3364753076593" lon="9.867644757126444"><ele>65.5</ele><time>2026-04-23T14:57:51Z</time></trkpt><trkpt lat="45.33649138982716" lon="9.86776012553112"><ele>65.0</ele><time>2026-04-23T14:57:52Z</time></trkpt><trkpt lat="45.336520823248044" lon="9.867874565642053"><ele>64.5</ele><time>2026-04-23T14:57:53Z</time></trkpt><trkpt lat="45.33657054794099" lon="9.867979243193023"><ele>64.0</ele><time>2026-04-23T14:57:54Z</time></trkpt><trkpt lat="45.33660443021376" lon="9.868104591194069"><ele>63.5</ele><time>2026-04-23T14:57:55Z</time></trkpt><trkpt lat="45.336634149759675" lon="9.86823702861094"><ele>63.0</ele><time>2026-04-23T14:57:56Z</time></trkpt><trkpt lat="45.33666100155109" lon="9.868377878391144"><ele>63.2</ele><time>2026-04-23T14:57:57Z</time></trkpt><trkpt lat="45.33666988662825" lon="9.86852875304161"><ele>63.4</ele><time>2026-04-23T14:57:58Z</time></trkpt><trkpt lat="45.33671156593472" lon="9.868670878290686"><ele>63.60000000000001</ele><time>2026-04-23T14:57:59Z</time></trkpt><trkpt lat="45.336735419559936" lon="9.868816513222894"><ele>63.800000000000004</ele><time>2026-04-23T14:58:00Z</time></trkpt><trkpt lat="45.33676153566025" lon="9.868961124352166"><ele>64.0</ele><time>2026-04-23T14:58:01Z</time></trkpt><trkpt lat="45.33677317604188" lon="9.869111411951183"><ele>64.0</ele><time>2026-04-23T14:58:02Z</time></trkpt><trkpt lat="45.336814511688125" lon="9.869253998689684"><ele>64.0</ele><time>2026-04-23T14:58:03Z</time></trkpt><trkpt lat="45.33684073072413" lon="9.869402894733216"><ele>64.0</ele><time>2026-04-23T14:58:04Z</time></trkpt><trkpt lat="45.33686761924867" lon="9.869554799971265"><ele>64.0</ele><time>2026-04-23T14:58:05Z</time></trkpt><trkpt lat="45.33689428013852" lon="9.86970409390418"><ele>64.0</ele><time>2026-04-23T14:58:06Z</time></trkpt><trkpt lat="45.33690254563018" lon="9.869863009759548"><ele>64.2</ele><time>2026-04-23T14:58:07Z</time></trkpt><trkpt lat="45.33692268937414" lon="9.870006137945982"><ele>64.4</ele><time>2026-04-23T14:58:08Z</time></trkpt><trkpt lat="45.33694190799694" lon="9.870143725011062"><ele>64.6</ele><time>2026-04-23T14:58:09Z</time></trkpt><trkpt lat="45.33695974947269" lon="9.870271453013146"><ele>64.8</ele><time>2026-04-23T14:58:10Z</time></trkpt><trkpt lat="45.336978660082224" lon="9.870395647661377"><ele>65.0</ele><time>2026-04-23T14:58:11Z</time></trkpt><trkpt lat="45.33699179273658" lon="9.870514695594414"><ele>65.0</ele><time>2026-04-23T14:58:12Z</time></trkpt><trkpt lat="45.336996924617374" lon="9.870636860860422"><ele>65.0</ele><time>2026-04-23T14:58:13Z</time></trkpt><trkpt lat="45.336980337790294" lon="9.870759430133035"><ele>65.0</ele><time>2026-04-23T14:58:14Z</time></trkpt><trkpt lat="45.336952732096734" lon="9.870867922735435"><ele>65.0</ele><time>2026-04-23T14:58:15Z</time></trkpt><trkpt lat="45.33689415627961" lon="9.87096391419221"><ele>65.0</ele><time>2026-04-23T14:58:16Z</time></trkpt><trkpt lat="45.33685147529749" lon="9.871077322162305"><ele>65.0</ele><time>2026-04-23T14:58:17Z</time></trkpt><trkpt lat="45.336818006532454" lon="9.871208752151839"><ele>65.0</ele><time>2026-04-23T14:58:18Z</time></trkpt><trkpt lat="45.336794189464754" lon="9.871351395584185"><ele>65.0</ele><time>2026-04-23T14:58:19Z</time></trkpt><trkpt lat="45.336774535651365" lon="9.871503824311118"><ele>65.0</ele><time>2026-04-23T14:58:20Z</time></trkpt><trkpt lat="45.33675997018888" lon="9.871640977476359"><ele>65.0</ele><time>2026-04-23T14:58:21Z</time></trkpt><trkpt lat="45.33674700274257" lon="9.871776397816557"><ele>65.0</ele><time>2026-04-23T14:58:22Z</time></trkpt><trkpt lat="45.3367449099514" lon="9.871917730596182"><ele>65.4</ele><time>2026-04-23T14:58:23Z</time></trkpt><trkpt lat="45.33671754217737" lon="9.87205855993783"><ele>65.8</ele><time>2026-04-23T14:58:24Z</time></trkpt><trkpt lat="45.33669250564308" lon="9.872205422020219"><ele>66.2</ele><time>2026-04-23T14:58:25Z</time></trkpt><trkpt lat="45.33666425977391" lon="9.872356689470745"><ele>66.6</ele><time>2026-04-23T14:58:26Z</time></trkpt><trkpt lat="45.33664732611673" lon="9.872495948087243"><ele>67.0</ele><time>2026-04-23T14:58:27Z</time></trkpt><trkpt lat="45.336587371753694" lon="9.87260485911074"><ele>66.8</ele><time>2026-04-23T14:58:28Z</time></trkpt><trkpt lat="45.336527779307154" lon="9.872705871032522"><ele>66.6</ele><time>2026-04-23T14:58:29Z</time></trkpt><trkpt lat="45.33645911069204" lon="9.872800137371303"><ele>66.39999999999999</ele><time>2026-04-23T14:58:30Z</time></trkpt><trkpt lat="45.33638056669091" lon="9.872888867892128"><ele>66.2</ele><time>2026-04-23T14:58:31Z</time></trkpt><trkpt lat="45.33630102948119" lon="9.872984684390122"><ele>66.0</ele><time>2026-04-23T14:58:32Z</time></trkpt><trkpt lat="45.33622861729234" lon="9.873094602734067"><ele>66.2</ele><time>2026-04-23T14:58:33Z</time></trkpt><trkpt lat="45.33617915894758" lon="9.873223554978013"><ele>66.39999999999999</ele><time>2026-04-23T14:58:34Z</time></trkpt><trkpt lat="45.336147298218485" lon="9.87337169581909"><ele>66.6</ele><time>2026-04-23T14:58:35Z</time></trkpt><trkpt lat="45.336114281583804" lon="9.873515500326757"><ele>66.8</ele><time>2026-04-23T14:58:36Z</time></trkpt><trkpt lat="45.3361184078305" lon="9.873672859471016"><ele>67.0</ele><time>2026-04-23T14:58:37Z</time></trkpt><trkpt lat="45.3361162565315" lon="9.8738284006347"><ele>67.0</ele><time>2026-04-23T14:58:38Z</time></trkpt><trkpt lat="45.33612091610335" lon="9.873993361109427"><ele>67.0</ele><time>2026-04-23T14:58:39Z</time></trkpt><trkpt lat="45.3361111282492" lon="9.87415595202936"><ele>67.0</ele><time>2026-04-23T14:58:40Z</time></trkpt><trkpt lat="45.336113463782105" lon="9.874297190244391"><ele>67.0</ele><time>2026-04-23T14:58:41Z</time></trkpt><trkpt lat="45.336129647231665" lon="9.874419518180435"><ele>67.0</ele><time>2026-04-23T14:58:42Z</time></trkpt><trkpt lat="45.33613010956677" lon="9.87452022128489"><ele>67.0</ele><time>2026-04-23T14:58:43Z</time></trkpt><trkpt lat="45.33613033928079" lon="9.874615185688125"><ele>67.0</ele><time>2026-04-23T14:58:44Z</time></trkpt><trkpt lat="45.33613316748714" lon="9.874714328105954"><ele>67.0</ele><time>2026-04-23T14:58:45Z</time></trkpt><trkpt lat="45.336141387778135" lon="9.874808276231727"><ele>67.0</ele><time>2026-04-23T14:58:46Z</time></trkpt><trkpt lat="45.33613257298852" lon="9.874902945953416"><ele>67.0</ele><time>2026-04-23T14:58:47Z</time></trkpt><trkpt lat="45.33614499224324" lon="9.87503115358898"><ele>67.0</ele><time>2026-04-23T14:58:49Z</time></trkpt><trkpt lat="45.336144797320465" lon="9.875154156336391"><ele>67.0</ele><time>2026-04-23T14:58:54Z</time></trkpt><trkpt lat="45.33626309851696" lon="9.87515543903411"><ele>67.0</ele><time>2026-04-23T14:58:55Z</time></trkpt><trkpt lat="45.33634243524196" lon="9.87513187926547"><ele>67.0</ele><time>2026-04-23T14:58:56Z</time></trkpt><trkpt lat="45.336423184905605" lon="9.875117138018403"><ele>67.0</ele><time>2026-04-23T14:58:57Z</time></trkpt><trkpt lat="45.33650594180427" lon="9.875105654039059"><ele>67.0</ele><time>2026-04-23T14:58:58Z</time></trkpt><trkpt lat="45.33657254359488" lon="9.875105337041763"><ele>67.0</ele><time>2026-04-23T14:58:59Z</time></trkpt><trkpt lat="45.33663234248212" lon="9.875178286233721"><ele>67.0</ele><time>2026-04-23T14:59:01Z</time></trkpt><trkpt lat="45.33660087943614" lon="9.875285990310847"><ele>66.83333333333333</ele><time>2026-04-23T14:59:02Z</time></trkpt><trkpt lat="45.33658928161478" lon="9.875406673610009"><ele>66.66666666666666</ele><time>2026-04-23T14:59:03Z</time></trkpt><trkpt lat="45.33655291533333" lon="9.875518987158047"><ele>66.5</ele><time>2026-04-23T14:59:04Z</time></trkpt><trkpt lat="45.33653747902415" lon="9.875620045171702"><ele>66.33333333333333</ele><time>2026-04-23T14:59:05Z</time></trkpt><trkpt lat="45.33650960791392" lon="9.875763085086946"><ele>66.16666666666667</ele><time>2026-04-23T14:59:07Z</time></trkpt><trkpt lat="45.336489819792114" lon="9.875849616475525"><ele>66.0</ele><time>2026-04-23T14:59:08Z</time></trkpt><trkpt lat="45.3364579505345" lon="9.876015822134624"><ele>66.0</ele><time>2026-04-23T14:59:10Z</time></trkpt><trkpt lat="45.336443027449846" lon="9.87612591566875"><ele>66.0</ele><time>2026-04-23T14:59:11Z</time></trkpt><trkpt lat="45.336420197449925" lon="9.876241054130762"><ele>66.0</ele><time>2026-04-23T14:59:12Z</time></trkpt><trkpt lat="45.3363926571983" lon="9.87635293065266"><ele>66.0</ele><time>2026-04-23T14:59:13Z</time></trkpt><trkpt lat="45.336367149396914" lon="9.876465305197545"><ele>66.0</ele><time>2026-04-23T14:59:14Z</time></trkpt><trkpt lat="45.33633351256916" lon="9.87656065581638"><ele>66.0</ele><time>2026-04-23T14:59:15Z</time></trkpt><trkpt lat="45.33632753845015" lon="9.876654398617667"><ele>66.0</ele><time>2026-04-23T14:59:16Z</time></trkpt><trkpt lat="45.336304626433616" lon="9.876766101082449"><ele>66.0</ele><time>2026-04-23T14:59:17Z</time></trkpt><trkpt lat="45.33626531000801" lon="9.876858287935594"><ele>66.0</ele><time>2026-04-23T14:59:18Z</time></trkpt><trkpt lat="45.336244397606976" lon="9.876944726327167"><ele>66.0</ele><time>2026-04-23T14:59:19Z</time></trkpt><trkpt lat="45.33620096926443" lon="9.877084024466482"><ele>66.0</ele><time>2026-04-23T14:59:21Z</time></trkpt><trkpt lat="45.336255864988075" lon="9.877198596390334"><ele>66.0</ele><time>2026-04-23T14:59:23Z</time></trkpt><trkpt lat="45.336321010887225" lon="9.877232617780903"><ele>66.0</ele><time>2026-04-23T14:59:24Z</time></trkpt><trkpt lat="45.33639988270495" lon="9.877230026499431"><ele>66.0</ele><time>2026-04-23T14:59:25Z</time></trkpt><trkpt lat="45.336476183482674" lon="9.877256387022122"><ele>66.0</ele><time>2026-04-23T14:59:26Z</time></trkpt><trkpt lat="45.33656000962848" lon="9.877248036989755"><ele>66.0</ele><time>2026-04-23T14:59:27Z</time></trkpt><trkpt lat="45.336647113253036" lon="9.877285521018768"><ele>66.0</ele><time>2026-04-23T14:59:28Z</time></trkpt><trkpt lat="45.336732699147575" lon="9.877330286740769"><ele>66.0</ele><time>2026-04-23T14:59:29Z</time></trkpt><trkpt lat="45.33680445284275" lon="9.877380626038459"><ele>66.0</ele><time>2026-04-23T14:59:30Z</time></trkpt><trkpt lat="45.336876546882166" lon="9.877434849281938"><ele>66.0</ele><time>2026-04-23T14:59:31Z</time></trkpt><trkpt lat="45.33694363475349" lon="9.87748719223063"><ele>66.0</ele><time>2026-04-23T14:59:32Z</time></trkpt><trkpt lat="45.33701701251485" lon="9.877526564243992"><ele>66.0</ele><time>2026-04-23T14:59:33Z</time></trkpt><trkpt lat="45.33711510037537" lon="9.877584161049475"><ele>66.0</ele><time>2026-04-23T14:59:34Z</time></trkpt><trkpt lat="45.337210611138836" lon="9.87764662296479"><ele>66.0</ele><time>2026-04-23T14:59:35Z</time></trkpt><trkpt lat="45.337313689036954" lon="9.877714204730905"><ele>65.39999999999999</ele><time>2026-04-23T14:59:36Z</time></trkpt><trkpt lat="45.3374159297506" lon="9.877762959670708"><ele>64.8</ele><time>2026-04-23T14:59:37Z</time></trkpt><trkpt lat="45.337509036362164" lon="9.877802936570516"><ele>64.19999999999999</ele><time>2026-04-23T14:59:38Z</time></trkpt><trkpt lat="45.337595973934654" lon="9.877836810776843"><ele>63.599999999999994</ele><time>2026-04-23T14:59:39Z</time></trkpt><trkpt lat="45.337682225120126" lon="9.877868145831403"><ele>63.0</ele><time>2026-04-23T14:59:40Z</time></trkpt><trkpt lat="45.33777213503253" lon="9.87789626291635"><ele>63.0</ele><time>2026-04-23T14:59:41Z</time></trkpt><trkpt lat="45.33786289697575" lon="9.877919055765135"><ele>63.0</ele><time>2026-04-23T14:59:42Z</time></trkpt><trkpt lat="45.33794826731807" lon="9.877922105348969"><ele>63.0</ele><time>2026-04-23T14:59:43Z</time></trkpt><trkpt lat="45.33806631501178" lon="9.877901299157234"><ele>63.0</ele><time>2026-04-23T14:59:45Z</time></trkpt><trkpt lat="45.338149408469974" lon="9.877851429933"><ele>63.0</ele><time>2026-04-23T14:59:47Z</time></trkpt><trkpt lat="45.33823430648008" lon="9.87804063223744"><ele>62.8</ele><time>2026-04-23T14:59:49Z</time></trkpt><trkpt lat="45.338228634284725" lon="9.8781616151775"><ele>62.599999999999994</ele><time>2026-04-23T14:59:50Z</time></trkpt><trkpt lat="45.33823339337924" lon="9.87828145017567"><ele>62.400000000000006</ele><time>2026-04-23T14:59:51Z</time></trkpt><trkpt lat="45.338240592537616" lon="9.878425755116124"><ele>62.2</ele><time>2026-04-23T14:59:52Z</time></trkpt><trkpt lat="45.338258498387006" lon="9.87857922059228"><ele>62.0</ele><time>2026-04-23T14:59:53Z</time></trkpt><trkpt lat="45.338265231143176" lon="9.878734987518055"><ele>61.2</ele><time>2026-04-23T14:59:54Z</time></trkpt><trkpt lat="45.33827115936407" lon="9.878884343550036"><ele>60.400000000000006</ele><time>2026-04-23T14:59:55Z</time></trkpt><trkpt lat="45.338279673964664" lon="9.879036870133637"><ele>59.599999999999994</ele><time>2026-04-23T14:59:56Z</time></trkpt><trkpt lat="45.33828262525307" lon="9.879188853746825"><ele>58.8</ele><time>2026-04-23T14:59:57Z</time></trkpt><trkpt lat="45.33828904776716" lon="9.879349469788087"><ele>58.0</ele><time>2026-04-23T14:59:58Z</time></trkpt><trkpt lat="45.338295484357175" lon="9.879517614762873"><ele>58.0</ele><time>2026-04-23T14:59:59Z</time></trkpt><trkpt lat="45.33830133937725" lon="9.879693462232806"><ele>58.0</ele><time>2026-04-23T15:00:00Z</time></trkpt><trkpt lat="45.33830582527914" lon="9.87987201185847"><ele>58.0</ele><time>2026-04-23T15:00:01Z</time></trkpt><trkpt lat="45.33831231004944" lon="9.880049818422156"><ele>58.0</ele><time>2026-04-23T15:00:02Z</time></trkpt><trkpt lat="45.33832413784016" lon="9.88022217502374"><ele>58.0</ele><time>2026-04-23T15:00:03Z</time></trkpt><trkpt lat="45.33833994504976" lon="9.88039567843194"><ele>58.0</ele><time>2026-04-23T15:00:04Z</time></trkpt><trkpt lat="45.33835007252035" lon="9.88057334208158"><ele>58.0</ele><time>2026-04-23T15:00:05Z</time></trkpt><trkpt lat="45.338358073575215" lon="9.88075105447212"><ele>58.0</ele><time>2026-04-23T15:00:06Z</time></trkpt><trkpt lat="45.33836525604877" lon="9.880926352306938"><ele>58.25</ele><time>2026-04-23T15:00:07Z</time></trkpt><trkpt lat="45.33837367985982" lon="9.881097181640728"><ele>58.5</ele><time>2026-04-23T15:00:08Z</time></trkpt><trkpt lat="45.338380478609935" lon="9.881253635933286"><ele>58.75</ele><time>2026-04-23T15:00:09Z</time></trkpt><trkpt lat="45.33838275843038" lon="9.881405872847623"><ele>59.0</ele><time>2026-04-23T15:00:10Z</time></trkpt><trkpt lat="45.338392166370774" lon="9.88156597327554"><ele>59.0</ele><time>2026-04-23T15:00:11Z</time></trkpt><trkpt lat="45.33839615867714" lon="9.881734981770952"><ele>59.0</ele><time>2026-04-23T15:00:12Z</time></trkpt><trkpt lat="45.33842034672138" lon="9.881907938369114"><ele>59.0</ele><time>2026-04-23T15:00:13Z</time></trkpt><trkpt lat="45.33843006136988" lon="9.882082593477817"><ele>59.0</ele><time>2026-04-23T15:00:14Z</time></trkpt><trkpt lat="45.338435178700145" lon="9.882259190053833"><ele>58.5</ele><time>2026-04-23T15:00:15Z</time></trkpt><trkpt lat="45.33844500272396" lon="9.88243762472025"><ele>58.0</ele><time>2026-04-23T15:00:16Z</time></trkpt><trkpt lat="45.33845072269636" lon="9.88261692227904"><ele>57.5</ele><time>2026-04-23T15:00:17Z</time></trkpt><trkpt lat="45.3384605130668" lon="9.882797016239635"><ele>57.0</ele><time>2026-04-23T15:00:18Z</time></trkpt><trkpt lat="45.33844774377097" lon="9.88297751100626"><ele>56.75</ele><time>2026-04-23T15:00:19Z</time></trkpt><trkpt lat="45.33845372878237" lon="9.883157868098483"><ele>56.5</ele><time>2026-04-23T15:00:20Z</time></trkpt><trkpt lat="45.338463163332186" lon="9.8833393620476"><ele>56.25</ele><time>2026-04-23T15:00:21Z</time></trkpt><trkpt lat="45.3384758538984" lon="9.883518597556545"><ele>56.0</ele><time>2026-04-23T15:00:22Z</time></trkpt><trkpt lat="45.338501343669755" lon="9.883697748988816"><ele>56.0</ele><time>2026-04-23T15:00:23Z</time></trkpt><trkpt lat="45.33850848656547" lon="9.883870120407604"><ele>56.0</ele><time>2026-04-23T15:00:24Z</time></trkpt><trkpt lat="45.33851652955035" lon="9.884031027626847"><ele>56.0</ele><time>2026-04-23T15:00:25Z</time></trkpt><trkpt lat="45.33851523426978" lon="9.884182169783458"><ele>56.0</ele><time>2026-04-23T15:00:26Z</time></trkpt><trkpt lat="45.338502357737376" lon="9.88434265827137"><ele>56.25</ele><time>2026-04-23T15:00:27Z</time></trkpt><trkpt lat="45.33850746934214" lon="9.884511249442767"><ele>56.5</ele><time>2026-04-23T15:00:28Z</time></trkpt><trkpt lat="45.33852827795241" lon="9.88467906897979"><ele>56.75</ele><time>2026-04-23T15:00:29Z</time></trkpt><trkpt lat="45.33854616157249" lon="9.884854992400843"><ele>57.0</ele><time>2026-04-23T15:00:30Z</time></trkpt><trkpt lat="45.33856644648383" lon="9.885030848719214"><ele>56.5</ele><time>2026-04-23T15:00:31Z</time></trkpt><trkpt lat="45.338544099593" lon="9.885213625575933"><ele>56.0</ele><time>2026-04-23T15:00:32Z</time></trkpt><trkpt lat="45.338564468881884" lon="9.885398342602404"><ele>55.5</ele><time>2026-04-23T15:00:33Z</time></trkpt><trkpt lat="45.33857823878745" lon="9.885591354615354"><ele>55.0</ele><time>2026-04-23T15:00:34Z</time></trkpt><trkpt lat="45.33859457276084" lon="9.885783968507885"><ele>55.25</ele><time>2026-04-23T15:00:35Z</time></trkpt><trkpt lat="45.33860087323306" lon="9.88596302170645"><ele>55.5</ele><time>2026-04-23T15:00:36Z</time></trkpt><trkpt lat="45.33859711817282" lon="9.886139507440474"><ele>55.75</ele><time>2026-04-23T15:00:37Z</time></trkpt><trkpt lat="45.33859780072875" lon="9.886320721986202"><ele>56.0</ele><time>2026-04-23T15:00:38Z</time></trkpt><trkpt lat="45.33858998044849" lon="9.886508414326421"><ele>56.0</ele><time>2026-04-23T15:00:39Z</time></trkpt><trkpt lat="45.33859984929465" lon="9.886694513551063"><ele>56.0</ele><time>2026-04-23T15:00:40Z</time></trkpt><trkpt lat="45.33861020452962" lon="9.886874330801179"><ele>56.0</ele><time>2026-04-23T15:00:41Z</time></trkpt><trkpt lat="45.33861991588922" lon="9.887053002622046"><ele>56.0</ele><time>2026-04-23T15:00:42Z</time></trkpt><trkpt lat="45.33862670475856" lon="9.887232379541201"><ele>55.75</ele><time>2026-04-23T15:00:43Z</time></trkpt><trkpt lat="45.338633494072866" lon="9.887412356633067"><ele>55.5</ele><time>2026-04-23T15:00:44Z</time></trkpt><trkpt lat="45.33864212992954" lon="9.887600359082404"><ele>55.25</ele><time>2026-04-23T15:00:45Z</time></trkpt><trkpt lat="45.338650772483916" lon="9.887784612782239"><ele>55.0</ele><time>2026-04-23T15:00:46Z</time></trkpt><trkpt lat="45.33866074810132" lon="9.88796414350961"><ele>55.0</ele><time>2026-04-23T15:00:47Z</time></trkpt><trkpt lat="45.33867721537291" lon="9.888133723090075"><ele>55.0</ele><time>2026-04-23T15:00:48Z</time></trkpt><trkpt lat="45.33870922829542" lon="9.888292799669749"><ele>55.0</ele><time>2026-04-23T15:00:49Z</time></trkpt><trkpt lat="45.33868724730249" lon="9.888449630411912"><ele>55.0</ele><time>2026-04-23T15:00:50Z</time></trkpt><trkpt lat="45.338681021386776" lon="9.888626062418549"><ele>55.0</ele><time>2026-04-23T15:00:51Z</time></trkpt><trkpt lat="45.338705319526916" lon="9.888804676645332"><ele>55.0</ele><time>2026-04-23T15:00:52Z</time></trkpt><trkpt lat="45.33872453157407" lon="9.88899884072045"><ele>55.0</ele><time>2026-04-23T15:00:53Z</time></trkpt><trkpt lat="45.3387258626719" lon="9.889178926189725"><ele>55.0</ele><time>2026-04-23T15:00:54Z</time></trkpt><trkpt lat="45.33873428050605" lon="9.889350639214031"><ele>54.75</ele><time>2026-04-23T15:00:55Z</time></trkpt><trkpt lat="45.33874266984522" lon="9.889521770910225"><ele>54.5</ele><time>2026-04-23T15:00:56Z</time></trkpt><trkpt lat="45.338751049684205" lon="9.889692708852975"><ele>54.25</ele><time>2026-04-23T15:00:57Z</time></trkpt><trkpt lat="45.33875759782593" lon="9.889866003370217"><ele>54.0</ele><time>2026-04-23T15:00:58Z</time></trkpt><trkpt lat="45.3387636490144" lon="9.890040414946501"><ele>54.0</ele><time>2026-04-23T15:00:59Z</time></trkpt><trkpt lat="45.33876983675126" lon="9.890210629086065"><ele>54.0</ele><time>2026-04-23T15:01:00Z</time></trkpt><trkpt lat="45.33877859855096" lon="9.890378628299137"><ele>54.0</ele><time>2026-04-23T15:01:01Z</time></trkpt><trkpt lat="45.33880055793216" lon="9.890534539962115"><ele>54.0</ele><time>2026-04-23T15:01:02Z</time></trkpt><trkpt lat="45.338803511391326" lon="9.890691211737028"><ele>54.0</ele><time>2026-04-23T15:01:03Z</time></trkpt><trkpt lat="45.33881208777221" lon="9.89085144608343"><ele>54.00000000000001</ele><time>2026-04-23T15:01:04Z</time></trkpt><trkpt lat="45.33881239886287" lon="9.891007151868942"><ele>54.00000000000001</ele><time>2026-04-23T15:01:05Z</time></trkpt><trkpt lat="45.33880845623731" lon="9.891163797695212"><ele>54.0</ele><time>2026-04-23T15:01:06Z</time></trkpt><trkpt lat="45.33881922070306" lon="9.89131798007458"><ele>54.0</ele><time>2026-04-23T15:01:07Z</time></trkpt><trkpt lat="45.33883853992287" lon="9.891478179412866"><ele>54.0</ele><time>2026-04-23T15:01:08Z</time></trkpt><trkpt lat="45.338837524263944" lon="9.891638265899404"><ele>54.00000000000001</ele><time>2026-04-23T15:01:09Z</time></trkpt><trkpt lat="45.33885243855702" lon="9.891792478350133"><ele>54.00000000000001</ele><time>2026-04-23T15:01:10Z</time></trkpt><trkpt lat="45.33887813471227" lon="9.89194416438917"><ele>54.0</ele><time>2026-04-23T15:01:11Z</time></trkpt><trkpt lat="45.3388698246184" lon="9.892106192254174"><ele>54.0</ele><time>2026-04-23T15:01:12Z</time></trkpt><trkpt lat="45.33889423559059" lon="9.892262279281395"><ele>53.800000000000004</ele><time>2026-04-23T15:01:13Z</time></trkpt><trkpt lat="45.338900904609694" lon="9.892419628229755"><ele>53.60000000000001</ele><time>2026-04-23T15:01:14Z</time></trkpt><trkpt lat="45.33890846121895" lon="9.892576312986261"><ele>53.4</ele><time>2026-04-23T15:01:15Z</time></trkpt><trkpt lat="45.338917659838046" lon="9.89273536335181"><ele>53.2</ele><time>2026-04-23T15:01:16Z</time></trkpt><trkpt lat="45.338908176886775" lon="9.892894055851372"><ele>53.0</ele><time>2026-04-23T15:01:17Z</time></trkpt><trkpt lat="45.33891469759535" lon="9.893045785832676"><ele>53.0</ele><time>2026-04-23T15:01:18Z</time></trkpt><trkpt lat="45.33892136110175" lon="9.893200838561816"><ele>53.0</ele><time>2026-04-23T15:01:19Z</time></trkpt><trkpt lat="45.338927882814524" lon="9.89335259192485"><ele>53.0</ele><time>2026-04-23T15:01:20Z</time></trkpt><trkpt lat="45.3389342335579" lon="9.893500366987642"><ele>53.0</ele><time>2026-04-23T15:01:21Z</time></trkpt><trkpt lat="45.33894063142052" lon="9.89364923844264"><ele>53.0</ele><time>2026-04-23T15:01:22Z</time></trkpt><trkpt lat="45.33896268091287" lon="9.893800302617857"><ele>53.2</ele><time>2026-04-23T15:01:23Z</time></trkpt><trkpt lat="45.33897042366406" lon="9.893957210449866"><ele>53.4</ele><time>2026-04-23T15:01:24Z</time></trkpt><trkpt lat="45.338960525072935" lon="9.894117693294753"><ele>53.60000000000001</ele><time>2026-04-23T15:01:25Z</time></trkpt><trkpt lat="45.33896699580465" lon="9.894277146870177"><ele>53.800000000000004</ele><time>2026-04-23T15:01:26Z</time></trkpt><trkpt lat="45.338972569433786" lon="9.894438308353054"><ele>54.0</ele><time>2026-04-23T15:01:27Z</time></trkpt><trkpt lat="45.338977807397775" lon="9.894600268108515"><ele>54.2</ele><time>2026-04-23T15:01:28Z</time></trkpt><trkpt lat="45.33898273516482" lon="9.894752636417303"><ele>54.400000000000006</ele><time>2026-04-23T15:01:29Z</time></trkpt><trkpt lat="45.33898711066467" lon="9.89488792841848"><ele>54.6</ele><time>2026-04-23T15:01:30Z</time></trkpt><trkpt lat="45.33900309866927" lon="9.895015551231348"><ele>54.8</ele><time>2026-04-23T15:01:31Z</time></trkpt><trkpt lat="45.339000206855545" lon="9.8951589364696"><ele>55.0</ele><time>2026-04-23T15:01:32Z</time></trkpt><trkpt lat="45.33900906992858" lon="9.895303135782488"><ele>55.0</ele><time>2026-04-23T15:01:33Z</time></trkpt><trkpt lat="45.33902351428393" lon="9.895441317035628"><ele>55.0</ele><time>2026-04-23T15:01:34Z</time></trkpt><trkpt lat="45.339012452500185" lon="9.895567467613002"><ele>55.0</ele><time>2026-04-23T15:01:35Z</time></trkpt><trkpt lat="45.339017048171506" lon="9.895686683211903"><ele>55.0</ele><time>2026-04-23T15:01:36Z</time></trkpt><trkpt lat="45.339036874162886" lon="9.895788388650043"><ele>55.0</ele><time>2026-04-23T15:01:37Z</time></trkpt><trkpt lat="45.33903204144591" lon="9.895936958370328"><ele>55.0</ele><time>2026-04-23T15:01:39Z</time></trkpt><trkpt lat="45.33917771839057" lon="9.896005845021586"><ele>55.0</ele><time>2026-04-23T15:01:43Z</time></trkpt><trkpt lat="45.3392426660292" lon="9.895988302239198"><ele>55.0</ele><time>2026-04-23T15:01:44Z</time></trkpt><trkpt lat="45.339345626023444" lon="9.895934182281175"><ele>55.0</ele><time>2026-04-23T15:01:46Z</time></trkpt><trkpt lat="45.339457946030684" lon="9.895916165253412"><ele>55.0</ele><time>2026-04-23T15:03:29Z</time></trkpt><trkpt lat="45.339531836606916" lon="9.895922311567197"><ele>54.99999999999999</ele><time>2026-04-23T15:03:42Z</time></trkpt><trkpt lat="45.33960682183073" lon="9.895937818672307"><ele>55.0</ele><time>2026-04-23T15:03:44Z</time></trkpt><trkpt lat="45.33968546833068" lon="9.895946892640213"><ele>55.0</ele><time>2026-04-23T15:03:46Z</time></trkpt><trkpt lat="45.33975218582442" lon="9.89592859166178"><ele>55.0</ele><time>2026-04-23T15:03:48Z</time></trkpt><trkpt lat="45.339817728814644" lon="9.895885335295937"><ele>54.99999999999999</ele><time>2026-04-23T15:03:50Z</time></trkpt><trkpt lat="45.339902226481556" lon="9.89583324867246"><ele>55.0</ele><time>2026-04-23T15:03:53Z</time></trkpt><trkpt lat="45.339966306475205" lon="9.895766147218954"><ele>55.0</ele><time>2026-04-23T15:03:55Z</time></trkpt><trkpt lat="45.34003019527662" lon="9.895674113826102"><ele>55.0</ele><time>2026-04-23T15:03:57Z</time></trkpt><trkpt lat="45.34009598693874" lon="9.895555803969495"><ele>55.0</ele><time>2026-04-23T15:03:59Z</time></trkpt><trkpt lat="45.34016250132939" lon="9.895460388927884"><ele>55.0</ele><time>2026-04-23T15:04:01Z</time></trkpt><trkpt lat="45.34023431858608" lon="9.895412808215388"><ele>55.0</ele><time>2026-04-23T15:04:04Z</time></trkpt><trkpt lat="45.340346099262995" lon="9.89540242150022"><ele>55.0</ele><time>2026-04-23T15:04:06Z</time></trkpt><trkpt lat="45.34048089806058" lon="9.89543823940715"><ele>55.0</ele><time>2026-04-23T15:04:08Z</time></trkpt><trkpt lat="45.3405751766674" lon="9.89543311444568"><ele>55.0</ele><time>2026-04-23T15:04:09Z</time></trkpt><trkpt lat="45.34065884451842" lon="9.895412447721947"><ele>55.0</ele><time>2026-04-23T15:04:10Z</time></trkpt><trkpt lat="45.34073635409524" lon="9.89537054613645"><ele>55.0</ele><time>2026-04-23T15:04:11Z</time></trkpt><trkpt lat="45.34083128837349" lon="9.895319980459051"><ele>55.0</ele><time>2026-04-23T15:04:12Z</time></trkpt><trkpt lat="45.34093567908543" lon="9.895288011421117"><ele>55.0</ele><time>2026-04-23T15:04:13Z</time></trkpt><trkpt lat="45.34103607793442" lon="9.895275903097888"><ele>55.0</ele><time>2026-04-23T15:04:14Z</time></trkpt><trkpt lat="45.341139646469536" lon="9.895263441787296"><ele>55.0</ele><time>2026-04-23T15:04:15Z</time></trkpt><trkpt lat="45.34124808556044" lon="9.895249643988938"><ele>55.0</ele><time>2026-04-23T15:04:16Z</time></trkpt><trkpt lat="45.34133450065969" lon="9.895237925081057"><ele>55.0</ele><time>2026-04-23T15:04:17Z</time></trkpt><trkpt lat="45.34142217267774" lon="9.895211067334536"><ele>55.0</ele><time>2026-04-23T15:04:18Z</time></trkpt><trkpt lat="45.34151404620615" lon="9.89517408600758"><ele>55.0</ele><time>2026-04-23T15:04:19Z</time></trkpt><trkpt lat="45.341606289608286" lon="9.89514038819404"><ele>55.0</ele><time>2026-04-23T15:04:20Z</time></trkpt><trkpt lat="45.34170556377135" lon="9.895097315914098"><ele>55.0</ele><time>2026-04-23T15:04:21Z</time></trkpt><trkpt lat="45.34181164335204" lon="9.895052853102834"><ele>55.0</ele><time>2026-04-23T15:04:22Z</time></trkpt><trkpt lat="45.341911481046566" lon="9.89500151064627"><ele>55.0</ele><time>2026-04-23T15:04:23Z</time></trkpt><trkpt lat="45.34200529768108" lon="9.89495309574609"><ele>55.0</ele><time>2026-04-23T15:04:24Z</time></trkpt><trkpt lat="45.34211008419329" lon="9.894903475253066"><ele>55.0</ele><time>2026-04-23T15:04:25Z</time></trkpt><trkpt lat="45.342218637693804" lon="9.894850782393792"><ele>55.0</ele><time>2026-04-23T15:04:26Z</time></trkpt><trkpt lat="45.342313402200276" lon="9.89480458089504"><ele>54.6</ele><time>2026-04-23T15:04:27Z</time></trkpt><trkpt lat="45.342403805983466" lon="9.894752660159316"><ele>54.2</ele><time>2026-04-23T15:04:28Z</time></trkpt><trkpt lat="45.34249061071428" lon="9.89470164300984"><ele>53.8</ele><time>2026-04-23T15:04:29Z</time></trkpt><trkpt lat="45.34257590204638" lon="9.894652635048013"><ele>53.4</ele><time>2026-04-23T15:04:30Z</time></trkpt><trkpt lat="45.34266080789191" lon="9.894601454928013"><ele>53.0</ele><time>2026-04-23T15:04:31Z</time></trkpt><trkpt lat="45.34274715021984" lon="9.894545797128474"><ele>53.0</ele><time>2026-04-23T15:04:32Z</time></trkpt><trkpt lat="45.342830532121376" lon="9.894492634942335"><ele>53.0</ele><time>2026-04-23T15:04:33Z</time></trkpt><trkpt lat="45.34291154655944" lon="9.894442992812303"><ele>53.0</ele><time>2026-04-23T15:04:34Z</time></trkpt><trkpt lat="45.34299757082403" lon="9.894404179331355"><ele>53.0</ele><time>2026-04-23T15:04:35Z</time></trkpt><trkpt lat="45.34309369831222" lon="9.894363967077417"><ele>53.0</ele><time>2026-04-23T15:04:36Z</time></trkpt><trkpt lat="45.34319906144751" lon="9.894331361894778"><ele>53.0</ele><time>2026-04-23T15:04:37Z</time></trkpt><trkpt lat="45.3433035506947" lon="9.89432111398418"><ele>53.0</ele><time>2026-04-23T15:04:38Z</time></trkpt><trkpt lat="45.343382949107024" lon="9.894303254195348"><ele>53.0</ele><time>2026-04-23T15:04:39Z</time></trkpt><trkpt lat="45.343470408300476" lon="9.894257161185232"><ele>53.0</ele><time>2026-04-23T15:04:41Z</time></trkpt><trkpt lat="45.34358984133918" lon="9.894252968028118"><ele>53.0</ele><time>2026-04-23T15:04:46Z</time></trkpt><trkpt lat="45.3436650147117" lon="9.894172867696641"><ele>53.0</ele><time>2026-04-23T15:04:48Z</time></trkpt><trkpt lat="45.343770091125556" lon="9.89413705415057"><ele>53.0</ele><time>2026-04-23T15:04:50Z</time></trkpt><trkpt lat="45.34386687951257" lon="9.894032221813163"><ele>53.0</ele><time>2026-04-23T15:04:52Z</time></trkpt><trkpt lat="45.34392151799423" lon="9.89393254471197"><ele>53.0</ele><time>2026-04-23T15:04:54Z</time></trkpt><trkpt lat="45.34396957707223" lon="9.893848933077466"><ele>53.0</ele><time>2026-04-23T15:04:55Z</time></trkpt><trkpt lat="45.34405963765665" lon="9.893770830149546"><ele>53.0</ele><time>2026-04-23T15:04:57Z</time></trkpt><trkpt lat="45.34413665481722" lon="9.89370248198789"><ele>53.0</ele><time>2026-04-23T15:05:00Z</time></trkpt><trkpt lat="45.34427654752328" lon="9.893611664278854"><ele>53.0</ele><time>2026-04-23T15:05:03Z</time></trkpt><trkpt lat="45.3443433554106" lon="9.893543394218835"><ele>53.0</ele><time>2026-04-23T15:05:05Z</time></trkpt><trkpt lat="45.34441598567285" lon="9.89348892119396"><ele>53.0</ele><time>2026-04-23T15:05:07Z</time></trkpt><trkpt lat="45.3445007394386" lon="9.893418207050498"><ele>53.0</ele><time>2026-04-23T15:05:10Z</time></trkpt><trkpt lat="45.34457127285243" lon="9.893363715711082"><ele>53.0</ele><time>2026-04-23T15:05:12Z</time></trkpt><trkpt lat="45.34466198961765" lon="9.89328082896454"><ele>53.0</ele><time>2026-04-23T15:05:14Z</time></trkpt><trkpt lat="45.34474170735803" lon="9.893214257592396"><ele>53.0</ele><time>2026-04-23T15:05:16Z</time></trkpt><trkpt lat="45.344780271160985" lon="9.89312268669866"><ele>53.0</ele><time>2026-04-23T15:05:18Z</time></trkpt><trkpt lat="45.34474804483229" lon="9.89299532533087"><ele>52.833333333333336</ele><time>2026-04-23T15:05:20Z</time></trkpt><trkpt lat="45.34480837434269" lon="9.892903015437701"><ele>52.66666666666667</ele><time>2026-04-23T15:05:22Z</time></trkpt><trkpt lat="45.3448301152131" lon="9.892801434052142"><ele>52.5</ele><time>2026-04-23T15:05:26Z</time></trkpt><trkpt lat="45.344921883888446" lon="9.892758323361047"><ele>52.33333333333333</ele><time>2026-04-23T15:05:29Z</time></trkpt><trkpt lat="45.34497985998481" lon="9.892714935838024"><ele>52.166666666666664</ele><time>2026-04-23T15:05:32Z</time></trkpt><trkpt lat="45.34504058451689" lon="9.892744212064565"><ele>52.0</ele><time>2026-04-23T15:05:35Z</time></trkpt><trkpt lat="45.3450945576916" lon="9.892846176501779"><ele>51.99999999999999</ele><time>2026-04-23T15:05:38Z</time></trkpt><trkpt lat="45.34516529093175" lon="9.892847737321206"><ele>52.0</ele><time>2026-04-23T15:05:41Z</time></trkpt><trkpt lat="45.34521606629329" lon="9.892780059048443"><ele>52.0</ele><time>2026-04-23T15:05:43Z</time></trkpt><trkpt lat="45.34527232484235" lon="9.892717498394418"><ele>52.0</ele><time>2026-04-23T15:05:45Z</time></trkpt><trkpt lat="45.34526194360913" lon="9.892587571323615"><ele>51.99999999999999</ele><time>2026-04-23T15:05:47Z</time></trkpt><trkpt lat="45.345295308517215" lon="9.892442750981191"><ele>52.0</ele><time>2026-04-23T15:05:50Z</time></trkpt><trkpt lat="45.34537341327893" lon="9.892446218189855"><ele>51.99999999999999</ele><time>2026-04-23T15:05:53Z</time></trkpt><trkpt lat="45.34545530493565" lon="9.892472329311303"><ele>52.0</ele><time>2026-04-23T15:05:56Z</time></trkpt><trkpt lat="45.34549332957367" lon="9.892546440126226"><ele>52.0</ele><time>2026-04-23T15:05:59Z</time></trkpt><trkpt lat="45.34556701757046" lon="9.892559540724385"><ele>52.0</ele><time>2026-04-23T15:06:02Z</time></trkpt><trkpt lat="45.34564882258496" lon="9.892593925499094"><ele>51.99999999999999</ele><time>2026-04-23T15:06:04Z</time></trkpt><trkpt lat="45.34570514762019" lon="9.892640362684931"><ele>52.0</ele><time>2026-04-23T15:06:06Z</time></trkpt><trkpt lat="45.34577538905503" lon="9.892726315604888"><ele>51.99999999999999</ele><time>2026-04-23T15:06:10Z</time></trkpt><trkpt lat="45.34584935843536" lon="9.89273436800414"><ele>52.0</ele><time>2026-04-23T15:06:12Z</time></trkpt><trkpt lat="45.345914655466736" lon="9.892696331967034"><ele>52.0</ele><time>2026-04-23T15:06:16Z</time></trkpt><trkpt lat="45.34599591204593" lon="9.892696937984384"><ele>52.0</ele><time>2026-04-23T15:06:20Z</time></trkpt><trkpt lat="45.346077669123794" lon="9.892709118457754"><ele>51.99999999999999</ele><time>2026-04-23T15:06:23Z</time></trkpt><trkpt lat="45.34616315926112" lon="9.892719743440306"><ele>52.0</ele><time>2026-04-23T15:06:26Z</time></trkpt><trkpt lat="45.346243616502186" lon="9.892774650889667"><ele>52.0</ele><time>2026-04-23T15:06:29Z</time></trkpt><trkpt lat="45.346326532758134" lon="9.892803206219103"><ele>52.0</ele><time>2026-04-23T15:06:32Z</time></trkpt><trkpt lat="45.34642266077962" lon="9.892785842653167"><ele>52.0</ele><time>2026-04-23T15:06:54Z</time></trkpt><trkpt lat="45.346515366821514" lon="9.892828486406357"><ele>52.0</ele><time>2026-04-23T15:06:56Z</time></trkpt><trkpt lat="45.34660608645378" lon="9.892867170870055"><ele>52.0</ele><time>2026-04-23T15:06:58Z</time></trkpt><trkpt lat="45.346711312382915" lon="9.892930626979684"><ele>51.99999999999999</ele><time>2026-04-23T15:07:00Z</time></trkpt><trkpt lat="45.3468272328084" lon="9.892999496006917"><ele>52.0</ele><time>2026-04-23T15:07:02Z</time></trkpt><trkpt lat="45.346889962761665" lon="9.893041414853808"><ele>52.0</ele><time>2026-04-23T15:07:03Z</time></trkpt><trkpt lat="45.34695123691581" lon="9.893072622274495"><ele>52.0</ele><time>2026-04-23T15:07:04Z</time></trkpt><trkpt lat="45.34701888560184" lon="9.89311872962718"><ele>51.99999999999999</ele><time>2026-04-23T15:07:05Z</time></trkpt><trkpt lat="45.34708616363867" lon="9.893164491623635"><ele>52.0</ele><time>2026-04-23T15:07:06Z</time></trkpt><trkpt lat="45.34715063288777" lon="9.893213890066825"><ele>52.0</ele><time>2026-04-23T15:07:07Z</time></trkpt><trkpt lat="45.34720725156534" lon="9.89325790303959"><ele>52.0</ele><time>2026-04-23T15:07:08Z</time></trkpt><trkpt lat="45.347354075234875" lon="9.89313488608293"><ele>52.0</ele><time>2026-04-23T15:07:12Z</time></trkpt><trkpt lat="45.347371547369995" lon="9.893028165293758"><ele>52.0</ele><time>2026-04-23T15:07:14Z</time></trkpt><trkpt lat="45.347410905148365" lon="9.892932969902887"><ele>52.0</ele><time>2026-04-23T15:07:16Z</time></trkpt><trkpt lat="45.34749420646609" lon="9.892919683814377"><ele>52.99999999999999</ele><time>2026-04-23T15:07:18Z</time></trkpt><trkpt lat="45.34759235124939" lon="9.892955190240334"><ele>54.0</ele><time>2026-04-23T15:07:20Z</time></trkpt><trkpt lat="45.34766031205796" lon="9.893031360750225"><ele>55.0</ele><time>2026-04-23T15:07:22Z</time></trkpt><trkpt lat="45.3477189993609" lon="9.893080331771479"><ele>56.0</ele><time>2026-04-23T15:07:25Z</time></trkpt><trkpt lat="45.34780894797333" lon="9.893126442674411"><ele>56.99999999999999</ele><time>2026-04-23T15:07:28Z</time></trkpt><trkpt lat="45.3478294850756" lon="9.893257290891126"><ele>58.0</ele><time>2026-04-23T15:07:30Z</time></trkpt><trkpt lat="45.347878424729444" lon="9.893368270015555"><ele>57.99999999999999</ele><time>2026-04-23T15:07:32Z</time></trkpt><trkpt lat="45.347954930869655" lon="9.89337637106206"><ele>58.0</ele><time>2026-04-23T15:07:35Z</time></trkpt><trkpt lat="45.34805195084741" lon="9.893430780639113"><ele>58.0</ele><time>2026-04-23T15:07:38Z</time></trkpt><trkpt lat="45.34810971451279" lon="9.893491705577416"><ele>58.0</ele><time>2026-04-23T15:07:39Z</time></trkpt><trkpt lat="45.34813848552505" lon="9.893595313969861"><ele>57.99999999999999</ele><time>2026-04-23T15:07:40Z</time></trkpt><trkpt lat="45.34816493615882" lon="9.893702169208499"><ele>58.0</ele><time>2026-04-23T15:07:41Z</time></trkpt><trkpt lat="45.348210430538806" lon="9.893793409740645"><ele>58.0</ele><time>2026-04-23T15:07:42Z</time></trkpt><trkpt lat="45.34828180802711" lon="9.893924613611965"><ele>58.0</ele><time>2026-04-23T15:07:44Z</time></trkpt><trkpt lat="45.348353783039556" lon="9.894045258637272"><ele>58.0</ele><time>2026-04-23T15:07:46Z</time></trkpt><trkpt lat="45.348412004155094" lon="9.894102867255716"><ele>58.0</ele><time>2026-04-23T15:07:47Z</time></trkpt><trkpt lat="45.348457791198385" lon="9.894272255947577"><ele>58.0</ele><time>2026-04-23T15:07:49Z</time></trkpt><trkpt lat="45.34852178027351" lon="9.89443348948794"><ele>57.4</ele><time>2026-04-23T15:07:51Z</time></trkpt><trkpt lat="45.34856541679581" lon="9.894520096328334"><ele>56.8</ele><time>2026-04-23T15:07:52Z</time></trkpt><trkpt lat="45.348595893162155" lon="9.894610245385289"><ele>56.2</ele><time>2026-04-23T15:07:53Z</time></trkpt><trkpt lat="45.34865983604369" lon="9.894691960228508"><ele>55.6</ele><time>2026-04-23T15:07:55Z</time></trkpt><trkpt lat="45.34878694931412" lon="9.89472602715396"><ele>55.0</ele><time>2026-04-23T15:07:57Z</time></trkpt><trkpt lat="45.348846086719746" lon="9.89482443390786"><ele>54.99999999999999</ele><time>2026-04-23T15:07:59Z</time></trkpt><trkpt lat="45.34890654956546" lon="9.894857233664188"><ele>55.0</ele><time>2026-04-23T15:08:03Z</time></trkpt><trkpt lat="45.34901396702094" lon="9.894872653194088"><ele>55.0</ele><time>2026-04-23T15:08:13Z</time></trkpt><trkpt lat="45.34908675178303" lon="9.894875222003916"><ele>55.0</ele><time>2026-04-23T15:08:16Z</time></trkpt><trkpt lat="45.34918290963354" lon="9.894855314950057"><ele>54.99999999999999</ele><time>2026-04-23T15:08:20Z</time></trkpt><trkpt lat="45.349260579303035" lon="9.89479829723409"><ele>55.0</ele><time>2026-04-23T15:08:22Z</time></trkpt><trkpt lat="45.34933090186129" lon="9.894781086476986"><ele>55.0</ele><time>2026-04-23T15:08:24Z</time></trkpt><trkpt lat="45.34939458825513" lon="9.89491074531655"><ele>55.0</ele><time>2026-04-23T15:08:27Z</time></trkpt><trkpt lat="45.34948984912582" lon="9.894856346231668"><ele>55.0</ele><time>2026-04-23T15:08:30Z</time></trkpt><trkpt lat="45.34954671708454" lon="9.894768758903258"><ele>55.0</ele><time>2026-04-23T15:08:32Z</time></trkpt><trkpt lat="45.34959609869955" lon="9.894665735486631"><ele>55.0</ele><time>2026-04-23T15:08:34Z</time></trkpt><trkpt lat="45.34967967858898" lon="9.894675623295187"><ele>54.666666666666664</ele><time>2026-04-23T15:08:36Z</time></trkpt><trkpt lat="45.349745992325474" lon="9.894692173641554"><ele>54.33333333333333</ele><time>2026-04-23T15:08:39Z</time></trkpt><trkpt lat="45.34981271496477" lon="9.89464294368879"><ele>54.0</ele><time>2026-04-23T15:08:41Z</time></trkpt><trkpt lat="45.349906942513414" lon="9.894550745545876"><ele>53.66666666666667</ele><time>2026-04-23T15:08:43Z</time></trkpt><trkpt lat="45.349943514706574" lon="9.894445561917651"><ele>53.333333333333336</ele><time>2026-04-23T15:08:45Z</time></trkpt><trkpt lat="45.34994269273515" lon="9.89430450076007"><ele>53.0</ele><time>2026-04-23T15:08:48Z</time></trkpt><trkpt lat="45.35001942258697" lon="9.894272192991775"><ele>52.85714285714286</ele><time>2026-04-23T15:08:50Z</time></trkpt><trkpt lat="45.350051158458264" lon="9.894178462615738"><ele>52.71428571428571</ele><time>2026-04-23T15:08:52Z</time></trkpt><trkpt lat="45.350067231321475" lon="9.89408993951461"><ele>52.57142857142857</ele><time>2026-04-23T15:08:53Z</time></trkpt><trkpt lat="45.350109981707185" lon="9.89399657648916"><ele>52.42857142857143</ele><time>2026-04-23T15:08:55Z</time></trkpt><trkpt lat="45.35017731464156" lon="9.893926063737826"><ele>52.28571428571429</ele><time>2026-04-23T15:08:57Z</time></trkpt><trkpt lat="45.35025169894526" lon="9.893925293256185"><ele>52.14285714285714</ele><time>2026-04-23T15:08:59Z</time></trkpt><trkpt lat="45.350263161494105" lon="9.89382090374963"><ele>52.0</ele><time>2026-04-23T15:09:01Z</time></trkpt><trkpt lat="45.350231392729164" lon="9.893708792791886"><ele>51.99999999999999</ele><time>2026-04-23T15:09:03Z</time></trkpt><trkpt lat="45.35016311283147" lon="9.89361139579582"><ele>52.0</ele><time>2026-04-23T15:09:05Z</time></trkpt><trkpt lat="45.350134697531615" lon="9.893514101557386"><ele>52.0</ele><time>2026-04-23T15:09:07Z</time></trkpt><trkpt lat="45.350197684716754" lon="9.893449887686572"><ele>52.0</ele><time>2026-04-23T15:09:10Z</time></trkpt><trkpt lat="45.35014200712762" lon="9.893373294683926"><ele>51.99999999999999</ele><time>2026-04-23T15:09:13Z</time></trkpt><trkpt lat="45.35009393711587" lon="9.893268584995587"><ele>52.0</ele><time>2026-04-23T15:09:16Z</time></trkpt><trkpt lat="45.35007342724879" lon="9.893175268386498"><ele>52.33333333333333</ele><time>2026-04-23T15:09:18Z</time></trkpt><trkpt lat="45.35006723598797" lon="9.893048843320614"><ele>52.666666666666664</ele><time>2026-04-23T15:09:21Z</time></trkpt><trkpt lat="45.35003807933342" lon="9.892941968841395"><ele>53.0</ele><time>2026-04-23T15:09:23Z</time></trkpt><trkpt lat="45.350043147485934" lon="9.892802739739821"><ele>53.33333333333333</ele><time>2026-04-23T15:09:25Z</time></trkpt><trkpt lat="45.35005829440202" lon="9.892689963764324"><ele>53.666666666666664</ele><time>2026-04-23T15:09:29Z</time></trkpt><trkpt lat="45.35012205863258" lon="9.892610149934498"><ele>54.0</ele><time>2026-04-23T15:09:32Z</time></trkpt><trkpt lat="45.3502061263277" lon="9.892509718696653"><ele>54.0</ele><time>2026-04-23T15:09:35Z</time></trkpt><trkpt lat="45.350261441352544" lon="9.892424881829527"><ele>54.0</ele><time>2026-04-23T15:09:38Z</time></trkpt><trkpt lat="45.35031984794397" lon="9.892308944710729"><ele>54.0</ele><time>2026-04-23T15:09:41Z</time></trkpt><trkpt lat="45.35035891304373" lon="9.892233578734842"><ele>54.0</ele><time>2026-04-23T15:09:42Z</time></trkpt><trkpt lat="45.350395929521824" lon="9.892139657212978"><ele>54.0</ele><time>2026-04-23T15:09:44Z</time></trkpt><trkpt lat="45.35043909384547" lon="9.892044146057625"><ele>54.0</ele><time>2026-04-23T15:09:46Z</time></trkpt><trkpt lat="45.35047730674002" lon="9.891949070536588"><ele>54.0</ele><time>2026-04-23T15:09:48Z</time></trkpt><trkpt lat="45.35052030385743" lon="9.891857556313314"><ele>54.0</ele><time>2026-04-23T15:09:50Z</time></trkpt><trkpt lat="45.35057512216074" lon="9.891751465806262"><ele>54.0</ele><time>2026-04-23T15:09:53Z</time></trkpt><trkpt lat="45.350629138509404" lon="9.891685612177584"><ele>54.0</ele><time>2026-04-23T15:09:55Z</time></trkpt><trkpt lat="45.35057321657686" lon="9.891639507270247"><ele>54.0</ele><time>2026-04-23T15:09:58Z</time></trkpt><trkpt lat="45.350548094473396" lon="9.891754841511835"><ele>54.0</ele><time>2026-04-23T15:10:00Z</time></trkpt><trkpt lat="45.35062065466985" lon="9.891790282330714"><ele>54.0</ele><time>2026-04-23T15:10:03Z</time></trkpt><trkpt lat="45.35068721504492" lon="9.891857970319137"><ele>54.0</ele><time>2026-04-23T15:10:06Z</time></trkpt><trkpt lat="45.350758164619926" lon="9.891828269278706"><ele>54.0</ele><time>2026-04-23T15:10:10Z</time></trkpt><trkpt lat="45.350821618113876" lon="9.891820968387057"><ele>54.0</ele><time>2026-04-23T15:10:36Z</time></trkpt><trkpt lat="45.35089613126503" lon="9.891792345769437"><ele>54.0</ele><time>2026-04-23T15:10:38Z</time></trkpt><trkpt lat="45.35101027572755" lon="9.891759308086064"><ele>54.0</ele><time>2026-04-23T15:10:40Z</time></trkpt><trkpt lat="45.3510806748457" lon="9.891747556323326"><ele>54.0</ele><time>2026-04-23T15:10:41Z</time></trkpt><trkpt lat="45.351145661702105" lon="9.891710434698977"><ele>54.0</ele><time>2026-04-23T15:10:42Z</time></trkpt><trkpt lat="45.35120547818414" lon="9.891653969113802"><ele>54.0</ele><time>2026-04-23T15:10:43Z</time></trkpt><trkpt lat="45.35126820813998" lon="9.891600997604577"><ele>54.0</ele><time>2026-04-23T15:10:44Z</time></trkpt><trkpt lat="45.35135181526028" lon="9.891562846573361"><ele>54.0</ele><time>2026-04-23T15:10:46Z</time></trkpt><trkpt lat="45.351413201605546" lon="9.891531739379632"><ele>54.0</ele><time>2026-04-23T15:10:47Z</time></trkpt><trkpt lat="45.35147432295023" lon="9.891461835217"><ele>54.0</ele><time>2026-04-23T15:10:48Z</time></trkpt><trkpt lat="45.351552455037606" lon="9.891352211798171"><ele>53.75</ele><time>2026-04-23T15:10:49Z</time></trkpt><trkpt lat="45.35163819091819" lon="9.891244085097057"><ele>53.5</ele><time>2026-04-23T15:10:50Z</time></trkpt><trkpt lat="45.35173838078976" lon="9.891199325383873"><ele>53.25</ele><time>2026-04-23T15:10:51Z</time></trkpt><trkpt lat="45.3518633800651" lon="9.891190286000272"><ele>53.0</ele><time>2026-04-23T15:10:52Z</time></trkpt><trkpt lat="45.35198025916446" lon="9.891201199432137"><ele>53.0</ele><time>2026-04-23T15:10:53Z</time></trkpt><trkpt lat="45.35205900656778" lon="9.891222153456015"><ele>53.0</ele><time>2026-04-23T15:10:55Z</time></trkpt><trkpt lat="45.352144463546956" lon="9.891253789820883"><ele>53.0</ele><time>2026-04-23T15:10:57Z</time></trkpt><trkpt lat="45.35224038995319" lon="9.891248945351725"><ele>53.0</ele><time>2026-04-23T15:10:58Z</time></trkpt><trkpt lat="45.3523290526745" lon="9.891212796656827"><ele>53.0</ele><time>2026-04-23T15:10:59Z</time></trkpt><trkpt lat="45.35241771903284" lon="9.891157255240737"><ele>52.8</ele><time>2026-04-23T15:11:00Z</time></trkpt><trkpt lat="45.35252661180998" lon="9.891105809036898"><ele>52.599999999999994</ele><time>2026-04-23T15:11:01Z</time></trkpt><trkpt lat="45.35261874008291" lon="9.891085494001139"><ele>52.400000000000006</ele><time>2026-04-23T15:11:02Z</time></trkpt><trkpt lat="45.3526996558041" lon="9.891084277630183"><ele>52.2</ele><time>2026-04-23T15:11:03Z</time></trkpt><trkpt lat="45.35279849197071" lon="9.891096825689727"><ele>52.0</ele><time>2026-04-23T15:11:04Z</time></trkpt><trkpt lat="45.352907176987124" lon="9.891094891050583"><ele>52.0</ele><time>2026-04-23T15:11:05Z</time></trkpt><trkpt lat="45.35298177523148" lon="9.891085693942934"><ele>52.0</ele><time>2026-04-23T15:11:06Z</time></trkpt><trkpt lat="45.353111383425045" lon="9.891130129099007"><ele>52.0</ele><time>2026-04-23T15:11:09Z</time></trkpt><trkpt lat="45.35318551535249" lon="9.891172697020059"><ele>52.0</ele><time>2026-04-23T15:11:10Z</time></trkpt><trkpt lat="45.35326612537971" lon="9.891232351049421"><ele>52.0</ele><time>2026-04-23T15:11:11Z</time></trkpt><trkpt lat="45.353346890679575" lon="9.891270884554176"><ele>52.666666666666664</ele><time>2026-04-23T15:11:12Z</time></trkpt><trkpt lat="45.35343555133285" lon="9.891328447203144"><ele>53.33333333333333</ele><time>2026-04-23T15:11:14Z</time></trkpt><trkpt lat="45.35347940587125" lon="9.891398045993062"><ele>54.0</ele><time>2026-04-23T15:11:15Z</time></trkpt><trkpt lat="45.35354511243072" lon="9.891475624342169"><ele>54.66666666666667</ele><time>2026-04-23T15:11:16Z</time></trkpt><trkpt lat="45.35361464035501" lon="9.891550023300129"><ele>55.333333333333336</ele><time>2026-04-23T15:11:17Z</time></trkpt><trkpt lat="45.35368312429234" lon="9.891627819865484"><ele>56.0</ele><time>2026-04-23T15:11:18Z</time></trkpt><trkpt lat="45.35375431958269" lon="9.891713632837384"><ele>56.199999999999996</ele><time>2026-04-23T15:11:19Z</time></trkpt><trkpt lat="45.35381051416801" lon="9.891783778919848"><ele>56.39999999999999</ele><time>2026-04-23T15:11:20Z</time></trkpt><trkpt lat="45.35386129845468" lon="9.89188139079688"><ele>56.6</ele><time>2026-04-23T15:11:22Z</time></trkpt><trkpt lat="45.353921594458996" lon="9.89197723826649"><ele>56.8</ele><time>2026-04-23T15:11:24Z</time></trkpt><trkpt lat="45.35398491598572" lon="9.891949848486641"><ele>57.0</ele><time>2026-04-23T15:11:27Z</time></trkpt><trkpt lat="45.354036304325454" lon="9.892156250171018"><ele>57.0</ele><time>2026-04-23T15:11:35Z</time></trkpt><trkpt lat="45.35413178699356" lon="9.892255887147686"><ele>57.0</ele><time>2026-04-23T15:11:38Z</time></trkpt><trkpt lat="45.35411879083787" lon="9.892378661830472"><ele>57.0</ele><time>2026-04-23T15:11:40Z</time></trkpt><trkpt lat="45.35420144985322" lon="9.892450979961936"><ele>57.0</ele><time>2026-04-23T15:11:43Z</time></trkpt><trkpt lat="45.354251951497034" lon="9.892537443151687"><ele>57.0</ele><time>2026-04-23T15:11:45Z</time></trkpt><trkpt lat="45.354312413419116" lon="9.89261923721102"><ele>56.666666666666664</ele><time>2026-04-23T15:11:47Z</time></trkpt><trkpt lat="45.3543935632823" lon="9.892648159839869"><ele>56.33333333333333</ele><time>2026-04-23T15:11:50Z</time></trkpt><trkpt lat="45.35446952786311" lon="9.892688303693825"><ele>56.0</ele><time>2026-04-23T15:11:52Z</time></trkpt><trkpt lat="45.354520331882554" lon="9.892774972316086"><ele>55.666666666666664</ele><time>2026-04-23T15:11:54Z</time></trkpt><trkpt lat="45.35450576526413" lon="9.89286899739988"><ele>55.33333333333333</ele><time>2026-04-23T15:11:56Z</time></trkpt><trkpt lat="45.35458279556181" lon="9.89292946443077"><ele>55.0</ele><time>2026-04-23T15:11:58Z</time></trkpt><trkpt lat="45.35468199961251" lon="9.892979674216042"><ele>55.25</ele><time>2026-04-23T15:12:00Z</time></trkpt><trkpt lat="45.35486007447662" lon="9.893042685630865"><ele>55.5</ele><time>2026-04-23T15:12:04Z</time></trkpt><trkpt lat="45.35494814104782" lon="9.893135272489811"><ele>55.75</ele><time>2026-04-23T15:12:06Z</time></trkpt><trkpt lat="45.35503763595685" lon="9.893165645879833"><ele>56.0</ele><time>2026-04-23T15:12:08Z</time></trkpt><trkpt lat="45.3550900726066" lon="9.893251763632593"><ele>56.0</ele><time>2026-04-23T15:12:11Z</time></trkpt><trkpt lat="45.35516310969461" lon="9.893254382459476"><ele>55.99999999999999</ele><time>2026-04-23T15:12:14Z</time></trkpt><trkpt lat="45.35517604786683" lon="9.89334594298647"><ele>55.99999999999999</ele><time>2026-04-23T15:12:17Z</time></trkpt><trkpt lat="45.35514493228252" lon="9.89342608510089"><ele>56.0</ele><time>2026-04-23T15:12:19Z</time></trkpt><trkpt lat="45.35520163471995" lon="9.893498662484763"><ele>56.0</ele><time>2026-04-23T15:12:22Z</time></trkpt><trkpt lat="45.35541598229815" lon="9.893546574361979"><ele>55.66666666666667</ele><time>2026-04-23T15:12:29Z</time></trkpt><trkpt lat="45.35547637904742" lon="9.893633755025782"><ele>55.33333333333333</ele><time>2026-04-23T15:12:31Z</time></trkpt><trkpt lat="45.35577217666421" lon="9.893539612084748"><ele>55.0</ele><time>2026-04-23T15:12:36Z</time></trkpt><trkpt lat="45.35585507445331" lon="9.893455796865926"><ele>55.166666666666664</ele><time>2026-04-23T15:12:37Z</time></trkpt><trkpt lat="45.35592278921377" lon="9.893401812534828"><ele>55.33333333333333</ele><time>2026-04-23T15:12:38Z</time></trkpt><trkpt lat="45.35596006147704" lon="9.893307624533264"><ele>55.5</ele><time>2026-04-23T15:12:39Z</time></trkpt><trkpt lat="45.356009729658005" lon="9.893224951732993"><ele>55.66666666666667</ele><time>2026-04-23T15:12:40Z</time></trkpt><trkpt lat="45.35607740837135" lon="9.893164696412597"><ele>55.833333333333336</ele><time>2026-04-23T15:12:41Z</time></trkpt><trkpt lat="45.356146075279234" lon="9.89310424990595"><ele>56.0</ele><time>2026-04-23T15:12:42Z</time></trkpt><trkpt lat="45.356202335200365" lon="9.89302803912494"><ele>56.00000000000001</ele><time>2026-04-23T15:12:43Z</time></trkpt><trkpt lat="45.356245033101565" lon="9.89295354457552"><ele>56.0</ele><time>2026-04-23T15:12:44Z</time></trkpt><trkpt lat="45.35630084322112" lon="9.892892519175046"><ele>56.0</ele><time>2026-04-23T15:12:45Z</time></trkpt><trkpt lat="45.35639224861024" lon="9.892829384806863"><ele>56.0</ele><time>2026-04-23T15:12:47Z</time></trkpt><trkpt lat="45.35650653198187" lon="9.892792052478866"><ele>56.00000000000001</ele><time>2026-04-23T15:13:53Z</time></trkpt><trkpt lat="45.356565115501574" lon="9.892738263118893"><ele>56.0</ele><time>2026-04-23T15:13:55Z</time></trkpt><trkpt lat="45.35662826607388" lon="9.89266483347387"><ele>56.00000000000001</ele><time>2026-04-23T15:13:57Z</time></trkpt><trkpt lat="45.35669704937353" lon="9.892610849118455"><ele>56.0</ele><time>2026-04-23T15:14:00Z</time></trkpt><trkpt lat="45.35674177426798" lon="9.892545209205833"><ele>56.0</ele><time>2026-04-23T15:14:02Z</time></trkpt><trkpt lat="45.35677570006493" lon="9.89244355714741"><ele>56.0</ele><time>2026-04-23T15:14:04Z</time></trkpt><trkpt lat="45.356821135281805" lon="9.892324664798164"><ele>56.00000000000001</ele><time>2026-04-23T15:14:07Z</time></trkpt><trkpt lat="45.35682683047652" lon="9.892186524053065"><ele>56.0</ele><time>2026-04-23T15:14:09Z</time></trkpt><trkpt lat="45.356834519959804" lon="9.892088480803874"><ele>56.16666666666667</ele><time>2026-04-23T15:14:10Z</time></trkpt><trkpt lat="45.3568457126873" lon="9.89197779753733"><ele>56.333333333333336</ele><time>2026-04-23T15:14:11Z</time></trkpt><trkpt lat="45.356858013758995" lon="9.891874275104916"><ele>56.5</ele><time>2026-04-23T15:14:12Z</time></trkpt><trkpt lat="45.35687452896171" lon="9.89174684351832"><ele>56.66666666666667</ele><time>2026-04-23T15:14:13Z</time></trkpt><trkpt lat="45.356889484651965" lon="9.891638683189893"><ele>56.833333333333336</ele><time>2026-04-23T15:14:14Z</time></trkpt><trkpt lat="45.356901168965436" lon="9.89153395286645"><ele>57.0</ele><time>2026-04-23T15:14:15Z</time></trkpt><trkpt lat="45.356921362583044" lon="9.89140390075623"><ele>57.0</ele><time>2026-04-23T15:14:16Z</time></trkpt><trkpt lat="45.35693562400227" lon="9.891263483429263"><ele>57.0</ele><time>2026-04-23T15:14:17Z</time></trkpt><trkpt lat="45.356926890921635" lon="9.89114472101181"><ele>57.0</ele><time>2026-04-23T15:14:18Z</time></trkpt><trkpt lat="45.356922812204644" lon="9.89101187485199"><ele>57.0</ele><time>2026-04-23T15:14:19Z</time></trkpt><trkpt lat="45.35692921069831" lon="9.890887583957431"><ele>57.0</ele><time>2026-04-23T15:14:20Z</time></trkpt><trkpt lat="45.35694413081398" lon="9.890747271993146"><ele>57.0</ele><time>2026-04-23T15:14:21Z</time></trkpt><trkpt lat="45.35696166604473" lon="9.890637384171914"><ele>57.0</ele><time>2026-04-23T15:14:22Z</time></trkpt><trkpt lat="45.356986623163806" lon="9.890544630176278"><ele>57.0</ele><time>2026-04-23T15:14:23Z</time></trkpt><trkpt lat="45.357020107688925" lon="9.890448521571654"><ele>57.0</ele><time>2026-04-23T15:14:24Z</time></trkpt><trkpt lat="45.35705832186874" lon="9.890371378176244"><ele>57.0</ele><time>2026-04-23T15:14:25Z</time></trkpt><trkpt lat="45.357134948365875" lon="9.890249012915595"><ele>57.0</ele><time>2026-04-23T15:14:27Z</time></trkpt><trkpt lat="45.35719179283448" lon="9.890174419247996"><ele>57.166666666666664</ele><time>2026-04-23T15:14:28Z</time></trkpt><trkpt lat="45.35723835493224" lon="9.890109336089207"><ele>57.33333333333333</ele><time>2026-04-23T15:14:29Z</time></trkpt><trkpt lat="45.35722463419948" lon="9.889963474347777"><ele>57.5</ele><time>2026-04-23T15:14:31Z</time></trkpt><trkpt lat="45.35718962021272" lon="9.88986810955606"><ele>57.666666666666664</ele><time>2026-04-23T15:14:32Z</time></trkpt><trkpt lat="45.35714992731684" lon="9.889769001316083"><ele>57.83333333333333</ele><time>2026-04-23T15:14:33Z</time></trkpt><trkpt lat="45.35712699927078" lon="9.889659474363084"><ele>58.0</ele><time>2026-04-23T15:14:34Z</time></trkpt><trkpt lat="45.35709928583233" lon="9.889547693055887"><ele>58.0</ele><time>2026-04-23T15:14:35Z</time></trkpt><trkpt lat="45.357076781076394" lon="9.889421896141727"><ele>58.0</ele><time>2026-04-23T15:14:36Z</time></trkpt><trkpt lat="45.35704800755745" lon="9.889303990672705"><ele>58.0</ele><time>2026-04-23T15:14:37Z</time></trkpt><trkpt lat="45.357008125269694" lon="9.889180487849005"><ele>58.0</ele><time>2026-04-23T15:14:38Z</time></trkpt><trkpt lat="45.356967947082076" lon="9.88905423056818"><ele>58.0</ele><time>2026-04-23T15:14:39Z</time></trkpt><trkpt lat="45.35694096877399" lon="9.88894906861896"><ele>57.99999999999999</ele><time>2026-04-23T15:14:40Z</time></trkpt><trkpt lat="45.35691339012036" lon="9.88885996940209"><ele>58.0</ele><time>2026-04-23T15:14:41Z</time></trkpt><trkpt lat="45.35688976136125" lon="9.88875463932092"><ele>58.0</ele><time>2026-04-23T15:14:42Z</time></trkpt><trkpt lat="45.35685878673262" lon="9.88866185299255"><ele>58.0</ele><time>2026-04-23T15:14:43Z</time></trkpt><trkpt lat="45.35682913747911" lon="9.888553410622306"><ele>57.99999999999999</ele><time>2026-04-23T15:14:44Z</time></trkpt><trkpt lat="45.356790530961256" lon="9.888414259824325"><ele>58.0</ele><time>2026-04-23T15:14:45Z</time></trkpt><trkpt lat="45.356755570904724" lon="9.888288505533628"><ele>57.99999999999999</ele><time>2026-04-23T15:14:46Z</time></trkpt><trkpt lat="45.35672400488332" lon="9.888165165760002"><ele>58.0</ele><time>2026-04-23T15:14:47Z</time></trkpt><trkpt lat="45.35669056309835" lon="9.888056740999076"><ele>58.0</ele><time>2026-04-23T15:14:48Z</time></trkpt><trkpt lat="45.356661614169205" lon="9.887959444184075"><ele>58.0</ele><time>2026-04-23T15:14:49Z</time></trkpt><trkpt lat="45.35664107635251" lon="9.887872623522075"><ele>57.99999999999999</ele><time>2026-04-23T15:14:50Z</time></trkpt><trkpt lat="45.35661442440763" lon="9.887722252574298"><ele>58.0</ele><time>2026-04-23T15:14:52Z</time></trkpt><trkpt lat="45.356584109443" lon="9.887537153375204"><ele>58.166666666666664</ele><time>2026-04-23T15:14:54Z</time></trkpt><trkpt lat="45.356573106111966" lon="9.887435391458292"><ele>58.33333333333333</ele><time>2026-04-23T15:14:55Z</time></trkpt><trkpt lat="45.35657061317895" lon="9.887336402082015"><ele>58.5</ele><time>2026-04-23T15:14:56Z</time></trkpt><trkpt lat="45.35658105640846" lon="9.887233044298327"><ele>58.66666666666667</ele><time>2026-04-23T15:14:57Z</time></trkpt><trkpt lat="45.35658115794831" lon="9.88712907897938"><ele>58.833333333333336</ele><time>2026-04-23T15:14:58Z</time></trkpt><trkpt lat="45.356576628920656" lon="9.887013258125613"><ele>59.0</ele><time>2026-04-23T15:14:59Z</time></trkpt><trkpt lat="45.356581686028406" lon="9.886889446999284"><ele>59.00000000000001</ele><time>2026-04-23T15:15:00Z</time></trkpt><trkpt lat="45.356597283035676" lon="9.886770290161568"><ele>59.0</ele><time>2026-04-23T15:15:01Z</time></trkpt><trkpt lat="45.35660962483434" lon="9.886650027025523"><ele>59.0</ele><time>2026-04-23T15:15:02Z</time></trkpt><trkpt lat="45.35661807551413" lon="9.886526737933504"><ele>59.0</ele><time>2026-04-23T15:15:03Z</time></trkpt><trkpt lat="45.35663441566258" lon="9.886413304577555"><ele>59.00000000000001</ele><time>2026-04-23T15:15:04Z</time></trkpt><trkpt lat="45.35664324989431" lon="9.886321186303604"><ele>59.0</ele><time>2026-04-23T15:15:05Z</time></trkpt><trkpt lat="45.3566258384428" lon="9.886217317636191"><ele>59.00000000000001</ele><time>2026-04-23T15:15:06Z</time></trkpt><trkpt lat="45.35660900019192" lon="9.886110343857892"><ele>59.0</ele><time>2026-04-23T15:15:07Z</time></trkpt><trkpt lat="45.35659981844853" lon="9.886015750282919"><ele>59.0</ele><time>2026-04-23T15:15:08Z</time></trkpt><trkpt lat="45.35660779430872" lon="9.885915149082445"><ele>59.0</ele><time>2026-04-23T15:15:09Z</time></trkpt><trkpt lat="45.35662579660197" lon="9.885793975632359"><ele>59.00000000000001</ele><time>2026-04-23T15:15:10Z</time></trkpt><trkpt lat="45.3566335555872" lon="9.885686198422441"><ele>59.0</ele><time>2026-04-23T15:15:11Z</time></trkpt><trkpt lat="45.35659047954368" lon="9.885565536522076"><ele>59.2</ele><time>2026-04-23T15:15:13Z</time></trkpt><trkpt lat="45.35652989880431" lon="9.885485481458808"><ele>59.400000000000006</ele><time>2026-04-23T15:15:14Z</time></trkpt><trkpt lat="45.356480210046215" lon="9.885421133361843"><ele>59.6</ele><time>2026-04-23T15:15:15Z</time></trkpt><trkpt lat="45.35646583653225" lon="9.885318426141867"><ele>59.8</ele><time>2026-04-23T15:15:17Z</time></trkpt><trkpt lat="45.356544034170575" lon="9.885220980395001"><ele>60.0</ele><time>2026-04-23T15:15:19Z</time></trkpt><trkpt lat="45.35663418944755" lon="9.885102921784576"><ele>60.166666666666664</ele><time>2026-04-23T15:15:21Z</time></trkpt><trkpt lat="45.356687138340654" lon="9.885028298054557"><ele>60.33333333333333</ele><time>2026-04-23T15:15:22Z</time></trkpt><trkpt lat="45.35674404832127" lon="9.884943630328962"><ele>60.5</ele><time>2026-04-23T15:15:23Z</time></trkpt><trkpt lat="45.356804433495064" lon="9.884860355121896"><ele>60.666666666666664</ele><time>2026-04-23T15:15:24Z</time></trkpt><trkpt lat="45.356868122730546" lon="9.884784972156135"><ele>60.83333333333333</ele><time>2026-04-23T15:15:25Z</time></trkpt><trkpt lat="45.356929641434554" lon="9.884712057008281"><ele>61.0</ele><time>2026-04-23T15:15:26Z</time></trkpt><trkpt lat="45.35699629419618" lon="9.88466643609635"><ele>60.99999999999999</ele><time>2026-04-23T15:15:27Z</time></trkpt><trkpt lat="45.35707091880984" lon="9.884624779844275"><ele>61.0</ele><time>2026-04-23T15:15:28Z</time></trkpt><trkpt lat="45.35714555049537" lon="9.88459080603183"><ele>61.0</ele><time>2026-04-23T15:15:29Z</time></trkpt><trkpt lat="45.35722315837391" lon="9.884568385187753"><ele>61.0</ele><time>2026-04-23T15:15:30Z</time></trkpt><trkpt lat="45.35730276172572" lon="9.88454909165319"><ele>60.99999999999999</ele><time>2026-04-23T15:15:31Z</time></trkpt><trkpt lat="45.35738220308554" lon="9.884526682125939"><ele>61.0</ele><time>2026-04-23T15:15:32Z</time></trkpt><trkpt lat="45.35745458209991" lon="9.88449234266492"><ele>60.83333333333333</ele><time>2026-04-23T15:15:33Z</time></trkpt><trkpt lat="45.35750914891043" lon="9.884424702268268"><ele>60.666666666666664</ele><time>2026-04-23T15:15:34Z</time></trkpt><trkpt lat="45.3575515686278" lon="9.884323339742265"><ele>60.5</ele><time>2026-04-23T15:15:35Z</time></trkpt><trkpt lat="45.357591040156294" lon="9.884212860086711"><ele>60.33333333333333</ele><time>2026-04-23T15:15:36Z</time></trkpt><trkpt lat="45.35763228526801" lon="9.884117813407267"><ele>60.166666666666664</ele><time>2026-04-23T15:15:37Z</time></trkpt><trkpt lat="45.35767413852467" lon="9.884036239863066"><ele>60.0</ele><time>2026-04-23T15:15:38Z</time></trkpt><trkpt lat="45.3577418559297" lon="9.883877239324914"><ele>59.833333333333336</ele><time>2026-04-23T15:15:40Z</time></trkpt><trkpt lat="45.357761901912255" lon="9.883772147018188"><ele>59.66666666666667</ele><time>2026-04-23T15:15:41Z</time></trkpt><trkpt lat="45.357784752283145" lon="9.883654460663063"><ele>59.5</ele><time>2026-04-23T15:15:42Z</time></trkpt><trkpt lat="45.35780914600947" lon="9.883533613459857"><ele>59.333333333333336</ele><time>2026-04-23T15:15:43Z</time></trkpt><trkpt lat="45.35783428850742" lon="9.8834233576053"><ele>59.16666666666667</ele><time>2026-04-23T15:15:44Z</time></trkpt><trkpt lat="45.35786414620074" lon="9.883329616603335"><ele>59.0</ele><time>2026-04-23T15:15:45Z</time></trkpt><trkpt lat="45.35790336779446" lon="9.883235281501417"><ele>58.833333333333336</ele><time>2026-04-23T15:15:46Z</time></trkpt><trkpt lat="45.35795084200337" lon="9.883152490502338"><ele>58.66666666666667</ele><time>2026-04-23T15:15:47Z</time></trkpt><trkpt lat="45.3580049161235" lon="9.883072941727473"><ele>58.5</ele><time>2026-04-23T15:15:48Z</time></trkpt><trkpt lat="45.35806386342105" lon="9.88300870814849"><ele>58.33333333333333</ele><time>2026-04-23T15:15:49Z</time></trkpt><trkpt lat="45.358132913324084" lon="9.882947183934686"><ele>58.166666666666664</ele><time>2026-04-23T15:15:50Z</time></trkpt><trkpt lat="45.358198309540754" lon="9.882893173651148"><ele>58.0</ele><time>2026-04-23T15:15:51Z</time></trkpt><trkpt lat="45.35827412655985" lon="9.882850955119768"><ele>58.4</ele><time>2026-04-23T15:15:52Z</time></trkpt><trkpt lat="45.358347789405705" lon="9.882826023876987"><ele>58.8</ele><time>2026-04-23T15:15:53Z</time></trkpt><trkpt lat="45.35843686030886" lon="9.882819103618855"><ele>59.2</ele><time>2026-04-23T15:15:54Z</time></trkpt><trkpt lat="45.35853086505982" lon="9.882820611552818"><ele>59.6</ele><time>2026-04-23T15:15:55Z</time></trkpt><trkpt lat="45.35863159999354" lon="9.882844269052892"><ele>60.0</ele><time>2026-04-23T15:15:56Z</time></trkpt><trkpt lat="45.358733286736005" lon="9.882862492398724"><ele>60.0</ele><time>2026-04-23T15:15:57Z</time></trkpt><trkpt lat="45.358816219952026" lon="9.882886481015934"><ele>60.0</ele><time>2026-04-23T15:15:58Z</time></trkpt><trkpt lat="45.358890541822895" lon="9.882912287446716"><ele>60.0</ele><time>2026-04-23T15:15:59Z</time></trkpt><trkpt lat="45.35895880600407" lon="9.882942072817789"><ele>60.0</ele><time>2026-04-23T15:16:00Z</time></trkpt><trkpt lat="45.359028545927984" lon="9.88297433623407"><ele>60.0</ele><time>2026-04-23T15:16:01Z</time></trkpt><trkpt lat="45.359102790841185" lon="9.883007159561188"><ele>60.0</ele><time>2026-04-23T15:16:02Z</time></trkpt><trkpt lat="45.35917996412413" lon="9.883042052754424"><ele>59.833333333333336</ele><time>2026-04-23T15:16:03Z</time></trkpt><trkpt lat="45.35924607433746" lon="9.883081207835689"><ele>59.66666666666667</ele><time>2026-04-23T15:16:04Z</time></trkpt><trkpt lat="45.35932645372313" lon="9.883125322692766"><ele>59.5</ele><time>2026-04-23T15:16:05Z</time></trkpt><trkpt lat="45.35941007244037" lon="9.883170229011645"><ele>59.333333333333336</ele><time>2026-04-23T15:16:06Z</time></trkpt><trkpt lat="45.359500554105324" lon="9.883208479598428"><ele>59.16666666666667</ele><time>2026-04-23T15:16:07Z</time></trkpt><trkpt lat="45.35959503599744" lon="9.88323882214581"><ele>59.0</ele><time>2026-04-23T15:16:08Z</time></trkpt><trkpt lat="45.35969448538604" lon="9.883276456667323"><ele>59.00000000000001</ele><time>2026-04-23T15:16:09Z</time></trkpt><trkpt lat="45.35979375113898" lon="9.883313950709299"><ele>59.0</ele><time>2026-04-23T15:16:10Z</time></trkpt><trkpt lat="45.35988998936633" lon="9.883340232048685"><ele>59.0</ele><time>2026-04-23T15:16:11Z</time></trkpt><trkpt lat="45.35998599184439" lon="9.883349115302025"><ele>59.0</ele><time>2026-04-23T15:16:12Z</time></trkpt><trkpt lat="45.36006775513006" lon="9.883362588847652"><ele>59.00000000000001</ele><time>2026-04-23T15:16:13Z</time></trkpt><trkpt lat="45.36012992626361" lon="9.883386093866864"><ele>59.0</ele><time>2026-04-23T15:16:14Z</time></trkpt><trkpt lat="45.36018885686802" lon="9.883425303933123"><ele>59.00000000000001</ele><time>2026-04-23T15:16:15Z</time></trkpt><trkpt lat="45.36024886357304" lon="9.883488247627543"><ele>59.0</ele><time>2026-04-23T15:16:16Z</time></trkpt><trkpt lat="45.360326787611704" lon="9.883555530153338"><ele>59.0</ele><time>2026-04-23T15:16:17Z</time></trkpt><trkpt lat="45.36040220666062" lon="9.883624330592204"><ele>59.0</ele><time>2026-04-23T15:16:18Z</time></trkpt><trkpt lat="45.360475043094205" lon="9.883702014553922"><ele>59.00000000000001</ele><time>2026-04-23T15:16:19Z</time></trkpt><trkpt lat="45.36054753826966" lon="9.88378198547399"><ele>59.0</ele><time>2026-04-23T15:16:20Z</time></trkpt><trkpt lat="45.36061455493427" lon="9.883875266089529"><ele>59.2</ele><time>2026-04-23T15:16:21Z</time></trkpt><trkpt lat="45.36067870971654" lon="9.883975295668913"><ele>59.400000000000006</ele><time>2026-04-23T15:16:22Z</time></trkpt><trkpt lat="45.36074457486708" lon="9.884067740009016"><ele>59.6</ele><time>2026-04-23T15:16:23Z</time></trkpt><trkpt lat="45.36081519535493" lon="9.884160070960318"><ele>59.8</ele><time>2026-04-23T15:16:24Z</time></trkpt><trkpt lat="45.36088269361206" lon="9.884258444161622"><ele>60.0</ele><time>2026-04-23T15:16:25Z</time></trkpt><trkpt lat="45.360948192080066" lon="9.884358636714087"><ele>60.0</ele><time>2026-04-23T15:16:26Z</time></trkpt><trkpt lat="45.36101587966514" lon="9.884466409093424"><ele>60.0</ele><time>2026-04-23T15:16:27Z</time></trkpt><trkpt lat="45.361081256748115" lon="9.88456676255815"><ele>60.0</ele><time>2026-04-23T15:16:28Z</time></trkpt><trkpt lat="45.36114339141739" lon="9.884661380091968"><ele>60.0</ele><time>2026-04-23T15:16:29Z</time></trkpt><trkpt lat="45.36119398615124" lon="9.884744425301548"><ele>60.0</ele><time>2026-04-23T15:16:30Z</time></trkpt><trkpt lat="45.3612681774648" lon="9.884829551444636"><ele>60.0</ele><time>2026-04-23T15:16:32Z</time></trkpt><trkpt lat="45.36130534326889" lon="9.88492493816182"><ele>60.0</ele><time>2026-04-23T15:16:34Z</time></trkpt><trkpt lat="45.36135014390706" lon="9.885081475240112"><ele>60.0</ele><time>2026-04-23T15:16:36Z</time></trkpt><trkpt lat="45.361387294046686" lon="9.885208737954859"><ele>60.0</ele><time>2026-04-23T15:16:38Z</time></trkpt><trkpt lat="45.36145173062698" lon="9.885267647420083"><ele>60.0</ele><time>2026-04-23T15:16:40Z</time></trkpt><trkpt lat="45.36152848934736" lon="9.885279825421259"><ele>60.0</ele><time>2026-04-23T15:16:42Z</time></trkpt><trkpt lat="45.36164659055417" lon="9.885288786765331"><ele>60.2</ele><time>2026-04-23T15:16:44Z</time></trkpt><trkpt lat="45.36176101844478" lon="9.885359266111061"><ele>60.4</ele><time>2026-04-23T15:16:46Z</time></trkpt><trkpt lat="45.361811845195135" lon="9.885416105263825"><ele>60.599999999999994</ele><time>2026-04-23T15:16:47Z</time></trkpt><trkpt lat="45.36191714269731" lon="9.885533122434186"><ele>60.8</ele><time>2026-04-23T15:16:49Z</time></trkpt><trkpt lat="45.361979956437786" lon="9.885574160262342"><ele>61.0</ele><time>2026-04-23T15:16:50Z</time></trkpt><trkpt lat="45.362057899689425" lon="9.885600310172354"><ele>60.99999999999999</ele><time>2026-04-23T15:16:51Z</time></trkpt><trkpt lat="45.3621336365074" lon="9.885616839402516"><ele>61.0</ele><time>2026-04-23T15:16:52Z</time></trkpt><trkpt lat="45.3622188863182" lon="9.88564120345402"><ele>61.0</ele><time>2026-04-23T15:16:53Z</time></trkpt><trkpt lat="45.36230645301235" lon="9.885672539738291"><ele>61.0</ele><time>2026-04-23T15:16:54Z</time></trkpt><trkpt lat="45.36238822890235" lon="9.88571643989107"><ele>60.99999999999999</ele><time>2026-04-23T15:16:55Z</time></trkpt><trkpt lat="45.36246997422471" lon="9.885770998146079"><ele>61.0</ele><time>2026-04-23T15:16:56Z</time></trkpt><trkpt lat="45.362551152889324" lon="9.885821627970392"><ele>60.666666666666664</ele><time>2026-04-23T15:16:57Z</time></trkpt><trkpt lat="45.36263662718084" lon="9.885857308555543"><ele>60.33333333333333</ele><time>2026-04-23T15:16:58Z</time></trkpt><trkpt lat="45.362726870266705" lon="9.885867087691253"><ele>60.0</ele><time>2026-04-23T15:16:59Z</time></trkpt><trkpt lat="45.36281670726114" lon="9.885868939414852"><ele>59.66666666666667</ele><time>2026-04-23T15:17:00Z</time></trkpt><trkpt lat="45.362906253827056" lon="9.88587588842257"><ele>59.333333333333336</ele><time>2026-04-23T15:17:01Z</time></trkpt><trkpt lat="45.362992943836126" lon="9.885885562314021"><ele>59.0</ele><time>2026-04-23T15:17:02Z</time></trkpt><trkpt lat="45.363113257770735" lon="9.885906290089228"><ele>59.0</ele><time>2026-04-23T15:17:04Z</time></trkpt><trkpt lat="45.36317756923511" lon="9.885917848341638"><ele>59.00000000000001</ele><time>2026-04-23T15:17:05Z</time></trkpt><trkpt lat="45.36331491267894" lon="9.885891320634027"><ele>59.00000000000001</ele><time>2026-04-23T15:17:09Z</time></trkpt><trkpt lat="45.36341083110935" lon="9.885848795904128"><ele>59.0</ele><time>2026-04-23T15:17:11Z</time></trkpt><trkpt lat="45.363523807362014" lon="9.88579931753881"><ele>59.0</ele><time>2026-04-23T15:17:13Z</time></trkpt><trkpt lat="45.36363831316601" lon="9.885799402770154"><ele>59.0</ele><time>2026-04-23T15:17:15Z</time></trkpt><trkpt lat="45.36374808122027" lon="9.885825740920229"><ele>59.00000000000001</ele><time>2026-04-23T15:17:17Z</time></trkpt><trkpt lat="45.36384286901221" lon="9.88578347549371"><ele>59.00000000000001</ele><time>2026-04-23T15:17:19Z</time></trkpt><trkpt lat="45.36395316760553" lon="9.885742070279662"><ele>59.0</ele><time>2026-04-23T15:17:21Z</time></trkpt><trkpt lat="45.36401733043045" lon="9.885745648539583"><ele>59.0</ele><time>2026-04-23T15:17:22Z</time></trkpt><trkpt lat="45.36412015956568" lon="9.885687079813161"><ele>59.333333333333336</ele><time>2026-04-23T15:17:24Z</time></trkpt><trkpt lat="45.36419217042441" lon="9.885556375121674"><ele>59.66666666666667</ele><time>2026-04-23T15:17:26Z</time></trkpt><trkpt lat="45.364230759149706" lon="9.885459591999437"><ele>60.0</ele><time>2026-04-23T15:17:28Z</time></trkpt><trkpt lat="45.36433858461579" lon="9.885443904777777"><ele>60.33333333333333</ele><time>2026-04-23T15:17:30Z</time></trkpt><trkpt lat="45.364407021751305" lon="9.885428591736655"><ele>60.666666666666664</ele><time>2026-04-23T15:17:31Z</time></trkpt><trkpt lat="45.364478935270036" lon="9.885404011632671"><ele>61.0</ele><time>2026-04-23T15:17:32Z</time></trkpt><trkpt lat="45.36454773141429" lon="9.885360727461729"><ele>61.0</ele><time>2026-04-23T15:17:33Z</time></trkpt><trkpt lat="45.36459667974689" lon="9.885279289995387"><ele>60.99999999999999</ele><time>2026-04-23T15:17:34Z</time></trkpt><trkpt lat="45.36464762746925" lon="9.885139229062228"><ele>60.99999999999999</ele><time>2026-04-23T15:17:35Z</time></trkpt><trkpt lat="45.36469406576655" lon="9.88499666833624"><ele>61.0</ele><time>2026-04-23T15:17:36Z</time></trkpt><trkpt lat="45.36470609620628" lon="9.884872105781952"><ele>61.0</ele><time>2026-04-23T15:17:37Z</time></trkpt><trkpt lat="45.36476827198948" lon="9.884779834993628"><ele>60.99999999999999</ele><time>2026-04-23T15:17:39Z</time></trkpt><trkpt lat="45.36482957658257" lon="9.884737174597802"><ele>61.0</ele><time>2026-04-23T15:17:41Z</time></trkpt><trkpt lat="45.36474073678292" lon="9.88487565221808"><ele>61.0</ele><time>2026-04-23T15:17:52Z</time></trkpt><trkpt lat="45.36479532040369" lon="9.884951763121611"><ele>61.0</ele><time>2026-04-23T15:18:11Z</time></trkpt><trkpt lat="45.3648426715524" lon="9.8850373671566"><ele>60.99999999999999</ele><time>2026-04-23T15:18:20Z</time></trkpt><trkpt lat="45.36484731677156" lon="9.885135261966633"><ele>61.0</ele><time>2026-04-23T15:18:24Z</time></trkpt><trkpt lat="45.36482578708185" lon="9.88523898928622"><ele>60.599999999999994</ele><time>2026-04-23T15:18:29Z</time></trkpt><trkpt lat="45.36485522116826" lon="9.885346683166109"><ele>60.199999999999996</ele><time>2026-04-23T15:18:32Z</time></trkpt><trkpt lat="45.36492705029253" lon="9.885424262879788"><ele>59.800000000000004</ele><time>2026-04-23T15:18:35Z</time></trkpt><trkpt lat="45.365096944735775" lon="9.885573320710618"><ele>59.400000000000006</ele><time>2026-04-23T15:18:38Z</time></trkpt><trkpt lat="45.36517439377506" lon="9.885575812417239"><ele>59.0</ele><time>2026-04-23T15:18:39Z</time></trkpt><trkpt lat="45.36524969777228" lon="9.885575095169362"><ele>59.00000000000001</ele><time>2026-04-23T15:18:40Z</time></trkpt><trkpt lat="45.365346986292494" lon="9.88556139417438"><ele>59.0</ele><time>2026-04-23T15:18:41Z</time></trkpt><trkpt lat="45.36543856773804" lon="9.885550332179736"><ele>59.0</ele><time>2026-04-23T15:18:42Z</time></trkpt><trkpt lat="45.365525985152786" lon="9.88554099250411"><ele>59.0</ele><time>2026-04-23T15:18:43Z</time></trkpt><trkpt lat="45.365592664574436" lon="9.885536930657526"><ele>59.00000000000001</ele><time>2026-04-23T15:18:44Z</time></trkpt><trkpt lat="45.36569386623314" lon="9.885536208100719"><ele>59.0</ele><time>2026-04-23T15:18:46Z</time></trkpt><trkpt lat="45.36579922471746" lon="9.885541153154202"><ele>59.16666666666667</ele><time>2026-04-23T15:18:48Z</time></trkpt><trkpt lat="45.36591160867345" lon="9.885560504373935"><ele>59.333333333333336</ele><time>2026-04-23T15:18:50Z</time></trkpt><trkpt lat="45.36597487422665" lon="9.885566699559995"><ele>59.5</ele><time>2026-04-23T15:18:51Z</time></trkpt><trkpt lat="45.36604335419581" lon="9.885574330141921"><ele>59.66666666666667</ele><time>2026-04-23T15:18:52Z</time></trkpt><trkpt lat="45.366112218683426" lon="9.88557744234125"><ele>59.833333333333336</ele><time>2026-04-23T15:18:53Z</time></trkpt><trkpt lat="45.366178373272646" lon="9.88556777404854"><ele>60.0</ele><time>2026-04-23T15:18:54Z</time></trkpt><trkpt lat="45.36629456704479" lon="9.885571418316466"><ele>60.0</ele><time>2026-04-23T15:18:56Z</time></trkpt><trkpt lat="45.36637331954774" lon="9.885568375946896"><ele>60.0</ele><time>2026-04-23T15:18:57Z</time></trkpt><trkpt lat="45.36648989562641" lon="9.88556514509097"><ele>60.0</ele><time>2026-04-23T15:18:59Z</time></trkpt><trkpt lat="45.366554138678495" lon="9.885579711173284"><ele>60.0</ele><time>2026-04-23T15:19:00Z</time></trkpt><trkpt lat="45.36677518543586" lon="9.885692520315398"><ele>60.0</ele><time>2026-04-23T15:19:06Z</time></trkpt><trkpt lat="45.36689331906754" lon="9.885804005345083"><ele>60.0</ele><time>2026-04-23T15:19:08Z</time></trkpt><trkpt lat="45.366962444069046" lon="9.8857451853215"><ele>60.0</ele><time>2026-04-23T15:19:11Z</time></trkpt><trkpt lat="45.367024824468146" lon="9.885714926213854"><ele>60.0</ele><time>2026-04-23T15:19:12Z</time></trkpt><trkpt lat="45.36709576764933" lon="9.885780217412897"><ele>60.0</ele><time>2026-04-23T15:19:15Z</time></trkpt><trkpt lat="45.36716421655391" lon="9.885838827558135"><ele>60.0</ele><time>2026-04-23T15:19:18Z</time></trkpt><trkpt lat="45.36723693580098" lon="9.88586391036525"><ele>60.0</ele><time>2026-04-23T15:19:20Z</time></trkpt><trkpt lat="45.36745469627804" lon="9.885920881416949"><ele>60.0</ele><time>2026-04-23T15:19:24Z</time></trkpt><trkpt lat="45.36752360783984" lon="9.885884674500693"><ele>60.0</ele><time>2026-04-23T15:19:25Z</time></trkpt><trkpt lat="45.36762054380701" lon="9.885838351438299"><ele>60.0</ele><time>2026-04-23T15:19:26Z</time></trkpt><trkpt lat="45.36771345480414" lon="9.885925850167565"><ele>60.0</ele><time>2026-04-23T15:19:28Z</time></trkpt><trkpt lat="45.36778126874565" lon="9.885947243728829"><ele>60.0</ele><time>2026-04-23T15:19:29Z</time></trkpt><trkpt lat="45.36792420103441" lon="9.885915447445086"><ele>60.0</ele><time>2026-04-23T15:19:32Z</time></trkpt><trkpt lat="45.36798824730329" lon="9.885985107531656"><ele>60.0</ele><time>2026-04-23T15:19:34Z</time></trkpt><trkpt lat="45.368064559977725" lon="9.885958979500527"><ele>59.8</ele><time>2026-04-23T15:19:35Z</time></trkpt><trkpt lat="45.36819117151946" lon="9.885962590911792"><ele>59.6</ele><time>2026-04-23T15:19:37Z</time></trkpt><trkpt lat="45.36828186156798" lon="9.885951620254717"><ele>59.400000000000006</ele><time>2026-04-23T15:19:39Z</time></trkpt><trkpt lat="45.36840894121566" lon="9.88603157579979"><ele>59.2</ele><time>2026-04-23T15:19:44Z</time></trkpt><trkpt lat="45.36842619143437" lon="9.886119772591005"><ele>59.0</ele><time>2026-04-23T15:19:46Z</time></trkpt><trkpt lat="45.368445507626454" lon="9.886213940265195"><ele>59.00000000000001</ele><time>2026-04-23T15:19:48Z</time></trkpt><trkpt lat="45.368490391266" lon="9.886294428586332"><ele>59.0</ele><time>2026-04-23T15:19:50Z</time></trkpt><trkpt lat="45.36855727657021" lon="9.886366327987254"><ele>59.0</ele><time>2026-04-23T15:19:53Z</time></trkpt><trkpt lat="45.36863891838516" lon="9.886389804348036"><ele>59.0</ele><time>2026-04-23T15:19:56Z</time></trkpt><trkpt lat="45.368670141405296" lon="9.886508320009217"><ele>59.00000000000001</ele><time>2026-04-23T15:19:59Z</time></trkpt><trkpt lat="45.36866923525884" lon="9.886599911173388"><ele>59.0</ele><time>2026-04-23T15:20:01Z</time></trkpt><trkpt lat="45.36870994437633" lon="9.886687998843046"><ele>59.00000000000001</ele><time>2026-04-23T15:20:03Z</time></trkpt><trkpt lat="45.36877957071257" lon="9.886723180014133"><ele>59.0</ele><time>2026-04-23T15:20:06Z</time></trkpt><trkpt lat="45.36887425970132" lon="9.88674418542827"><ele>59.0</ele><time>2026-04-23T15:20:08Z</time></trkpt><trkpt lat="45.368966485048546" lon="9.88676558887032"><ele>59.0</ele><time>2026-04-23T15:20:10Z</time></trkpt><trkpt lat="45.36902081534623" lon="9.886824376047652"><ele>59.00000000000001</ele><time>2026-04-23T15:20:14Z</time></trkpt><trkpt lat="45.369033576629874" lon="9.886928687115487"><ele>59.0</ele><time>2026-04-23T15:20:17Z</time></trkpt><trkpt lat="45.3690954445956" lon="9.88700598445488"><ele>59.285714285714285</ele><time>2026-04-23T15:20:20Z</time></trkpt><trkpt lat="45.369159236865855" lon="9.887035788697053"><ele>59.57142857142857</ele><time>2026-04-23T15:20:21Z</time></trkpt><trkpt lat="45.369172925319425" lon="9.887132497367604"><ele>59.857142857142854</ele><time>2026-04-23T15:20:22Z</time></trkpt><trkpt lat="45.36923405168937" lon="9.8871735813397"><ele>60.14285714285714</ele><time>2026-04-23T15:20:23Z</time></trkpt><trkpt lat="45.36930391345864" lon="9.88721795250732"><ele>60.42857142857143</ele><time>2026-04-23T15:20:24Z</time></trkpt><trkpt lat="45.3693805462175" lon="9.887243192760558"><ele>60.71428571428571</ele><time>2026-04-23T15:20:25Z</time></trkpt><trkpt lat="45.36944676465335" lon="9.88724362810249"><ele>60.99999999999999</ele><time>2026-04-23T15:20:26Z</time></trkpt><trkpt lat="45.36958315804097" lon="9.887210904380867"><ele>61.0</ele><time>2026-04-23T15:20:28Z</time></trkpt><trkpt lat="45.36944372505413" lon="9.887214993208856"><ele>61.0</ele><time>2026-04-23T15:20:33Z</time></trkpt><trkpt lat="45.3693668991946" lon="9.887162288286733"><ele>61.0</ele><time>2026-04-23T15:20:35Z</time></trkpt><trkpt lat="45.36930748162429" lon="9.8870938784448"><ele>61.0</ele><time>2026-04-23T15:20:37Z</time></trkpt><trkpt lat="45.369567120272826" lon="9.887199647173553"><ele>61.0</ele><time>2026-04-23T15:20:41Z</time></trkpt><trkpt lat="45.36937516221245" lon="9.887105231563806"><ele>61.0</ele><time>2026-04-23T15:20:42Z</time></trkpt><trkpt lat="45.36948537544875" lon="9.88707620549545"><ele>61.0</ele><time>2026-04-23T15:20:44Z</time></trkpt><trkpt lat="45.36939781714146" lon="9.887128135778607"><ele>61.0</ele><time>2026-04-23T15:20:48Z</time></trkpt><trkpt lat="45.36932133820866" lon="9.88715584206512"><ele>60.99999999999999</ele><time>2026-04-23T15:20:49Z</time></trkpt><trkpt lat="45.369251725063556" lon="9.887154478620605"><ele>61.0</ele><time>2026-04-23T15:20:50Z</time></trkpt><trkpt lat="45.369167013494994" lon="9.887111352239017"><ele>61.0</ele><time>2026-04-23T15:20:52Z</time></trkpt><trkpt lat="45.369241734586005" lon="9.887148931493378"><ele>61.0</ele><time>2026-04-23T15:20:57Z</time></trkpt><trkpt lat="45.36933716492199" lon="9.887165654622631"><ele>60.99999999999999</ele><time>2026-04-23T15:20:59Z</time></trkpt><trkpt lat="45.369419189541986" lon="9.887170362512535"><ele>61.0</ele><time>2026-04-23T15:21:00Z</time></trkpt><trkpt lat="45.36974580513408" lon="9.887195606947323"><ele>60.99999999999999</ele><time>2026-04-23T15:21:02Z</time></trkpt><trkpt lat="45.369805643619706" lon="9.887159390816697"><ele>61.0</ele><time>2026-04-23T15:21:04Z</time></trkpt><trkpt lat="45.36984800974776" lon="9.887081693695798"><ele>61.0</ele><time>2026-04-23T15:21:06Z</time></trkpt><trkpt lat="45.36988929201695" lon="9.886989272734347"><ele>61.0</ele><time>2026-04-23T15:21:09Z</time></trkpt><trkpt lat="45.369842287503694" lon="9.88692425129488"><ele>60.99999999999999</ele><time>2026-04-23T15:21:13Z</time></trkpt><trkpt lat="45.36975544359848" lon="9.886951895261868"><ele>61.0</ele><time>2026-04-23T15:21:16Z</time></trkpt><trkpt lat="45.36965918548735" lon="9.8869440327474"><ele>61.0</ele><time>2026-04-23T15:21:19Z</time></trkpt><trkpt lat="45.369442766671305" lon="9.886948554824224"><ele>61.0</ele><time>2026-04-23T15:21:20Z</time></trkpt><trkpt lat="45.36932748756546" lon="9.886945969186698"><ele>61.0</ele><time>2026-04-23T15:21:21Z</time></trkpt><trkpt lat="45.36921525711378" lon="9.886936123686993"><ele>61.0</ele><time>2026-04-23T15:21:22Z</time></trkpt><trkpt lat="45.36912369292196" lon="9.886939575087311"><ele>61.0</ele><time>2026-04-23T15:21:23Z</time></trkpt><trkpt lat="45.36915905491785" lon="9.88703464495276"><ele>61.0</ele><time>2026-04-23T15:21:26Z</time></trkpt><trkpt lat="45.36927358289339" lon="9.886988931143756"><ele>61.0</ele><time>2026-04-23T15:21:28Z</time></trkpt><trkpt lat="45.36944385146548" lon="9.88695125124839"><ele>61.0</ele><time>2026-04-23T15:21:29Z</time></trkpt><trkpt lat="45.36960426465722" lon="9.88694835835159"><ele>60.99999999999999</ele><time>2026-04-23T15:21:30Z</time></trkpt><trkpt lat="45.369739028063876" lon="9.886940972777609"><ele>61.0</ele><time>2026-04-23T15:21:31Z</time></trkpt><trkpt lat="45.36980067004116" lon="9.886980430977886"><ele>61.0</ele><time>2026-04-23T15:21:33Z</time></trkpt><trkpt lat="45.36974263778841" lon="9.88701548044897"><ele>61.0</ele><time>2026-04-23T15:21:36Z</time></trkpt><trkpt lat="45.36967124812102" lon="9.886983904207636"><ele>60.99999999999999</ele><time>2026-04-23T15:21:37Z</time></trkpt><trkpt lat="45.36959885691623" lon="9.886961093626036"><ele>61.0</ele><time>2026-04-23T15:21:39Z</time></trkpt><trkpt lat="45.369513074637446" lon="9.886980544939291"><ele>60.99999999999999</ele><time>2026-04-23T15:21:42Z</time></trkpt><trkpt lat="45.36943556581747" lon="9.886982600589516"><ele>61.0</ele><time>2026-04-23T15:21:44Z</time></trkpt><trkpt lat="45.36934276431042" lon="9.886969563434052"><ele>61.0</ele><time>2026-04-23T15:21:46Z</time></trkpt><trkpt lat="45.369262365339935" lon="9.886959495974745"><ele>61.0</ele><time>2026-04-23T15:21:48Z</time></trkpt><trkpt lat="45.36918183093222" lon="9.88698468744774"><ele>60.99999999999999</ele><time>2026-04-23T15:21:50Z</time></trkpt><trkpt lat="45.36910570499726" lon="9.886971226057987"><ele>61.0</ele><time>2026-04-23T15:21:53Z</time></trkpt><trkpt lat="45.36907621519584" lon="9.886887937976505"><ele>60.99999999999999</ele><time>2026-04-23T15:21:57Z</time></trkpt><trkpt lat="45.36902540274657" lon="9.886824263562815"><ele>61.0</ele><time>2026-04-23T15:22:23Z</time></trkpt><trkpt lat="45.36895107816345" lon="9.886830141120013"><ele>61.0</ele><time>2026-04-23T15:22:26Z</time></trkpt><trkpt lat="45.368885565955246" lon="9.886830786359573"><ele>61.0</ele><time>2026-04-23T15:22:30Z</time></trkpt><trkpt lat="45.368849254724346" lon="9.886746765349619"><ele>60.99999999999999</ele><time>2026-04-23T15:22:33Z</time></trkpt><trkpt lat="45.36884404236812" lon="9.886644743308699"><ele>61.0</ele><time>2026-04-23T15:22:35Z</time></trkpt><trkpt lat="45.36897172891409" lon="9.88658534104002"><ele>60.85714285714285</ele><time>2026-04-23T15:22:40Z</time></trkpt><trkpt lat="45.36903520643817" lon="9.886579618918935"><ele>60.71428571428571</ele><time>2026-04-23T15:22:41Z</time></trkpt><trkpt lat="45.36909766264926" lon="9.886567956862761"><ele>60.57142857142857</ele><time>2026-04-23T15:22:42Z</time></trkpt><trkpt lat="45.36917101075558" lon="9.886537085100334"><ele>60.42857142857142</ele><time>2026-04-23T15:22:43Z</time></trkpt><trkpt lat="45.36923443349191" lon="9.886508229037743"><ele>60.28571428571428</ele><time>2026-04-23T15:22:44Z</time></trkpt><trkpt lat="45.36929964198142" lon="9.886500418550426"><ele>60.142857142857146</ele><time>2026-04-23T15:22:45Z</time></trkpt><trkpt lat="45.36937681408217" lon="9.886508484091035"><ele>60.0</ele><time>2026-04-23T15:22:46Z</time></trkpt><trkpt lat="45.369459783878156" lon="9.88652574094274"><ele>60.0</ele><time>2026-04-23T15:22:47Z</time></trkpt><trkpt lat="45.369542319501186" lon="9.886533772437588"><ele>60.0</ele><time>2026-04-23T15:22:48Z</time></trkpt><trkpt lat="45.36962183487504" lon="9.886541639873707"><ele>60.0</ele><time>2026-04-23T15:22:49Z</time></trkpt><trkpt lat="45.36971372905853" lon="9.886533440382873"><ele>60.0</ele><time>2026-04-23T15:22:50Z</time></trkpt><trkpt lat="45.36979386773022" lon="9.886533501538024"><ele>60.0</ele><time>2026-04-23T15:22:51Z</time></trkpt><trkpt lat="45.36987472548192" lon="9.886535852290972"><ele>60.0</ele><time>2026-04-23T15:22:52Z</time></trkpt><trkpt lat="45.36996410783458" lon="9.88654402548249"><ele>60.4</ele><time>2026-04-23T15:22:53Z</time></trkpt><trkpt lat="45.370058605841045" lon="9.8865645654343"><ele>60.8</ele><time>2026-04-23T15:22:54Z</time></trkpt><trkpt lat="45.370160012666425" lon="9.886576801042251"><ele>61.2</ele><time>2026-04-23T15:22:55Z</time></trkpt><trkpt lat="45.3702564285106" lon="9.886582570982355"><ele>61.6</ele><time>2026-04-23T15:22:56Z</time></trkpt><trkpt lat="45.370347425830325" lon="9.8865982855961"><ele>62.0</ele><time>2026-04-23T15:22:57Z</time></trkpt><trkpt lat="45.370441473063636" lon="9.886616287938041"><ele>62.400000000000006</ele><time>2026-04-23T15:22:58Z</time></trkpt><trkpt lat="45.37054204367657" lon="9.886625091372933"><ele>62.800000000000004</ele><time>2026-04-23T15:22:59Z</time></trkpt><trkpt lat="45.37063126489029" lon="9.886630880878599"><ele>63.2</ele><time>2026-04-23T15:23:00Z</time></trkpt><trkpt lat="45.37072074431736" lon="9.886627515882038"><ele>63.6</ele><time>2026-04-23T15:23:01Z</time></trkpt><trkpt lat="45.370816944941105" lon="9.886619795252523"><ele>64.0</ele><time>2026-04-23T15:23:02Z</time></trkpt><trkpt lat="45.37090526316366" lon="9.886618448896009"><ele>63.99999999999999</ele><time>2026-04-23T15:23:03Z</time></trkpt><trkpt lat="45.370971425597844" lon="9.886612980621063"><ele>64.0</ele><time>2026-04-23T15:23:04Z</time></trkpt><trkpt lat="45.371038827225576" lon="9.886600225321896"><ele>64.0</ele><time>2026-04-23T15:23:05Z</time></trkpt><trkpt lat="45.37111822157206" lon="9.88656085496138"><ele>64.0</ele><time>2026-04-23T15:23:06Z</time></trkpt><trkpt lat="45.37120912915109" lon="9.886535830399469"><ele>63.99999999999999</ele><time>2026-04-23T15:23:07Z</time></trkpt><trkpt lat="45.37130250604802" lon="9.886532514452892"><ele>64.0</ele><time>2026-04-23T15:23:08Z</time></trkpt><trkpt lat="45.37139757457519" lon="9.886542977063026"><ele>64.4</ele><time>2026-04-23T15:23:09Z</time></trkpt><trkpt lat="45.37148762707393" lon="9.886558900109733"><ele>64.80000000000001</ele><time>2026-04-23T15:23:10Z</time></trkpt><trkpt lat="45.37156860511928" lon="9.886562018687819"><ele>65.19999999999999</ele><time>2026-04-23T15:23:11Z</time></trkpt><trkpt lat="45.37163618653049" lon="9.886570219831581"><ele>65.6</ele><time>2026-04-23T15:23:12Z</time></trkpt><trkpt lat="45.371759713680035" lon="9.88664834185488"><ele>66.0</ele><time>2026-04-23T15:23:14Z</time></trkpt><trkpt lat="45.37181426938088" lon="9.88672647444261"><ele>64.83333333333333</ele><time>2026-04-23T15:23:15Z</time></trkpt><trkpt lat="45.37186297581494" lon="9.88682996081449"><ele>63.66666666666667</ele><time>2026-04-23T15:23:16Z</time></trkpt><trkpt lat="45.3719056552595" lon="9.886943382715934"><ele>62.5</ele><time>2026-04-23T15:23:17Z</time></trkpt><trkpt lat="45.37195243692798" lon="9.887038910821786"><ele>61.333333333333336</ele><time>2026-04-23T15:23:18Z</time></trkpt><trkpt lat="45.3720160889986" lon="9.887098776026034"><ele>60.16666666666667</ele><time>2026-04-23T15:23:19Z</time></trkpt><trkpt lat="45.37209121315891" lon="9.887147841246811"><ele>59.0</ele><time>2026-04-23T15:23:20Z</time></trkpt><trkpt lat="45.372161818408266" lon="9.887216195933991"><ele>59.333333333333336</ele><time>2026-04-23T15:23:21Z</time></trkpt><trkpt lat="45.372248448766406" lon="9.887295390134605"><ele>59.66666666666667</ele><time>2026-04-23T15:23:22Z</time></trkpt><trkpt lat="45.37231788728334" lon="9.887347724686505"><ele>60.0</ele><time>2026-04-23T15:23:23Z</time></trkpt><trkpt lat="45.37237490534858" lon="9.887426273511066"><ele>60.33333333333333</ele><time>2026-04-23T15:23:24Z</time></trkpt><trkpt lat="45.37243086171453" lon="9.887517222104275"><ele>60.666666666666664</ele><time>2026-04-23T15:23:25Z</time></trkpt><trkpt lat="45.372483544997266" lon="9.887601767373114"><ele>61.0</ele><time>2026-04-23T15:23:26Z</time></trkpt><trkpt lat="45.37253450200388" lon="9.887698489771708"><ele>60.99999999999999</ele><time>2026-04-23T15:23:27Z</time></trkpt><trkpt lat="45.37260835768949" lon="9.88779204142243"><ele>61.0</ele><time>2026-04-23T15:23:28Z</time></trkpt><trkpt lat="45.37266853269987" lon="9.887890392808096"><ele>61.0</ele><time>2026-04-23T15:23:29Z</time></trkpt><trkpt lat="45.37272732394873" lon="9.88798861009952"><ele>61.0</ele><time>2026-04-23T15:23:30Z</time></trkpt><trkpt lat="45.37277484614073" lon="9.888080510991841"><ele>60.99999999999999</ele><time>2026-04-23T15:23:31Z</time></trkpt><trkpt lat="45.37282579630289" lon="9.888175695031887"><ele>61.0</ele><time>2026-04-23T15:23:32Z</time></trkpt><trkpt lat="45.37287854146528" lon="9.888289605125918"><ele>61.0</ele><time>2026-04-23T15:23:33Z</time></trkpt><trkpt lat="45.372927848125805" lon="9.888408384264707"><ele>60.99999999999999</ele><time>2026-04-23T15:23:34Z</time></trkpt><trkpt lat="45.37296277485117" lon="9.888535584149386"><ele>60.99999999999999</ele><time>2026-04-23T15:23:35Z</time></trkpt><trkpt lat="45.372977799669826" lon="9.888658654045233"><ele>61.0</ele><time>2026-04-23T15:23:36Z</time></trkpt><trkpt lat="45.37299753819271" lon="9.888788502284822"><ele>61.0</ele><time>2026-04-23T15:23:37Z</time></trkpt><trkpt lat="45.373005424059045" lon="9.888918436896674"><ele>60.8</ele><time>2026-04-23T15:23:38Z</time></trkpt><trkpt lat="45.373004583316096" lon="9.889050925237768"><ele>60.599999999999994</ele><time>2026-04-23T15:23:39Z</time></trkpt><trkpt lat="45.37300048250321" lon="9.88918610037684"><ele>60.4</ele><time>2026-04-23T15:23:40Z</time></trkpt><trkpt lat="45.37300586402725" lon="9.889320992754598"><ele>60.2</ele><time>2026-04-23T15:23:41Z</time></trkpt><trkpt lat="45.373006389333526" lon="9.889446904185743"><ele>60.0</ele><time>2026-04-23T15:23:42Z</time></trkpt><trkpt lat="45.37300588200414" lon="9.889578119477612"><ele>60.0</ele><time>2026-04-23T15:23:43Z</time></trkpt><trkpt lat="45.37301298192713" lon="9.889704998991983"><ele>60.0</ele><time>2026-04-23T15:23:44Z</time></trkpt><trkpt lat="45.37302051535315" lon="9.889832183057708"><ele>60.0</ele><time>2026-04-23T15:23:45Z</time></trkpt><trkpt lat="45.37303039256834" lon="9.889957468946"><ele>60.0</ele><time>2026-04-23T15:23:46Z</time></trkpt><trkpt lat="45.373048384866856" lon="9.890076853038606"><ele>60.0</ele><time>2026-04-23T15:23:47Z</time></trkpt><trkpt lat="45.37306676420904" lon="9.890189102295382"><ele>60.0</ele><time>2026-04-23T15:23:48Z</time></trkpt><trkpt lat="45.37308151403539" lon="9.890303183961382"><ele>59.833333333333336</ele><time>2026-04-23T15:23:49Z</time></trkpt><trkpt lat="45.37310160229231" lon="9.890414626141942"><ele>59.66666666666667</ele><time>2026-04-23T15:23:50Z</time></trkpt><trkpt lat="45.373131677914756" lon="9.890512951788748"><ele>59.5</ele><time>2026-04-23T15:23:51Z</time></trkpt><trkpt lat="45.37317146400705" lon="9.890604374111554"><ele>59.333333333333336</ele><time>2026-04-23T15:23:52Z</time></trkpt><trkpt lat="45.373225320490306" lon="9.890692235117768"><ele>59.16666666666667</ele><time>2026-04-23T15:23:53Z</time></trkpt><trkpt lat="45.37327257293163" lon="9.890775270760297"><ele>59.0</ele><time>2026-04-23T15:23:54Z</time></trkpt><trkpt lat="45.373318889732246" lon="9.890847767805221"><ele>59.00000000000001</ele><time>2026-04-23T15:23:55Z</time></trkpt><trkpt lat="45.373367440764945" lon="9.890913005588443"><ele>59.0</ele><time>2026-04-23T15:23:56Z</time></trkpt><trkpt lat="45.37342631530122" lon="9.8909948082456"><ele>59.0</ele><time>2026-04-23T15:23:57Z</time></trkpt><trkpt lat="45.37347865721256" lon="9.891102399369222"><ele>59.0</ele><time>2026-04-23T15:23:58Z</time></trkpt><trkpt lat="45.37351924099237" lon="9.891225865191783"><ele>59.00000000000001</ele><time>2026-04-23T15:23:59Z</time></trkpt><trkpt lat="45.3735567746589" lon="9.89134246055422"><ele>59.0</ele><time>2026-04-23T15:24:00Z</time></trkpt><trkpt lat="45.37360387451241" lon="9.891429402362908"><ele>59.00000000000001</ele><time>2026-04-23T15:24:01Z</time></trkpt><trkpt lat="45.37366588609337" lon="9.891513568594366"><ele>59.0</ele><time>2026-04-23T15:24:02Z</time></trkpt><trkpt lat="45.37372157508599" lon="9.891611068925275"><ele>59.0</ele><time>2026-04-23T15:24:03Z</time></trkpt><trkpt lat="45.37376103113901" lon="9.891709477572963"><ele>59.0</ele><time>2026-04-23T15:24:04Z</time></trkpt><trkpt lat="45.37380006662948" lon="9.891815706638761"><ele>59.00000000000001</ele><time>2026-04-23T15:24:05Z</time></trkpt><trkpt lat="45.37383541746512" lon="9.891912039874464"><ele>59.0</ele><time>2026-04-23T15:24:06Z</time></trkpt><trkpt lat="45.37395315171805" lon="9.89200347977626"><ele>59.00000000000001</ele><time>2026-04-23T15:24:08Z</time></trkpt><trkpt lat="45.3740345187185" lon="9.892019091292479"><ele>59.0</ele><time>2026-04-23T15:24:09Z</time></trkpt><trkpt lat="45.374114043302974" lon="9.892053637956444"><ele>59.0</ele><time>2026-04-23T15:24:10Z</time></trkpt><trkpt lat="45.37419714708274" lon="9.89210016057231"><ele>59.0</ele><time>2026-04-23T15:24:11Z</time></trkpt><trkpt lat="45.37428127831172" lon="9.892152690962208"><ele>59.00000000000001</ele><time>2026-04-23T15:24:12Z</time></trkpt><trkpt lat="45.37436448107406" lon="9.892213163214823"><ele>59.0</ele><time>2026-04-23T15:24:13Z</time></trkpt><trkpt lat="45.37445113337678" lon="9.892277223140905"><ele>59.0</ele><time>2026-04-23T15:24:14Z</time></trkpt><trkpt lat="45.37453947801981" lon="9.892338836484425"><ele>59.00000000000001</ele><time>2026-04-23T15:24:15Z</time></trkpt><trkpt lat="45.37463456178662" lon="9.892398485585872"><ele>59.00000000000001</ele><time>2026-04-23T15:24:16Z</time></trkpt><trkpt lat="45.37472950500283" lon="9.892463386845426"><ele>59.0</ele><time>2026-04-23T15:24:17Z</time></trkpt><trkpt lat="45.37481968798169" lon="9.892510666736609"><ele>59.0</ele><time>2026-04-23T15:24:18Z</time></trkpt><trkpt lat="45.37491181134835" lon="9.892540355014482"><ele>59.0</ele><time>2026-04-23T15:24:19Z</time></trkpt><trkpt lat="45.375013290793" lon="9.892550115932442"><ele>59.00000000000001</ele><time>2026-04-23T15:24:20Z</time></trkpt><trkpt lat="45.37511726195335" lon="9.892544739968487"><ele>59.00000000000001</ele><time>2026-04-23T15:24:21Z</time></trkpt><trkpt lat="45.37521587883518" lon="9.892549410123207"><ele>59.0</ele><time>2026-04-23T15:24:22Z</time></trkpt><trkpt lat="45.37530232101752" lon="9.892576757006466"><ele>59.0</ele><time>2026-04-23T15:24:23Z</time></trkpt><trkpt lat="45.37538133127931" lon="9.892605351590085"><ele>59.00000000000001</ele><time>2026-04-23T15:24:24Z</time></trkpt><trkpt lat="45.37544878851294" lon="9.892638251891585"><ele>59.0</ele><time>2026-04-23T15:24:25Z</time></trkpt><trkpt lat="45.375575914634986" lon="9.892640222089296"><ele>59.0</ele><time>2026-04-23T15:24:27Z</time></trkpt><trkpt lat="45.375644749716365" lon="9.892593351075664"><ele>59.0</ele><time>2026-04-23T15:24:28Z</time></trkpt><trkpt lat="45.375717908749365" lon="9.892539110903849"><ele>59.00000000000001</ele><time>2026-04-23T15:24:29Z</time></trkpt><trkpt lat="45.37579158169922" lon="9.892503510839767"><ele>59.0</ele><time>2026-04-23T15:24:30Z</time></trkpt><trkpt lat="45.375867915518306" lon="9.89248155591491"><ele>59.00000000000001</ele><time>2026-04-23T15:24:31Z</time></trkpt><trkpt lat="45.375948346597674" lon="9.892463885521376"><ele>59.0</ele><time>2026-04-23T15:24:32Z</time></trkpt><trkpt lat="45.3760213320618" lon="9.892423878273362"><ele>59.0</ele><time>2026-04-23T15:24:33Z</time></trkpt><trkpt lat="45.37608817795316" lon="9.892352080126024"><ele>59.0</ele><time>2026-04-23T15:24:34Z</time></trkpt><trkpt lat="45.37615938212309" lon="9.892263815106741"><ele>59.00000000000001</ele><time>2026-04-23T15:24:35Z</time></trkpt><trkpt lat="45.376236039469084" lon="9.892182538990323"><ele>59.0</ele><time>2026-04-23T15:24:36Z</time></trkpt><trkpt lat="45.37631436712818" lon="9.892096986445212"><ele>59.00000000000001</ele><time>2026-04-23T15:24:37Z</time></trkpt><trkpt lat="45.37638696739007" lon="9.892005430622767"><ele>59.0</ele><time>2026-04-23T15:24:38Z</time></trkpt><trkpt lat="45.37645171641841" lon="9.891919031930996"><ele>59.0</ele><time>2026-04-23T15:24:39Z</time></trkpt><trkpt lat="45.37652067178644" lon="9.89184401873906"><ele>59.0</ele><time>2026-04-23T15:24:40Z</time></trkpt><trkpt lat="45.37657859669683" lon="9.891792223488515"><ele>59.00000000000001</ele><time>2026-04-23T15:24:41Z</time></trkpt><trkpt lat="45.376660422082715" lon="9.891720139198386"><ele>59.0</ele><time>2026-04-23T15:24:43Z</time></trkpt><trkpt lat="45.376714035828954" lon="9.89165359351133"><ele>59.0</ele><time>2026-04-23T15:24:46Z</time></trkpt><trkpt lat="45.37679509281312" lon="9.891561060146426"><ele>59.00000000000001</ele><time>2026-04-23T15:24:49Z</time></trkpt><trkpt lat="45.37685392272753" lon="9.891501654366245"><ele>59.00000000000001</ele><time>2026-04-23T15:24:51Z</time></trkpt><trkpt lat="45.37694527005867" lon="9.891350750928744"><ele>59.0</ele><time>2026-04-23T15:24:53Z</time></trkpt><trkpt lat="45.37696009338088" lon="9.891201181550995"><ele>59.0</ele><time>2026-04-23T15:24:55Z</time></trkpt><trkpt lat="45.37692206080061" lon="9.891124761226452"><ele>59.00000000000001</ele><time>2026-04-23T15:24:56Z</time></trkpt><trkpt lat="45.37688059453112" lon="9.890993954088458"><ele>59.0</ele><time>2026-04-23T15:24:58Z</time></trkpt><trkpt lat="45.37691996154432" lon="9.890907679177511"><ele>59.0</ele><time>2026-04-23T15:25:00Z</time></trkpt><trkpt lat="45.37700719507524" lon="9.890843331846321"><ele>59.0</ele><time>2026-04-23T15:25:02Z</time></trkpt><trkpt lat="45.377077907287756" lon="9.89079583456687"><ele>59.00000000000001</ele><time>2026-04-23T15:25:03Z</time></trkpt><trkpt lat="45.3771549546335" lon="9.890755526529558"><ele>59.0</ele><time>2026-04-23T15:25:04Z</time></trkpt><trkpt lat="45.37722772986046" lon="9.89071775482851"><ele>59.00000000000001</ele><time>2026-04-23T15:25:05Z</time></trkpt><trkpt lat="45.37730375189105" lon="9.8906540182283"><ele>59.0</ele><time>2026-04-23T15:25:06Z</time></trkpt><trkpt lat="45.377361222144785" lon="9.8905606972818"><ele>59.0</ele><time>2026-04-23T15:25:07Z</time></trkpt><trkpt lat="45.37739057276404" lon="9.890444372332086"><ele>59.0</ele><time>2026-04-23T15:25:08Z</time></trkpt><trkpt lat="45.377420705780764" lon="9.890318685168065"><ele>59.00000000000001</ele><time>2026-04-23T15:25:09Z</time></trkpt><trkpt lat="45.3774410941186" lon="9.89018881908836"><ele>59.0</ele><time>2026-04-23T15:25:10Z</time></trkpt><trkpt lat="45.37748949443938" lon="9.890055042269775"><ele>59.2</ele><time>2026-04-23T15:25:11Z</time></trkpt><trkpt lat="45.377524705552354" lon="9.889917149058476"><ele>59.400000000000006</ele><time>2026-04-23T15:25:12Z</time></trkpt><trkpt lat="45.37756206122891" lon="9.889779321543504"><ele>59.6</ele><time>2026-04-23T15:25:13Z</time></trkpt><trkpt lat="45.37758902038307" lon="9.889641021013887"><ele>59.8</ele><time>2026-04-23T15:25:14Z</time></trkpt><trkpt lat="45.377609352865306" lon="9.88951782064903"><ele>60.0</ele><time>2026-04-23T15:25:15Z</time></trkpt><trkpt lat="45.377633618823246" lon="9.889402185026272"><ele>60.0</ele><time>2026-04-23T15:25:16Z</time></trkpt><trkpt lat="45.37766148911585" lon="9.889289190185702"><ele>60.0</ele><time>2026-04-23T15:25:17Z</time></trkpt><trkpt lat="45.37768487350636" lon="9.889174205144602"><ele>60.0</ele><time>2026-04-23T15:25:18Z</time></trkpt><trkpt lat="45.37771114127342" lon="9.889060978703252"><ele>60.0</ele><time>2026-04-23T15:25:19Z</time></trkpt><trkpt lat="45.37774671859313" lon="9.888946032236998"><ele>60.0</ele><time>2026-04-23T15:25:20Z</time></trkpt><trkpt lat="45.377793450270836" lon="9.888834736201016"><ele>60.0</ele><time>2026-04-23T15:25:21Z</time></trkpt><trkpt lat="45.37783082087839" lon="9.88873558704885"><ele>60.2</ele><time>2026-04-23T15:25:22Z</time></trkpt><trkpt lat="45.37787777384091" lon="9.888617383953811"><ele>60.4</ele><time>2026-04-23T15:25:23Z</time></trkpt><trkpt lat="45.37791948854124" lon="9.88849627727706"><ele>60.599999999999994</ele><time>2026-04-23T15:25:24Z</time></trkpt><trkpt lat="45.377955774251056" lon="9.888369068953624"><ele>60.8</ele><time>2026-04-23T15:25:25Z</time></trkpt><trkpt lat="45.37800406107985" lon="9.888252013312629"><ele>61.0</ele><time>2026-04-23T15:25:26Z</time></trkpt><trkpt lat="45.37805142365085" lon="9.88813533010416"><ele>61.166666666666664</ele><time>2026-04-23T15:25:27Z</time></trkpt><trkpt lat="45.3780953971829" lon="9.888013627829608"><ele>61.33333333333333</ele><time>2026-04-23T15:25:28Z</time></trkpt><trkpt lat="45.37814316820399" lon="9.887900878495335"><ele>61.5</ele><time>2026-04-23T15:25:29Z</time></trkpt><trkpt lat="45.37819610934394" lon="9.887792378928403"><ele>61.66666666666667</ele><time>2026-04-23T15:25:30Z</time></trkpt><trkpt lat="45.37823842793271" lon="9.887689225573798"><ele>61.833333333333336</ele><time>2026-04-23T15:25:31Z</time></trkpt><trkpt lat="45.37826691199698" lon="9.887589992709247"><ele>62.0</ele><time>2026-04-23T15:25:32Z</time></trkpt><trkpt lat="45.37828467388352" lon="9.887482637851695"><ele>62.00000000000001</ele><time>2026-04-23T15:25:33Z</time></trkpt><trkpt lat="45.37829689828779" lon="9.887368366480821"><ele>62.0</ele><time>2026-04-23T15:25:34Z</time></trkpt><trkpt lat="45.378307030029475" lon="9.887245461292832"><ele>62.0</ele><time>2026-04-23T15:25:35Z</time></trkpt><trkpt lat="45.37831209039889" lon="9.887121371756578"><ele>62.0</ele><time>2026-04-23T15:25:36Z</time></trkpt><trkpt lat="45.37832285499885" lon="9.88699589977304"><ele>62.00000000000001</ele><time>2026-04-23T15:25:37Z</time></trkpt><trkpt lat="45.37834145149138" lon="9.886870155571888"><ele>62.0</ele><time>2026-04-23T15:25:38Z</time></trkpt><trkpt lat="45.37836586946904" lon="9.886742837324748"><ele>62.0</ele><time>2026-04-23T15:25:39Z</time></trkpt><trkpt lat="45.37839271466371" lon="9.886611512173554"><ele>62.0</ele><time>2026-04-23T15:25:40Z</time></trkpt><trkpt lat="45.37841879478316" lon="9.886482321303133"><ele>62.0</ele><time>2026-04-23T15:25:41Z</time></trkpt><trkpt lat="45.3784476248736" lon="9.886360607423164"><ele>62.0</ele><time>2026-04-23T15:25:42Z</time></trkpt><trkpt lat="45.37848584900384" lon="9.886242034568605"><ele>62.0</ele><time>2026-04-23T15:25:43Z</time></trkpt><trkpt lat="45.37852467837619" lon="9.886126860496972"><ele>62.00000000000001</ele><time>2026-04-23T15:25:44Z</time></trkpt><trkpt lat="45.378558762909016" lon="9.886042487658107"><ele>62.0</ele><time>2026-04-23T15:25:45Z</time></trkpt><trkpt lat="45.3786011528335" lon="9.885961316202316"><ele>62.0</ele><time>2026-04-23T15:25:46Z</time></trkpt><trkpt lat="45.37866285134396" lon="9.885882834121576"><ele>62.0</ele><time>2026-04-23T15:25:47Z</time></trkpt><trkpt lat="45.3787406450867" lon="9.885817011033687"><ele>62.00000000000001</ele><time>2026-04-23T15:25:48Z</time></trkpt><trkpt lat="45.37882406249796" lon="9.88575167233875"><ele>62.0</ele><time>2026-04-23T15:25:49Z</time></trkpt><trkpt lat="45.37890955652612" lon="9.885696920599573"><ele>61.6</ele><time>2026-04-23T15:25:50Z</time></trkpt><trkpt lat="45.37899341856736" lon="9.885634936520828"><ele>61.2</ele><time>2026-04-23T15:25:51Z</time></trkpt><trkpt lat="45.37907149954565" lon="9.885568080094028"><ele>60.8</ele><time>2026-04-23T15:25:52Z</time></trkpt><trkpt lat="45.37915068895198" lon="9.885508765974969"><ele>60.4</ele><time>2026-04-23T15:25:53Z</time></trkpt><trkpt lat="45.37923455128326" lon="9.88545214218973"><ele>60.0</ele><time>2026-04-23T15:25:54Z</time></trkpt><trkpt lat="45.37931817164933" lon="9.885417102288331"><ele>60.0</ele><time>2026-04-23T15:25:55Z</time></trkpt><trkpt lat="45.37941007984803" lon="9.885391383362226"><ele>60.0</ele><time>2026-04-23T15:25:56Z</time></trkpt><trkpt lat="45.37950057485719" lon="9.885374396515708"><ele>60.0</ele><time>2026-04-23T15:25:57Z</time></trkpt><trkpt lat="45.37958696094516" lon="9.885363155247111"><ele>60.0</ele><time>2026-04-23T15:25:58Z</time></trkpt><trkpt lat="45.37965905014484" lon="9.885341711159684"><ele>60.0</ele><time>2026-04-23T15:25:59Z</time></trkpt><trkpt lat="45.37972302268503" lon="9.885305047637997"><ele>60.0</ele><time>2026-04-23T15:26:00Z</time></trkpt><trkpt lat="45.379787710407385" lon="9.885248176383456"><ele>60.333333333333336</ele><time>2026-04-23T15:26:01Z</time></trkpt><trkpt lat="45.37985736903287" lon="9.885188525818615"><ele>60.66666666666667</ele><time>2026-04-23T15:26:02Z</time></trkpt><trkpt lat="45.37992392250772" lon="9.885130644704082"><ele>61.0</ele><time>2026-04-23T15:26:03Z</time></trkpt><trkpt lat="45.38001038578349" lon="9.885051962533339"><ele>61.333333333333336</ele><time>2026-04-23T15:26:05Z</time></trkpt><trkpt lat="45.38000912008996" lon="9.884951616334538"><ele>61.66666666666667</ele><time>2026-04-23T15:26:09Z</time></trkpt><trkpt lat="45.37994565128357" lon="9.884878904920903"><ele>62.0</ele><time>2026-04-23T15:26:11Z</time></trkpt><trkpt lat="45.379871752173315" lon="9.884749044591924"><ele>62.16666666666667</ele><time>2026-04-23T15:26:13Z</time></trkpt><trkpt lat="45.37980838796895" lon="9.884601735799908"><ele>62.333333333333336</ele><time>2026-04-23T15:26:15Z</time></trkpt><trkpt lat="45.37976845372958" lon="9.884524778961632"><ele>62.5</ele><time>2026-04-23T15:26:16Z</time></trkpt><trkpt lat="45.37972650409669" lon="9.88444095245744"><ele>62.66666666666667</ele><time>2026-04-23T15:26:17Z</time></trkpt><trkpt lat="45.37969374184586" lon="9.884346926040951"><ele>62.833333333333336</ele><time>2026-04-23T15:26:18Z</time></trkpt><trkpt lat="45.379671535270234" lon="9.884232473141903"><ele>63.0</ele><time>2026-04-23T15:26:19Z</time></trkpt><trkpt lat="45.37965220917169" lon="9.88412016657748"><ele>63.0</ele><time>2026-04-23T15:26:20Z</time></trkpt><trkpt lat="45.37962500274342" lon="9.884032942168458"><ele>63.0</ele><time>2026-04-23T15:26:21Z</time></trkpt><trkpt lat="45.37966853510734" lon="9.883928161003604"><ele>63.0</ele><time>2026-04-23T15:26:23Z</time></trkpt><trkpt lat="45.37977924602739" lon="9.883840821764108"><ele>63.0</ele><time>2026-04-23T15:26:25Z</time></trkpt><trkpt lat="45.379854187038944" lon="9.883816749755713"><ele>63.0</ele><time>2026-04-23T15:26:26Z</time></trkpt><trkpt lat="45.37993354105654" lon="9.883782580530049"><ele>63.0</ele><time>2026-04-23T15:26:27Z</time></trkpt><trkpt lat="45.38000724265384" lon="9.883747145176677"><ele>63.4</ele><time>2026-04-23T15:26:28Z</time></trkpt><trkpt lat="45.380081186036136" lon="9.883708860322354"><ele>63.8</ele><time>2026-04-23T15:26:29Z</time></trkpt><trkpt lat="45.3801420727852" lon="9.88367132277828"><ele>64.2</ele><time>2026-04-23T15:26:30Z</time></trkpt><trkpt lat="45.380226224098855" lon="9.883590806978644"><ele>64.6</ele><time>2026-04-23T15:26:32Z</time></trkpt><trkpt lat="45.38024278095304" lon="9.883469795068459"><ele>65.0</ele><time>2026-04-23T15:26:34Z</time></trkpt><trkpt lat="45.38019791710139" lon="9.883305948266962"><ele>65.0</ele><time>2026-04-23T15:26:36Z</time></trkpt><trkpt lat="45.38015996250288" lon="9.88319749710909"><ele>65.0</ele><time>2026-04-23T15:26:37Z</time></trkpt><trkpt lat="45.38012762320379" lon="9.883095979646459"><ele>65.0</ele><time>2026-04-23T15:26:38Z</time></trkpt><trkpt lat="45.38009067333769" lon="9.882988405282672"><ele>65.0</ele><time>2026-04-23T15:26:39Z</time></trkpt><trkpt lat="45.380049339084756" lon="9.882878013113674"><ele>65.0</ele><time>2026-04-23T15:26:40Z</time></trkpt><trkpt lat="45.380010595971655" lon="9.882764037059037"><ele>65.0</ele><time>2026-04-23T15:26:41Z</time></trkpt><trkpt lat="45.37996609694049" lon="9.882647516262319"><ele>65.16666666666667</ele><time>2026-04-23T15:26:42Z</time></trkpt><trkpt lat="45.379923602523824" lon="9.882554107942116"><ele>65.33333333333334</ele><time>2026-04-23T15:26:43Z</time></trkpt><trkpt lat="45.37988685687996" lon="9.882466416971402"><ele>65.5</ele><time>2026-04-23T15:26:44Z</time></trkpt><trkpt lat="45.379858945930934" lon="9.882376762984444"><ele>65.66666666666667</ele><time>2026-04-23T15:26:45Z</time></trkpt><trkpt lat="45.37983942654526" lon="9.882290233835892"><ele>65.83333333333333</ele><time>2026-04-23T15:26:46Z</time></trkpt><trkpt lat="45.37985375373573" lon="9.882171184732824"><ele>66.0</ele><time>2026-04-23T15:26:48Z</time></trkpt><trkpt lat="45.37995237995925" lon="9.882103476773871"><ele>66.0</ele><time>2026-04-23T15:26:50Z</time></trkpt><trkpt lat="45.38002000115415" lon="9.882090622352774"><ele>66.0</ele><time>2026-04-23T15:26:51Z</time></trkpt><trkpt lat="45.38008875342846" lon="9.88208338016807"><ele>66.0</ele><time>2026-04-23T15:26:52Z</time></trkpt><trkpt lat="45.3801565600622" lon="9.88206280160298"><ele>66.0</ele><time>2026-04-23T15:26:53Z</time></trkpt><trkpt lat="45.38022183243844" lon="9.882014449652617"><ele>66.0</ele><time>2026-04-23T15:26:54Z</time></trkpt><trkpt lat="45.38029029206265" lon="9.881952941698414"><ele>66.0</ele><time>2026-04-23T15:26:55Z</time></trkpt><trkpt lat="45.38037119655987" lon="9.88187887846932"><ele>66.0</ele><time>2026-04-23T15:26:56Z</time></trkpt><trkpt lat="45.38045465939488" lon="9.881795227349652"><ele>66.0</ele><time>2026-04-23T15:26:57Z</time></trkpt><trkpt lat="45.38054470443561" lon="9.881704940495567"><ele>66.0</ele><time>2026-04-23T15:26:58Z</time></trkpt><trkpt lat="45.38062817650337" lon="9.881622606302985"><ele>66.0</ele><time>2026-04-23T15:26:59Z</time></trkpt><trkpt lat="45.380704903991635" lon="9.881551835895788"><ele>66.0</ele><time>2026-04-23T15:27:00Z</time></trkpt><trkpt lat="45.38079556993487" lon="9.881483228707664"><ele>66.0</ele><time>2026-04-23T15:27:01Z</time></trkpt><trkpt lat="45.380887359262445" lon="9.881420858396176"><ele>66.0</ele><time>2026-04-23T15:27:02Z</time></trkpt><trkpt lat="45.38096676367935" lon="9.881372717960039"><ele>66.0</ele><time>2026-04-23T15:27:03Z</time></trkpt><trkpt lat="45.381046834282905" lon="9.881326296592237"><ele>66.0</ele><time>2026-04-23T15:27:04Z</time></trkpt><trkpt lat="45.38111354344979" lon="9.88128887988748"><ele>66.0</ele><time>2026-04-23T15:27:05Z</time></trkpt><trkpt lat="45.38117765089373" lon="9.881257472886423"><ele>66.0</ele><time>2026-04-23T15:27:06Z</time></trkpt><trkpt lat="45.38123758614658" lon="9.881226996773355"><ele>66.0</ele><time>2026-04-23T15:27:07Z</time></trkpt><trkpt lat="45.38129799094202" lon="9.881189403061567"><ele>66.0</ele><time>2026-04-23T15:27:08Z</time></trkpt><trkpt lat="45.38138146593551" lon="9.881121170145928"><ele>66.0</ele><time>2026-04-23T15:27:10Z</time></trkpt><trkpt lat="45.381394272617776" lon="9.880978866506613"><ele>66.0</ele><time>2026-04-23T15:27:12Z</time></trkpt><trkpt lat="45.381386450167824" lon="9.880888231883594"><ele>66.0</ele><time>2026-04-23T15:27:13Z</time></trkpt><trkpt lat="45.38137309786438" lon="9.880786514448603"><ele>66.0</ele><time>2026-04-23T15:27:14Z</time></trkpt><trkpt lat="45.381355483204956" lon="9.880679263208137"><ele>66.0</ele><time>2026-04-23T15:27:15Z</time></trkpt><trkpt lat="45.381343022436575" lon="9.880559346133088"><ele>66.0</ele><time>2026-04-23T15:27:16Z</time></trkpt><trkpt lat="45.38133221746127" lon="9.88043537859836"><ele>66.0</ele><time>2026-04-23T15:27:17Z</time></trkpt><trkpt lat="45.381315038651245" lon="9.880309765474191"><ele>66.0</ele><time>2026-04-23T15:27:18Z</time></trkpt><trkpt lat="45.3813000922964" lon="9.880185658520164"><ele>66.0</ele><time>2026-04-23T15:27:19Z</time></trkpt><trkpt lat="45.381288651838034" lon="9.880063227300925"><ele>66.0</ele><time>2026-04-23T15:27:20Z</time></trkpt><trkpt lat="45.38127698874282" lon="9.879929261712967"><ele>66.0</ele><time>2026-04-23T15:27:21Z</time></trkpt><trkpt lat="45.38126628775768" lon="9.879805441144482"><ele>66.0</ele><time>2026-04-23T15:27:22Z</time></trkpt><trkpt lat="45.381253622629956" lon="9.879686929823434"><ele>66.0</ele><time>2026-04-23T15:27:23Z</time></trkpt><trkpt lat="45.38124054296102" lon="9.879583755971142"><ele>66.0</ele><time>2026-04-23T15:27:24Z</time></trkpt><trkpt lat="45.38122503342314" lon="9.879429656004193"><ele>66.0</ele><time>2026-04-23T15:27:26Z</time></trkpt><trkpt lat="45.38119915969531" lon="9.879300154280777"><ele>66.0</ele><time>2026-04-23T15:27:28Z</time></trkpt><trkpt lat="45.381117465920546" lon="9.879269738919788"><ele>66.0</ele><time>2026-04-23T15:27:30Z</time></trkpt><trkpt lat="45.38105156818535" lon="9.879260210418925"><ele>66.0</ele><time>2026-04-23T15:27:31Z</time></trkpt><trkpt lat="45.380987501514845" lon="9.879211279410837"><ele>66.0</ele><time>2026-04-23T15:27:32Z</time></trkpt><trkpt lat="45.38093100318861" lon="9.879105839773247"><ele>66.0</ele><time>2026-04-23T15:27:33Z</time></trkpt><trkpt lat="45.380871052612044" lon="9.87898256152675"><ele>66.0</ele><time>2026-04-23T15:27:34Z</time></trkpt><trkpt lat="45.38081039016059" lon="9.878859608287405"><ele>66.0</ele><time>2026-04-23T15:27:35Z</time></trkpt><trkpt lat="45.380748128402146" lon="9.878748040210821"><ele>66.0</ele><time>2026-04-23T15:27:36Z</time></trkpt><trkpt lat="45.38068071120109" lon="9.878668272295029"><ele>66.0</ele><time>2026-04-23T15:27:37Z</time></trkpt><trkpt lat="45.3806023620896" lon="9.878621353258003"><ele>66.0</ele><time>2026-04-23T15:27:38Z</time></trkpt><trkpt lat="45.38051188731351" lon="9.878578873139238"><ele>66.0</ele><time>2026-04-23T15:27:39Z</time></trkpt><trkpt lat="45.38040937833053" lon="9.878528246172959"><ele>66.0</ele><time>2026-04-23T15:27:40Z</time></trkpt><trkpt lat="45.38032277581254" lon="9.878480760050788"><ele>65.83333333333333</ele><time>2026-04-23T15:27:41Z</time></trkpt><trkpt lat="45.380257295293276" lon="9.87844382560899"><ele>65.66666666666667</ele><time>2026-04-23T15:27:42Z</time></trkpt><trkpt lat="45.38020273348245" lon="9.878392356444179"><ele>65.5</ele><time>2026-04-23T15:27:43Z</time></trkpt><trkpt lat="45.38016597767389" lon="9.878300197916959"><ele>65.33333333333334</ele><time>2026-04-23T15:27:44Z</time></trkpt><trkpt lat="45.38012853005942" lon="9.878167518286835"><ele>65.16666666666667</ele><time>2026-04-23T15:27:45Z</time></trkpt><trkpt lat="45.380069112749474" lon="9.878047660302926"><ele>65.0</ele><time>2026-04-23T15:27:46Z</time></trkpt><trkpt lat="45.37997712336076" lon="9.877943279642237"><ele>65.5</ele><time>2026-04-23T15:27:47Z</time></trkpt><trkpt lat="45.37987515405743" lon="9.877832302755317"><ele>66.0</ele><time>2026-04-23T15:27:48Z</time></trkpt><trkpt lat="45.37977336477158" lon="9.87772246122569"><ele>66.5</ele><time>2026-04-23T15:27:49Z</time></trkpt><trkpt lat="45.37968686499374" lon="9.877635438096084"><ele>67.0</ele><time>2026-04-23T15:27:50Z</time></trkpt><trkpt lat="45.37955783529625" lon="9.877594343594938"><ele>67.0</ele><time>2026-04-23T15:27:51Z</time></trkpt><trkpt lat="45.37942255363652" lon="9.877586352661782"><ele>67.0</ele><time>2026-04-23T15:27:52Z</time></trkpt><trkpt lat="45.37928003262753" lon="9.877576026026727"><ele>67.0</ele><time>2026-04-23T15:27:53Z</time></trkpt><trkpt lat="45.37913363065696" lon="9.877592604628438"><ele>67.0</ele><time>2026-04-23T15:27:54Z</time></trkpt><trkpt lat="45.379001551550346" lon="9.877607587013275"><ele>66.8</ele><time>2026-04-23T15:27:55Z</time></trkpt><trkpt lat="45.37889444178786" lon="9.877621374435588"><ele>66.6</ele><time>2026-04-23T15:27:56Z</time></trkpt><trkpt lat="45.37880812581594" lon="9.877629246691047"><ele>66.39999999999999</ele><time>2026-04-23T15:27:57Z</time></trkpt><trkpt lat="45.37871349190846" lon="9.877611960218518"><ele>66.2</ele><time>2026-04-23T15:27:59Z</time></trkpt><trkpt lat="45.378707133434894" lon="9.877414704403526"><ele>66.0</ele><time>2026-04-23T15:28:01Z</time></trkpt><trkpt lat="45.37868985742726" lon="9.877251348754147"><ele>65.5</ele><time>2026-04-23T15:28:02Z</time></trkpt><trkpt lat="45.37870431885235" lon="9.877064809037991"><ele>65.0</ele><time>2026-04-23T15:28:03Z</time></trkpt><trkpt lat="45.378708908339064" lon="9.87686797796114"><ele>64.5</ele><time>2026-04-23T15:28:04Z</time></trkpt><trkpt lat="45.37870501743182" lon="9.876649022450515"><ele>64.0</ele><time>2026-04-23T15:28:05Z</time></trkpt><trkpt lat="45.37870750451225" lon="9.876420543172488"><ele>63.666666666666664</ele><time>2026-04-23T15:28:06Z</time></trkpt><trkpt lat="45.37870686907927" lon="9.876189584099775"><ele>63.33333333333333</ele><time>2026-04-23T15:28:07Z</time></trkpt><trkpt lat="45.37870260349184" lon="9.875942331205357"><ele>63.0</ele><time>2026-04-23T15:28:08Z</time></trkpt><trkpt lat="45.378702386488804" lon="9.875695716538774"><ele>63.0</ele><time>2026-04-23T15:28:09Z</time></trkpt><trkpt lat="45.37870507440881" lon="9.875458624508774"><ele>63.0</ele><time>2026-04-23T15:28:10Z</time></trkpt><trkpt lat="45.378710107554866" lon="9.875203847736216"><ele>63.0</ele><time>2026-04-23T15:28:11Z</time></trkpt><trkpt lat="45.37870935162946" lon="9.874979856293693"><ele>63.25</ele><time>2026-04-23T15:28:12Z</time></trkpt><trkpt lat="45.378684177670095" lon="9.874808518699437"><ele>63.5</ele><time>2026-04-23T15:28:13Z</time></trkpt><trkpt lat="45.37860357140312" lon="9.874680951073474"><ele>63.75</ele><time>2026-04-23T15:28:14Z</time></trkpt><trkpt lat="45.378467132358054" lon="9.874554550349886"><ele>64.0</ele><time>2026-04-23T15:28:15Z</time></trkpt><trkpt lat="45.3783386588621" lon="9.874390553376545"><ele>64.25</ele><time>2026-04-23T15:28:16Z</time></trkpt><trkpt lat="45.37822079161584" lon="9.874247934170217"><ele>64.5</ele><time>2026-04-23T15:28:17Z</time></trkpt><trkpt lat="45.37813971172158" lon="9.874115514905213"><ele>64.75</ele><time>2026-04-23T15:28:18Z</time></trkpt><trkpt lat="45.37808625710949" lon="9.873983088808064"><ele>65.0</ele><time>2026-04-23T15:28:19Z</time></trkpt><trkpt lat="45.3780585866598" lon="9.873824941417604"><ele>65.0</ele><time>2026-04-23T15:28:20Z</time></trkpt><trkpt lat="45.378065038596276" lon="9.873619924709807"><ele>65.0</ele><time>2026-04-23T15:28:21Z</time></trkpt><trkpt lat="45.378089524171045" lon="9.873383926307174"><ele>65.0</ele><time>2026-04-23T15:28:22Z</time></trkpt><trkpt lat="45.378100724943245" lon="9.873127287043177"><ele>65.25</ele><time>2026-04-23T15:28:23Z</time></trkpt><trkpt lat="45.37810945679646" lon="9.872866887183998"><ele>65.5</ele><time>2026-04-23T15:28:24Z</time></trkpt><trkpt lat="45.37811988622196" lon="9.872652167848674"><ele>65.75</ele><time>2026-04-23T15:28:25Z</time></trkpt><trkpt lat="45.37812611036787" lon="9.872498963319064"><ele>66.0</ele><time>2026-04-23T15:28:26Z</time></trkpt><trkpt lat="45.37812644332738" lon="9.872379215953057"><ele>66.0</ele><time>2026-04-23T15:28:27Z</time></trkpt><trkpt lat="45.37811264191457" lon="9.872286506374557"><ele>66.0</ele><time>2026-04-23T15:28:28Z</time></trkpt><trkpt lat="45.378001383452215" lon="9.87219909644598"><ele>66.0</ele><time>2026-04-23T15:28:30Z</time></trkpt><trkpt lat="45.3778937658532" lon="9.872175563355276"><ele>66.0</ele><time>2026-04-23T15:28:31Z</time></trkpt><trkpt lat="45.3777659892254" lon="9.872126507100631"><ele>66.0</ele><time>2026-04-23T15:28:32Z</time></trkpt><trkpt lat="45.377607828341176" lon="9.87206317947942"><ele>66.0</ele><time>2026-04-23T15:28:33Z</time></trkpt><trkpt lat="45.3774493208144" lon="9.871992897605384"><ele>66.0</ele><time>2026-04-23T15:28:34Z</time></trkpt><trkpt lat="45.377283396636535" lon="9.87190694775926"><ele>66.0</ele><time>2026-04-23T15:28:35Z</time></trkpt><trkpt lat="45.37710666394177" lon="9.87182938130843"><ele>65.33333333333333</ele><time>2026-04-23T15:28:36Z</time></trkpt><trkpt lat="45.376934932518544" lon="9.871753539384933"><ele>64.66666666666666</ele><time>2026-04-23T15:28:37Z</time></trkpt><trkpt lat="45.376754379232956" lon="9.871678982639882"><ele>64.0</ele><time>2026-04-23T15:28:38Z</time></trkpt><trkpt lat="45.37659334450858" lon="9.871601973706706"><ele>64.0</ele><time>2026-04-23T15:28:39Z</time></trkpt><trkpt lat="45.376439538772956" lon="9.871526663202983"><ele>64.0</ele><time>2026-04-23T15:28:40Z</time></trkpt><trkpt lat="45.37627574980453" lon="9.871446360602455"><ele>64.0</ele><time>2026-04-23T15:28:41Z</time></trkpt><trkpt lat="45.37609942421787" lon="9.87136789330053"><ele>65.0</ele><time>2026-04-23T15:28:42Z</time></trkpt><trkpt lat="45.37593636504816" lon="9.871298247652305"><ele>66.0</ele><time>2026-04-23T15:28:43Z</time></trkpt><trkpt lat="45.37578288393702" lon="9.871241098318235"><ele>67.0</ele><time>2026-04-23T15:28:44Z</time></trkpt><trkpt lat="45.37562970598203" lon="9.871170440141753"><ele>67.33333333333333</ele><time>2026-04-23T15:28:45Z</time></trkpt><trkpt lat="45.375478786081786" lon="9.871108178481617"><ele>67.66666666666667</ele><time>2026-04-23T15:28:46Z</time></trkpt><trkpt lat="45.37533149266798" lon="9.871044486576128"><ele>68.0</ele><time>2026-04-23T15:28:47Z</time></trkpt><trkpt lat="45.37518031211599" lon="9.870967949691492"><ele>67.33333333333334</ele><time>2026-04-23T15:28:48Z</time></trkpt><trkpt lat="45.375022382802484" lon="9.870902156727718"><ele>66.66666666666667</ele><time>2026-04-23T15:28:49Z</time></trkpt><trkpt lat="45.37485640835874" lon="9.870831910228095"><ele>66.0</ele><time>2026-04-23T15:28:50Z</time></trkpt><trkpt lat="45.3746963187595" lon="9.870755790191122"><ele>66.33333333333333</ele><time>2026-04-23T15:28:51Z</time></trkpt><trkpt lat="45.374533826589534" lon="9.870682988429065"><ele>66.66666666666666</ele><time>2026-04-23T15:28:52Z</time></trkpt><trkpt lat="45.374381015593684" lon="9.870613087166845"><ele>67.0</ele><time>2026-04-23T15:28:53Z</time></trkpt><trkpt lat="45.374229763889524" lon="9.870548771647446"><ele>67.0</ele><time>2026-04-23T15:28:54Z</time></trkpt><trkpt lat="45.374075791665135" lon="9.870484559621536"><ele>67.0</ele><time>2026-04-23T15:28:55Z</time></trkpt><trkpt lat="45.373919943475606" lon="9.870417607966068"><ele>67.0</ele><time>2026-04-23T15:28:56Z</time></trkpt><trkpt lat="45.37378074951536" lon="9.870350489290118"><ele>67.0</ele><time>2026-04-23T15:28:57Z</time></trkpt><trkpt lat="45.37368666704567" lon="9.87029044685421"><ele>67.0</ele><time>2026-04-23T15:28:58Z</time></trkpt><trkpt lat="45.37362727644559" lon="9.870214421502984"><ele>67.0</ele><time>2026-04-23T15:28:59Z</time></trkpt><trkpt lat="45.37358856535069" lon="9.870075548762228"><ele>67.0</ele><time>2026-04-23T15:29:00Z</time></trkpt><trkpt lat="45.373566975890824" lon="9.869894766525032"><ele>67.0</ele><time>2026-04-23T15:29:01Z</time></trkpt><trkpt lat="45.37351833122721" lon="9.869684331417494"><ele>68.0</ele><time>2026-04-23T15:29:02Z</time></trkpt><trkpt lat="45.373426821741106" lon="9.869469905311695"><ele>69.0</ele><time>2026-04-23T15:29:03Z</time></trkpt><trkpt lat="45.3733505001324" lon="9.869240649382855"><ele>70.0</ele><time>2026-04-23T15:29:04Z</time></trkpt><trkpt lat="45.37331379527432" lon="9.868983675304202"><ele>70.25</ele><time>2026-04-23T15:29:05Z</time></trkpt><trkpt lat="45.37327755737312" lon="9.868826149899217"><ele>70.5</ele><time>2026-04-23T15:29:06Z</time></trkpt><trkpt lat="45.37322015256132" lon="9.868676331824146"><ele>70.75</ele><time>2026-04-23T15:29:07Z</time></trkpt><trkpt lat="45.37313973120369" lon="9.868542801826965"><ele>71.0</ele><time>2026-04-23T15:29:08Z</time></trkpt><trkpt lat="45.37304386884" lon="9.868462804692742"><ele>72.0</ele><time>2026-04-23T15:29:09Z</time></trkpt><trkpt lat="45.37291014942869" lon="9.868423643638454"><ele>73.0</ele><time>2026-04-23T15:29:10Z</time></trkpt><trkpt lat="45.37277162888468" lon="9.868400853370831"><ele>74.0</ele><time>2026-04-23T15:29:11Z</time></trkpt><trkpt lat="45.372602291049766" lon="9.868373815271173"><ele>75.0</ele><time>2026-04-23T15:29:12Z</time></trkpt><trkpt lat="45.37244475703143" lon="9.868324820021824"><ele>75.0</ele><time>2026-04-23T15:29:13Z</time></trkpt><trkpt lat="45.372316606484965" lon="9.868280532043453"><ele>75.0</ele><time>2026-04-23T15:29:14Z</time></trkpt><trkpt lat="45.372192156976794" lon="9.868247222667375"><ele>75.0</ele><time>2026-04-23T15:29:15Z</time></trkpt><trkpt lat="45.372095749686444" lon="9.868229322464808"><ele>75.0</ele><time>2026-04-23T15:29:16Z</time></trkpt><trkpt lat="45.372009953036354" lon="9.868207508262648"><ele>75.0</ele><time>2026-04-23T15:29:17Z</time></trkpt><trkpt lat="45.37192479256182" lon="9.868185921102278"><ele>74.8</ele><time>2026-04-23T15:29:18Z</time></trkpt><trkpt lat="45.37183840245264" lon="9.868159103190182"><ele>74.6</ele><time>2026-04-23T15:29:19Z</time></trkpt><trkpt lat="45.371753967373905" lon="9.868110758692032"><ele>74.4</ele><time>2026-04-23T15:29:20Z</time></trkpt><trkpt lat="45.37167678497558" lon="9.868042023705856"><ele>74.2</ele><time>2026-04-23T15:29:21Z</time></trkpt><trkpt lat="45.37159953292785" lon="9.86796156258229"><ele>74.0</ele><time>2026-04-23T15:29:22Z</time></trkpt><trkpt lat="45.37152082950915" lon="9.867878032071939"><ele>74.0</ele><time>2026-04-23T15:29:23Z</time></trkpt><trkpt lat="45.37144891751778" lon="9.86779255246371"><ele>74.0</ele><time>2026-04-23T15:29:24Z</time></trkpt><trkpt lat="45.37137596787941" lon="9.86770852948088"><ele>74.0</ele><time>2026-04-23T15:29:25Z</time></trkpt><trkpt lat="45.371306419007105" lon="9.867623615579843"><ele>74.0</ele><time>2026-04-23T15:29:26Z</time></trkpt><trkpt lat="45.371237665483406" lon="9.867554506921142"><ele>74.0</ele><time>2026-04-23T15:29:27Z</time></trkpt><trkpt lat="45.37116627540656" lon="9.86749648681272"><ele>74.0</ele><time>2026-04-23T15:29:28Z</time></trkpt><trkpt lat="45.37108471466673" lon="9.867442335616945"><ele>74.0</ele><time>2026-04-23T15:29:29Z</time></trkpt><trkpt lat="45.37099222210304" lon="9.867394256494737"><ele>74.0</ele><time>2026-04-23T15:29:30Z</time></trkpt><trkpt lat="45.370900782262574" lon="9.867325293745552"><ele>74.0</ele><time>2026-04-23T15:29:31Z</time></trkpt><trkpt lat="45.37079855670066" lon="9.867304053866569"><ele>74.0</ele><time>2026-04-23T15:29:32Z</time></trkpt><trkpt lat="45.370701255809344" lon="9.867277961344682"><ele>74.0</ele><time>2026-04-23T15:29:33Z</time></trkpt><trkpt lat="45.370613996242646" lon="9.867251362272919"><ele>74.0</ele><time>2026-04-23T15:29:34Z</time></trkpt><trkpt lat="45.37053675813208" lon="9.867216565662515"><ele>74.0</ele><time>2026-04-23T15:29:35Z</time></trkpt><trkpt lat="45.370473286078294" lon="9.867153855536067"><ele>74.0</ele><time>2026-04-23T15:29:36Z</time></trkpt><trkpt lat="45.37040312623562" lon="9.867084597405297"><ele>74.0</ele><time>2026-04-23T15:29:37Z</time></trkpt><trkpt lat="45.37036900781363" lon="9.866964865335815"><ele>74.0</ele><time>2026-04-23T15:29:38Z</time></trkpt><trkpt lat="45.37032595531418" lon="9.866845509702756"><ele>74.0</ele><time>2026-04-23T15:29:39Z</time></trkpt><trkpt lat="45.37031162986143" lon="9.866709781335834"><ele>74.0</ele><time>2026-04-23T15:29:40Z</time></trkpt><trkpt lat="45.37030506637886" lon="9.866581076364103"><ele>74.0</ele><time>2026-04-23T15:29:41Z</time></trkpt><trkpt lat="45.37029846884336" lon="9.866466438725753"><ele>74.0</ele><time>2026-04-23T15:29:42Z</time></trkpt><trkpt lat="45.370289958634444" lon="9.866365800206474"><ele>74.0</ele><time>2026-04-23T15:29:43Z</time></trkpt><trkpt lat="45.370288812813385" lon="9.866271568427006"><ele>74.0</ele><time>2026-04-23T15:29:44Z</time></trkpt><trkpt lat="45.37029226393233" lon="9.866180223359542"><ele>74.0</ele><time>2026-04-23T15:29:45Z</time></trkpt><trkpt lat="45.37029798038518" lon="9.866074631917797"><ele>74.0</ele><time>2026-04-23T15:29:46Z</time></trkpt><trkpt lat="45.37029856754138" lon="9.865953544581808"><ele>74.4</ele><time>2026-04-23T15:29:47Z</time></trkpt><trkpt lat="45.370294330756344" lon="9.86582896556048"><ele>74.80000000000001</ele><time>2026-04-23T15:29:48Z</time></trkpt><trkpt lat="45.370287637272405" lon="9.865700446500256"><ele>75.19999999999999</ele><time>2026-04-23T15:29:49Z</time></trkpt><trkpt lat="45.37027693082379" lon="9.865569115455756"><ele>75.6</ele><time>2026-04-23T15:29:50Z</time></trkpt><trkpt lat="45.37027116789052" lon="9.865435173954817"><ele>76.0</ele><time>2026-04-23T15:29:51Z</time></trkpt><trkpt lat="45.37026648162943" lon="9.865299507232363"><ele>76.0</ele><time>2026-04-23T15:29:52Z</time></trkpt><trkpt lat="45.37026154960361" lon="9.8651675368678"><ele>76.0</ele><time>2026-04-23T15:29:53Z</time></trkpt><trkpt lat="45.37025505177243" lon="9.865026943316202"><ele>76.0</ele><time>2026-04-23T15:29:54Z</time></trkpt><trkpt lat="45.37024704975378" lon="9.864893525329363"><ele>76.0</ele><time>2026-04-23T15:29:55Z</time></trkpt><trkpt lat="45.37024068630363" lon="9.86475764139384"><ele>76.0</ele><time>2026-04-23T15:29:56Z</time></trkpt><trkpt lat="45.37023617814743" lon="9.864616961833816"><ele>75.39999999999999</ele><time>2026-04-23T15:29:57Z</time></trkpt><trkpt lat="45.370231817620166" lon="9.864481831350604"><ele>74.8</ele><time>2026-04-23T15:29:58Z</time></trkpt><trkpt lat="45.370226418821474" lon="9.864343422489178"><ele>74.19999999999999</ele><time>2026-04-23T15:29:59Z</time></trkpt><trkpt lat="45.37021715818385" lon="9.864202047136953"><ele>73.6</ele><time>2026-04-23T15:30:00Z</time></trkpt><trkpt lat="45.37020802539767" lon="9.864063719616063"><ele>73.0</ele><time>2026-04-23T15:30:01Z</time></trkpt><trkpt lat="45.37019795994957" lon="9.863923202098139"><ele>73.0</ele><time>2026-04-23T15:30:02Z</time></trkpt><trkpt lat="45.37018892583103" lon="9.863784729327465"><ele>73.0</ele><time>2026-04-23T15:30:03Z</time></trkpt><trkpt lat="45.3701793340294" lon="9.86364409871268"><ele>73.0</ele><time>2026-04-23T15:30:04Z</time></trkpt><trkpt lat="45.370169195805545" lon="9.863504354399835"><ele>73.0</ele><time>2026-04-23T15:30:05Z</time></trkpt><trkpt lat="45.37015821736681" lon="9.863360314793137"><ele>73.0</ele><time>2026-04-23T15:30:06Z</time></trkpt><trkpt lat="45.37014750114213" lon="9.863230177309292"><ele>73.14285714285714</ele><time>2026-04-23T15:30:07Z</time></trkpt><trkpt lat="45.370139963408036" lon="9.863118681800996"><ele>73.28571428571429</ele><time>2026-04-23T15:30:08Z</time></trkpt><trkpt lat="45.370136538333135" lon="9.863014571103488"><ele>73.42857142857143</ele><time>2026-04-23T15:30:09Z</time></trkpt><trkpt lat="45.37013615948274" lon="9.862912923935813"><ele>73.57142857142857</ele><time>2026-04-23T15:30:10Z</time></trkpt><trkpt lat="45.37013552425799" lon="9.862805652808705"><ele>73.71428571428571</ele><time>2026-04-23T15:30:11Z</time></trkpt><trkpt lat="45.37013097545206" lon="9.862699916817482"><ele>73.85714285714286</ele><time>2026-04-23T15:30:12Z</time></trkpt><trkpt lat="45.370124421760984" lon="9.862601880174983"><ele>74.0</ele><time>2026-04-23T15:30:13Z</time></trkpt><trkpt lat="45.37011894927191" lon="9.862499201946806"><ele>74.33333333333334</ele><time>2026-04-23T15:30:14Z</time></trkpt><trkpt lat="45.37011129615375" lon="9.86238188469677"><ele>74.66666666666667</ele><time>2026-04-23T15:30:15Z</time></trkpt><trkpt lat="45.37010094363348" lon="9.86225860628608"><ele>75.0</ele><time>2026-04-23T15:30:16Z</time></trkpt><trkpt lat="45.37009294506837" lon="9.862138959125266"><ele>75.33333333333333</ele><time>2026-04-23T15:30:17Z</time></trkpt><trkpt lat="45.3700854734812" lon="9.862042759458943"><ele>75.66666666666666</ele><time>2026-04-23T15:30:18Z</time></trkpt><trkpt lat="45.3700439355641" lon="9.861894614413035"><ele>76.0</ele><time>2026-04-23T15:30:20Z</time></trkpt><trkpt lat="45.36995908816149" lon="9.861771097375318"><ele>76.0</ele><time>2026-04-23T15:30:22Z</time></trkpt><trkpt lat="45.3698869123949" lon="9.861776151555036"><ele>76.0</ele><time>2026-04-23T15:30:23Z</time></trkpt><trkpt lat="45.36981779034127" lon="9.861789093643674"><ele>76.0</ele><time>2026-04-23T15:30:24Z</time></trkpt><trkpt lat="45.369743701170044" lon="9.861803252708011"><ele>76.0</ele><time>2026-04-23T15:30:25Z</time></trkpt><trkpt lat="45.369660844812714" lon="9.861793862430464"><ele>76.0</ele><time>2026-04-23T15:30:26Z</time></trkpt><trkpt lat="45.36958049256053" lon="9.86182951518785"><ele>76.0</ele><time>2026-04-23T15:30:27Z</time></trkpt><trkpt lat="45.36950406298196" lon="9.861817400001922"><ele>75.83333333333333</ele><time>2026-04-23T15:30:28Z</time></trkpt><trkpt lat="45.36942587844186" lon="9.861829442716392"><ele>75.66666666666666</ele><time>2026-04-23T15:30:29Z</time></trkpt><trkpt lat="45.36934827966521" lon="9.861841558953044"><ele>75.5</ele><time>2026-04-23T15:30:30Z</time></trkpt><trkpt lat="45.36927565135096" lon="9.861876050503469"><ele>75.33333333333333</ele><time>2026-04-23T15:30:31Z</time></trkpt><trkpt lat="45.36920957541809" lon="9.861883087878658"><ele>75.16666666666667</ele><time>2026-04-23T15:30:32Z</time></trkpt><trkpt lat="45.36910554504045" lon="9.86188590790458"><ele>75.0</ele><time>2026-04-23T15:30:34Z</time></trkpt><trkpt lat="45.36905009048099" lon="9.861812242883289"><ele>75.4</ele><time>2026-04-23T15:30:36Z</time></trkpt><trkpt lat="45.3690324290964" lon="9.861655211681828"><ele>75.8</ele><time>2026-04-23T15:30:38Z</time></trkpt><trkpt lat="45.36903323816807" lon="9.861502712063455"><ele>76.2</ele><time>2026-04-23T15:30:40Z</time></trkpt><trkpt lat="45.36901552102887" lon="9.861320450340985"><ele>76.6</ele><time>2026-04-23T15:30:42Z</time></trkpt><trkpt lat="45.36900042647758" lon="9.861223595275908"><ele>77.0</ele><time>2026-04-23T15:30:43Z</time></trkpt><trkpt lat="45.36899906172118" lon="9.861131966900349"><ele>77.0</ele><time>2026-04-23T15:30:44Z</time></trkpt><trkpt lat="45.36898747849657" lon="9.861038489073627"><ele>77.0</ele><time>2026-04-23T15:30:45Z</time></trkpt><trkpt lat="45.36897097393639" lon="9.860936434988787"><ele>77.0</ele><time>2026-04-23T15:30:46Z</time></trkpt><trkpt lat="45.368959641245276" lon="9.860828578758747"><ele>77.0</ele><time>2026-04-23T15:30:47Z</time></trkpt><trkpt lat="45.368959989225715" lon="9.86071374544689"><ele>77.0</ele><time>2026-04-23T15:30:48Z</time></trkpt><trkpt lat="45.3689544861806" lon="9.860593469649922"><ele>77.0</ele><time>2026-04-23T15:30:49Z</time></trkpt><trkpt lat="45.36894824535657" lon="9.860470538264128"><ele>76.66666666666667</ele><time>2026-04-23T15:30:50Z</time></trkpt><trkpt lat="45.368943467799774" lon="9.860344663328737"><ele>76.33333333333334</ele><time>2026-04-23T15:30:51Z</time></trkpt><trkpt lat="45.36893363286662" lon="9.860218536801405"><ele>76.0</ele><time>2026-04-23T15:30:52Z</time></trkpt><trkpt lat="45.36892661089436" lon="9.860092988047118"><ele>75.66666666666667</ele><time>2026-04-23T15:30:53Z</time></trkpt><trkpt lat="45.36892458242452" lon="9.859979242371415"><ele>75.33333333333333</ele><time>2026-04-23T15:30:54Z</time></trkpt><trkpt lat="45.36893417723293" lon="9.859886907524794"><ele>75.0</ele><time>2026-04-23T15:30:55Z</time></trkpt><trkpt lat="45.369013216291115" lon="9.859768261040417"><ele>74.71428571428571</ele><time>2026-04-23T15:30:57Z</time></trkpt><trkpt lat="45.369083056395866" lon="9.859775457242211"><ele>74.42857142857143</ele><time>2026-04-23T15:30:58Z</time></trkpt><trkpt lat="45.36916216398722" lon="9.8597793443669"><ele>74.14285714285714</ele><time>2026-04-23T15:30:59Z</time></trkpt><trkpt lat="45.369243936625494" lon="9.859762116219507"><ele>73.85714285714286</ele><time>2026-04-23T15:31:00Z</time></trkpt><trkpt lat="45.36931803123812" lon="9.859773366547222"><ele>73.57142857142857</ele><time>2026-04-23T15:31:01Z</time></trkpt><trkpt lat="45.36938594272418" lon="9.859769833938227"><ele>73.28571428571428</ele><time>2026-04-23T15:31:02Z</time></trkpt><trkpt lat="45.369446463822655" lon="9.859742259848991"><ele>73.0</ele><time>2026-04-23T15:31:03Z</time></trkpt><trkpt lat="45.369497494138514" lon="9.859681838779002"><ele>73.0</ele><time>2026-04-23T15:31:04Z</time></trkpt><trkpt lat="45.36953053027252" lon="9.859602752142942"><ele>73.0</ele><time>2026-04-23T15:31:05Z</time></trkpt><trkpt lat="45.3695869516969" lon="9.859474630883911"><ele>73.0</ele><time>2026-04-23T15:31:07Z</time></trkpt><trkpt lat="45.36947998069976" lon="9.859667115569426"><ele>73.0</ele><time>2026-04-23T15:31:19Z</time></trkpt><trkpt lat="45.36938392058375" lon="9.859761152852757"><ele>73.0</ele><time>2026-04-23T15:31:21Z</time></trkpt><trkpt lat="45.36931176006119" lon="9.859771543785108"><ele>73.0</ele><time>2026-04-23T15:31:22Z</time></trkpt><trkpt lat="45.36923079222506" lon="9.859769286716267"><ele>73.0</ele><time>2026-04-23T15:31:23Z</time></trkpt><trkpt lat="45.369153351044666" lon="9.859766521287426"><ele>73.0</ele><time>2026-04-23T15:31:24Z</time></trkpt><trkpt lat="45.36908248186596" lon="9.859764447847475"><ele>73.0</ele><time>2026-04-23T15:31:25Z</time></trkpt><trkpt lat="45.36901902544088" lon="9.85976959164154"><ele>73.0</ele><time>2026-04-23T15:31:26Z</time></trkpt><trkpt lat="45.3689355786711" lon="9.859850548040392"><ele>73.0</ele><time>2026-04-23T15:31:28Z</time></trkpt><trkpt lat="45.36891791826741" lon="9.859938423776898"><ele>73.0</ele><time>2026-04-23T15:31:29Z</time></trkpt><trkpt lat="45.36891418284045" lon="9.860038872711714"><ele>73.0</ele><time>2026-04-23T15:31:30Z</time></trkpt><trkpt lat="45.368918427036604" lon="9.860141398112116"><ele>73.0</ele><time>2026-04-23T15:31:31Z</time></trkpt><trkpt lat="45.36893122757369" lon="9.860243349676894"><ele>73.0</ele><time>2026-04-23T15:31:32Z</time></trkpt><trkpt lat="45.36894578198072" lon="9.860347025926295"><ele>73.0</ele><time>2026-04-23T15:31:33Z</time></trkpt><trkpt lat="45.36895170236926" lon="9.860454324013386"><ele>73.0</ele><time>2026-04-23T15:31:34Z</time></trkpt><trkpt lat="45.368952081848825" lon="9.860569008609753"><ele>73.33333333333333</ele><time>2026-04-23T15:31:35Z</time></trkpt><trkpt lat="45.368953897944955" lon="9.860683330519802"><ele>73.66666666666666</ele><time>2026-04-23T15:31:36Z</time></trkpt><trkpt lat="45.368957699356564" lon="9.860803134690109"><ele>74.0</ele><time>2026-04-23T15:31:37Z</time></trkpt><trkpt lat="45.368966144866285" lon="9.860926215376855"><ele>74.33333333333333</ele><time>2026-04-23T15:31:38Z</time></trkpt><trkpt lat="45.36897818023082" lon="9.861049808750652"><ele>74.66666666666667</ele><time>2026-04-23T15:31:39Z</time></trkpt><trkpt lat="45.36899077723056" lon="9.861173331866118"><ele>75.0</ele><time>2026-04-23T15:31:40Z</time></trkpt><trkpt lat="45.36900237087085" lon="9.86129745280958"><ele>75.0</ele><time>2026-04-23T15:31:41Z</time></trkpt><trkpt lat="45.369011118393225" lon="9.861409359386142"><ele>75.0</ele><time>2026-04-23T15:31:42Z</time></trkpt><trkpt lat="45.36902275558343" lon="9.861499141837498"><ele>75.0</ele><time>2026-04-23T15:31:43Z</time></trkpt><trkpt lat="45.36903806841279" lon="9.861595913997737"><ele>75.0</ele><time>2026-04-23T15:31:44Z</time></trkpt><trkpt lat="45.36906288583391" lon="9.86176860343642"><ele>75.0</ele><time>2026-04-23T15:31:46Z</time></trkpt><trkpt lat="45.369095121596246" lon="9.861886779923665"><ele>75.0</ele><time>2026-04-23T15:31:48Z</time></trkpt><trkpt lat="45.369192503059345" lon="9.861916765723176"><ele>75.0</ele><time>2026-04-23T15:31:50Z</time></trkpt><trkpt lat="45.36931938590146" lon="9.861880948663087"><ele>75.0</ele><time>2026-04-23T15:31:52Z</time></trkpt><trkpt lat="45.3693873845291" lon="9.861865815706258"><ele>75.0</ele><time>2026-04-23T15:31:53Z</time></trkpt><trkpt lat="45.36945688763541" lon="9.86185376128982"><ele>75.0</ele><time>2026-04-23T15:31:54Z</time></trkpt><trkpt lat="45.3695258779564" lon="9.861848562975165"><ele>75.0</ele><time>2026-04-23T15:31:55Z</time></trkpt><trkpt lat="45.369597233206186" lon="9.861844214466462"><ele>75.0</ele><time>2026-04-23T15:31:56Z</time></trkpt><trkpt lat="45.36966709663254" lon="9.861842858769307"><ele>75.16666666666667</ele><time>2026-04-23T15:31:57Z</time></trkpt><trkpt lat="45.36973535807135" lon="9.861830859496648"><ele>75.33333333333333</ele><time>2026-04-23T15:31:58Z</time></trkpt><trkpt lat="45.369804170461514" lon="9.861820942442519"><ele>75.5</ele><time>2026-04-23T15:31:59Z</time></trkpt><trkpt lat="45.36987280689725" lon="9.861816101697581"><ele>75.66666666666666</ele><time>2026-04-23T15:32:00Z</time></trkpt><trkpt lat="45.36998655408139" lon="9.861866391361408"><ele>75.83333333333333</ele><time>2026-04-23T15:32:02Z</time></trkpt><trkpt lat="45.37006379321206" lon="9.861990575823432"><ele>76.0</ele><time>2026-04-23T15:32:04Z</time></trkpt><trkpt lat="45.37004871074251" lon="9.862095014409736"><ele>76.0</ele><time>2026-04-23T15:32:05Z</time></trkpt><trkpt lat="45.37005590848359" lon="9.862219979721091"><ele>76.0</ele><time>2026-04-23T15:32:06Z</time></trkpt><trkpt lat="45.370064869928456" lon="9.862354803785106"><ele>76.0</ele><time>2026-04-23T15:32:07Z</time></trkpt><trkpt lat="45.370073893048136" lon="9.862494227013599"><ele>76.0</ele><time>2026-04-23T15:32:08Z</time></trkpt><trkpt lat="45.37008337106325" lon="9.862635981640908"><ele>76.0</ele><time>2026-04-23T15:32:09Z</time></trkpt><trkpt lat="45.3700935581554" lon="9.862784433515067"><ele>75.6</ele><time>2026-04-23T15:32:10Z</time></trkpt><trkpt lat="45.37010378560103" lon="9.86293383873563"><ele>75.19999999999999</ele><time>2026-04-23T15:32:11Z</time></trkpt><trkpt lat="45.370111359912855" lon="9.863071150922199"><ele>74.80000000000001</ele><time>2026-04-23T15:32:12Z</time></trkpt><trkpt lat="45.37011762911432" lon="9.863203670825786"><ele>74.4</ele><time>2026-04-23T15:32:13Z</time></trkpt><trkpt lat="45.37012385353702" lon="9.863335244214179"><ele>74.0</ele><time>2026-04-23T15:32:14Z</time></trkpt><trkpt lat="45.37013011048646" lon="9.863466622086376"><ele>73.8</ele><time>2026-04-23T15:32:15Z</time></trkpt><trkpt lat="45.37013797117385" lon="9.863599643222924"><ele>73.60000000000001</ele><time>2026-04-23T15:32:16Z</time></trkpt><trkpt lat="45.3701464272635" lon="9.863734796075299"><ele>73.4</ele><time>2026-04-23T15:32:17Z</time></trkpt><trkpt lat="45.37015522196356" lon="9.86387237253961"><ele>73.2</ele><time>2026-04-23T15:32:18Z</time></trkpt><trkpt lat="45.37016393156635" lon="9.86400861780069"><ele>73.0</ele><time>2026-04-23T15:32:19Z</time></trkpt><trkpt lat="45.37017188659709" lon="9.864145996329151"><ele>73.0</ele><time>2026-04-23T15:32:20Z</time></trkpt><trkpt lat="45.37017906562173" lon="9.864285796906035"><ele>73.0</ele><time>2026-04-23T15:32:21Z</time></trkpt><trkpt lat="45.37018613396327" lon="9.86442344210304"><ele>73.0</ele><time>2026-04-23T15:32:22Z</time></trkpt><trkpt lat="45.370193308209124" lon="9.86456314964555"><ele>73.0</ele><time>2026-04-23T15:32:23Z</time></trkpt><trkpt lat="45.370199857633416" lon="9.86469068962813"><ele>73.0</ele><time>2026-04-23T15:32:24Z</time></trkpt><trkpt lat="45.3702058502464" lon="9.864807386683461"><ele>73.0</ele><time>2026-04-23T15:32:25Z</time></trkpt><trkpt lat="45.370211950868345" lon="9.864926187029479"><ele>73.0</ele><time>2026-04-23T15:32:26Z</time></trkpt><trkpt lat="45.37021836398892" lon="9.865051072760817"><ele>73.0</ele><time>2026-04-23T15:32:27Z</time></trkpt><trkpt lat="45.370225752319136" lon="9.865179740392911"><ele>73.0</ele><time>2026-04-23T15:32:28Z</time></trkpt><trkpt lat="45.37023331802219" lon="9.865308944045081"><ele>73.0</ele><time>2026-04-23T15:32:29Z</time></trkpt><trkpt lat="45.37024100186431" lon="9.865440165260376"><ele>73.0</ele><time>2026-04-23T15:32:30Z</time></trkpt><trkpt lat="45.37024935063939" lon="9.865574440129464"><ele>73.2</ele><time>2026-04-23T15:32:31Z</time></trkpt><trkpt lat="45.370258063054486" lon="9.865709915301718"><ele>73.4</ele><time>2026-04-23T15:32:32Z</time></trkpt><trkpt lat="45.37026602891431" lon="9.865843916060564"><ele>73.60000000000001</ele><time>2026-04-23T15:32:33Z</time></trkpt><trkpt lat="45.37026873162019" lon="9.865979987861953"><ele>73.8</ele><time>2026-04-23T15:32:34Z</time></trkpt><trkpt lat="45.37026863590444" lon="9.866113197337471"><ele>74.0</ele><time>2026-04-23T15:32:35Z</time></trkpt><trkpt lat="45.37026674366736" lon="9.866250046516102"><ele>74.0</ele><time>2026-04-23T15:32:36Z</time></trkpt><trkpt lat="45.37026881018173" lon="9.866387815172091"><ele>74.0</ele><time>2026-04-23T15:32:37Z</time></trkpt><trkpt lat="45.370273336707854" lon="9.866526949401795"><ele>74.0</ele><time>2026-04-23T15:32:38Z</time></trkpt><trkpt lat="45.37028129778136" lon="9.866666686552286"><ele>74.0</ele><time>2026-04-23T15:32:39Z</time></trkpt><trkpt lat="45.37029660455682" lon="9.86680816642026"><ele>74.0</ele><time>2026-04-23T15:32:40Z</time></trkpt><trkpt lat="45.37032533809043" lon="9.866943478540959"><ele>74.0</ele><time>2026-04-23T15:32:41Z</time></trkpt><trkpt lat="45.370369005008406" lon="9.867068022256785"><ele>74.0</ele><time>2026-04-23T15:32:42Z</time></trkpt><trkpt lat="45.370425855826525" lon="9.867175629744407"><ele>74.0</ele><time>2026-04-23T15:32:43Z</time></trkpt><trkpt lat="45.3705053514778" lon="9.867239606891813"><ele>74.0</ele><time>2026-04-23T15:32:44Z</time></trkpt><trkpt lat="45.37058925603491" lon="9.867294565653419"><ele>74.0</ele><time>2026-04-23T15:32:45Z</time></trkpt><trkpt lat="45.370679321994295" lon="9.867337868529878"><ele>74.0</ele><time>2026-04-23T15:32:46Z</time></trkpt><trkpt lat="45.370781707295066" lon="9.867362073412371"><ele>74.0</ele><time>2026-04-23T15:32:47Z</time></trkpt><trkpt lat="45.37087595260908" lon="9.867386814277243"><ele>74.0</ele><time>2026-04-23T15:32:48Z</time></trkpt><trkpt lat="45.37096994376513" lon="9.867406351411153"><ele>74.0</ele><time>2026-04-23T15:32:49Z</time></trkpt><trkpt lat="45.3710599609561" lon="9.867441986141023"><ele>74.0</ele><time>2026-04-23T15:32:50Z</time></trkpt><trkpt lat="45.3711393523484" lon="9.867494813308214"><ele>74.0</ele><time>2026-04-23T15:32:51Z</time></trkpt><trkpt lat="45.37121626097553" lon="9.86755486214157"><ele>74.0</ele><time>2026-04-23T15:32:52Z</time></trkpt><trkpt lat="45.37128326604988" lon="9.867656083154694"><ele>74.0</ele><time>2026-04-23T15:32:53Z</time></trkpt><trkpt lat="45.371369673579224" lon="9.867732566787609"><ele>74.0</ele><time>2026-04-23T15:32:54Z</time></trkpt><trkpt lat="45.37144028051995" lon="9.867822567323593"><ele>74.0</ele><time>2026-04-23T15:32:55Z</time></trkpt><trkpt lat="45.37151106847055" lon="9.867899220839593"><ele>74.0</ele><time>2026-04-23T15:32:56Z</time></trkpt><trkpt lat="45.37159229905834" lon="9.867977869446047"><ele>74.0</ele><time>2026-04-23T15:32:57Z</time></trkpt><trkpt lat="45.371672263065506" lon="9.868061776795951"><ele>74.0</ele><time>2026-04-23T15:32:58Z</time></trkpt><trkpt lat="45.371750387266026" lon="9.868116635458646"><ele>74.0</ele><time>2026-04-23T15:32:59Z</time></trkpt><trkpt lat="45.37181940531342" lon="9.868167633425317"><ele>74.0</ele><time>2026-04-23T15:33:00Z</time></trkpt><trkpt lat="45.37189613549024" lon="9.868203348985263"><ele>74.0</ele><time>2026-04-23T15:33:01Z</time></trkpt><trkpt lat="45.37198075767109" lon="9.868226531324995"><ele>74.0</ele><time>2026-04-23T15:33:02Z</time></trkpt><trkpt lat="45.37206753604715" lon="9.86824231859253"><ele>74.0</ele><time>2026-04-23T15:33:03Z</time></trkpt><trkpt lat="45.37215305870566" lon="9.86825591784563"><ele>74.0</ele><time>2026-04-23T15:33:04Z</time></trkpt><trkpt lat="45.37224078362594" lon="9.868277449438178"><ele>74.0</ele><time>2026-04-23T15:33:05Z</time></trkpt><trkpt lat="45.37232634740292" lon="9.868300098829007"><ele>74.0</ele><time>2026-04-23T15:33:06Z</time></trkpt><trkpt lat="45.372409628487624" lon="9.868326239750829"><ele>74.0</ele><time>2026-04-23T15:33:07Z</time></trkpt><trkpt lat="45.372499054807875" lon="9.868354973820365"><ele>74.2</ele><time>2026-04-23T15:33:08Z</time></trkpt><trkpt lat="45.37258623813656" lon="9.868382203660182"><ele>74.4</ele><time>2026-04-23T15:33:09Z</time></trkpt><trkpt lat="45.37267974045889" lon="9.868408304318821"><ele>74.6</ele><time>2026-04-23T15:33:10Z</time></trkpt><trkpt lat="45.37277608205018" lon="9.868434131717502"><ele>74.8</ele><time>2026-04-23T15:33:11Z</time></trkpt><trkpt lat="45.37287182504919" lon="9.868455820655079"><ele>75.0</ele><time>2026-04-23T15:33:12Z</time></trkpt><trkpt lat="45.372961169380716" lon="9.868477912600593"><ele>74.2</ele><time>2026-04-23T15:33:13Z</time></trkpt><trkpt lat="45.37306059973328" lon="9.868515076031652"><ele>73.4</ele><time>2026-04-23T15:33:14Z</time></trkpt><trkpt lat="45.37315479619906" lon="9.868579462221486"><ele>72.6</ele><time>2026-04-23T15:33:15Z</time></trkpt><trkpt lat="45.37322559966649" lon="9.868667804632459"><ele>71.8</ele><time>2026-04-23T15:33:16Z</time></trkpt><trkpt lat="45.37325335135197" lon="9.868792885892903"><ele>71.0</ele><time>2026-04-23T15:33:17Z</time></trkpt><trkpt lat="45.37329888999042" lon="9.868928827057747"><ele>71.0</ele><time>2026-04-23T15:33:18Z</time></trkpt><trkpt lat="45.37332137761507" lon="9.869123927510241"><ele>71.0</ele><time>2026-04-23T15:33:19Z</time></trkpt><trkpt lat="45.373348553356635" lon="9.869352204031497"><ele>71.0</ele><time>2026-04-23T15:33:20Z</time></trkpt><trkpt lat="45.37345017949668" lon="9.869579726561266"><ele>70.75</ele><time>2026-04-23T15:33:21Z</time></trkpt><trkpt lat="45.37352617433025" lon="9.869795710290848"><ele>70.5</ele><time>2026-04-23T15:33:22Z</time></trkpt><trkpt lat="45.37356365369932" lon="9.870001602604384"><ele>70.25</ele><time>2026-04-23T15:33:23Z</time></trkpt><trkpt lat="45.37359218019659" lon="9.870175939034734"><ele>70.0</ele><time>2026-04-23T15:33:24Z</time></trkpt><trkpt lat="45.373624794747535" lon="9.870286244464994"><ele>69.4</ele><time>2026-04-23T15:33:25Z</time></trkpt><trkpt lat="45.373697338698" lon="9.870375804038849"><ele>68.8</ele><time>2026-04-23T15:33:26Z</time></trkpt><trkpt lat="45.37381682008224" lon="9.870422371546226"><ele>68.2</ele><time>2026-04-23T15:33:27Z</time></trkpt><trkpt lat="45.37391678878246" lon="9.870463373003666"><ele>67.6</ele><time>2026-04-23T15:33:28Z</time></trkpt><trkpt lat="45.37400335234038" lon="9.870497604547646"><ele>67.0</ele><time>2026-04-23T15:33:29Z</time></trkpt><trkpt lat="45.374090007465185" lon="9.870528944220528"><ele>67.0</ele><time>2026-04-23T15:33:30Z</time></trkpt><trkpt lat="45.37417759092526" lon="9.870566409725825"><ele>67.0</ele><time>2026-04-23T15:33:31Z</time></trkpt><trkpt lat="45.374269449765215" lon="9.870603171926358"><ele>67.0</ele><time>2026-04-23T15:33:32Z</time></trkpt><trkpt lat="45.374359373158555" lon="9.870638613688161"><ele>67.0</ele><time>2026-04-23T15:33:33Z</time></trkpt><trkpt lat="45.374451145996844" lon="9.870677363069595"><ele>67.0</ele><time>2026-04-23T15:33:34Z</time></trkpt><trkpt lat="45.374544326635004" lon="9.870719422843989"><ele>67.0</ele><time>2026-04-23T15:33:35Z</time></trkpt><trkpt lat="45.374636451240995" lon="9.870763765655576"><ele>67.0</ele><time>2026-04-23T15:33:36Z</time></trkpt><trkpt lat="45.3747324487449" lon="9.870807908174049"><ele>67.0</ele><time>2026-04-23T15:33:37Z</time></trkpt><trkpt lat="45.37482842912991" lon="9.870848850263883"><ele>67.0</ele><time>2026-04-23T15:33:38Z</time></trkpt><trkpt lat="45.37492284490453" lon="9.870890445715514"><ele>67.0</ele><time>2026-04-23T15:33:39Z</time></trkpt><trkpt lat="45.37501362967298" lon="9.87092908764981"><ele>67.2</ele><time>2026-04-23T15:33:40Z</time></trkpt><trkpt lat="45.375104565446826" lon="9.870964985570954"><ele>67.4</ele><time>2026-04-23T15:33:41Z</time></trkpt><trkpt lat="45.375189848071976" lon="9.871002113257573"><ele>67.6</ele><time>2026-04-23T15:33:42Z</time></trkpt><trkpt lat="45.37527546778809" lon="9.871037766977738"><ele>67.8</ele><time>2026-04-23T15:33:43Z</time></trkpt><trkpt lat="45.37536431932806" lon="9.871075256072855"><ele>68.0</ele><time>2026-04-23T15:33:44Z</time></trkpt><trkpt lat="45.37545592443646" lon="9.871120743170726"><ele>67.8</ele><time>2026-04-23T15:33:45Z</time></trkpt><trkpt lat="45.37554521499035" lon="9.871168533205186"><ele>67.6</ele><time>2026-04-23T15:33:46Z</time></trkpt><trkpt lat="45.375635389950645" lon="9.871206061421367"><ele>67.4</ele><time>2026-04-23T15:33:47Z</time></trkpt><trkpt lat="45.375728199148476" lon="9.871242524718232"><ele>67.2</ele><time>2026-04-23T15:33:48Z</time></trkpt><trkpt lat="45.375818202607036" lon="9.871281314944166"><ele>67.0</ele><time>2026-04-23T15:33:49Z</time></trkpt><trkpt lat="45.375909683055134" lon="9.87132497028137"><ele>67.0</ele><time>2026-04-23T15:33:50Z</time></trkpt><trkpt lat="45.37600116950068" lon="9.871365962648715"><ele>67.0</ele><time>2026-04-23T15:33:51Z</time></trkpt><trkpt lat="45.37609371371018" lon="9.871403524339687"><ele>67.0</ele><time>2026-04-23T15:33:52Z</time></trkpt><trkpt lat="45.37618683959931" lon="9.871440124507933"><ele>67.0</ele><time>2026-04-23T15:33:53Z</time></trkpt><trkpt lat="45.37628467032273" lon="9.871477030353525"><ele>67.0</ele><time>2026-04-23T15:33:54Z</time></trkpt><trkpt lat="45.37638651444135" lon="9.871520532298307"><ele>66.4</ele><time>2026-04-23T15:33:55Z</time></trkpt><trkpt lat="45.37649399350395" lon="9.871572542380024"><ele>65.80000000000001</ele><time>2026-04-23T15:33:56Z</time></trkpt><trkpt lat="45.37659138709231" lon="9.871628705407394"><ele>65.2</ele><time>2026-04-23T15:33:57Z</time></trkpt><trkpt lat="45.37668060755611" lon="9.8716736066303"><ele>64.60000000000001</ele><time>2026-04-23T15:33:58Z</time></trkpt><trkpt lat="45.37676011459736" lon="9.8717090723449"><ele>64.0</ele><time>2026-04-23T15:33:59Z</time></trkpt><trkpt lat="45.376843614674186" lon="9.87173976898404"><ele>64.2</ele><time>2026-04-23T15:34:00Z</time></trkpt><trkpt lat="45.376926535000294" lon="9.871774322772152"><ele>64.4</ele><time>2026-04-23T15:34:01Z</time></trkpt><trkpt lat="45.37701149401025" lon="9.871816887358879"><ele>64.6</ele><time>2026-04-23T15:34:02Z</time></trkpt><trkpt lat="45.37710120498221" lon="9.871847467069635"><ele>64.8</ele><time>2026-04-23T15:34:03Z</time></trkpt><trkpt lat="45.377192108563" lon="9.871890301508136"><ele>65.0</ele><time>2026-04-23T15:34:04Z</time></trkpt><trkpt lat="45.377285074746474" lon="9.87193467178278"><ele>65.2</ele><time>2026-04-23T15:34:05Z</time></trkpt><trkpt lat="45.37738430774585" lon="9.871977579034933"><ele>65.4</ele><time>2026-04-23T15:34:06Z</time></trkpt><trkpt lat="45.37749028061532" lon="9.872021216371843"><ele>65.6</ele><time>2026-04-23T15:34:07Z</time></trkpt><trkpt lat="45.37759479937018" lon="9.87207429223495"><ele>65.8</ele><time>2026-04-23T15:34:08Z</time></trkpt><trkpt lat="45.37770421972479" lon="9.872131501977318"><ele>66.0</ele><time>2026-04-23T15:34:09Z</time></trkpt><trkpt lat="45.37780837219572" lon="9.872180020955058"><ele>66.0</ele><time>2026-04-23T15:34:10Z</time></trkpt><trkpt lat="45.37789868695516" lon="9.872219723046818"><ele>66.0</ele><time>2026-04-23T15:34:11Z</time></trkpt><trkpt lat="45.37797957636333" lon="9.872249259874906"><ele>66.0</ele><time>2026-04-23T15:34:12Z</time></trkpt><trkpt lat="45.378043688963736" lon="9.872281242387908"><ele>66.0</ele><time>2026-04-23T15:34:13Z</time></trkpt><trkpt lat="45.37810521511021" lon="9.87235877370602"><ele>66.0</ele><time>2026-04-23T15:34:15Z</time></trkpt><trkpt lat="45.37808153682329" lon="9.872533836327698"><ele>66.0</ele><time>2026-04-23T15:34:17Z</time></trkpt><trkpt lat="45.378076664169235" lon="9.87264961183586"><ele>66.0</ele><time>2026-04-23T15:34:18Z</time></trkpt><trkpt lat="45.378069294090935" lon="9.872776468458975"><ele>66.0</ele><time>2026-04-23T15:34:19Z</time></trkpt><trkpt lat="45.37806408396405" lon="9.872914007098741"><ele>66.0</ele><time>2026-04-23T15:34:20Z</time></trkpt><trkpt lat="45.37805977964958" lon="9.873049186326464"><ele>66.0</ele><time>2026-04-23T15:34:21Z</time></trkpt><trkpt lat="45.37805648357133" lon="9.873192965679355"><ele>66.0</ele><time>2026-04-23T15:34:22Z</time></trkpt><trkpt lat="45.378066824096294" lon="9.87333833106976"><ele>66.0</ele><time>2026-04-23T15:34:23Z</time></trkpt><trkpt lat="45.37806284811363" lon="9.873487403360613"><ele>66.0</ele><time>2026-04-23T15:34:24Z</time></trkpt><trkpt lat="45.37803654663335" lon="9.873623147136733"><ele>66.0</ele><time>2026-04-23T15:34:25Z</time></trkpt><trkpt lat="45.37802559270974" lon="9.87375089756588"><ele>66.0</ele><time>2026-04-23T15:34:26Z</time></trkpt><trkpt lat="45.378026552577026" lon="9.873891606936997"><ele>65.8</ele><time>2026-04-23T15:34:27Z</time></trkpt><trkpt lat="45.378049472724165" lon="9.874030682155112"><ele>65.6</ele><time>2026-04-23T15:34:28Z</time></trkpt><trkpt lat="45.37810209486537" lon="9.874152794861208"><ele>65.4</ele><time>2026-04-23T15:34:29Z</time></trkpt><trkpt lat="45.37816856635714" lon="9.874254289887375"><ele>65.2</ele><time>2026-04-23T15:34:30Z</time></trkpt><trkpt lat="45.37824408133866" lon="9.874351130022314"><ele>65.0</ele><time>2026-04-23T15:34:31Z</time></trkpt><trkpt lat="45.37832520797882" lon="9.8744631404714"><ele>64.75</ele><time>2026-04-23T15:34:32Z</time></trkpt><trkpt lat="45.37841418430914" lon="9.874581857745863"><ele>64.5</ele><time>2026-04-23T15:34:33Z</time></trkpt><trkpt lat="45.37852819076045" lon="9.87470990093541"><ele>64.25</ele><time>2026-04-23T15:34:34Z</time></trkpt><trkpt lat="45.378629222523344" lon="9.874823958940873"><ele>64.0</ele><time>2026-04-23T15:34:35Z</time></trkpt><trkpt lat="45.3786617201857" lon="9.874967888690511"><ele>63.75</ele><time>2026-04-23T15:34:36Z</time></trkpt><trkpt lat="45.37866541490513" lon="9.875136694190767"><ele>63.5</ele><time>2026-04-23T15:34:37Z</time></trkpt><trkpt lat="45.37866479838688" lon="9.875342493733642"><ele>63.25</ele><time>2026-04-23T15:34:38Z</time></trkpt><trkpt lat="45.37866347520728" lon="9.875586003241114"><ele>63.0</ele><time>2026-04-23T15:34:39Z</time></trkpt><trkpt lat="45.37866232328696" lon="9.875835021882638"><ele>63.0</ele><time>2026-04-23T15:34:40Z</time></trkpt><trkpt lat="45.378664246946265" lon="9.876059078140212"><ele>63.0</ele><time>2026-04-23T15:34:41Z</time></trkpt><trkpt lat="45.37866602908033" lon="9.876266649456563"><ele>63.0</ele><time>2026-04-23T15:34:42Z</time></trkpt><trkpt lat="45.37866768835371" lon="9.876459911190933"><ele>63.0</ele><time>2026-04-23T15:34:43Z</time></trkpt><trkpt lat="45.37866746177548" lon="9.876638363135053"><ele>63.25</ele><time>2026-04-23T15:34:44Z</time></trkpt><trkpt lat="45.37866587065089" lon="9.87681268682327"><ele>63.5</ele><time>2026-04-23T15:34:45Z</time></trkpt><trkpt lat="45.37866454992643" lon="9.876982691411751"><ele>63.75</ele><time>2026-04-23T15:34:46Z</time></trkpt><trkpt lat="45.378667168137824" lon="9.877151374578647"><ele>64.0</ele><time>2026-04-23T15:34:47Z</time></trkpt><trkpt lat="45.378670949173966" lon="9.877301037433375"><ele>64.0</ele><time>2026-04-23T15:34:48Z</time></trkpt><trkpt lat="45.37867389580543" lon="9.877417672498622"><ele>64.0</ele><time>2026-04-23T15:34:49Z</time></trkpt><trkpt lat="45.378676577311296" lon="9.877515927500301"><ele>64.0</ele><time>2026-04-23T15:34:50Z</time></trkpt><trkpt lat="45.37868057475533" lon="9.87764293393264"><ele>64.0</ele><time>2026-04-23T15:34:52Z</time></trkpt><trkpt lat="45.37881506147828" lon="9.87768911636886"><ele>64.0</ele><time>2026-04-23T15:34:55Z</time></trkpt><trkpt lat="45.37893924406994" lon="9.877656639109265"><ele>64.33333333333333</ele><time>2026-04-23T15:34:57Z</time></trkpt><trkpt lat="45.37901106686405" lon="9.877644461063763"><ele>64.66666666666666</ele><time>2026-04-23T15:34:58Z</time></trkpt><trkpt lat="45.379085197974064" lon="9.87763711637378"><ele>65.0</ele><time>2026-04-23T15:34:59Z</time></trkpt><trkpt lat="45.379161710945844" lon="9.877630320902192"><ele>65.33333333333333</ele><time>2026-04-23T15:35:00Z</time></trkpt><trkpt lat="45.379238321350606" lon="9.877620730788953"><ele>65.66666666666667</ele><time>2026-04-23T15:35:01Z</time></trkpt><trkpt lat="45.37931544377299" lon="9.87761430194975"><ele>66.0</ele><time>2026-04-23T15:35:02Z</time></trkpt><trkpt lat="45.379396952483496" lon="9.87760694288603"><ele>66.0</ele><time>2026-04-23T15:35:03Z</time></trkpt><trkpt lat="45.379478388797196" lon="9.877602810454393"><ele>66.0</ele><time>2026-04-23T15:35:04Z</time></trkpt><trkpt lat="45.37956085011876" lon="9.877610611147556"><ele>66.0</ele><time>2026-04-23T15:35:05Z</time></trkpt><trkpt lat="45.37964296426167" lon="9.877640162321526"><ele>66.0</ele><time>2026-04-23T15:35:06Z</time></trkpt><trkpt lat="45.37971645142435" lon="9.87770676726632"><ele>66.0</ele><time>2026-04-23T15:35:07Z</time></trkpt><trkpt lat="45.37978213359125" lon="9.877781090547987"><ele>66.0</ele><time>2026-04-23T15:35:08Z</time></trkpt><trkpt lat="45.37985260645271" lon="9.87785662222397"><ele>66.33333333333333</ele><time>2026-04-23T15:35:09Z</time></trkpt><trkpt lat="45.37992209182032" lon="9.877932358606994"><ele>66.66666666666667</ele><time>2026-04-23T15:35:10Z</time></trkpt><trkpt lat="45.380000403083955" lon="9.87799504260276"><ele>67.0</ele><time>2026-04-23T15:35:11Z</time></trkpt><trkpt lat="45.3800654303032" lon="9.87807878093347"><ele>67.33333333333334</ele><time>2026-04-23T15:35:12Z</time></trkpt><trkpt lat="45.38010738782235" lon="9.878194633255484"><ele>67.66666666666667</ele><time>2026-04-23T15:35:13Z</time></trkpt><trkpt lat="45.38014726129552" lon="9.8782961631942"><ele>68.0</ele><time>2026-04-23T15:35:14Z</time></trkpt><trkpt lat="45.380176490805226" lon="9.878401490562291"><ele>67.66666666666667</ele><time>2026-04-23T15:35:15Z</time></trkpt><trkpt lat="45.38021736491621" lon="9.878487712041714"><ele>67.33333333333334</ele><time>2026-04-23T15:35:16Z</time></trkpt><trkpt lat="45.38029612992293" lon="9.878521187249508"><ele>67.0</ele><time>2026-04-23T15:35:17Z</time></trkpt><trkpt lat="45.38037237321504" lon="9.878547153440898"><ele>66.66666666666667</ele><time>2026-04-23T15:35:18Z</time></trkpt><trkpt lat="45.3804498591461" lon="9.878572225093045"><ele>66.33333333333333</ele><time>2026-04-23T15:35:19Z</time></trkpt><trkpt lat="45.38052574248098" lon="9.878611211162841"><ele>66.0</ele><time>2026-04-23T15:35:20Z</time></trkpt><trkpt lat="45.38060098964085" lon="9.878657930810771"><ele>66.0</ele><time>2026-04-23T15:35:21Z</time></trkpt><trkpt lat="45.38067528311596" lon="9.878708073541096"><ele>66.0</ele><time>2026-04-23T15:35:22Z</time></trkpt><trkpt lat="45.38073379632434" lon="9.878795641950418"><ele>66.0</ele><time>2026-04-23T15:35:23Z</time></trkpt><trkpt lat="45.38078711622025" lon="9.87889152709734"><ele>66.0</ele><time>2026-04-23T15:35:24Z</time></trkpt><trkpt lat="45.380839798299" lon="9.878997117136487"><ele>66.0</ele><time>2026-04-23T15:35:25Z</time></trkpt><trkpt lat="45.38089643766879" lon="9.879106127546834"><ele>66.0</ele><time>2026-04-23T15:35:26Z</time></trkpt><trkpt lat="45.380952783940266" lon="9.879211628456776"><ele>66.0</ele><time>2026-04-23T15:35:27Z</time></trkpt><trkpt lat="45.38101447321944" lon="9.879275149454934"><ele>66.0</ele><time>2026-04-23T15:35:28Z</time></trkpt><trkpt lat="45.38107212110079" lon="9.879317461938621"><ele>66.0</ele><time>2026-04-23T15:35:29Z</time></trkpt><trkpt lat="45.38114906142489" lon="9.879316910608502"><ele>66.0</ele><time>2026-04-23T15:35:30Z</time></trkpt><trkpt lat="45.381234304971144" lon="9.87928737652437"><ele>66.0</ele><time>2026-04-23T15:35:31Z</time></trkpt><trkpt lat="45.38132052344874" lon="9.879236809227429"><ele>66.0</ele><time>2026-04-23T15:35:32Z</time></trkpt><trkpt lat="45.38141205592282" lon="9.879190822850632"><ele>66.0</ele><time>2026-04-23T15:35:33Z</time></trkpt><trkpt lat="45.38150618689694" lon="9.87915310727196"><ele>66.0</ele><time>2026-04-23T15:35:34Z</time></trkpt><trkpt lat="45.38160208279219" lon="9.879113764824353"><ele>66.0</ele><time>2026-04-23T15:35:35Z</time></trkpt><trkpt lat="45.381698529102415" lon="9.879069760956915"><ele>66.0</ele><time>2026-04-23T15:35:36Z</time></trkpt><trkpt lat="45.381800209821904" lon="9.879027179266755"><ele>66.0</ele><time>2026-04-23T15:35:37Z</time></trkpt><trkpt lat="45.38189754556488" lon="9.87898807741647"><ele>66.0</ele><time>2026-04-23T15:35:38Z</time></trkpt><trkpt lat="45.38199253360243" lon="9.878947884338503"><ele>66.0</ele><time>2026-04-23T15:35:39Z</time></trkpt><trkpt lat="45.382084904897965" lon="9.878906730129502"><ele>66.0</ele><time>2026-04-23T15:35:40Z</time></trkpt><trkpt lat="45.382179446175" lon="9.878867495958701"><ele>66.0</ele><time>2026-04-23T15:35:41Z</time></trkpt><trkpt lat="45.38227474954141" lon="9.878824127075083"><ele>66.0</ele><time>2026-04-23T15:35:42Z</time></trkpt><trkpt lat="45.3823697225291" lon="9.87877824834296"><ele>66.39999999999999</ele><time>2026-04-23T15:35:43Z</time></trkpt><trkpt lat="45.38246658561435" lon="9.878738946533693"><ele>66.8</ele><time>2026-04-23T15:35:44Z</time></trkpt><trkpt lat="45.38256412603448" lon="9.878699500876625"><ele>67.19999999999999</ele><time>2026-04-23T15:35:45Z</time></trkpt><trkpt lat="45.38266344147175" lon="9.878661557510366"><ele>67.6</ele><time>2026-04-23T15:35:46Z</time></trkpt><trkpt lat="45.38276218683833" lon="9.878617871467707"><ele>68.0</ele><time>2026-04-23T15:35:47Z</time></trkpt><trkpt lat="45.382860823430185" lon="9.878571476848553"><ele>68.0</ele><time>2026-04-23T15:35:48Z</time></trkpt><trkpt lat="45.38296004533855" lon="9.878524502493145"><ele>68.0</ele><time>2026-04-23T15:35:49Z</time></trkpt><trkpt lat="45.383059301051354" lon="9.878477084671292"><ele>68.0</ele><time>2026-04-23T15:35:50Z</time></trkpt><trkpt lat="45.38316109658504" lon="9.878436430175196"><ele>68.0</ele><time>2026-04-23T15:35:51Z</time></trkpt><trkpt lat="45.38326453915715" lon="9.87840863338348"><ele>68.0</ele><time>2026-04-23T15:35:52Z</time></trkpt><trkpt lat="45.383368429916224" lon="9.87839228242904"><ele>68.0</ele><time>2026-04-23T15:35:53Z</time></trkpt><trkpt lat="45.38346637954316" lon="9.87838076754136"><ele>68.0</ele><time>2026-04-23T15:35:54Z</time></trkpt><trkpt lat="45.38357113307107" lon="9.878368313448414"><ele>68.0</ele><time>2026-04-23T15:35:55Z</time></trkpt><trkpt lat="45.38368054096566" lon="9.878364309427042"><ele>68.0</ele><time>2026-04-23T15:35:56Z</time></trkpt><trkpt lat="45.38378889034409" lon="9.87837222834461"><ele>68.0</ele><time>2026-04-23T15:35:57Z</time></trkpt><trkpt lat="45.38389757371524" lon="9.878381279626465"><ele>68.0</ele><time>2026-04-23T15:35:58Z</time></trkpt><trkpt lat="45.3840068003951" lon="9.878389522502163"><ele>68.0</ele><time>2026-04-23T15:35:59Z</time></trkpt><trkpt lat="45.384116285739736" lon="9.878397367849214"><ele>68.0</ele><time>2026-04-23T15:36:00Z</time></trkpt><trkpt lat="45.384217476337795" lon="9.878409447663149"><ele>68.0</ele><time>2026-04-23T15:36:01Z</time></trkpt><trkpt lat="45.38430984596605" lon="9.878435502907003"><ele>68.0</ele><time>2026-04-23T15:36:02Z</time></trkpt><trkpt lat="45.38439910968291" lon="9.878480066925068"><ele>68.0</ele><time>2026-04-23T15:36:03Z</time></trkpt><trkpt lat="45.38448830851846" lon="9.878534150410543"><ele>68.0</ele><time>2026-04-23T15:36:04Z</time></trkpt><trkpt lat="45.38457968145694" lon="9.878588012666082"><ele>68.0</ele><time>2026-04-23T15:36:05Z</time></trkpt><trkpt lat="45.38467563310341" lon="9.878628477210562"><ele>68.0</ele><time>2026-04-23T15:36:06Z</time></trkpt><trkpt lat="45.38477741652575" lon="9.87865199822286"><ele>68.0</ele><time>2026-04-23T15:36:07Z</time></trkpt><trkpt lat="45.38488117420418" lon="9.878670269563338"><ele>68.2</ele><time>2026-04-23T15:36:08Z</time></trkpt><trkpt lat="45.384985565927444" lon="9.87868644260432"><ele>68.4</ele><time>2026-04-23T15:36:09Z</time></trkpt><trkpt lat="45.385091694074156" lon="9.878695497087604"><ele>68.60000000000001</ele><time>2026-04-23T15:36:10Z</time></trkpt><trkpt lat="45.38519960945666" lon="9.87870413548673"><ele>68.8</ele><time>2026-04-23T15:36:11Z</time></trkpt><trkpt lat="45.385306027526845" lon="9.878714205302126"><ele>69.0</ele><time>2026-04-23T15:36:12Z</time></trkpt><trkpt lat="45.38540842286332" lon="9.878726962565395"><ele>69.0</ele><time>2026-04-23T15:36:13Z</time></trkpt><trkpt lat="45.38549770042946" lon="9.87874281506995"><ele>69.0</ele><time>2026-04-23T15:36:14Z</time></trkpt><trkpt lat="45.38558549898734" lon="9.878754899929824"><ele>69.0</ele><time>2026-04-23T15:36:15Z</time></trkpt><trkpt lat="45.38566679325882" lon="9.878759888886643"><ele>69.0</ele><time>2026-04-23T15:36:16Z</time></trkpt><trkpt lat="45.38574192826713" lon="9.878750866103978"><ele>69.0</ele><time>2026-04-23T15:36:17Z</time></trkpt><trkpt lat="45.385809216251026" lon="9.878718278815459"><ele>69.0</ele><time>2026-04-23T15:36:18Z</time></trkpt><trkpt lat="45.38587187270401" lon="9.878664909747817"><ele>69.0</ele><time>2026-04-23T15:36:19Z</time></trkpt><trkpt lat="45.385929025186606" lon="9.878585273978269"><ele>69.0</ele><time>2026-04-23T15:36:20Z</time></trkpt><trkpt lat="45.38599280510561" lon="9.878508949720338"><ele>69.0</ele><time>2026-04-23T15:36:21Z</time></trkpt><trkpt lat="45.38606430264748" lon="9.87844386156286"><ele>69.0</ele><time>2026-04-23T15:36:22Z</time></trkpt><trkpt lat="45.38614571319957" lon="9.878394801167438"><ele>69.0</ele><time>2026-04-23T15:36:23Z</time></trkpt><trkpt lat="45.38623855512949" lon="9.878367973560156"><ele>69.0</ele><time>2026-04-23T15:36:24Z</time></trkpt><trkpt lat="45.38633329253069" lon="9.878373773619785"><ele>68.8</ele><time>2026-04-23T15:36:25Z</time></trkpt><trkpt lat="45.386435103909676" lon="9.87838106496738"><ele>68.60000000000001</ele><time>2026-04-23T15:36:26Z</time></trkpt><trkpt lat="45.38653628828498" lon="9.87838561915309"><ele>68.4</ele><time>2026-04-23T15:36:27Z</time></trkpt><trkpt lat="45.38664169784612" lon="9.878391657206855"><ele>68.2</ele><time>2026-04-23T15:36:28Z</time></trkpt><trkpt lat="45.3867480047936" lon="9.878401761047382"><ele>68.0</ele><time>2026-04-23T15:36:29Z</time></trkpt><trkpt lat="45.38685664613607" lon="9.878418620367423"><ele>68.0</ele><time>2026-04-23T15:36:30Z</time></trkpt><trkpt lat="45.386965590807876" lon="9.878432184792812"><ele>68.0</ele><time>2026-04-23T15:36:31Z</time></trkpt><trkpt lat="45.38707635074192" lon="9.878450885588181"><ele>68.0</ele><time>2026-04-23T15:36:32Z</time></trkpt><trkpt lat="45.38717946374929" lon="9.87847700951966"><ele>68.0</ele><time>2026-04-23T15:36:33Z</time></trkpt><trkpt lat="45.38726734356824" lon="9.878514640597356"><ele>68.0</ele><time>2026-04-23T15:36:34Z</time></trkpt><trkpt lat="45.38734294413738" lon="9.87856834536082"><ele>68.0</ele><time>2026-04-23T15:36:35Z</time></trkpt><trkpt lat="45.38738482635574" lon="9.878675270889572"><ele>68.0</ele><time>2026-04-23T15:36:36Z</time></trkpt><trkpt lat="45.38740762802372" lon="9.878783814644503"><ele>68.0</ele><time>2026-04-23T15:36:37Z</time></trkpt><trkpt lat="45.38743956009643" lon="9.878900702012022"><ele>68.0</ele><time>2026-04-23T15:36:38Z</time></trkpt><trkpt lat="45.38748065389371" lon="9.87900209993979"><ele>68.0</ele><time>2026-04-23T15:36:39Z</time></trkpt><trkpt lat="45.38753886174272" lon="9.879076510239596"><ele>68.0</ele><time>2026-04-23T15:36:40Z</time></trkpt><trkpt lat="45.387630223951916" lon="9.87908989450224"><ele>68.0</ele><time>2026-04-23T15:36:41Z</time></trkpt><trkpt lat="45.38771078148743" lon="9.879105421803906"><ele>68.0</ele><time>2026-04-23T15:36:42Z</time></trkpt><trkpt lat="45.387796958883875" lon="9.879100266959668"><ele>68.0</ele><time>2026-04-23T15:36:43Z</time></trkpt><trkpt lat="45.38788401561887" lon="9.87908653986449"><ele>68.0</ele><time>2026-04-23T15:36:44Z</time></trkpt><trkpt lat="45.387974406528556" lon="9.879083702095867"><ele>68.0</ele><time>2026-04-23T15:36:45Z</time></trkpt><trkpt lat="45.38806571693642" lon="9.879083555267323"><ele>68.0</ele><time>2026-04-23T15:36:46Z</time></trkpt><trkpt lat="45.3881565369462" lon="9.879081555612979"><ele>68.6</ele><time>2026-04-23T15:36:47Z</time></trkpt><trkpt lat="45.38824784156422" lon="9.879075062262523"><ele>69.19999999999999</ele><time>2026-04-23T15:36:48Z</time></trkpt><trkpt lat="45.38833670009938" lon="9.879064515772958"><ele>69.8</ele><time>2026-04-23T15:36:49Z</time></trkpt><trkpt lat="45.3884246285847" lon="9.879039942141187"><ele>70.39999999999999</ele><time>2026-04-23T15:36:50Z</time></trkpt><trkpt lat="45.388513472049866" lon="9.879006897570536"><ele>71.0</ele><time>2026-04-23T15:36:51Z</time></trkpt><trkpt lat="45.38860132730605" lon="9.878976772205434"><ele>71.0</ele><time>2026-04-23T15:36:52Z</time></trkpt><trkpt lat="45.38869211333517" lon="9.878960623087176"><ele>71.0</ele><time>2026-04-23T15:36:53Z</time></trkpt><trkpt lat="45.38878561402567" lon="9.87894900002396"><ele>71.0</ele><time>2026-04-23T15:36:54Z</time></trkpt><trkpt lat="45.38888135973204" lon="9.878938941155306"><ele>71.0</ele><time>2026-04-23T15:36:55Z</time></trkpt><trkpt lat="45.38897907860429" lon="9.878926328414432"><ele>71.0</ele><time>2026-04-23T15:36:56Z</time></trkpt><trkpt lat="45.38908190289966" lon="9.878919025315751"><ele>70.8</ele><time>2026-04-23T15:36:57Z</time></trkpt><trkpt lat="45.38917504710057" lon="9.87890895134208"><ele>70.6</ele><time>2026-04-23T15:36:58Z</time></trkpt><trkpt lat="45.38926317437207" lon="9.87890731810141"><ele>70.4</ele><time>2026-04-23T15:36:59Z</time></trkpt><trkpt lat="45.38935099909419" lon="9.878902335933716"><ele>70.2</ele><time>2026-04-23T15:37:00Z</time></trkpt><trkpt lat="45.38944181997524" lon="9.87889902183094"><ele>70.0</ele><time>2026-04-23T15:37:01Z</time></trkpt><trkpt lat="45.38953822771524" lon="9.878890822870009"><ele>70.0</ele><time>2026-04-23T15:37:02Z</time></trkpt><trkpt lat="45.38963588134476" lon="9.878881171676143"><ele>70.0</ele><time>2026-04-23T15:37:03Z</time></trkpt><trkpt lat="45.389725052386154" lon="9.878875524200227"><ele>70.0</ele><time>2026-04-23T15:37:04Z</time></trkpt><trkpt lat="45.389811304373715" lon="9.87886722421387"><ele>70.0</ele><time>2026-04-23T15:37:05Z</time></trkpt><trkpt lat="45.389899108348935" lon="9.878845050200184"><ele>70.0</ele><time>2026-04-23T15:37:06Z</time></trkpt><trkpt lat="45.38998936754701" lon="9.8788152157985"><ele>70.2</ele><time>2026-04-23T15:37:07Z</time></trkpt><trkpt lat="45.390076085663985" lon="9.878786806773759"><ele>70.4</ele><time>2026-04-23T15:37:08Z</time></trkpt><trkpt lat="45.39016846081797" lon="9.878755216952671"><ele>70.6</ele><time>2026-04-23T15:37:09Z</time></trkpt><trkpt lat="45.390260013718844" lon="9.87872625077346"><ele>70.8</ele><time>2026-04-23T15:37:10Z</time></trkpt><trkpt lat="45.39034992018857" lon="9.87870291283099"><ele>71.0</ele><time>2026-04-23T15:37:11Z</time></trkpt><trkpt lat="45.390438787020685" lon="9.878689875226089"><ele>71.0</ele><time>2026-04-23T15:37:12Z</time></trkpt><trkpt lat="45.390526862739186" lon="9.878668084220054"><ele>71.0</ele><time>2026-04-23T15:37:13Z</time></trkpt><trkpt lat="45.390609501528765" lon="9.878651847646665"><ele>71.0</ele><time>2026-04-23T15:37:14Z</time></trkpt><trkpt lat="45.39068988193017" lon="9.878625029419535"><ele>71.0</ele><time>2026-04-23T15:37:15Z</time></trkpt><trkpt lat="45.39076958353233" lon="9.87860611121825"><ele>71.0</ele><time>2026-04-23T15:37:16Z</time></trkpt><trkpt lat="45.3908493344818" lon="9.8786062076356"><ele>71.0</ele><time>2026-04-23T15:37:17Z</time></trkpt><trkpt lat="45.390928279912714" lon="9.878639260287585"><ele>71.0</ele><time>2026-04-23T15:37:18Z</time></trkpt><trkpt lat="45.39101000532854" lon="9.87866278126598"><ele>71.0</ele><time>2026-04-23T15:37:19Z</time></trkpt><trkpt lat="45.391101183918316" lon="9.87868757631087"><ele>71.0</ele><time>2026-04-23T15:37:20Z</time></trkpt><trkpt lat="45.39119683052713" lon="9.87871065556285"><ele>71.0</ele><time>2026-04-23T15:37:21Z</time></trkpt><trkpt lat="45.39129670219362" lon="9.878724929236105"><ele>71.0</ele><time>2026-04-23T15:37:22Z</time></trkpt><trkpt lat="45.39139701140217" lon="9.878743078765403"><ele>70.8</ele><time>2026-04-23T15:37:23Z</time></trkpt><trkpt lat="45.39150219925974" lon="9.878762577178446"><ele>70.6</ele><time>2026-04-23T15:37:24Z</time></trkpt><trkpt lat="45.39160544624028" lon="9.8787815175934"><ele>70.4</ele><time>2026-04-23T15:37:25Z</time></trkpt><trkpt lat="45.39170404093305" lon="9.878795642410848"><ele>70.2</ele><time>2026-04-23T15:37:26Z</time></trkpt><trkpt lat="45.39179597784425" lon="9.878797360123324"><ele>70.0</ele><time>2026-04-23T15:37:27Z</time></trkpt><trkpt lat="45.39188789759763" lon="9.878798376423733"><ele>70.0</ele><time>2026-04-23T15:37:28Z</time></trkpt><trkpt lat="45.39198186688193" lon="9.878805921941458"><ele>70.0</ele><time>2026-04-23T15:37:29Z</time></trkpt><trkpt lat="45.392079893011264" lon="9.8788116379488"><ele>70.0</ele><time>2026-04-23T15:37:30Z</time></trkpt><trkpt lat="45.39217982137112" lon="9.878813087421356"><ele>70.0</ele><time>2026-04-23T15:37:31Z</time></trkpt><trkpt lat="45.39228187643995" lon="9.878819431826264"><ele>70.0</ele><time>2026-04-23T15:37:32Z</time></trkpt><trkpt lat="45.392395327362344" lon="9.878831350741933"><ele>70.0</ele><time>2026-04-23T15:37:33Z</time></trkpt><trkpt lat="45.39250460628869" lon="9.878845410860318"><ele>70.0</ele><time>2026-04-23T15:37:34Z</time></trkpt><trkpt lat="45.39261751646745" lon="9.878859642216751"><ele>70.0</ele><time>2026-04-23T15:37:35Z</time></trkpt><trkpt lat="45.39272563322791" lon="9.878876298037007"><ele>70.0</ele><time>2026-04-23T15:37:36Z</time></trkpt><trkpt lat="45.39282484239142" lon="9.878897451795261"><ele>70.0</ele><time>2026-04-23T15:37:37Z</time></trkpt><trkpt lat="45.39291592706727" lon="9.878923490492246"><ele>70.0</ele><time>2026-04-23T15:37:38Z</time></trkpt><trkpt lat="45.39300160764969" lon="9.878948822190669"><ele>70.0</ele><time>2026-04-23T15:37:39Z</time></trkpt><trkpt lat="45.39308577720991" lon="9.878967332098679"><ele>70.0</ele><time>2026-04-23T15:37:40Z</time></trkpt><trkpt lat="45.393174829880664" lon="9.87895553961026"><ele>70.0</ele><time>2026-04-23T15:37:41Z</time></trkpt><trkpt lat="45.393262818682466" lon="9.878909822316384"><ele>70.0</ele><time>2026-04-23T15:37:42Z</time></trkpt><trkpt lat="45.39334534034931" lon="9.878822980893574"><ele>70.0</ele><time>2026-04-23T15:37:43Z</time></trkpt><trkpt lat="45.39342353830779" lon="9.878706597069172"><ele>70.0</ele><time>2026-04-23T15:37:44Z</time></trkpt><trkpt lat="45.39350768082883" lon="9.87861475651032"><ele>70.0</ele><time>2026-04-23T15:37:45Z</time></trkpt><trkpt lat="45.393614770733855" lon="9.878574425396335"><ele>70.0</ele><time>2026-04-23T15:37:46Z</time></trkpt><trkpt lat="45.393737479996176" lon="9.878567669179294"><ele>70.0</ele><time>2026-04-23T15:37:47Z</time></trkpt><trkpt lat="45.39386156221666" lon="9.878572227767021"><ele>70.0</ele><time>2026-04-23T15:37:48Z</time></trkpt><trkpt lat="45.39397179241863" lon="9.878567201723023"><ele>70.0</ele><time>2026-04-23T15:37:49Z</time></trkpt><trkpt lat="45.39407163074043" lon="9.878556008958519"><ele>70.0</ele><time>2026-04-23T15:37:50Z</time></trkpt><trkpt lat="45.39416409445579" lon="9.878548282347152"><ele>70.0</ele><time>2026-04-23T15:37:51Z</time></trkpt><trkpt lat="45.39426393018307" lon="9.878544494899701"><ele>70.0</ele><time>2026-04-23T15:37:52Z</time></trkpt><trkpt lat="45.394369306380874" lon="9.87854025474243"><ele>70.0</ele><time>2026-04-23T15:37:53Z</time></trkpt><trkpt lat="45.39446517071655" lon="9.878530634053451"><ele>70.0</ele><time>2026-04-23T15:37:54Z</time></trkpt><trkpt lat="45.3945527954483" lon="9.878507315266638"><ele>70.0</ele><time>2026-04-23T15:37:55Z</time></trkpt><trkpt lat="45.394648564363095" lon="9.878468794697653"><ele>70.0</ele><time>2026-04-23T15:37:56Z</time></trkpt><trkpt lat="45.39475707303114" lon="9.878413367333165"><ele>70.25</ele><time>2026-04-23T15:37:57Z</time></trkpt><trkpt lat="45.39487668263166" lon="9.878368731176188"><ele>70.5</ele><time>2026-04-23T15:37:58Z</time></trkpt><trkpt lat="45.395008109031046" lon="9.87833096308691"><ele>70.75</ele><time>2026-04-23T15:37:59Z</time></trkpt><trkpt lat="45.39514847718595" lon="9.878300268210717"><ele>71.0</ele><time>2026-04-23T15:38:00Z</time></trkpt><trkpt lat="45.395284693673204" lon="9.878279746516297"><ele>71.0</ele><time>2026-04-23T15:38:01Z</time></trkpt><trkpt lat="45.39541019075663" lon="9.878263771346866"><ele>71.0</ele><time>2026-04-23T15:38:02Z</time></trkpt><trkpt lat="45.39553303936446" lon="9.878255127665538"><ele>71.0</ele><time>2026-04-23T15:38:03Z</time></trkpt><trkpt lat="45.39565730688998" lon="9.87825621938187"><ele>71.0</ele><time>2026-04-23T15:38:04Z</time></trkpt><trkpt lat="45.39578131586194" lon="9.878257238191718"><ele>70.8</ele><time>2026-04-23T15:38:05Z</time></trkpt><trkpt lat="45.39589729730164" lon="9.878259500076316"><ele>70.6</ele><time>2026-04-23T15:38:06Z</time></trkpt><trkpt lat="45.39600627981719" lon="9.878260503906915"><ele>70.4</ele><time>2026-04-23T15:38:07Z</time></trkpt><trkpt lat="45.39611636956139" lon="9.878256321284733"><ele>70.2</ele><time>2026-04-23T15:38:08Z</time></trkpt><trkpt lat="45.39622998277101" lon="9.878250696862265"><ele>70.0</ele><time>2026-04-23T15:38:09Z</time></trkpt><trkpt lat="45.39634868718567" lon="9.878249712005902"><ele>70.6</ele><time>2026-04-23T15:38:10Z</time></trkpt><trkpt lat="45.39646735412877" lon="9.878253238458548"><ele>71.2</ele><time>2026-04-23T15:38:11Z</time></trkpt><trkpt lat="45.39657366635899" lon="9.878253784234072"><ele>71.8</ele><time>2026-04-23T15:38:12Z</time></trkpt><trkpt lat="45.39667184789963" lon="9.878250525575165"><ele>72.4</ele><time>2026-04-23T15:38:13Z</time></trkpt><trkpt lat="45.39676371539936" lon="9.878251320912412"><ele>73.0</ele><time>2026-04-23T15:38:14Z</time></trkpt><trkpt lat="45.3968549953702" lon="9.878252416940995"><ele>73.0</ele><time>2026-04-23T15:38:15Z</time></trkpt><trkpt lat="45.396949383389966" lon="9.8782522135936"><ele>73.0</ele><time>2026-04-23T15:38:16Z</time></trkpt><trkpt lat="45.39704463055615" lon="9.878251669555722"><ele>73.0</ele><time>2026-04-23T15:38:17Z</time></trkpt><trkpt lat="45.397139375619666" lon="9.878249474936274"><ele>73.0</ele><time>2026-04-23T15:38:18Z</time></trkpt><trkpt lat="45.3972384337283" lon="9.878249339967391"><ele>73.0</ele><time>2026-04-23T15:38:19Z</time></trkpt><trkpt lat="45.397339938305635" lon="9.878251078855017"><ele>73.0</ele><time>2026-04-23T15:38:20Z</time></trkpt><trkpt lat="45.3974485437814" lon="9.878248901679191"><ele>73.0</ele><time>2026-04-23T15:38:21Z</time></trkpt><trkpt lat="45.39755755121623" lon="9.878248741294954"><ele>73.0</ele><time>2026-04-23T15:38:22Z</time></trkpt><trkpt lat="45.3976701161474" lon="9.878249051182086"><ele>73.0</ele><time>2026-04-23T15:38:23Z</time></trkpt><trkpt lat="45.39778764941716" lon="9.878247627834817"><ele>73.0</ele><time>2026-04-23T15:38:24Z</time></trkpt><trkpt lat="45.3979071886974" lon="9.878243714914095"><ele>72.5</ele><time>2026-04-23T15:38:25Z</time></trkpt><trkpt lat="45.39802657612763" lon="9.878238929830724"><ele>72.0</ele><time>2026-04-23T15:38:26Z</time></trkpt><trkpt lat="45.39814721916619" lon="9.878238228394974"><ele>71.5</ele><time>2026-04-23T15:38:27Z</time></trkpt><trkpt lat="45.39826773396774" lon="9.878237095999541"><ele>71.0</ele><time>2026-04-23T15:38:28Z</time></trkpt><trkpt lat="45.39837656683686" lon="9.8782324470176"><ele>71.0</ele><time>2026-04-23T15:38:29Z</time></trkpt><trkpt lat="45.39847539888036" lon="9.878230055857701"><ele>71.0</ele><time>2026-04-23T15:38:30Z</time></trkpt><trkpt lat="45.39856879241462" lon="9.878224573450787"><ele>71.0</ele><time>2026-04-23T15:38:31Z</time></trkpt><trkpt lat="45.39866269319157" lon="9.878218901109971"><ele>71.0</ele><time>2026-04-23T15:38:32Z</time></trkpt><trkpt lat="45.398756685763054" lon="9.878218556197446"><ele>71.0</ele><time>2026-04-23T15:38:33Z</time></trkpt><trkpt lat="45.39884988822122" lon="9.878221065859782"><ele>71.66666666666667</ele><time>2026-04-23T15:38:34Z</time></trkpt><trkpt lat="45.39892915898192" lon="9.878223762423378"><ele>72.33333333333334</ele><time>2026-04-23T15:38:35Z</time></trkpt><trkpt lat="45.39899917479644" lon="9.878232576528939"><ele>73.0</ele><time>2026-04-23T15:38:36Z</time></trkpt><trkpt lat="45.3990992686264" lon="9.87825317758834"><ele>73.66666666666667</ele><time>2026-04-23T15:38:38Z</time></trkpt><trkpt lat="45.399170009441995" lon="9.878247636870835"><ele>74.33333333333333</ele><time>2026-04-23T15:38:41Z</time></trkpt><trkpt lat="45.399210763144666" lon="9.878087191425935"><ele>75.0</ele><time>2026-04-23T15:38:44Z</time></trkpt><trkpt lat="45.399186518605866" lon="9.877986514912845"><ele>75.0</ele><time>2026-04-23T15:38:46Z</time></trkpt><trkpt lat="45.39916195571604" lon="9.877847601626524"><ele>75.0</ele><time>2026-04-23T15:38:48Z</time></trkpt><trkpt lat="45.399147037603164" lon="9.87775886537613"><ele>75.0</ele><time>2026-04-23T15:38:49Z</time></trkpt><trkpt lat="45.399124338275364" lon="9.877650581853432"><ele>75.0</ele><time>2026-04-23T15:38:50Z</time></trkpt><trkpt lat="45.39910607810361" lon="9.877532823188783"><ele>75.0</ele><time>2026-04-23T15:38:51Z</time></trkpt><trkpt lat="45.39908298793997" lon="9.877401091019793"><ele>75.0</ele><time>2026-04-23T15:38:52Z</time></trkpt><trkpt lat="45.399058384774875" lon="9.877259618800755"><ele>75.25</ele><time>2026-04-23T15:38:53Z</time></trkpt><trkpt lat="45.399031247815444" lon="9.877113495986292"><ele>75.5</ele><time>2026-04-23T15:38:54Z</time></trkpt><trkpt lat="45.3990057285087" lon="9.876958088562786"><ele>75.75</ele><time>2026-04-23T15:38:55Z</time></trkpt><trkpt lat="45.398981090233214" lon="9.876797521015229"><ele>76.0</ele><time>2026-04-23T15:38:56Z</time></trkpt><trkpt lat="45.39895155306664" lon="9.876636862411393"><ele>75.25</ele><time>2026-04-23T15:38:57Z</time></trkpt><trkpt lat="45.39891970525778" lon="9.87646549165575"><ele>74.5</ele><time>2026-04-23T15:38:58Z</time></trkpt><trkpt lat="45.398885230194765" lon="9.876294052919855"><ele>73.75</ele><time>2026-04-23T15:38:59Z</time></trkpt><trkpt lat="45.39885107861332" lon="9.876124871560261"><ele>73.0</ele><time>2026-04-23T15:39:00Z</time></trkpt><trkpt lat="45.398814600641664" lon="9.875951475694764"><ele>73.0</ele><time>2026-04-23T15:39:01Z</time></trkpt><trkpt lat="45.398771533665645" lon="9.875780467132428"><ele>73.0</ele><time>2026-04-23T15:39:02Z</time></trkpt><trkpt lat="45.39871991987364" lon="9.875616166420624"><ele>73.0</ele><time>2026-04-23T15:39:03Z</time></trkpt><trkpt lat="45.39866822448874" lon="9.875478083852414"><ele>73.0</ele><time>2026-04-23T15:39:04Z</time></trkpt><trkpt lat="45.39862032462381" lon="9.875327112318468"><ele>73.0</ele><time>2026-04-23T15:39:05Z</time></trkpt><trkpt lat="45.39857960840176" lon="9.875179024293072"><ele>73.0</ele><time>2026-04-23T15:39:06Z</time></trkpt><trkpt lat="45.39853254329235" lon="9.875047387069937"><ele>73.0</ele><time>2026-04-23T15:39:07Z</time></trkpt><trkpt lat="45.39848365081446" lon="9.874919790482029"><ele>73.0</ele><time>2026-04-23T15:39:08Z</time></trkpt><trkpt lat="45.39843932841207" lon="9.87480389364596"><ele>73.0</ele><time>2026-04-23T15:39:09Z</time></trkpt><trkpt lat="45.39837840715549" lon="9.874689277443075"><ele>73.2</ele><time>2026-04-23T15:39:10Z</time></trkpt><trkpt lat="45.398315510598565" lon="9.874583316404092"><ele>73.4</ele><time>2026-04-23T15:39:11Z</time></trkpt><trkpt lat="45.3982472273211" lon="9.874484373466142"><ele>73.60000000000001</ele><time>2026-04-23T15:39:12Z</time></trkpt><trkpt lat="45.398171840199694" lon="9.874392388365509"><ele>73.8</ele><time>2026-04-23T15:39:13Z</time></trkpt><trkpt lat="45.398115508274586" lon="9.874325284991674"><ele>74.0</ele><time>2026-04-23T15:39:14Z</time></trkpt><trkpt lat="45.398043295757574" lon="9.874229955970677"><ele>74.0</ele><time>2026-04-23T15:39:15Z</time></trkpt><trkpt lat="45.397978178306296" lon="9.874133555875105"><ele>74.0</ele><time>2026-04-23T15:39:16Z</time></trkpt><trkpt lat="45.397913057388834" lon="9.874018867083391"><ele>74.0</ele><time>2026-04-23T15:39:17Z</time></trkpt><trkpt lat="45.39786375937918" lon="9.873889520192561"><ele>74.0</ele><time>2026-04-23T15:39:18Z</time></trkpt><trkpt lat="45.397838423178975" lon="9.873733245844903"><ele>74.0</ele><time>2026-04-23T15:39:19Z</time></trkpt><trkpt lat="45.39779264844235" lon="9.87359433175474"><ele>74.0</ele><time>2026-04-23T15:39:20Z</time></trkpt><trkpt lat="45.397776564792466" lon="9.873453393484509"><ele>74.0</ele><time>2026-04-23T15:39:21Z</time></trkpt><trkpt lat="45.397742741509866" lon="9.873339223137503"><ele>74.0</ele><time>2026-04-23T15:39:22Z</time></trkpt><trkpt lat="45.39771548944865" lon="9.873254014618539"><ele>74.0</ele><time>2026-04-23T15:39:23Z</time></trkpt><trkpt lat="45.39767490272161" lon="9.87315589982021"><ele>74.0</ele><time>2026-04-23T15:39:25Z</time></trkpt><trkpt lat="45.39759801212568" lon="9.873016895157816"><ele>74.5</ele><time>2026-04-23T15:39:27Z</time></trkpt><trkpt lat="45.39749111236811" lon="9.872909083116785"><ele>75.0</ele><time>2026-04-23T15:39:29Z</time></trkpt><trkpt lat="45.397412435729436" lon="9.872856860508968"><ele>75.5</ele><time>2026-04-23T15:39:30Z</time></trkpt><trkpt lat="45.397291345111135" lon="9.872798577440093"><ele>76.0</ele><time>2026-04-23T15:39:31Z</time></trkpt><trkpt lat="45.39717464560102" lon="9.872732397583022"><ele>76.0</ele><time>2026-04-23T15:39:32Z</time></trkpt><trkpt lat="45.397054889059994" lon="9.872671061096781"><ele>76.0</ele><time>2026-04-23T15:39:33Z</time></trkpt><trkpt lat="45.39691942384062" lon="9.872611804288734"><ele>76.0</ele><time>2026-04-23T15:39:34Z</time></trkpt><trkpt lat="45.39681924700078" lon="9.872527886590637"><ele>76.0</ele><time>2026-04-23T15:39:35Z</time></trkpt><trkpt lat="45.39671195204871" lon="9.872450057026645"><ele>76.0</ele><time>2026-04-23T15:39:36Z</time></trkpt><trkpt lat="45.39661655049318" lon="9.872367908772869"><ele>76.0</ele><time>2026-04-23T15:39:37Z</time></trkpt><trkpt lat="45.396543928666674" lon="9.872317458298738"><ele>76.0</ele><time>2026-04-23T15:39:38Z</time></trkpt><trkpt lat="45.396479342744314" lon="9.872262546688026"><ele>76.0</ele><time>2026-04-23T15:39:39Z</time></trkpt><trkpt lat="45.39641456948117" lon="9.872178859771463"><ele>76.0</ele><time>2026-04-23T15:39:40Z</time></trkpt><trkpt lat="45.396355746290936" lon="9.872065481024766"><ele>75.6</ele><time>2026-04-23T15:39:41Z</time></trkpt><trkpt lat="45.396290791173335" lon="9.871974092742963"><ele>75.19999999999999</ele><time>2026-04-23T15:39:42Z</time></trkpt><trkpt lat="45.39624201358919" lon="9.871883208490955"><ele>74.80000000000001</ele><time>2026-04-23T15:39:43Z</time></trkpt><trkpt lat="45.396191761447064" lon="9.871788195702289"><ele>74.4</ele><time>2026-04-23T15:39:44Z</time></trkpt><trkpt lat="45.39612864399693" lon="9.871668329326866"><ele>74.0</ele><time>2026-04-23T15:39:45Z</time></trkpt><trkpt lat="45.396061536136756" lon="9.871540880124066"><ele>74.0</ele><time>2026-04-23T15:39:46Z</time></trkpt><trkpt lat="45.39600106170167" lon="9.871416880009596"><ele>74.0</ele><time>2026-04-23T15:39:47Z</time></trkpt><trkpt lat="45.39594785874799" lon="9.87130039314896"><ele>74.0</ele><time>2026-04-23T15:39:48Z</time></trkpt><trkpt lat="45.39590669152147" lon="9.871152635805416"><ele>74.0</ele><time>2026-04-23T15:39:49Z</time></trkpt><trkpt lat="45.39590776267911" lon="9.870972406890921"><ele>74.0</ele><time>2026-04-23T15:39:50Z</time></trkpt><trkpt lat="45.39587734585096" lon="9.870789009953224"><ele>74.25</ele><time>2026-04-23T15:39:51Z</time></trkpt><trkpt lat="45.395855825218206" lon="9.870604258504008"><ele>74.5</ele><time>2026-04-23T15:39:52Z</time></trkpt><trkpt lat="45.39583480428858" lon="9.870406574870549"><ele>74.75</ele><time>2026-04-23T15:39:53Z</time></trkpt><trkpt lat="45.395836074092344" lon="9.870204337938265"><ele>75.0</ele><time>2026-04-23T15:39:54Z</time></trkpt><trkpt lat="45.395807979078626" lon="9.869996350700045"><ele>75.0</ele><time>2026-04-23T15:39:55Z</time></trkpt><trkpt lat="45.39579743796904" lon="9.86980513401639"><ele>75.0</ele><time>2026-04-23T15:39:56Z</time></trkpt><trkpt lat="45.39577170822283" lon="9.869626507209123"><ele>75.0</ele><time>2026-04-23T15:39:57Z</time></trkpt><trkpt lat="45.395735600746235" lon="9.869442796473184"><ele>75.0</ele><time>2026-04-23T15:39:58Z</time></trkpt><trkpt lat="45.39568838963285" lon="9.869252043721465"><ele>75.5</ele><time>2026-04-23T15:39:59Z</time></trkpt><trkpt lat="45.39565517217105" lon="9.869067948778314"><ele>76.0</ele><time>2026-04-23T15:40:00Z</time></trkpt><trkpt lat="45.395626582096476" lon="9.868908808217716"><ele>76.5</ele><time>2026-04-23T15:40:01Z</time></trkpt><trkpt lat="45.395615253527815" lon="9.8687506884423"><ele>77.0</ele><time>2026-04-23T15:40:02Z</time></trkpt><trkpt lat="45.395621908315306" lon="9.868574328571205"><ele>77.8</ele><time>2026-04-23T15:40:03Z</time></trkpt><trkpt lat="45.395629894922735" lon="9.868393024840211"><ele>78.6</ele><time>2026-04-23T15:40:04Z</time></trkpt><trkpt lat="45.39563341175294" lon="9.868225497448993"><ele>79.39999999999999</ele><time>2026-04-23T15:40:05Z</time></trkpt><trkpt lat="45.39563294096065" lon="9.868090948006737"><ele>80.2</ele><time>2026-04-23T15:40:06Z</time></trkpt><trkpt lat="45.39563342351818" lon="9.867981642936993"><ele>81.0</ele><time>2026-04-23T15:40:07Z</time></trkpt><trkpt lat="45.39563392870665" lon="9.867855321266333"><ele>81.0</ele><time>2026-04-23T15:40:09Z</time></trkpt><trkpt lat="45.39570951948841" lon="9.867828123376837"><ele>81.0</ele><time>2026-04-23T15:40:10Z</time></trkpt><trkpt lat="45.395775355956125" lon="9.867802269525395"><ele>81.0</ele><time>2026-04-23T15:40:11Z</time></trkpt><trkpt lat="45.39585036468137" lon="9.867798974480273"><ele>81.0</ele><time>2026-04-23T15:40:12Z</time></trkpt><trkpt lat="45.39593434053181" lon="9.867804517807388"><ele>81.0</ele><time>2026-04-23T15:40:13Z</time></trkpt><trkpt lat="45.39600854238097" lon="9.867811211640106"><ele>81.0</ele><time>2026-04-23T15:40:14Z</time></trkpt><trkpt lat="45.39607311419666" lon="9.867806178700635"><ele>81.0</ele><time>2026-04-23T15:40:17Z</time></trkpt><trkpt lat="45.39606635918176" lon="9.86758303981147"><ele>80.83333333333333</ele><time>2026-04-23T15:40:18Z</time></trkpt><trkpt lat="45.396049625925464" lon="9.867481042091228"><ele>80.66666666666667</ele><time>2026-04-23T15:40:19Z</time></trkpt><trkpt lat="45.39603741931694" lon="9.867379872563369"><ele>80.5</ele><time>2026-04-23T15:40:20Z</time></trkpt><trkpt lat="45.396031422544084" lon="9.867278092109947"><ele>80.33333333333334</ele><time>2026-04-23T15:40:20.999Z</time></trkpt><trkpt lat="45.39602291040181" lon="9.867178138368486"><ele>80.16666666666667</ele><time>2026-04-23T15:40:22Z</time></trkpt><trkpt lat="45.39601041667387" lon="9.867026121698776"><ele>80.0</ele><time>2026-04-23T15:40:24Z</time></trkpt><trkpt lat="45.39587768988799" lon="9.866968496819029"><ele>80.0</ele><time>2026-04-23T15:40:27Z</time></trkpt><trkpt lat="45.3957974588765" lon="9.866962681149372"><ele>80.0</ele><time>2026-04-23T15:40:28Z</time></trkpt><trkpt lat="45.39571267929507" lon="9.866970612702222"><ele>80.0</ele><time>2026-04-23T15:40:29Z</time></trkpt><trkpt lat="45.39562565917312" lon="9.866979609001607"><ele>80.0</ele><time>2026-04-23T15:40:30Z</time></trkpt><trkpt lat="45.39553779545063" lon="9.866988692518975"><ele>80.0</ele><time>2026-04-23T15:40:31Z</time></trkpt><trkpt lat="45.395454462782816" lon="9.866997307606395"><ele>80.0</ele><time>2026-04-23T15:40:32Z</time></trkpt><trkpt lat="45.39538823960668" lon="9.867004153876954"><ele>79.83333333333334</ele><time>2026-04-23T15:40:33Z</time></trkpt><trkpt lat="45.395313685677436" lon="9.867011861407356"><ele>79.66666666666667</ele><time>2026-04-23T15:40:35Z</time></trkpt><trkpt lat="45.39527497678528" lon="9.866867575824424"><ele>79.5</ele><time>2026-04-23T15:40:38Z</time></trkpt><trkpt lat="45.3952797397224" lon="9.866764294220468"><ele>79.33333333333333</ele><time>2026-04-23T15:40:39Z</time></trkpt><trkpt lat="45.39528633523338" lon="9.866660682933322"><ele>79.16666666666666</ele><time>2026-04-23T15:40:40Z</time></trkpt><trkpt lat="45.395288709518255" lon="9.866562966547146"><ele>79.0</ele><time>2026-04-23T15:40:41Z</time></trkpt><trkpt lat="45.395283589285796" lon="9.866411423505808"><ele>79.0</ele><time>2026-04-23T15:40:43Z</time></trkpt><trkpt lat="45.3952793692913" lon="9.86626793863242"><ele>79.0</ele><time>2026-04-23T15:40:46Z</time></trkpt><trkpt lat="45.39527412832644" lon="9.866164141220917"><ele>79.0</ele><time>2026-04-23T15:40:47Z</time></trkpt><trkpt lat="45.3952702213201" lon="9.866049085176774"><ele>79.0</ele><time>2026-04-23T15:40:48Z</time></trkpt><trkpt lat="45.39526413490948" lon="9.865926011212881"><ele>79.0</ele><time>2026-04-23T15:40:49Z</time></trkpt><trkpt lat="45.39525496750468" lon="9.865787987604298"><ele>79.0</ele><time>2026-04-23T15:40:50Z</time></trkpt><trkpt lat="45.395249145452226" lon="9.86564145240677"><ele>79.0</ele><time>2026-04-23T15:40:51Z</time></trkpt><trkpt lat="45.395242765236" lon="9.865483399552732"><ele>79.0</ele><time>2026-04-23T15:40:52Z</time></trkpt><trkpt lat="45.395230091220064" lon="9.865322981027585"><ele>79.0</ele><time>2026-04-23T15:40:53Z</time></trkpt><trkpt lat="45.395214344973326" lon="9.865168912176504"><ele>79.0</ele><time>2026-04-23T15:40:54Z</time></trkpt><trkpt lat="45.39520184884609" lon="9.865019950679821"><ele>79.0</ele><time>2026-04-23T15:40:55Z</time></trkpt><trkpt lat="45.39519486549487" lon="9.86487395434923"><ele>79.0</ele><time>2026-04-23T15:40:56Z</time></trkpt><trkpt lat="45.39518896427028" lon="9.864738838354608"><ele>79.0</ele><time>2026-04-23T15:40:57Z</time></trkpt><trkpt lat="45.395180445760715" lon="9.864614402548995"><ele>79.0</ele><time>2026-04-23T15:40:58Z</time></trkpt><trkpt lat="45.39517076154791" lon="9.86450421435191"><ele>79.0</ele><time>2026-04-23T15:40:59Z</time></trkpt><trkpt lat="45.395160653942746" lon="9.864340582658917"><ele>79.0</ele><time>2026-04-23T15:41:01Z</time></trkpt><trkpt lat="45.39515663350744" lon="9.864232147126401"><ele>79.33333333333333</ele><time>2026-04-23T15:41:04Z</time></trkpt><trkpt lat="45.39512316247974" lon="9.864137677030236"><ele>79.66666666666666</ele><time>2026-04-23T15:41:08Z</time></trkpt><trkpt lat="45.39508160053682" lon="9.863991065154567"><ele>80.0</ele><time>2026-04-23T15:41:10Z</time></trkpt><trkpt lat="45.3950150194496" lon="9.863922628404335"><ele>80.33333333333333</ele><time>2026-04-23T15:41:11Z</time></trkpt><trkpt lat="45.39497571905773" lon="9.863821416041201"><ele>80.66666666666667</ele><time>2026-04-23T15:41:12Z</time></trkpt><trkpt lat="45.39496581628053" lon="9.86368853853744"><ele>81.0</ele><time>2026-04-23T15:41:13Z</time></trkpt><trkpt lat="45.39494471334871" lon="9.863563207305138"><ele>80.8</ele><time>2026-04-23T15:41:14Z</time></trkpt><trkpt lat="45.394943955732366" lon="9.86342667808306"><ele>80.6</ele><time>2026-04-23T15:41:15Z</time></trkpt><trkpt lat="45.3949302692324" lon="9.863289867165202"><ele>80.4</ele><time>2026-04-23T15:41:16Z</time></trkpt><trkpt lat="45.39491342291393" lon="9.863155868764528"><ele>80.2</ele><time>2026-04-23T15:41:17Z</time></trkpt><trkpt lat="45.394895178251204" lon="9.863018477626063"><ele>80.0</ele><time>2026-04-23T15:41:18Z</time></trkpt><trkpt lat="45.39488150763737" lon="9.862880362675291"><ele>80.0</ele><time>2026-04-23T15:41:19Z</time></trkpt><trkpt lat="45.39486813315098" lon="9.86274134020377"><ele>80.0</ele><time>2026-04-23T15:41:20Z</time></trkpt><trkpt lat="45.39485436269001" lon="9.86259639866296"><ele>80.0</ele><time>2026-04-23T15:41:21Z</time></trkpt><trkpt lat="45.39483974607991" lon="9.862451524208701"><ele>80.0</ele><time>2026-04-23T15:41:22Z</time></trkpt><trkpt lat="45.3948279344987" lon="9.862313364259396"><ele>80.0</ele><time>2026-04-23T15:41:23Z</time></trkpt><trkpt lat="45.394817378933425" lon="9.862182329164922"><ele>80.0</ele><time>2026-04-23T15:41:24Z</time></trkpt><trkpt lat="45.39480432668417" lon="9.862046063272961"><ele>80.0</ele><time>2026-04-23T15:41:25Z</time></trkpt><trkpt lat="45.39478918540596" lon="9.861907945739393"><ele>80.0</ele><time>2026-04-23T15:41:26Z</time></trkpt><trkpt lat="45.394773811984486" lon="9.86176364429792"><ele>80.0</ele><time>2026-04-23T15:41:27Z</time></trkpt><trkpt lat="45.39475670350316" lon="9.861617109752295"><ele>80.0</ele><time>2026-04-23T15:41:28Z</time></trkpt><trkpt lat="45.39474215692407" lon="9.861477746610511"><ele>80.25</ele><time>2026-04-23T15:41:29Z</time></trkpt><trkpt lat="45.39473009186069" lon="9.861360559896838"><ele>80.5</ele><time>2026-04-23T15:41:30Z</time></trkpt><trkpt lat="45.39470440370117" lon="9.861229481945207"><ele>80.75</ele><time>2026-04-23T15:41:32Z</time></trkpt><trkpt lat="45.394923528426816" lon="9.861212645474223"><ele>81.0</ele><time>2026-04-23T15:41:34Z</time></trkpt><trkpt lat="45.39500855565405" lon="9.861187301817218"><ele>81.0</ele><time>2026-04-23T15:41:35Z</time></trkpt><trkpt lat="45.395095954834645" lon="9.861210964828697"><ele>81.0</ele><time>2026-04-23T15:41:36Z</time></trkpt><trkpt lat="45.39514871190223" lon="9.861329565489623"><ele>81.0</ele><time>2026-04-23T15:41:37Z</time></trkpt><trkpt lat="45.395227842923056" lon="9.861424483281247"><ele>81.0</ele><time>2026-04-23T15:41:38Z</time></trkpt><trkpt lat="45.39531630183235" lon="9.861510266461027"><ele>81.0</ele><time>2026-04-23T15:41:39Z</time></trkpt><trkpt lat="45.39540117701499" lon="9.861611627947545"><ele>81.0</ele><time>2026-04-23T15:41:40Z</time></trkpt><trkpt lat="45.395486376747584" lon="9.861707981317496"><ele>81.0</ele><time>2026-04-23T15:41:41Z</time></trkpt><trkpt lat="45.3955659360501" lon="9.861810790582807"><ele>81.0</ele><time>2026-04-23T15:41:42Z</time></trkpt><trkpt lat="45.39564747032851" lon="9.861914496054494"><ele>81.0</ele><time>2026-04-23T15:41:43Z</time></trkpt><trkpt lat="45.39573251592172" lon="9.862012686280323"><ele>81.0</ele><time>2026-04-23T15:41:44Z</time></trkpt><trkpt lat="45.39581756576942" lon="9.862111062693815"><ele>81.0</ele><time>2026-04-23T15:41:45Z</time></trkpt><trkpt lat="45.395895563947235" lon="9.862223137183332"><ele>81.0</ele><time>2026-04-23T15:41:46Z</time></trkpt><trkpt lat="45.39594601533386" lon="9.862363168141556"><ele>81.0</ele><time>2026-04-23T15:41:47Z</time></trkpt><trkpt lat="45.39600956686307" lon="9.862492873052275"><ele>81.0</ele><time>2026-04-23T15:41:48Z</time></trkpt><trkpt lat="45.39610119448951" lon="9.862550930749668"><ele>81.0</ele><time>2026-04-23T15:41:49Z</time></trkpt><trkpt lat="45.396169013398165" lon="9.862599923790853"><ele>81.0</ele><time>2026-04-23T15:41:50Z</time></trkpt><trkpt lat="45.3962345916911" lon="9.86260968004465"><ele>81.0</ele><time>2026-04-23T15:41:51Z</time></trkpt><trkpt lat="45.39633621079977" lon="9.862583596179721"><ele>81.0</ele><time>2026-04-23T15:41:53Z</time></trkpt><trkpt lat="45.39644474076031" lon="9.862684468340165"><ele>81.0</ele><time>2026-04-23T15:41:55Z</time></trkpt><trkpt lat="45.396504955106636" lon="9.862758104865645"><ele>81.0</ele><time>2026-04-23T15:41:56Z</time></trkpt><trkpt lat="45.3965700222086" lon="9.862837675192612"><ele>80.8</ele><time>2026-04-23T15:41:58Z</time></trkpt><trkpt lat="45.39671652139872" lon="9.862736146782503"><ele>80.6</ele><time>2026-04-23T15:41:59Z</time></trkpt><trkpt lat="45.396806398694785" lon="9.862763902581468"><ele>80.4</ele><time>2026-04-23T15:42:01Z</time></trkpt><trkpt lat="45.396867715512556" lon="9.86272621790477"><ele>80.2</ele><time>2026-04-23T15:42:03Z</time></trkpt><trkpt lat="45.39688493742973" lon="9.862546315534999"><ele>80.0</ele><time>2026-04-23T15:42:05Z</time></trkpt><trkpt lat="45.39687283710521" lon="9.862419422526125"><ele>80.0</ele><time>2026-04-23T15:42:06Z</time></trkpt><trkpt lat="45.39685723858989" lon="9.862286469078533"><ele>80.0</ele><time>2026-04-23T15:42:07Z</time></trkpt><trkpt lat="45.39684467261289" lon="9.862135968927582"><ele>80.0</ele><time>2026-04-23T15:42:08Z</time></trkpt><trkpt lat="45.39684863182268" lon="9.861969207628155"><ele>80.0</ele><time>2026-04-23T15:42:09Z</time></trkpt><trkpt lat="45.39685211014068" lon="9.861795448013996"><ele>80.0</ele><time>2026-04-23T15:42:10Z</time></trkpt><trkpt lat="45.3968433150147" lon="9.861610195946161"><ele>80.5</ele><time>2026-04-23T15:42:11Z</time></trkpt><trkpt lat="45.39682727940782" lon="9.861413848365933"><ele>81.0</ele><time>2026-04-23T15:42:12Z</time></trkpt><trkpt lat="45.39681078705932" lon="9.86121232404645"><ele>81.5</ele><time>2026-04-23T15:42:13Z</time></trkpt><trkpt lat="45.39679773016452" lon="9.861017644153113"><ele>82.0</ele><time>2026-04-23T15:42:14Z</time></trkpt><trkpt lat="45.396788370896346" lon="9.860833876171089"><ele>82.25</ele><time>2026-04-23T15:42:15Z</time></trkpt><trkpt lat="45.396778330684356" lon="9.860653587318703"><ele>82.5</ele><time>2026-04-23T15:42:16Z</time></trkpt><trkpt lat="45.39676217045177" lon="9.860470610389797"><ele>82.75</ele><time>2026-04-23T15:42:17Z</time></trkpt><trkpt lat="45.39674001797997" lon="9.860288359412303"><ele>83.0</ele><time>2026-04-23T15:42:18Z</time></trkpt><trkpt lat="45.39670280633804" lon="9.86010319919134"><ele>83.0</ele><time>2026-04-23T15:42:19Z</time></trkpt><trkpt lat="45.396662761202386" lon="9.859914672104708"><ele>83.0</ele><time>2026-04-23T15:42:20Z</time></trkpt><trkpt lat="45.39662610459322" lon="9.859735810940805"><ele>83.0</ele><time>2026-04-23T15:42:21Z</time></trkpt><trkpt lat="45.39659815434401" lon="9.859560391814897"><ele>83.0</ele><time>2026-04-23T15:42:22Z</time></trkpt><trkpt lat="45.39657307490057" lon="9.859389414028788"><ele>82.25</ele><time>2026-04-23T15:42:22.999Z</time></trkpt><trkpt lat="45.396539189412174" lon="9.859205596057786"><ele>81.5</ele><time>2026-04-23T15:42:23.999Z</time></trkpt><trkpt lat="45.39650490791777" lon="9.859013356285045"><ele>80.75</ele><time>2026-04-23T15:42:24.999Z</time></trkpt><trkpt lat="45.396472977789124" lon="9.85884458234293"><ele>80.0</ele><time>2026-04-23T15:42:25.999Z</time></trkpt><trkpt lat="45.39644452903056" lon="9.858689336030853"><ele>80.0</ele><time>2026-04-23T15:42:26.999Z</time></trkpt><trkpt lat="45.3964143842652" lon="9.858525897143377"><ele>80.0</ele><time>2026-04-23T15:42:28Z</time></trkpt><trkpt lat="45.396387967619354" lon="9.858346811518102"><ele>80.0</ele><time>2026-04-23T15:42:29Z</time></trkpt><trkpt lat="45.39636808521467" lon="9.858168672171422"><ele>80.0</ele><time>2026-04-23T15:42:30Z</time></trkpt><trkpt lat="45.39635087509176" lon="9.857987851546639"><ele>80.0</ele><time>2026-04-23T15:42:31Z</time></trkpt><trkpt lat="45.39634307788281" lon="9.85779646943961"><ele>80.0</ele><time>2026-04-23T15:42:32Z</time></trkpt><trkpt lat="45.396338284154616" lon="9.85760430596526"><ele>80.0</ele><time>2026-04-23T15:42:33Z</time></trkpt><trkpt lat="45.39632012378601" lon="9.85741523671084"><ele>80.0</ele><time>2026-04-23T15:42:34Z</time></trkpt><trkpt lat="45.39629284681214" lon="9.857228207322297"><ele>80.0</ele><time>2026-04-23T15:42:35Z</time></trkpt><trkpt lat="45.39627111213372" lon="9.857039772746974"><ele>80.0</ele><time>2026-04-23T15:42:36Z</time></trkpt><trkpt lat="45.39625692278439" lon="9.85685669174705"><ele>80.0</ele><time>2026-04-23T15:42:37Z</time></trkpt><trkpt lat="45.39624645143141" lon="9.856695607358773"><ele>80.0</ele><time>2026-04-23T15:42:38Z</time></trkpt><trkpt lat="45.39623915430284" lon="9.85653304191275"><ele>80.0</ele><time>2026-04-23T15:42:39Z</time></trkpt><trkpt lat="45.396236736737215" lon="9.856360858120222"><ele>80.0</ele><time>2026-04-23T15:42:40Z</time></trkpt><trkpt lat="45.39622884140961" lon="9.85617836015271"><ele>80.0</ele><time>2026-04-23T15:42:41Z</time></trkpt><trkpt lat="45.396215977014656" lon="9.855990958533752"><ele>80.0</ele><time>2026-04-23T15:42:42Z</time></trkpt><trkpt lat="45.39620052556987" lon="9.855790302058715"><ele>79.75</ele><time>2026-04-23T15:42:43Z</time></trkpt><trkpt lat="45.39618394583508" lon="9.855597681853453"><ele>79.5</ele><time>2026-04-23T15:42:44Z</time></trkpt><trkpt lat="45.39617533950964" lon="9.855409357229567"><ele>79.25</ele><time>2026-04-23T15:42:45Z</time></trkpt><trkpt lat="45.39617075599475" lon="9.855232517836741"><ele>79.0</ele><time>2026-04-23T15:42:46Z</time></trkpt><trkpt lat="45.396164665350476" lon="9.855061570264619"><ele>79.0</ele><time>2026-04-23T15:42:47Z</time></trkpt><trkpt lat="45.39615578731142" lon="9.854899310477586"><ele>79.0</ele><time>2026-04-23T15:42:48Z</time></trkpt><trkpt lat="45.396142424065985" lon="9.85474802602783"><ele>79.0</ele><time>2026-04-23T15:42:49Z</time></trkpt><trkpt lat="45.39613326722697" lon="9.854590391879166"><ele>79.0</ele><time>2026-04-23T15:42:50Z</time></trkpt><trkpt lat="45.39612736664758" lon="9.854444467543065"><ele>79.0</ele><time>2026-04-23T15:42:51Z</time></trkpt><trkpt lat="45.396119533049465" lon="9.854295983863931"><ele>79.0</ele><time>2026-04-23T15:42:52Z</time></trkpt><trkpt lat="45.39611377882057" lon="9.854154206871822"><ele>79.0</ele><time>2026-04-23T15:42:53Z</time></trkpt><trkpt lat="45.39611173363742" lon="9.854008068569861"><ele>79.0</ele><time>2026-04-23T15:42:54Z</time></trkpt><trkpt lat="45.39610592892416" lon="9.85385388625602"><ele>79.0</ele><time>2026-04-23T15:42:55Z</time></trkpt><trkpt lat="45.3960928551439" lon="9.853700144174283"><ele>79.0</ele><time>2026-04-23T15:42:56Z</time></trkpt><trkpt lat="45.39608822381487" lon="9.853554182822025"><ele>78.8</ele><time>2026-04-23T15:42:57Z</time></trkpt><trkpt lat="45.39607410523438" lon="9.853403712170927"><ele>78.60000000000001</ele><time>2026-04-23T15:42:58Z</time></trkpt><trkpt lat="45.39606562064144" lon="9.853249642809002"><ele>78.4</ele><time>2026-04-23T15:42:59Z</time></trkpt><trkpt lat="45.39605694739367" lon="9.853102996304715"><ele>78.2</ele><time>2026-04-23T15:43:00Z</time></trkpt><trkpt lat="45.39604603391895" lon="9.852961882670634"><ele>78.0</ele><time>2026-04-23T15:43:01Z</time></trkpt><trkpt lat="45.396034330437" lon="9.852821529159549"><ele>78.0</ele><time>2026-04-23T15:43:02Z</time></trkpt><trkpt lat="45.396024816788355" lon="9.852678707637347"><ele>78.0</ele><time>2026-04-23T15:43:03Z</time></trkpt><trkpt lat="45.39601631627211" lon="9.85252922497975"><ele>78.0</ele><time>2026-04-23T15:43:04Z</time></trkpt><trkpt lat="45.39601136102926" lon="9.852371397443099"><ele>78.0</ele><time>2026-04-23T15:43:05Z</time></trkpt><trkpt lat="45.396001791501035" lon="9.852206533592337"><ele>78.0</ele><time>2026-04-23T15:43:06Z</time></trkpt><trkpt lat="45.39599016443427" lon="9.852042944095821"><ele>78.0</ele><time>2026-04-23T15:43:07Z</time></trkpt><trkpt lat="45.395982447675955" lon="9.85187842052754"><ele>78.0</ele><time>2026-04-23T15:43:08Z</time></trkpt><trkpt lat="45.395973502912895" lon="9.85171096326231"><ele>78.0</ele><time>2026-04-23T15:43:09Z</time></trkpt><trkpt lat="45.39596573728764" lon="9.85154827037678"><ele>78.0</ele><time>2026-04-23T15:43:10Z</time></trkpt><trkpt lat="45.39595471965051" lon="9.851391669056207"><ele>78.0</ele><time>2026-04-23T15:43:11Z</time></trkpt><trkpt lat="45.39594365754231" lon="9.851239172357166"><ele>78.0</ele><time>2026-04-23T15:43:12Z</time></trkpt><trkpt lat="45.39593313777859" lon="9.85109122350967"><ele>78.0</ele><time>2026-04-23T15:43:13Z</time></trkpt><trkpt lat="45.39592646777501" lon="9.850956064739165"><ele>78.0</ele><time>2026-04-23T15:43:14Z</time></trkpt><trkpt lat="45.39592111993042" lon="9.850841429062475"><ele>78.0</ele><time>2026-04-23T15:43:15Z</time></trkpt><trkpt lat="45.395913695307954" lon="9.850748845134595"><ele>78.0</ele><time>2026-04-23T15:43:16Z</time></trkpt><trkpt lat="45.39591245838999" lon="9.85061305371444"><ele>78.0</ele><time>2026-04-23T15:43:18Z</time></trkpt><trkpt lat="45.39591734609812" lon="9.850519413441091"><ele>78.0</ele><time>2026-04-23T15:43:20Z</time></trkpt><trkpt lat="45.39602821324763" lon="9.85051712020753"><ele>78.0</ele><time>2026-04-23T15:43:21Z</time></trkpt><trkpt lat="45.396100729246186" lon="9.850506394236762"><ele>78.0</ele><time>2026-04-23T15:43:22Z</time></trkpt><trkpt lat="45.39618640337728" lon="9.850480977706765"><ele>78.0</ele><time>2026-04-23T15:43:23Z</time></trkpt><trkpt lat="45.396282876399646" lon="9.850486036651162"><ele>78.0</ele><time>2026-04-23T15:43:24Z</time></trkpt><trkpt lat="45.39638663889753" lon="9.85047900406063"><ele>78.0</ele><time>2026-04-23T15:43:25Z</time></trkpt><trkpt lat="45.396498055103415" lon="9.850460143572004"><ele>78.0</ele><time>2026-04-23T15:43:26Z</time></trkpt><trkpt lat="45.39661158830838" lon="9.850412996521117"><ele>78.0</ele><time>2026-04-23T15:43:27Z</time></trkpt><trkpt lat="45.39672733096494" lon="9.850349176982231"><ele>78.0</ele><time>2026-04-23T15:43:28Z</time></trkpt><trkpt lat="45.39685255724176" lon="9.850294605613415"><ele>78.0</ele><time>2026-04-23T15:43:29Z</time></trkpt><trkpt lat="45.39698735626696" lon="9.850262706480207"><ele>78.0</ele><time>2026-04-23T15:43:30Z</time></trkpt><trkpt lat="45.39713087835576" lon="9.850244085146489"><ele>78.0</ele><time>2026-04-23T15:43:31Z</time></trkpt><trkpt lat="45.39728107114536" lon="9.850227731311376"><ele>77.66666666666667</ele><time>2026-04-23T15:43:32Z</time></trkpt><trkpt lat="45.39743789143351" lon="9.850217665629732"><ele>77.33333333333334</ele><time>2026-04-23T15:43:33Z</time></trkpt><trkpt lat="45.3975968742656" lon="9.850200377351943"><ele>77.0</ele><time>2026-04-23T15:43:34Z</time></trkpt><trkpt lat="45.3977500207787" lon="9.850171515102605"><ele>77.0</ele><time>2026-04-23T15:43:35Z</time></trkpt><trkpt lat="45.397890008603525" lon="9.850138033573486"><ele>77.0</ele><time>2026-04-23T15:43:36Z</time></trkpt><trkpt lat="45.39804109175161" lon="9.850106308443877"><ele>77.0</ele><time>2026-04-23T15:43:37Z</time></trkpt><trkpt lat="45.39822084235968" lon="9.850100539620106"><ele>77.0</ele><time>2026-04-23T15:43:38Z</time></trkpt><trkpt lat="45.39841411877748" lon="9.85009592437881"><ele>77.0</ele><time>2026-04-23T15:43:39Z</time></trkpt><trkpt lat="45.398606813046605" lon="9.850069411534156"><ele>77.0</ele><time>2026-04-23T15:43:40Z</time></trkpt><trkpt lat="45.398769707183966" lon="9.850030964146722"><ele>77.25</ele><time>2026-04-23T15:43:41Z</time></trkpt><trkpt lat="45.39891397233138" lon="9.849992216637053"><ele>77.5</ele><time>2026-04-23T15:43:42Z</time></trkpt><trkpt lat="45.39904296706421" lon="9.849958150196262"><ele>77.75</ele><time>2026-04-23T15:43:43Z</time></trkpt><trkpt lat="45.39916815751278" lon="9.849939458573544"><ele>78.0</ele><time>2026-04-23T15:43:44Z</time></trkpt><trkpt lat="45.399286348730755" lon="9.84994797431804"><ele>78.0</ele><time>2026-04-23T15:43:45Z</time></trkpt><trkpt lat="45.39940048531062" lon="9.849975339899462"><ele>78.0</ele><time>2026-04-23T15:43:46Z</time></trkpt><trkpt lat="45.39951044942182" lon="9.85000336885757"><ele>78.0</ele><time>2026-04-23T15:43:47Z</time></trkpt><trkpt lat="45.39961616429903" lon="9.850028232621494"><ele>78.0</ele><time>2026-04-23T15:43:48Z</time></trkpt><trkpt lat="45.3997116238327" lon="9.850045766120697"><ele>78.0</ele><time>2026-04-23T15:43:49Z</time></trkpt><trkpt lat="45.39980160830431" lon="9.85005548785322"><ele>78.16666666666667</ele><time>2026-04-23T15:43:50Z</time></trkpt><trkpt lat="45.39989325866487" lon="9.850056905909474"><ele>78.33333333333333</ele><time>2026-04-23T15:43:51Z</time></trkpt><trkpt lat="45.39997361411087" lon="9.850046122870376"><ele>78.5</ele><time>2026-04-23T15:43:52Z</time></trkpt><trkpt lat="45.40004124115304" lon="9.85002255562366"><ele>78.66666666666666</ele><time>2026-04-23T15:43:53Z</time></trkpt><trkpt lat="45.40010331933166" lon="9.849975446817899"><ele>78.83333333333333</ele><time>2026-04-23T15:43:54Z</time></trkpt><trkpt lat="45.400157000915414" lon="9.84989846691495"><ele>79.0</ele><time>2026-04-23T15:43:55Z</time></trkpt><trkpt lat="45.40020125597559" lon="9.849784213988658"><ele>79.0</ele><time>2026-04-23T15:43:56Z</time></trkpt><trkpt lat="45.400230580919875" lon="9.849648000212657"><ele>79.0</ele><time>2026-04-23T15:43:57Z</time></trkpt><trkpt lat="45.400258537367364" lon="9.849494962226983"><ele>79.0</ele><time>2026-04-23T15:43:58Z</time></trkpt><trkpt lat="45.4003015907642" lon="9.849330378840241"><ele>79.0</ele><time>2026-04-23T15:43:59Z</time></trkpt><trkpt lat="45.40035444420883" lon="9.849163732525795"><ele>79.0</ele><time>2026-04-23T15:44:00Z</time></trkpt><trkpt lat="45.40041292503181" lon="9.848993039548377"><ele>79.0</ele><time>2026-04-23T15:44:01Z</time></trkpt><trkpt lat="45.400474889447665" lon="9.848816181541784"><ele>79.0</ele><time>2026-04-23T15:44:02Z</time></trkpt><trkpt lat="45.40053466369751" lon="9.848632439864522"><ele>79.0</ele><time>2026-04-23T15:44:03Z</time></trkpt><trkpt lat="45.40059867408389" lon="9.848446028980069"><ele>79.0</ele><time>2026-04-23T15:44:04Z</time></trkpt><trkpt lat="45.40066128723382" lon="9.848269911989592"><ele>79.0</ele><time>2026-04-23T15:44:05Z</time></trkpt><trkpt lat="45.40071807693301" lon="9.84810144656168"><ele>79.0</ele><time>2026-04-23T15:44:06Z</time></trkpt><trkpt lat="45.40077602467717" lon="9.847932206087789"><ele>79.0</ele><time>2026-04-23T15:44:07Z</time></trkpt><trkpt lat="45.40084149323069" lon="9.847755193360364"><ele>79.0</ele><time>2026-04-23T15:44:08Z</time></trkpt><trkpt lat="45.40090320883495" lon="9.847572850995922"><ele>79.0</ele><time>2026-04-23T15:44:09Z</time></trkpt><trkpt lat="45.40096254070996" lon="9.847392539140836"><ele>79.0</ele><time>2026-04-23T15:44:10Z</time></trkpt><trkpt lat="45.401022993442226" lon="9.84721926661826"><ele>79.0</ele><time>2026-04-23T15:44:11Z</time></trkpt><trkpt lat="45.4010853046783" lon="9.847045192033416"><ele>79.0</ele><time>2026-04-23T15:44:12Z</time></trkpt><trkpt lat="45.40114723981409" lon="9.846861937655259"><ele>79.0</ele><time>2026-04-23T15:44:13Z</time></trkpt><trkpt lat="45.40120390196721" lon="9.846677645587826"><ele>79.0</ele><time>2026-04-23T15:44:14Z</time></trkpt><trkpt lat="45.40126331908758" lon="9.846495808268324"><ele>79.0</ele><time>2026-04-23T15:44:14.999Z</time></trkpt><trkpt lat="45.40132804742965" lon="9.846326336656196"><ele>79.0</ele><time>2026-04-23T15:44:15.999Z</time></trkpt><trkpt lat="45.401391173982226" lon="9.846160788696443"><ele>79.0</ele><time>2026-04-23T15:44:16.999Z</time></trkpt><trkpt lat="45.40145291888961" lon="9.845987505226443"><ele>79.0</ele><time>2026-04-23T15:44:17.999Z</time></trkpt><trkpt lat="45.40151147293097" lon="9.845813771854633"><ele>79.0</ele><time>2026-04-23T15:44:18.999Z</time></trkpt><trkpt lat="45.40157182158985" lon="9.845643020936615"><ele>78.75</ele><time>2026-04-23T15:44:19.999Z</time></trkpt><trkpt lat="45.40163031275028" lon="9.845469592707483"><ele>78.5</ele><time>2026-04-23T15:44:20.999Z</time></trkpt><trkpt lat="45.401688144309176" lon="9.845296519249175"><ele>78.25</ele><time>2026-04-23T15:44:21.999Z</time></trkpt><trkpt lat="45.40174919483359" lon="9.845122438870652"><ele>78.0</ele><time>2026-04-23T15:44:22.999Z</time></trkpt><trkpt lat="45.40180950419833" lon="9.844949589371538"><ele>77.75</ele><time>2026-04-23T15:44:23.999Z</time></trkpt><trkpt lat="45.401867837324794" lon="9.844781676518172"><ele>77.5</ele><time>2026-04-23T15:44:24.999Z</time></trkpt><trkpt lat="45.401923734095625" lon="9.844614286063628"><ele>77.25</ele><time>2026-04-23T15:44:25.999Z</time></trkpt><trkpt lat="45.40198197226399" lon="9.844446896696653"><ele>77.0</ele><time>2026-04-23T15:44:26.999Z</time></trkpt><trkpt lat="45.40204145404109" lon="9.84426681816246"><ele>77.75</ele><time>2026-04-23T15:44:27.999Z</time></trkpt><trkpt lat="45.40210166724677" lon="9.844079875001642"><ele>78.5</ele><time>2026-04-23T15:44:28.999Z</time></trkpt><trkpt lat="45.40216386583418" lon="9.84390067463552"><ele>79.25</ele><time>2026-04-23T15:44:29.999Z</time></trkpt><trkpt lat="45.402217780944255" lon="9.843753490521804"><ele>80.0</ele><time>2026-04-23T15:44:30.999Z</time></trkpt><trkpt lat="45.40226020271616" lon="9.843628841829497"><ele>80.0</ele><time>2026-04-23T15:44:31.999Z</time></trkpt><trkpt lat="45.402295616464905" lon="9.84353264153724"><ele>80.0</ele><time>2026-04-23T15:44:32.999Z</time></trkpt><trkpt lat="45.402308382808805" lon="9.843393395055589"><ele>80.0</ele><time>2026-04-23T15:44:35Z</time></trkpt><trkpt lat="45.40224506357075" lon="9.843388147382111"><ele>80.0</ele><time>2026-04-23T15:45:27Z</time></trkpt><trkpt lat="45.40221942201259" lon="9.84329684718716"><ele>80.0</ele><time>2026-04-23T15:46:35.999Z</time></trkpt><trkpt lat="45.40222822144492" lon="9.84320032197682"><ele>80.0</ele><time>2026-04-23T15:46:47Z</time></trkpt><trkpt lat="45.40216995569393" lon="9.843253196149012"><ele>80.0</ele><time>2026-04-23T15:48:17Z</time></trkpt><trkpt lat="45.402085882391994" lon="9.843305515083486"><ele>80.0</ele><time>2026-04-23T15:49:05Z</time></trkpt></trkseg></trk></gpx>